# Wetter Temperatur Luftdruck Luftfeuchtigkeit Sichtweite Windgeschwindigkeit Windrichtung Zeit
1 Rain 24 1012 94 10000 1 0 22:28 24.01.2020
2 Rain 24 1012 94 8000 2.1 100 21:58 24.01.2020
3 Rain 24 1012 94 8000 2.1 100 21:40 24.01.2020
4 Rain 24 1012 94 8000 2.1 100 21:18 24.01.2020
5 Clouds 24 1012 94 10000 1 0 20:43 24.01.2020
6 Clouds 24 1012 94 10000 1 0 20:22 24.01.2020
7 Clouds 24 1013 94 10000 1 0 19:58 24.01.2020
8 Clouds 24 1013 94 10000 1 0 19:40 24.01.2020
9 Clouds 24 1013 94 10000 1 0 19:21 24.01.2020
10 Rain 25 1013 88 10000 1 0 18:54 24.01.2020
11 Rain 25 1013 88 10000 1 0 18:36 24.01.2020
12 Rain 25 1013 88 10000 1 0 18:18 24.01.2020
13 Rain 25 1014 88 9000 1 0 17:42 24.01.2020
14 Rain 25 1014 88 9000 1 0 17:21 24.01.2020
15 Rain 25 1014 88 9000 1 0 16:43 24.01.2020
16 Rain 26 1014 88 9000 1 0 16:22 24.01.2020
17 -273 0 0 0 0 0 16:22 24.01.2020
18 Clouds 26 1014 88 10000 1.5 180 15:56 24.01.2020
19 Clouds 26 1014 88 10000 1.5 180 15:38 24.01.2020
20 Clouds 26 1014 88 10000 1.5 180 15:19 24.01.2020
21 Clouds 26 1014 83 10000 1 0 14:41 24.01.2020
22 Clouds 26 1014 83 10000 1 0 14:23 24.01.2020
23 Clouds 26 1014 83 10000 1 0 14:23 24.01.2020
24 Clouds 26 1013 83 10000 1.5 0 13:45 24.01.2020
25 Clouds 26 1013 83 10000 1.5 0 13:24 24.01.2020
26 Clouds 26 1013 83 10000 1.5 330 12:55 24.01.2020
27 Clouds 26 1013 83 10000 1.5 330 12:37 24.01.2020
28 Clouds 26 1013 83 10000 1.5 330 12:18 24.01.2020
29 Clouds 26 1013 83 10000 1.5 330 12:18 24.01.2020
30 Clouds 26 1012 88 8000 3.1 310 11:42 24.01.2020
31 Clouds 26 1012 88 8000 3.1 310 11:19 24.01.2020
32 Rain 26 1012 88 5000 2.1 70 10:43 24.01.2020
33 Rain 26 1012 88 5000 2.1 70 10:22 24.01.2020
34 Rain 26 1012 88 5000 2.1 270 09:56 24.01.2020
35 Rain 26 1012 88 5000 2.1 270 09:38 24.01.2020
36 Rain 26 1012 88 5000 2.1 270 09:38 24.01.2020
37 Rain 26 1012 88 5000 2.1 270 09:20 24.01.2020
38 Rain 26 1012 78 6000 3.1 310 08:40 24.01.2020
39 Rain 26 1012 78 6000 3.1 310 08:19 24.01.2020
40 Clouds 27 1013 83 6000 3.1 0 07:50 24.01.2020
41 Clouds 27 1013 83 6000 3.1 0 07:28 24.01.2020
42 Clouds 26 1013 88 6000 3.6 280 06:48 24.01.2020
43 Clouds 26 1013 88 6000 3.6 280 06:28 24.01.2020
44 Rain 26 1015 88 4000 1.5 260 05:57 24.01.2020
45 Clouds 26 1015 83 8000 2.6 320 04:52 24.01.2020
46 Clouds 28 1015 69 10000 1 0 02:53 24.01.2020
47 Clouds 28 1015 69 10000 1 0 02:23 24.01.2020
48 Clouds 26 1015 78 10000 1 0 01:40 24.01.2020
49 Clouds 26 1015 78 10000 1 0 01:19 24.01.2020
50 Clouds 25 1014 74 10000 1 0 00:19 24.01.2020
51 Clouds 25 1014 74 10000 0.82 9 23:45 23.01.2020
52 Clouds 25 1014 74 10000 0.82 9 23:45 23.01.2020
53 Clouds 25 1014 74 10000 0.82 9 23:27 23.01.2020
54 Clouds 25 1013 74 10000 1 0 22:59 23.01.2020
55 Clouds 25 1013 74 10000 1 0 22:37 23.01.2020
56 Clouds 25 1013 74 10000 1 0 22:19 23.01.2020
57 Clouds 25 1013 74 10000 1 0 21:56 23.01.2020
58 Clouds 25 1013 74 10000 1 0 21:38 23.01.2020
59 Clouds 25 1013 74 10000 1 0 21:19 23.01.2020
60 Clouds 25 1013 78 10000 2.1 280 20:56 23.01.2020
61 Clouds 25 1013 78 10000 2.1 280 20:37 23.01.2020
62 Clouds 25 1013 78 10000 2.1 280 20:37 23.01.2020
63 Clouds 25 1013 78 10000 2.1 280 20:18 23.01.2020
64 Clouds 25 1014 78 10000 1 310 19:44 23.01.2020
65 Clouds 25 1014 78 10000 1 310 19:24 23.01.2020
66 Clouds 25 1014 78 10000 2.1 50 18:58 23.01.2020
67 Clouds 25 1014 78 10000 2.1 50 18:39 23.01.2020
68 Clouds 25 1014 78 10000 2.1 50 18:20 23.01.2020
69 Clouds 25 1015 78 10000 2.1 110 17:56 23.01.2020
70 Clouds 25 1015 78 10000 2.1 110 17:38 23.01.2020
71 Clouds 25 1015 78 10000 2.1 110 17:18 23.01.2020
72 Clouds 26 1015 74 10000 3.1 130 16:39 23.01.2020
73 Clouds 26 1015 74 10000 3.1 130 16:20 23.01.2020
74 Clouds 26 1015 65 10000 1 0 15:58 23.01.2020
75 Clouds 26 1015 65 10000 1 0 15:40 23.01.2020
76 Clouds 26 1015 65 10000 1 0 15:19 23.01.2020
77 Clouds 27 1015 61 10000 3.1 60 14:59 23.01.2020
78 Clouds 26 1015 61 10000 3.1 60 14:41 23.01.2020
79 Clouds 27 1015 61 10000 3.1 60 14:22 23.01.2020
80 Clouds 27 1015 61 10000 2.6 80 13:56 23.01.2020
81 Clouds 27 1015 61 10000 2.6 80 13:37 23.01.2020
82 Clouds 27 1015 61 10000 2.6 80 13:18 23.01.2020
83 Clouds 27 1014 61 10000 2.6 100 12:43 23.01.2020
84 Clouds 27 1014 61 10000 2.6 100 12:24 23.01.2020
85 Clouds 27 1014 58 10000 3.6 110 11:56 23.01.2020
86 Clouds 27 1014 58 10000 3.6 110 11:37 23.01.2020
87 Clouds 27 1014 58 10000 3.6 110 11:37 23.01.2020
88 Clouds 28 1014 58 10000 3.6 110 11:18 23.01.2020
89 Clouds 28 1014 58 10000 3.6 110 11:18 23.01.2020
90 Clouds 28 1013 54 10000 4.6 90 10:42 23.01.2020
91 Clouds 29 1013 54 10000 4.6 90 10:19 23.01.2020
92 Clouds 30 1013 48 10000 4.1 130 09:42 23.01.2020
93 Clouds 30 1013 48 10000 4.1 130 09:24 23.01.2020
94 Clouds 30 1013 45 10000 5.1 140 08:58 23.01.2020
95 Clouds 30 1013 45 10000 5.1 140 08:58 23.01.2020
96 Clouds 31 1013 45 10000 5.1 140 08:40 23.01.2020
97 Clouds 31 1013 45 10000 5.1 140 08:21 23.01.2020
98 Clouds 31 1013 43 10000 5.1 130 07:44 23.01.2020
99 Clouds 31 1013 43 10000 5.1 130 07:24 23.01.2020
100 Clouds 31 1014 45 10000 5.7 130 06:51 23.01.2020
101 Clouds 31 1014 45 10000 5.7 130 06:51 23.01.2020
102 Clouds 31 1014 45 10000 5.7 130 06:20 23.01.2020
103 Clouds 31 1016 48 10000 5.1 110 04:58 23.01.2020
104 Clouds 30 1016 48 10000 5.1 110 04:22 23.01.2020
105 Clouds 29 1016 61 10000 5.1 100 02:31 23.01.2020
106 Clouds 25 1015 78 9000 3.1 70 00:56 23.01.2020
107 Clouds 25 1015 78 9000 3.1 70 00:26 23.01.2020
108 Clouds 25 1015 78 10000 3.6 70 23:47 22.01.2020
109 Clouds 25 1015 78 10000 3.6 70 23:29 22.01.2020
110 Clouds 25 1014 74 10000 3.1 100 22:56 22.01.2020
111 Clouds 25 1014 74 10000 3.1 100 22:38 22.01.2020
112 Clouds 25 1014 74 10000 3.1 100 22:20 22.01.2020
113 Clouds 24 1014 78 10000 1.5 120 21:39 22.01.2020
114 Clouds 24 1014 78 10000 1.5 120 21:21 22.01.2020
115 Clouds 24 1014 78 10000 1 0 20:56 22.01.2020
116 Clouds 24 1014 78 10000 1 0 20:36 22.01.2020
117 Clouds 24 1014 78 10000 1 0 20:18 22.01.2020
118 Clouds 24 1015 83 10000 3.1 70 19:55 22.01.2020
119 Clouds 24 1015 83 10000 3.1 70 19:37 22.01.2020
120 Clouds 24 1015 83 10000 3.1 70 19:18 22.01.2020
121 Clouds 24 1016 83 10000 2.6 70 18:55 22.01.2020
122 Clouds 24 1016 83 10000 2.6 70 18:36 22.01.2020
123 Clouds 24 1016 83 10000 2.6 70 18:18 22.01.2020
124 Clouds 24 1016 83 10000 2.6 70 18:18 22.01.2020
125 Clouds 25 1016 78 10000 2.6 100 17:40 22.01.2020
126 Clouds 25 1016 78 10000 2.6 100 17:21 22.01.2020
127 Clouds 25 1017 73 10000 1.5 90 16:57 22.01.2020
128 Clouds 25 1017 73 10000 1.5 90 16:39 22.01.2020
129 Clouds 25 1017 73 10000 1.5 90 16:20 22.01.2020
130 Clouds 25 1017 65 10000 1.5 100 15:55 22.01.2020
131 Clouds 26 1017 65 10000 1.5 100 15:37 22.01.2020
132 Clouds 26 1017 65 10000 1.5 100 15:18 22.01.2020
133 Clouds 26 1017 69 10000 1.5 110 14:39 22.01.2020
134 Clouds 26 1017 69 10000 1.5 110 14:20 22.01.2020
135 Clouds 26 1016 69 10000 3.1 70 13:57 22.01.2020
136 Clouds 26 1016 69 10000 3.1 70 13:37 22.01.2020
137 Clouds 26 1016 69 10000 3.1 70 13:19 22.01.2020
138 Clouds 26 1015 61 10000 3.1 90 12:57 22.01.2020
139 Clouds 27 1015 61 10000 3.1 90 12:38 22.01.2020
140 Clouds 27 1015 61 10000 3.1 90 12:19 22.01.2020
141 Clouds 27 1015 54 10000 3.6 100 11:56 22.01.2020
142 Clouds 28 1015 54 10000 3.6 100 11:38 22.01.2020
143 Clouds 28 1015 54 10000 3.6 100 11:19 22.01.2020
144 Clouds 28 1015 54 10000 3.6 100 11:19 22.01.2020
145 Clouds 29 1014 48 10000 4.6 110 10:45 22.01.2020
146 Clouds 30 1014 48 10000 4.6 110 10:21 22.01.2020
147 Clouds 29 1014 48 10000 6.2 90 09:58 22.01.2020
148 Clouds 29 1014 48 10000 6.2 90 09:40 22.01.2020
149 Clouds 30 1014 48 10000 6.2 90 09:21 22.01.2020
150 Clouds 30 1014 48 10000 6.2 100 08:55 22.01.2020
151 Clouds 31 1014 48 10000 6.2 100 08:36 22.01.2020
152 Clouds 31 1014 48 10000 6.2 100 08:18 22.01.2020
153 Clouds 31 1015 48 10000 6.2 100 07:42 22.01.2020
154 Clouds 31 1015 48 10000 6.2 100 07:23 22.01.2020
155 Clouds 31 1016 45 10000 6.7 90 06:34 22.01.2020
156 Clouds 31 1017 51 10000 5.7 110 05:45 22.01.2020
157 Clouds 30 1018 51 10000 5.7 110 04:25 22.01.2020
158 Clouds 30 1018 51 10000 5.7 110 03:26 22.01.2020
159 Clouds 29 1018 51 10000 5.7 70 02:39 22.01.2020
160 Clouds 24 1017 78 9000 2.6 70 00:47 22.01.2020
161 Clouds 24 1017 78 9000 2.6 70 00:47 22.01.2020
162 Clouds 24 1017 78 9000 2.6 70 00:27 22.01.2020
163 Clouds 24 1016 69 10000 2.6 80 23:55 21.01.2020
164 Clouds 23 1016 69 10000 2.6 80 23:37 21.01.2020
165 Clouds 23 1016 69 10000 2.6 80 23:18 21.01.2020
166 Clouds 23 1016 73 10000 3.1 50 22:40 21.01.2020
167 Clouds 23 1016 73 10000 3.1 50 22:21 21.01.2020
168 Clouds 24 1016 78 10000 3.1 80 21:57 21.01.2020
169 Clouds 24 1016 78 10000 3.1 80 21:38 21.01.2020
170 Clouds 24 1016 78 10000 3.1 80 21:20 21.01.2020
171 Clouds 24 1016 78 10000 2.1 90 20:56 21.01.2020
172 Clouds 24 1016 78 10000 2.1 90 20:37 21.01.2020
173 Clouds 24 1016 78 10000 2.1 90 20:19 21.01.2020
174 Clouds 24 1017 78 10000 3.1 80 19:56 21.01.2020
175 Clouds 24 1017 78 10000 3.1 80 19:37 21.01.2020
176 Clouds 24 1017 78 10000 3.1 80 19:19 21.01.2020
177 Clouds 24 1017 73 10000 3.1 110 18:55 21.01.2020
178 Clouds 24 1017 73 10000 3.1 110 18:37 21.01.2020
179 Clouds 25 1017 73 10000 3.1 110 18:18 21.01.2020
180 Clouds 25 1018 65 10000 3.1 110 17:44 21.01.2020
181 Clouds 25 1018 65 10000 3.1 110 17:20 21.01.2020
182 Clouds 25 1018 65 10000 3.6 110 16:59 21.01.2020
183 Clouds 25 1018 65 10000 3.6 110 16:37 21.01.2020
184 Clouds 26 1018 65 10000 3.6 110 16:18 21.01.2020
185 Clouds 26 1019 65 10000 3.6 120 15:42 21.01.2020
186 Clouds 26 1019 65 10000 3.6 120 15:21 21.01.2020
187 Clouds 26 1019 65 10000 3.1 110 14:59 21.01.2020
188 Clouds 26 1019 65 10000 3.1 110 14:37 21.01.2020
189 Clouds 26 1019 65 10000 3.1 110 14:19 21.01.2020
190 Clouds 26 1018 65 10000 2.6 110 13:40 21.01.2020
191 Clouds 26 1018 65 10000 2.6 110 13:19 21.01.2020
192 Clouds 26 1017 57 10000 3.6 100 12:43 21.01.2020
193 Clouds 27 1017 57 10000 3.6 100 12:25 21.01.2020
194 Clouds 27 1017 54 10000 3.6 100 11:57 21.01.2020
195 Clouds 27 1017 54 10000 3.6 100 11:38 21.01.2020
196 Clouds 27 1017 54 10000 3.6 100 11:20 21.01.2020
197 Clouds 28 1016 54 10000 5.7 110 10:44 21.01.2020
198 Clouds 28 1016 54 10000 5.7 110 10:24 21.01.2020
199 Clouds 29 1016 51 10000 6.2 100 09:59 21.01.2020
200 Clouds 29 1016 51 10000 6.2 100 09:41 21.01.2020
201 Clouds 29 1016 51 10000 6.2 100 09:22 21.01.2020
202 Clouds 30 1016 48 10000 7.2 100 08:48 21.01.2020
203 Clouds 30 1016 48 10000 7.2 100 08:29 21.01.2020
204 Clouds 30 1016 55 10000 6.7 110 07:57 21.01.2020
205 Clouds 31 1016 55 10000 6.7 110 07:38 21.01.2020
206 Clouds 31 1016 55 10000 6.7 110 07:20 21.01.2020
207 Clouds 30 1017 48 10000 6.2 100 06:45 21.01.2020
208 Clouds 30 1017 48 10000 6.2 100 06:23 21.01.2020
209 Clouds 30 1018 55 10000 5.7 110 05:41 21.01.2020
210 Clouds 30 1018 55 10000 6.2 100 04:39 21.01.2020
211 Clouds 27 1018 69 10000 4.6 110 02:55 21.01.2020
212 Clouds 26 1018 74 9000 2.1 70 01:47 21.01.2020
213 Clouds 25 1017 83 9000 1 0 00:54 21.01.2020
214 Clouds 24 1017 83 9000 1 0 00:32 21.01.2020
215 Clouds 24 1016 78 10000 1.5 90 23:57 20.01.2020
216 Clouds 24 1016 78 10000 1.5 90 23:37 20.01.2020
217 Clouds 24 1016 78 10000 1.5 90 23:18 20.01.2020
218 Clouds 23 1016 88 10000 2.6 70 22:56 20.01.2020
219 Clouds 23 1016 88 10000 2.6 70 22:36 20.01.2020
220 Clouds 24 1016 88 10000 2.6 70 22:18 20.01.2020
221 Clouds 25 1015 78 10000 2.6 90 21:55 20.01.2020
222 Clouds 25 1015 78 10000 2.6 90 21:36 20.01.2020
223 Clouds 25 1015 78 10000 2.6 90 21:18 20.01.2020
224 Clouds 25 1015 78 10000 2.1 90 20:54 20.01.2020
225 Clouds 25 1015 78 10000 2.1 90 20:36 20.01.2020
226 Clouds 25 1015 78 10000 2.1 90 20:18 20.01.2020
227 Clouds 25 1015 78 10000 2.1 90 20:18 20.01.2020
228 Clouds 25 1016 78 10000 1.5 90 19:54 20.01.2020
229 Clouds 25 1016 78 10000 1.5 90 19:36 20.01.2020
230 Clouds 25 1016 78 10000 1.5 90 19:18 20.01.2020
231 Clouds 25 1016 78 10000 3.1 110 18:42 20.01.2020
232 Clouds 25 1016 78 10000 3.1 110 18:21 20.01.2020
233 Clouds 26 1017 78 10000 2.6 110 17:39 20.01.2020
234 Clouds 26 1017 78 10000 2.6 110 17:19 20.01.2020
235 Clouds 26 1017 78 10000 2.6 120 16:47 20.01.2020
236 Clouds 26 1017 78 10000 2.6 120 16:26 20.01.2020
237 Clouds 26 1017 74 10000 3.6 120 15:59 20.01.2020
238 Clouds 26 1017 74 10000 3.6 120 15:40 20.01.2020
239 Clouds 26 1017 74 10000 3.6 120 15:22 20.01.2020
240 Clouds 26 1017 74 10000 4.6 110 14:59 20.01.2020
241 Clouds 26 1017 74 10000 4.6 110 14:40 20.01.2020
242 Clouds 26 1017 74 10000 4.6 110 14:21 20.01.2020
243 Clouds 26 1016 69 10000 4.6 120 13:56 20.01.2020
244 Clouds 26 1016 69 10000 4.6 120 13:38 20.01.2020
245 Clouds 26 1016 69 10000 4.6 120 13:38 20.01.2020
246 Clouds 26 1016 69 10000 4.6 120 13:18 20.01.2020
247 Clouds 27 1015 69 10000 4.6 120 12:42 20.01.2020
248 Clouds 27 1015 69 10000 4.6 120 12:23 20.01.2020
249 Clouds 27 1015 74 10000 4.1 110 11:55 20.01.2020
250 Clouds 27 1015 74 10000 4.1 110 11:36 20.01.2020
251 Clouds 27 1015 74 10000 4.1 110 11:18 20.01.2020
252 Clouds 27 1014 65 10000 6.2 110 10:41 20.01.2020
253 Clouds 28 1014 65 10000 6.2 110 10:20 20.01.2020
254 Clouds 29 1014 62 10000 6.7 110 09:42 20.01.2020
255 Clouds 29 1014 62 10000 6.7 110 09:24 20.01.2020
256 Clouds 29 1014 66 10000 5.1 120 08:55 20.01.2020
257 Clouds 29 1014 66 10000 5.1 120 08:34 20.01.2020
258 Clouds 30 1014 58 10000 4.1 0 07:56 20.01.2020
259 Clouds 30 1014 58 10000 4.1 0 07:38 20.01.2020
260 Clouds 30 1014 58 10000 4.1 0 07:19 20.01.2020
261 Clouds 29 1015 62 10000 3.6 120 06:40 20.01.2020
262 Clouds 29 1015 62 10000 3.6 120 06:20 20.01.2020
263 Clouds 29 1016 62 10000 5.1 110 05:38 20.01.2020
264 Clouds 29 1016 62 10000 5.1 110 05:19 20.01.2020
265 Clouds 28 1017 69 10000 3.6 90 03:55 20.01.2020
266 Clouds 27 1016 69 10000 1 0 01:58 20.01.2020
267 Clouds 27 1016 69 10000 1 0 01:39 20.01.2020
268 Clouds 25 1015 83 10000 4.37 78 00:56 20.01.2020
269 Clouds 24 1015 83 10000 4.37 78 00:37 20.01.2020
270 Clouds 24 1015 83 10000 4.37 78 00:19 20.01.2020
271 Clouds 24 1015 83 10000 0.5 0 23:37 19.01.2020
272 Clouds 24 1015 83 10000 0.5 0 23:18 19.01.2020
273 Clouds 24 1014 83 10000 1 0 22:55 19.01.2020
274 Clouds 24 1014 83 10000 1 0 22:37 19.01.2020
275 Clouds 24 1014 83 10000 1 0 22:18 19.01.2020
276 Clouds 24 1014 78 10000 4.04 85 21:56 19.01.2020
277 Clouds 24 1014 78 10000 4.04 85 21:37 19.01.2020
278 Clouds 24 1014 78 10000 4.04 85 21:19 19.01.2020
279 Clouds 24 1014 78 10000 4.04 85 21:19 19.01.2020
280 Clouds 24 1014 83 10000 0.5 50 20:55 19.01.2020
281 Clouds 24 1014 83 10000 0.5 50 20:55 19.01.2020
282 Clouds 24 1014 83 10000 0.5 50 20:37 19.01.2020
283 Clouds 24 1014 83 10000 0.5 50 20:37 19.01.2020
284 Clouds 24 1014 83 10000 0.5 50 20:18 19.01.2020
285 Clouds 25 1014 78 10000 1 100 19:54 19.01.2020
286 Clouds 25 1014 78 10000 1 100 19:36 19.01.2020
287 Clouds 25 1014 78 10000 1 100 19:18 19.01.2020
288 Clouds 25 1014 78 10000 1 100 18:54 19.01.2020
289 Clouds 25 1014 78 10000 1 100 18:36 19.01.2020
290 Clouds 25 1014 78 10000 1 100 18:18 19.01.2020
291 Clouds 25 1015 78 10000 1.5 140 17:56 19.01.2020
292 Clouds 25 1015 78 10000 1.5 140 17:38 19.01.2020
293 Clouds 26 1015 78 10000 1.5 140 17:18 19.01.2020
294 Clouds 26 1015 78 10000 1.5 130 16:55 19.01.2020
295 Clouds 26 1015 78 10000 1.5 130 16:36 19.01.2020
296 Clouds 26 1015 78 10000 1.5 130 16:18 19.01.2020
297 Clouds 26 1015 74 10000 2.6 120 15:41 19.01.2020
298 Clouds 26 1015 74 10000 2.6 120 15:22 19.01.2020
299 Clouds 26 1015 74 10000 3.1 120 14:59 19.01.2020
300 Clouds 26 1015 74 10000 3.1 120 14:40 19.01.2020
301 Clouds 26 1015 74 10000 3.1 120 14:19 19.01.2020
302 Clouds 27 1015 74 10000 3.1 120 13:58 19.01.2020
303 Clouds 27 1015 74 10000 3.1 120 13:39 19.01.2020
304 Clouds 27 1015 74 10000 3.1 120 13:21 19.01.2020
305 Clouds 27 1014 74 10000 2.6 130 12:58 19.01.2020
306 Clouds 27 1014 74 10000 2.6 130 12:58 19.01.2020
307 Clouds 27 1014 74 10000 2.6 130 12:40 19.01.2020
308 Clouds 27 1014 74 10000 2.6 130 12:40 19.01.2020
309 Clouds 27 1014 74 10000 2.6 130 12:21 19.01.2020
310 Clouds 27 1014 69 10000 2.1 0 11:56 19.01.2020
311 Clouds 28 1014 69 10000 2.1 0 11:37 19.01.2020
312 Clouds 28 1014 69 10000 2.1 0 11:18 19.01.2020
313 Clouds 28 1013 66 10000 3.1 120 10:39 19.01.2020
314 Clouds 29 1013 66 10000 3.1 120 10:20 19.01.2020
315 Clouds 29 1012 66 10000 3.6 120 09:57 19.01.2020
316 Clouds 29 1012 66 10000 3.6 120 09:57 19.01.2020
317 Clouds 29 1012 66 10000 3.6 120 09:57 19.01.2020
318 Clouds 29 1012 66 10000 3.6 120 09:38 19.01.2020
319 Clouds 29 1012 66 10000 3.6 120 09:19 19.01.2020
320 Clouds 29 1012 66 10000 3.1 0 08:54 19.01.2020
321 Clouds 29 1012 66 10000 3.1 0 08:31 19.01.2020
322 Clouds 30 1013 66 10000 2.6 0 07:49 19.01.2020
323 Clouds 30 1013 66 10000 2.6 0 07:28 19.01.2020
324 Clouds 30 1014 62 10000 2.6 0 06:55 19.01.2020
325 Clouds 30 1014 62 10000 2.6 0 06:21 19.01.2020
326 Clouds 28 1015 69 10000 2.1 0 03:52 19.01.2020
327 Clouds 28 1015 69 10000 1.5 280 02:32 19.01.2020
328 Clouds 27 1015 74 10000 1.5 340 01:39 19.01.2020
329 Clouds 26 1015 74 10000 1.5 340 01:18 19.01.2020
330 Clouds 25 1014 78 9000 1.5 350 00:44 19.01.2020
331 Clouds 25 1013 78 10000 1.5 300 00:19 19.01.2020
332 Clouds 25 1013 78 10000 1.5 300 23:42 18.01.2020
333 Clouds 25 1013 78 10000 1.5 300 23:24 18.01.2020
334 Clouds 25 1012 78 10000 1 0 22:58 18.01.2020
335 Clouds 25 1012 78 10000 1 0 22:40 18.01.2020
336 Clouds 25 1012 78 10000 1 0 22:21 18.01.2020
337 Clouds 24 1012 83 10000 0.5 0 21:57 18.01.2020
338 Clouds 25 1012 83 10000 0.5 0 21:38 18.01.2020
339 Clouds 25 1012 83 10000 0.5 0 21:20 18.01.2020
340 Clouds 25 1012 83 10000 2.39 67 20:44 18.01.2020
341 Clouds 25 1012 83 10000 4.1 91 20:22 18.01.2020
342 Clouds 25 1012 83 10000 1 80 19:59 18.01.2020
343 Clouds 25 1012 83 10000 1 80 19:41 18.01.2020
344 Clouds 25 1012 83 10000 1 80 19:22 18.01.2020
345 Clouds 26 1013 78 10000 2.1 120 18:43 18.01.2020
346 Clouds 26 1013 78 10000 2.1 120 18:24 18.01.2020
347 Clouds 26 1013 78 10000 2.1 130 17:56 18.01.2020
348 Clouds 26 1013 78 10000 2.1 130 17:38 18.01.2020
349 Clouds 26 1013 78 10000 2.1 130 17:19 18.01.2020
350 Clouds 26 1013 74 10000 2.6 130 16:55 18.01.2020
351 Clouds 26 1013 74 10000 2.6 130 16:55 18.01.2020
352 Clouds 26 1013 74 10000 2.6 130 16:36 18.01.2020
353 Clouds 26 1013 74 10000 2.6 130 16:18 18.01.2020
354 Clouds 26 1013 74 10000 2.6 130 16:18 18.01.2020
355 Clouds 27 1013 74 10000 2.6 120 15:41 18.01.2020
356 Clouds 27 1013 74 10000 2.6 120 15:23 18.01.2020
357 Clouds 27 1013 74 10000 2.6 120 14:57 18.01.2020
358 Clouds 27 1013 74 10000 2.6 120 14:39 18.01.2020
359 Clouds 27 1013 74 10000 2.6 120 14:18 18.01.2020
360 Clouds 27 1013 78 10000 2.6 120 13:43 18.01.2020
361 Clouds 27 1013 78 10000 2.6 120 13:24 18.01.2020
362 Clouds 27 1012 74 10000 49.4 119 12:57 18.01.2020
363 Clouds 27 1012 74 10000 49.4 119 12:38 18.01.2020
364 Clouds 27 1012 74 10000 49.4 119 12:38 18.01.2020
365 Clouds 28 1012 74 10000 49.4 119 12:19 18.01.2020
366 Clouds 28 1011 70 10000 2.6 120 11:44 18.01.2020
367 Clouds 28 1011 70 10000 2.6 120 11:21 18.01.2020
368 Clouds 29 1011 66 10000 3.6 110 10:56 18.01.2020
369 Clouds 29 1011 66 10000 3.6 110 10:38 18.01.2020
370 Clouds 30 1011 66 10000 3.6 110 10:19 18.01.2020
371 Rain 30 1010 70 10000 3.1 140 09:43 18.01.2020
372 Rain 29 1010 70 10000 3.1 140 09:24 18.01.2020
373 Rain 29 1010 66 9000 1.5 0 08:55 18.01.2020
374 Rain 29 1010 66 9000 1.5 0 08:37 18.01.2020
375 Rain 30 1010 66 9000 1.5 0 08:18 18.01.2020
376 Rain 30 1010 66 9000 1.5 0 08:18 18.01.2020
377 Rain 30 1011 70 8000 2.1 0 07:44 18.01.2020
378 Rain 31 1011 70 8000 2.1 0 07:25 18.01.2020
379 Clouds 30 1012 74 7000 2.6 290 06:47 18.01.2020
380 Rain 30 1013 74 0 3.1 300 05:58 18.01.2020
381 Clouds 29 1013 74 9000 2.6 310 04:36 18.01.2020
382 Clouds 28 1014 78 9000 1.5 270 02:53 18.01.2020
383 Clouds 28 1014 78 9000 1.5 270 02:53 18.01.2020
384 Clouds 28 1014 78 10000 1.5 40 01:51 18.01.2020
385 Clouds 27 1014 78 10000 1.5 40 01:20 18.01.2020
386 Clouds 26 1013 83 10000 2.1 340 00:36 18.01.2020
387 Clouds 26 1013 83 10000 2.1 340 00:18 18.01.2020
388 Clouds 25 1012 83 10000 2.6 340 23:40 17.01.2020
389 Clouds 25 1012 83 10000 2.6 340 23:19 17.01.2020
390 Clouds 25 1012 83 10000 0.5 0 22:44 17.01.2020
391 Clouds 25 1012 83 10000 0.5 0 22:21 17.01.2020
392 Clouds 25 1011 83 10000 2.6 360 21:58 17.01.2020
393 Clouds 25 1011 83 10000 2.6 360 21:40 17.01.2020
394 Clouds 25 1011 83 10000 2.6 360 21:22 17.01.2020
395 Clouds 25 1011 83 10000 1.5 310 20:55 17.01.2020
396 Clouds 25 1011 83 10000 1.5 310 20:37 17.01.2020
397 Clouds 25 1011 83 10000 1.5 310 20:18 17.01.2020
398 Clouds 25 1011 83 10000 1.5 310 20:18 17.01.2020
399 Clouds 25 1012 83 10000 2.1 310 19:54 17.01.2020
400 Clouds 25 1012 83 10000 2.1 310 19:54 17.01.2020
401 Clouds 26 1012 83 10000 2.1 310 19:36 17.01.2020
402 Clouds 26 1012 83 10000 2.1 310 19:18 17.01.2020
403 Clouds 26 1013 78 10000 2.6 360 18:44 17.01.2020
404 Clouds 26 1013 78 10000 2.6 360 18:26 17.01.2020
405 Clouds 26 1013 78 10000 2.1 10 17:56 17.01.2020
406 Clouds 26 1013 78 10000 2.1 10 17:56 17.01.2020
407 Clouds 26 1013 78 10000 2.1 10 17:38 17.01.2020
408 Clouds 26 1013 78 10000 2.1 10 17:19 17.01.2020
409 Clouds 26 1013 83 10000 0.89 49 16:41 17.01.2020
410 Clouds 26 1013 83 10000 0.89 49 16:20 17.01.2020
411 Clouds 27 1013 83 10000 1.5 0 15:48 17.01.2020
412 Clouds 27 1013 83 10000 1.5 0 15:48 17.01.2020
413 Clouds 27 1013 83 10000 1.5 0 15:26 17.01.2020
414 Clouds 27 1013 78 10000 1.5 150 14:54 17.01.2020
415 Clouds 28 1013 78 10000 1.5 150 14:36 17.01.2020
416 Clouds 28 1013 78 10000 1.5 150 14:18 17.01.2020
417 Clouds 28 1013 78 10000 2.1 0 13:39 17.01.2020
418 Clouds 28 1013 78 10000 2.1 0 13:19 17.01.2020
419 Clouds 28 1012 78 10000 2.1 160 12:45 17.01.2020
420 Clouds 28 1012 78 10000 2.1 160 12:22 17.01.2020
421 Clouds 29 1011 74 10000 2.1 0 11:40 17.01.2020
422 Clouds 29 1011 74 10000 2.1 0 11:19 17.01.2020
423 Clouds 29 1011 70 10000 2.6 130 10:45 17.01.2020
424 Clouds 30 1011 70 10000 2.6 130 10:23 17.01.2020
425 Clouds 30 1010 66 10000 2.6 140 09:59 17.01.2020
426 Clouds 30 1010 66 10000 2.6 140 09:59 17.01.2020
427 Clouds 30 1010 66 10000 2.6 140 09:41 17.01.2020
428 Clouds 31 1010 66 10000 2.6 140 09:20 17.01.2020
429 Clouds 31 1010 66 10000 2.1 0 08:46 17.01.2020
430 Clouds 31 1010 66 10000 2.1 0 08:25 17.01.2020
431 Clouds 31 1011 70 9000 1.5 0 07:56 17.01.2020
432 Clouds 31 1011 70 9000 1.5 0 07:56 17.01.2020
433 Clouds 31 1011 70 9000 1.5 0 07:32 17.01.2020
434 Clouds 31 1012 70 9000 2.6 270 06:59 17.01.2020
435 Clouds 31 1012 70 9000 2.6 270 06:41 17.01.2020
436 Clouds 31 1013 66 9000 3.6 280 05:57 17.01.2020
437 Clear 30 1015 69 0 1.34 108 03:39 17.01.2020
438 Clear 30 1013 71 0 1.34 354 02:53 17.01.2020
439 Clear 28 1013 74 0 1.79 355 01:47 17.01.2020
440 Clear 27 1015 76 0 0.85 34 01:29 17.01.2020
441 Clear 25 1013 84 0 1.34 344 00:51 17.01.2020
442 Clouds 25 1012 74 10000 2.1 360 00:28 17.01.2020
443 Clouds 25 1012 74 10000 2.1 360 23:46 16.01.2020
444 Clouds 25 1012 74 10000 2.1 360 23:26 16.01.2020
445 Clouds 25 1012 74 10000 1 0 22:58 16.01.2020
446 Clouds 25 1012 74 10000 1 0 22:40 16.01.2020
447 Clouds 25 1012 74 10000 1 0 22:20 16.01.2020
448 Clouds 25 1011 74 10000 1.5 0 21:55 16.01.2020
449 Clouds 25 1011 74 10000 1.5 0 21:37 16.01.2020
450 Clouds 25 1011 74 10000 1.5 0 21:18 16.01.2020
451 Clouds 25 1011 74 10000 1.5 0 21:18 16.01.2020
452 Clouds 25 1011 78 10000 1.5 260 20:41 16.01.2020
453 Clouds 25 1011 78 10000 1.5 260 20:21 16.01.2020
454 Clouds 26 1012 78 10000 1 250 19:59 16.01.2020
455 Clouds 26 1012 78 10000 1 250 19:41 16.01.2020
456 Clouds 26 1012 78 10000 1 250 19:41 16.01.2020
457 Clouds 26 1012 78 10000 1 250 19:22 16.01.2020
458 Clouds 26 1012 78 10000 1 250 19:22 16.01.2020
459 Clouds 26 1012 74 10000 1.5 220 18:57 16.01.2020
460 Clouds 26 1012 74 10000 1.5 220 18:38 16.01.2020
461 Clouds 26 1012 74 10000 1.5 220 18:20 16.01.2020
462 Clouds 26 1012 74 10000 1 0 17:59 16.01.2020
463 Clouds 26 1012 74 10000 1 0 17:40 16.01.2020
464 Clouds 26 1012 74 10000 1 0 17:20 16.01.2020
465 Clouds 27 1013 69 10000 1 0 16:42 16.01.2020
466 Clouds 27 1013 69 10000 1 0 16:24 16.01.2020
467 Clouds 27 1013 69 0 2.1 130 15:59 16.01.2020
468 Clouds 27 1013 69 0 2.1 130 15:39 16.01.2020
469 Clouds 27 1013 69 0 2.1 130 15:39 16.01.2020
470 Clouds 27 1013 69 0 2.1 130 15:20 16.01.2020
471 Clouds 27 1013 65 10000 2.1 140 14:44 16.01.2020
472 Clouds 28 1013 65 10000 2.1 140 14:24 16.01.2020
473 Clouds 28 1013 65 10000 2.1 140 14:24 16.01.2020
474 Clouds 28 1012 65 10000 2.1 120 13:56 16.01.2020
475 Clouds 28 1012 65 10000 2.1 120 13:37 16.01.2020
476 Clouds 28 1012 65 10000 2.1 120 13:19 16.01.2020
477 Clouds 28 1012 66 10000 2.6 130 12:42 16.01.2020
478 Clouds 28 1012 66 10000 2.6 130 12:22 16.01.2020
479 Clouds 29 1011 58 10000 3.1 120 11:43 16.01.2020
480 Clouds 29 1011 58 10000 3.1 120 11:24 16.01.2020
481 Clouds 30 1010 58 10000 3.1 0 10:59 16.01.2020
482 Clouds 30 1010 58 10000 3.1 0 10:38 16.01.2020
483 Clouds 30 1010 58 10000 3.1 0 10:20 16.01.2020
484 Clouds 31 1010 55 10000 3.6 140 09:54 16.01.2020
485 Clouds 31 1010 55 10000 3.6 140 09:36 16.01.2020
486 Clouds 31 1010 55 10000 3.6 140 09:18 16.01.2020
487 Clouds 31 1010 55 10000 3.6 130 08:42 16.01.2020
488 Clouds 32 1010 55 10000 3.6 130 08:23 16.01.2020
489 Clouds 31 1010 59 10000 2.6 0 07:43 16.01.2020
490 Clouds 32 1010 59 10000 2.6 0 07:25 16.01.2020
491 Clouds 31 1011 62 10000 2.1 240 06:55 16.01.2020
492 Clouds 31 1011 62 10000 2.1 240 06:35 16.01.2020
493 Clouds 31 1012 62 9000 3.6 280 05:56 16.01.2020
494 Clouds 31 1012 62 9000 3.6 280 05:30 16.01.2020
495 Clouds 30 1013 66 9000 3.1 280 04:37 16.01.2020
496 Clouds 29 1014 69 9000 3.1 290 03:27 16.01.2020
497 Clouds 28 1014 69 9000 1.5 270 02:24 16.01.2020
498 Clouds 25 1013 83 10000 1 0 00:44 16.01.2020
499 Clouds 24 1013 83 10000 1 0 00:23 16.01.2020
500 Clouds 24 1013 78 10000 1 0 23:46 15.01.2020
501 Clouds 24 1013 78 10000 1 0 23:22 15.01.2020
502 Clouds 24 1012 78 10000 1 0 22:57 15.01.2020
503 Clouds 24 1012 78 10000 1 0 22:39 15.01.2020
504 Clouds 24 1012 78 10000 1 0 22:19 15.01.2020
505 Clouds 24 1012 83 10000 2.14 60 21:57 15.01.2020
506 Clouds 24 1012 83 10000 2.14 60 21:37 15.01.2020
507 Clouds 24 1012 83 10000 2.14 60 21:19 15.01.2020
508 Clouds 25 1012 78 10000 1 90 20:56 15.01.2020
509 Clouds 25 1012 78 10000 1 90 20:38 15.01.2020
510 Clouds 25 1012 78 10000 1 90 20:19 15.01.2020
511 Clouds 25 1012 78 10000 2.1 70 19:54 15.01.2020
512 Clouds 25 1012 78 10000 2.1 70 19:36 15.01.2020
513 Clouds 25 1012 78 10000 2.1 70 19:18 15.01.2020
514 Clouds 25 1012 78 10000 1.5 90 18:56 15.01.2020
515 Clouds 26 1012 78 10000 1.5 90 18:37 15.01.2020
516 Clouds 26 1012 78 10000 1.5 90 18:37 15.01.2020
517 Clouds 26 1012 78 10000 1.5 90 18:19 15.01.2020
518 Clouds 26 1013 69 10000 3.1 110 17:55 15.01.2020
519 Clouds 26 1013 69 10000 3.1 110 17:36 15.01.2020
520 Clouds 26 1013 69 10000 3.1 110 17:18 15.01.2020
521 Clouds 26 1013 74 10000 2.1 110 16:40 15.01.2020
522 Clouds 26 1013 74 10000 2.1 110 16:21 15.01.2020
523 Clouds 26 1013 74 10000 2.1 110 16:21 15.01.2020
524 Clouds 26 1013 69 10000 2.6 120 15:56 15.01.2020
525 Clouds 26 1013 69 10000 2.6 120 15:38 15.01.2020
526 Clouds 26 1013 69 10000 2.6 120 15:18 15.01.2020
527 Clouds 26 1013 69 10000 3.1 110 14:42 15.01.2020
528 Clouds 26 1013 69 10000 3.1 110 14:19 15.01.2020
529 Clouds 26 1013 69 10000 3.1 120 13:46 15.01.2020
530 Clouds 26 1013 69 10000 3.1 120 13:26 15.01.2020
531 Clouds 26 1012 69 10000 3.6 110 12:59 15.01.2020
532 Clouds 27 1012 69 10000 3.6 110 12:39 15.01.2020
533 Clouds 27 1012 69 10000 3.6 110 12:19 15.01.2020
534 Clouds 27 1012 69 10000 2.6 110 11:56 15.01.2020
535 Clouds 27 1012 69 10000 2.6 110 11:37 15.01.2020
536 Clouds 27 1012 69 10000 2.6 110 11:19 15.01.2020
537 Clouds 28 1011 66 10000 4.1 120 10:42 15.01.2020
538 Clouds 28 1011 66 10000 4.1 120 10:24 15.01.2020
539 Clouds 29 1011 62 10000 4.1 110 09:42 15.01.2020
540 Clouds 29 1011 62 10000 4.1 110 09:23 15.01.2020
541 Clouds 29 1011 62 10000 5.1 110 08:56 15.01.2020
542 Clouds 29 1011 62 10000 5.1 110 08:37 15.01.2020
543 Clouds 29 1011 62 10000 5.1 110 08:19 15.01.2020
544 Clouds 29 1011 62 10000 5.7 120 07:50 15.01.2020
545 Clouds 30 1011 62 10000 5.7 120 07:29 15.01.2020
546 Clouds 30 1012 70 10000 3.1 280 06:44 15.01.2020
547 Clouds 30 1012 70 10000 3.1 280 06:18 15.01.2020
548 Clouds 29 1014 66 10000 1.5 120 04:34 15.01.2020
549 Clouds 28 1014 69 10000 1.5 240 02:30 15.01.2020
550 Clouds 26 1014 78 10000 1 0 01:25 15.01.2020
551 Clouds 26 1013 78 10000 0.5 0 00:45 15.01.2020
552 Clouds 25 1013 78 10000 0.5 0 00:26 15.01.2020
553 Clouds 24 1013 88 10000 0.5 0 23:47 14.01.2020
554 Clouds 24 1013 88 10000 0.5 0 23:29 14.01.2020
555 Clouds 24 1012 83 10000 0.5 100 22:59 14.01.2020
556 Clouds 24 1012 83 10000 0.5 100 22:40 14.01.2020
557 Clouds 24 1012 83 10000 0.5 100 22:19 14.01.2020
558 Clouds 25 1012 83 10000 1.5 60 21:58 14.01.2020
559 Clouds 25 1012 83 10000 1.5 60 21:39 14.01.2020
560 Clouds 25 1012 83 10000 1.5 60 21:20 14.01.2020
561 Clouds 24 1012 88 10000 2.33 64 20:56 14.01.2020
562 Clouds 25 1011 81 0 2.33 64 20:38 14.01.2020
563 Clouds 25 1012 83 10000 1 0 20:19 14.01.2020
564 Clouds 25 1012 83 10000 1 0 19:55 14.01.2020
565 Clouds 25 1012 83 10000 1 0 19:37 14.01.2020
566 Clouds 25 1012 83 10000 1 0 19:18 14.01.2020
567 Clear 25 1014 82 0 1.34 110 18:41 14.01.2020
568 Clouds 26 1013 78 10000 2.1 120 18:20 14.01.2020
569 Clouds 26 1013 78 10000 2.1 120 17:58 14.01.2020
570 Clouds 26 1013 78 10000 2.1 120 17:37 14.01.2020
571 Clouds 26 1013 78 10000 2.1 120 17:18 14.01.2020
572 Clouds 26 1013 74 10000 2.6 110 16:43 14.01.2020
573 Clouds 27 1013 74 10000 2.6 110 16:23 14.01.2020
574 Clouds 27 1013 74 10000 2.6 110 16:23 14.01.2020
575 Clouds 27 1013 74 10000 2.6 120 15:58 14.01.2020
576 Clouds 27 1013 74 10000 2.6 120 15:40 14.01.2020
577 Clouds 27 1013 74 10000 2.6 120 15:19 14.01.2020
578 Clouds 27 1013 74 10000 2.6 110 14:44 14.01.2020
579 Clouds 27 1013 74 10000 2.6 110 14:21 14.01.2020
580 Clouds 27 1012 78 10000 1.5 100 13:57 14.01.2020
581 Clouds 27 1012 78 10000 1.5 100 13:38 14.01.2020
582 Clouds 27 1012 78 10000 1.5 100 13:18 14.01.2020
583 Clouds 27 1012 74 10000 2.1 110 12:42 14.01.2020
584 Clouds 27 1012 74 10000 2.1 110 12:22 14.01.2020
585 Clouds 28 1011 66 10000 3.1 80 11:56 14.01.2020
586 Clouds 28 1011 66 10000 3.1 80 11:36 14.01.2020
587 Clouds 28 1011 66 10000 3.1 80 11:18 14.01.2020
588 Clouds 28 1011 66 10000 4.1 50 10:40 14.01.2020
589 Clouds 29 1011 66 10000 4.1 50 10:20 14.01.2020
590 Clouds 29 1010 66 10000 2.6 120 09:58 14.01.2020
591 Clouds 29 1010 66 10000 2.6 120 09:40 14.01.2020
592 Clouds 29 1010 66 10000 2.6 120 09:21 14.01.2020
593 Clouds 29 1010 66 10000 2.1 0 08:48 14.01.2020
594 Clouds 29 1010 66 10000 2.1 0 08:26 14.01.2020
595 Clouds 29 1010 70 10000 1.5 230 07:56 14.01.2020
596 Clouds 29 1010 70 10000 1.5 230 07:34 14.01.2020
597 Clouds 29 1011 74 10000 3.1 260 06:57 14.01.2020
598 Clouds 29 1011 74 10000 3.1 260 06:39 14.01.2020
599 Clouds 29 1011 74 10000 3.1 260 06:39 14.01.2020
600 Clouds 29 1012 66 10000 3.6 280 05:28 14.01.2020
601 Clouds 28 1013 69 10000 3.1 270 03:57 14.01.2020
602 Clouds 28 1013 69 10000 3.1 270 03:35 14.01.2020
603 Clouds 28 1013 74 10000 1.5 210 01:58 14.01.2020
604 Clouds 25 1012 83 10000 0.5 0 00:53 14.01.2020
605 Clouds 25 1012 83 10000 0.5 0 00:35 14.01.2020
606 Clouds 25 1011 83 10000 0.5 0 23:56 13.01.2020
607 Clouds 25 1011 83 10000 0.5 0 23:37 13.01.2020
608 Clouds 25 1011 83 10000 0.5 0 23:18 13.01.2020
609 Clouds 25 1011 83 10000 0.5 0 23:18 13.01.2020
610 Clouds 24 1010 83 10000 1 100 22:42 13.01.2020
611 Clouds 24 1010 83 10000 1 100 22:21 13.01.2020
612 Clouds 24 1010 88 10000 0.5 0 21:57 13.01.2020
613 Clouds 24 1010 88 10000 0.5 0 21:38 13.01.2020
614 Clouds 24 1010 88 10000 0.5 0 21:19 13.01.2020
615 Clouds 25 1010 94 10000 2.78 46 20:59 13.01.2020
616 Clouds 25 1010 94 10000 2.78 46 20:41 13.01.2020
617 -273 0 0 0 0 0 20:22 13.01.2020
618 -273 0 0 0 0 0 20:22 13.01.2020
619 Clouds 25 1010 83 10000 2.1 50 19:59 13.01.2020
620 Clouds 25 1010 83 10000 2.1 50 19:39 13.01.2020
621 Clouds 25 1010 83 10000 2.1 50 19:20 13.01.2020
622 Clouds 25 1010 78 10000 1.5 120 18:56 13.01.2020
623 Clouds 26 1010 78 10000 1.5 120 18:37 13.01.2020
624 Clouds 26 1010 78 10000 1.5 120 18:37 13.01.2020
625 Clouds 26 1010 78 10000 1.5 120 18:18 13.01.2020
626 Clouds 26 1011 78 10000 2.6 0 17:43 13.01.2020
627 Clouds 26 1011 78 10000 2.6 0 17:24 13.01.2020
628 Clouds 26 1011 78 10000 2.6 0 17:24 13.01.2020
629 Clouds 26 1011 78 10000 3.1 120 16:57 13.01.2020
630 Clouds 26 1010 82 0 4.68 105 16:38 13.01.2020
631 Clouds 26 1010 82 0 4.68 105 16:20 13.01.2020
632 Clouds 26 1010 83 0 4.68 105 15:44 13.01.2020
633 Clouds 26 1010 83 0 4.68 105 15:24 13.01.2020
634 Clouds 26 1010 82 0 0.45 151 14:58 13.01.2020
635 Clouds 26 1010 83 0 1.34 144 14:38 13.01.2020
636 Clouds 26 1010 84 0 5.66 96 14:20 13.01.2020
637 Clouds 26 1009 85 0 0.45 17 13:43 13.01.2020
638 Clouds 26 1009 85 0 0.45 17 13:43 13.01.2020
639 Clouds 26 1009 84 0 0.89 291 13:25 13.01.2020
640 Clouds 26 1009 84 0 5.89 97 12:59 13.01.2020
641 Clouds 26 1012 82 0 3.13 121 12:41 13.01.2020
642 Clouds 27 1009 78 10000 2.1 140 12:23 13.01.2020
643 Clouds 27 1009 78 10000 2.1 140 11:57 13.01.2020
644 Clouds 27 1009 78 10000 2.1 140 11:37 13.01.2020
645 Clouds 27 1009 78 10000 2.1 140 11:19 13.01.2020
646 Clouds 27 1009 74 10000 2.1 130 10:55 13.01.2020
647 Clouds 28 1009 74 10000 2.1 130 10:37 13.01.2020
648 Clouds 28 1009 74 10000 2.1 130 10:19 13.01.2020
649 Clouds 28 1008 70 10000 1 0 09:43 13.01.2020
650 Clouds 29 1008 70 10000 1 0 09:23 13.01.2020
651 Rain 29 1008 74 10000 1.5 330 08:44 13.01.2020
652 Rain 29 1008 74 10000 1.5 330 08:24 13.01.2020
653 Rain 28 1008 74 9000 3.6 300 07:59 13.01.2020
654 Rain 28 1008 74 9000 3.6 300 07:59 13.01.2020
655 Rain 28 1008 74 9000 3.6 300 07:41 13.01.2020
656 Rain 27 1008 74 9000 3.6 300 07:19 13.01.2020
657 Clouds 28 1009 74 8000 4.6 270 06:37 13.01.2020
658 Clouds 29 1009 78 9000 3.1 260 05:37 13.01.2020
659 Clouds 27 1011 78 10000 4.6 320 04:26 13.01.2020
660 Clouds 28 1010 62 10000 1 0 03:35 13.01.2020
661 Clouds 29 1010 74 10000 2.6 120 02:49 13.01.2020
662 Clouds 28 1010 74 10000 2.6 120 02:30 13.01.2020
663 Clouds 28 1010 74 10000 2.6 120 02:30 13.01.2020
664 Clouds 27 1010 88 10000 1.5 0 01:33 13.01.2020
665 Clouds 25 1009 88 10000 1 0 00:44 13.01.2020
666 Clouds 25 1009 88 10000 1 0 00:25 13.01.2020
667 Clouds 25 1009 88 10000 1 0 23:57 12.01.2020
668 Clouds 25 1009 88 10000 1 0 23:38 12.01.2020
669 Clouds 25 1009 88 10000 1 0 23:20 12.01.2020
670 Clouds 25 1009 88 10000 0.5 0 22:43 12.01.2020
671 Clouds 25 1009 88 10000 0.5 0 22:24 12.01.2020
672 Clouds 25 1009 94 10000 1 0 21:59 12.01.2020
673 Clouds 25 1009 94 10000 1 0 21:59 12.01.2020
674 Clouds 25 1009 94 10000 1 0 21:40 12.01.2020
675 Clouds 25 1009 94 10000 1 0 21:20 12.01.2020
676 Clouds 25 1009 88 10000 1 0 20:57 12.01.2020
677 Clouds 25 1009 88 10000 1 0 20:39 12.01.2020
678 Clouds 25 1009 88 10000 1 0 20:20 12.01.2020
679 Clouds 25 1009 94 10000 1.5 190 19:56 12.01.2020
680 Clouds 25 1009 94 10000 1.5 190 19:38 12.01.2020
681 Clouds 25 1009 94 10000 1.5 190 19:19 12.01.2020
682 Rain 25 1010 94 9000 2.1 0 18:57 12.01.2020
683 Rain 25 1010 94 9000 2.1 0 18:57 12.01.2020
684 Rain 25 1010 94 9000 2.1 0 18:39 12.01.2020
685 Rain 25 1010 94 9000 2.1 0 18:21 12.01.2020
686 Ash 26 1010 78 10000 1 0 17:56 12.01.2020
687 Ash 26 1010 78 10000 1 0 17:37 12.01.2020
688 Ash 26 1010 78 10000 1 0 17:18 12.01.2020
689 Thunderstorm 26 1010 78 10000 1 0 16:55 12.01.2020
690 Thunderstorm 26 1010 78 10000 1 0 16:55 12.01.2020
691 Thunderstorm 26 1010 78 10000 1 0 16:37 12.01.2020
692 Thunderstorm 27 1010 78 10000 1 0 16:18 12.01.2020
693 Ash 27 1010 78 9000 1.5 0 15:42 12.01.2020
694 Ash 27 1010 78 9000 1.5 0 15:24 12.01.2020
695 Ash 27 1010 78 9000 1.5 0 15:24 12.01.2020
696 Ash 27 1010 74 9000 1.5 0 14:56 12.01.2020
697 Ash 28 1010 74 9000 1.5 0 14:37 12.01.2020
698 Ash 28 1010 74 9000 1.5 0 14:18 12.01.2020
699 Ash 28 1009 74 9000 2.1 140 13:42 12.01.2020
700 Ash 28 1009 74 9000 2.1 140 13:23 12.01.2020
701 Ash 28 1008 65 10000 5.25 110 12:58 12.01.2020
702 Ash 28 1008 65 10000 5.25 110 12:38 12.01.2020
703 Ash 28 1008 65 10000 5.25 110 12:20 12.01.2020
704 Ash 28 1008 69 9000 0.5 0 11:57 12.01.2020
705 Ash 28 1008 69 9000 0.5 0 11:38 12.01.2020
706 Ash 28 1008 69 9000 0.5 0 11:19 12.01.2020
707 Clouds 29 1008 66 10000 1 0 10:41 12.01.2020
708 Clouds 29 1008 66 10000 1 0 10:21 12.01.2020
709 Clouds 29 1007 66 10000 3.1 320 09:56 12.01.2020
710 Clouds 29 1007 66 10000 3.1 320 09:38 12.01.2020
711 Clouds 29 1007 66 10000 3.1 320 09:18 12.01.2020
712 Clouds 29 1008 70 0 4.1 320 08:42 12.01.2020
713 Clouds 30 1008 70 0 4.1 320 08:19 12.01.2020
714 Clouds 29 1008 66 10000 4.1 280 07:40 12.01.2020
715 Clouds 30 1008 66 10000 4.1 280 07:21 12.01.2020
716 Clouds 31 1009 58 10000 2.1 0 06:43 12.01.2020
717 Clouds 31 1009 58 10000 2.1 0 06:24 12.01.2020
718 Clouds 30 1010 62 10000 1.5 0 05:23 12.01.2020
719 Clouds 29 1011 69 10000 2.1 60 03:55 12.01.2020
720 Clouds 29 1011 69 10000 2.1 60 03:22 12.01.2020
721 Clouds 27 1011 74 10000 1.5 0 02:33 12.01.2020
722 Clouds 26 1011 78 10000 2.1 360 01:42 12.01.2020
723 Clouds 25 1011 78 10000 2.1 360 01:22 12.01.2020
724 Clouds 24 1010 83 10000 0.5 0 00:40 12.01.2020
725 Clouds 24 1010 83 10000 0.5 0 00:40 12.01.2020
726 Clouds 24 1010 83 10000 0.5 0 00:20 12.01.2020
727 Clouds 24 1009 83 10000 1.5 20 23:42 11.01.2020
728 Clouds 24 1009 83 10000 1.5 20 23:19 11.01.2020
729 Clouds 25 1009 83 10000 1 0 22:57 11.01.2020
730 Clouds 25 1009 83 10000 1 0 22:39 11.01.2020
731 Clouds 25 1009 83 10000 1 0 22:20 11.01.2020
732 Clouds 25 1009 83 10000 1 0 21:55 11.01.2020
733 Clouds 25 1009 83 10000 1 0 21:37 11.01.2020
734 Clouds 25 1009 83 10000 1 0 21:18 11.01.2020
735 Clouds 25 1009 83 10000 1 0 20:40 11.01.2020
736 Clouds 25 1009 83 10000 1 0 20:22 11.01.2020
737 Clouds 25 1009 83 10000 1 0 19:58 11.01.2020
738 Clouds 25 1009 83 10000 1 0 19:38 11.01.2020
739 Clouds 25 1009 83 10000 1 0 19:38 11.01.2020
740 Clouds 25 1009 83 10000 1 0 19:38 11.01.2020
741 Clouds 25 1009 83 10000 1 0 19:20 11.01.2020
742 Clouds 26 1010 78 10000 2.1 120 18:57 11.01.2020
743 Clouds 26 1010 78 10000 2.1 120 18:37 11.01.2020
744 Clouds 26 1010 78 10000 2.1 120 18:19 11.01.2020
745 Clouds 26 1010 78 10000 2.1 120 18:19 11.01.2020
746 Clouds 26 1010 78 10000 2.1 120 17:57 11.01.2020
747 Clouds 26 1010 78 10000 2.1 120 17:39 11.01.2020
748 Clouds 26 1010 78 10000 2.1 120 17:19 11.01.2020
749 Clouds 26 1010 78 10000 1 0 16:44 11.01.2020
750 Clouds 26 1010 78 10000 1 0 16:25 11.01.2020
751 Clouds 26 1011 74 10000 2.1 110 15:57 11.01.2020
752 Clouds 27 1011 74 10000 2.1 110 15:39 11.01.2020
753 Clouds 27 1011 74 10000 2.1 110 15:20 11.01.2020
754 Clouds 27 1010 74 10000 2.6 110 14:47 11.01.2020
755 Clouds 27 1010 74 10000 2.6 110 14:25 11.01.2020
756 Clouds 27 1010 69 10000 2.6 110 13:58 11.01.2020
757 Clouds 27 1010 69 10000 2.6 110 13:38 11.01.2020
758 Clouds 28 1010 69 10000 2.6 110 13:20 11.01.2020
759 Clouds 28 1009 69 10000 3.1 110 12:56 11.01.2020
760 Clouds 27 1009 69 10000 3.1 110 12:37 11.01.2020
761 Clouds 28 1009 69 10000 3.1 110 12:19 11.01.2020
762 Clouds 28 1009 66 10000 2.6 120 11:42 11.01.2020
763 Clouds 28 1009 66 10000 2.6 120 11:24 11.01.2020
764 Clouds 29 1008 62 10000 3.6 0 10:47 11.01.2020
765 Clouds 29 1008 62 10000 3.6 0 10:47 11.01.2020
766 Clouds 29 1008 62 10000 3.6 0 10:25 11.01.2020
767 Clouds 30 1007 62 10000 4.1 0 09:44 11.01.2020
768 Clouds 30 1007 62 10000 4.1 0 09:21 11.01.2020
769 Clouds 30 1007 58 10000 4.1 130 08:57 11.01.2020
770 Clouds 30 1007 58 10000 4.1 130 08:38 11.01.2020
771 Clouds 31 1007 58 10000 4.1 130 08:19 11.01.2020
772 Clouds 31 1008 55 10000 4.1 130 07:42 11.01.2020
773 Clouds 31 1008 55 10000 4.1 130 07:24 11.01.2020
774 Clouds 31 1009 58 10000 3.1 110 06:43 11.01.2020
775 Clouds 31 1010 58 10000 3.1 120 05:29 11.01.2020
776 Clouds 31 1011 58 10000 2.6 0 04:40 11.01.2020
777 Clouds 31 1011 58 10000 2.6 0 04:21 11.01.2020
778 Clouds 28 1012 65 10000 1.5 70 02:46 11.01.2020
779 Clouds 27 1011 78 10000 1.5 10 01:47 11.01.2020
780 Clouds 26 1011 78 10000 1.5 10 01:25 11.01.2020
781 Clouds 25 1011 83 10000 2.6 20 00:52 11.01.2020
782 Clouds 24 1011 83 10000 2.6 20 00:24 11.01.2020
783 Clouds 24 1010 94 10000 1 0 23:58 10.01.2020
784 Clouds 24 1010 94 10000 1 0 23:38 10.01.2020
785 Clouds 24 1010 94 10000 1 0 23:38 10.01.2020
786 Clouds 24 1010 94 10000 1 0 23:20 10.01.2020
787 Clouds 24 1010 94 10000 0.5 0 22:41 10.01.2020
788 Clouds 24 1010 94 10000 0.5 0 22:22 10.01.2020
789 Clouds 25 1010 83 10000 0.5 250 21:58 10.01.2020
790 Clouds 25 1010 83 10000 0.5 250 21:40 10.01.2020
791 Clouds 25 1010 83 10000 0.5 250 21:20 10.01.2020
792 Clouds 24 1010 88 10000 1 80 20:57 10.01.2020
793 Clouds 24 1010 88 10000 1 80 20:38 10.01.2020
794 Clouds 25 1010 88 10000 1 80 20:19 10.01.2020
795 Clouds 25 1010 83 10000 1.5 70 19:40 10.01.2020
796 Clouds 25 1010 83 10000 1.5 70 19:20 10.01.2020
797 Clouds 25 1010 83 10000 1 0 18:55 10.01.2020
798 Clouds 25 1010 83 10000 1 0 18:36 10.01.2020
799 Clouds 25 1010 83 10000 1 0 18:18 10.01.2020
800 Clouds 25 1010 83 10000 1 0 18:18 10.01.2020
801 Clouds 25 1011 83 10000 1.5 80 17:56 10.01.2020
802 Clouds 25 1011 83 10000 1.5 80 17:37 10.01.2020
803 Clouds 25 1011 83 10000 1.5 80 17:19 10.01.2020
804 Clouds 26 1011 78 10000 1.5 130 16:41 10.01.2020
805 Clouds 26 1011 78 10000 1.5 130 16:21 10.01.2020
806 Clouds 26 1011 78 10000 2.6 130 15:56 10.01.2020
807 Clouds 26 1011 78 10000 2.6 130 15:37 10.01.2020
808 Clouds 26 1011 78 10000 2.6 130 15:19 10.01.2020
809 Clouds 26 1011 78 10000 2.6 130 15:19 10.01.2020
810 Clouds 26 1011 78 10000 2.6 130 15:19 10.01.2020
811 Clouds 26 1011 74 10000 2.6 110 14:57 10.01.2020
812 Clouds 26 1011 74 10000 2.6 110 14:38 10.01.2020
813 Clouds 26 1011 74 10000 2.6 110 14:19 10.01.2020
814 Clouds 26 1011 74 10000 2.1 110 13:46 10.01.2020
815 Clouds 27 1011 74 10000 2.1 110 13:28 10.01.2020
816 Clouds 27 1010 65 10000 2.6 100 12:59 10.01.2020
817 Clouds 27 1010 65 10000 2.6 100 12:40 10.01.2020
818 Clouds 27 1010 65 10000 2.6 100 12:21 10.01.2020
819 Clouds 28 1009 62 10000 3.6 80 11:58 10.01.2020
820 Clouds 28 1009 62 10000 3.6 80 11:40 10.01.2020
821 Clouds 28 1009 62 10000 3.6 80 11:19 10.01.2020
822 Clouds 28 1008 66 10000 4.1 100 10:59 10.01.2020
823 Clouds 28 1008 66 10000 4.1 100 10:38 10.01.2020
824 Clouds 29 1008 66 10000 4.1 100 10:18 10.01.2020
825 Clouds 28 1008 74 10000 2.6 230 09:45 10.01.2020
826 Clouds 28 1008 74 10000 2.6 230 09:26 10.01.2020
827 Clouds 29 1008 70 10000 2.6 300 08:57 10.01.2020
828 Clouds 29 1008 70 10000 2.6 300 08:37 10.01.2020
829 Clouds 30 1008 70 10000 2.6 300 08:18 10.01.2020
830 Clouds 30 1008 70 10000 2.6 300 08:18 10.01.2020
831 Clouds 29 1009 74 10000 2.6 300 07:41 10.01.2020
832 Clouds 29 1009 74 10000 2.6 300 07:19 10.01.2020
833 Rain 28 1010 78 10000 3.1 0 06:37 10.01.2020
834 Rain 28 1010 78 10000 3.1 0 06:19 10.01.2020
835 Clouds 30 1011 70 10000 3.1 280 05:19 10.01.2020
836 Clouds 28 1012 69 10000 3.1 280 03:31 10.01.2020
837 Clouds 28 1012 74 10000 0.5 0 02:52 10.01.2020
838 Clouds 27 1012 74 10000 0.5 0 02:19 10.01.2020
839 Clouds 27 1012 74 10000 0.5 0 01:30 10.01.2020
840 Clouds 26 1011 74 10000 1.5 220 00:49 10.01.2020
841 Clouds 25 1011 74 10000 1.5 220 00:31 10.01.2020
842 Clouds 25 1011 74 10000 0.5 0 23:55 09.01.2020
843 Clouds 25 1011 74 10000 0.5 0 23:36 09.01.2020
844 Clouds 25 1011 74 10000 0.5 0 23:18 09.01.2020
845 Clouds 25 1010 78 10000 1.45 33 22:54 09.01.2020
846 Clouds 25 1010 78 10000 1.45 33 22:36 09.01.2020
847 Clouds 25 1010 78 10000 1.45 33 22:18 09.01.2020
848 Clouds 25 1010 78 10000 1 0 21:54 09.01.2020
849 Clouds 25 1010 78 10000 1 0 21:36 09.01.2020
850 Clouds 24 1010 78 10000 1 0 21:18 09.01.2020
851 Clouds 24 1010 78 10000 1 0 21:18 09.01.2020
852 Clouds 24 1010 83 10000 1.5 110 20:54 09.01.2020
853 Clouds 24 1010 83 10000 1.5 110 20:36 09.01.2020
854 Clouds 24 1010 83 10000 1.5 110 20:18 09.01.2020
855 Clouds 25 1010 78 10000 1.5 90 19:39 09.01.2020
856 Clouds 25 1010 78 10000 1.5 90 19:20 09.01.2020
857 Clouds 25 1011 74 10000 2.1 100 18:56 09.01.2020
858 Clouds 25 1011 74 10000 2.1 100 18:38 09.01.2020
859 Clouds 25 1011 74 10000 2.1 100 18:20 09.01.2020
860 Clouds 25 1011 74 10000 2.1 100 17:41 09.01.2020
861 Clouds 26 1011 74 10000 2.1 100 17:19 09.01.2020
862 Clouds 26 1011 74 10000 2.6 100 16:56 09.01.2020
863 Clouds 26 1011 74 10000 2.6 100 16:38 09.01.2020
864 Clouds 26 1011 74 10000 2.6 100 16:20 09.01.2020
865 Clouds 26 1012 74 10000 2.6 120 15:43 09.01.2020
866 Clouds 26 1012 74 10000 2.6 120 15:22 09.01.2020
867 Clouds 26 1012 69 10000 3.1 120 14:57 09.01.2020
868 Clouds 26 1012 69 10000 3.1 120 14:38 09.01.2020
869 Clouds 26 1012 69 10000 3.1 120 14:19 09.01.2020
870 Clouds 26 1012 69 10000 2.6 110 13:55 09.01.2020
871 Clouds 26 1012 69 10000 2.6 110 13:37 09.01.2020
872 Clouds 27 1012 69 10000 2.6 110 13:18 09.01.2020
873 Clouds 27 1012 65 10000 2.1 100 12:42 09.01.2020
874 Clouds 27 1012 65 10000 2.1 100 12:24 09.01.2020
875 Clouds 27 1011 65 10000 3.1 120 11:59 09.01.2020
876 Clouds 27 1011 65 10000 3.1 120 11:41 09.01.2020
877 Clouds 28 1011 65 10000 3.1 120 11:23 09.01.2020
878 Clouds 28 1010 62 10000 3.1 120 10:56 09.01.2020
879 Clouds 28 1010 62 10000 3.1 120 10:37 09.01.2020
880 Clouds 29 1010 62 10000 3.1 120 10:19 09.01.2020
881 Clouds 29 1010 66 10000 3.6 100 09:41 09.01.2020
882 Clouds 29 1010 66 10000 3.6 100 09:22 09.01.2020
883 Clouds 30 1010 55 10000 6.2 110 08:56 09.01.2020
884 Clouds 30 1010 55 10000 6.2 110 08:38 09.01.2020
885 Clouds 30 1010 55 10000 6.2 110 08:19 09.01.2020
886 Clouds 30 1010 58 10000 4.6 130 07:44 09.01.2020
887 Clouds 31 1010 58 10000 4.6 130 07:25 09.01.2020
888 Clouds 31 1011 52 10000 5.1 120 06:39 09.01.2020
889 Clouds 31 1011 52 10000 5.1 120 06:21 09.01.2020
890 Clouds 31 1012 58 10000 4.1 100 05:50 09.01.2020
891 Clouds 29 1013 62 10000 2.1 0 04:45 09.01.2020
892 Clouds 29 1013 69 10000 2.6 310 03:54 09.01.2020
893 Clouds 29 1013 69 10000 2.6 310 03:26 09.01.2020
894 Clouds 29 1014 65 10000 2.6 90 02:31 09.01.2020
895 Clouds 27 1013 78 10000 2.6 90 01:40 09.01.2020
896 Clouds 26 1013 78 10000 4.14 74 00:44 09.01.2020
897 Clouds 25 1013 78 10000 4.14 74 00:22 09.01.2020
898 Clouds 24 1012 83 10000 0.5 0 23:56 08.01.2020
899 Clouds 24 1012 83 10000 0.5 0 23:37 08.01.2020
900 Clouds 24 1012 83 10000 0.5 0 23:19 08.01.2020
901 Clouds 25 1012 78 10000 0.5 0 22:39 08.01.2020
902 Clouds 25 1012 78 10000 0.5 0 22:21 08.01.2020
903 Clouds 25 1012 78 10000 1.5 70 21:58 08.01.2020
904 Clouds 25 1012 78 10000 1.5 70 21:38 08.01.2020
905 Clouds 25 1012 78 10000 1.5 70 21:20 08.01.2020
906 Clouds 25 1012 74 10000 2.1 10 20:58 08.01.2020
907 Clouds 26 1012 74 10000 2.1 10 20:39 08.01.2020
908 Clouds 26 1012 74 10000 2.1 10 20:20 08.01.2020
909 Clouds 25 1013 78 10000 3.16 66 19:56 08.01.2020
910 Clouds 25 1013 78 10000 3.16 66 19:37 08.01.2020
911 Clouds 25 1013 78 10000 3.16 66 19:19 08.01.2020
912 Clouds 25 1013 78 10000 3.16 66 19:19 08.01.2020
913 Clouds 26 1013 74 10000 1 0 18:55 08.01.2020
914 Clouds 26 1013 74 10000 1 0 18:37 08.01.2020
915 Clouds 26 1013 74 10000 1 0 18:18 08.01.2020
916 Clouds 26 1013 74 10000 2.1 130 17:48 08.01.2020
917 Clouds 26 1013 74 10000 2.1 130 17:24 08.01.2020
918 Clouds 26 1013 74 10000 2.1 120 16:58 08.01.2020
919 Clouds 26 1013 74 10000 2.1 120 16:39 08.01.2020
920 Clouds 26 1013 74 10000 2.1 120 16:19 08.01.2020
921 Clouds 26 1013 78 10000 1.5 0 15:59 08.01.2020
922 Clouds 26 1013 78 10000 1.5 0 15:40 08.01.2020
923 Clouds 26 1013 78 10000 1.5 0 15:20 08.01.2020
924 Clouds 27 1013 69 10000 3.6 90 14:56 08.01.2020
925 Clouds 27 1013 69 10000 3.6 90 14:38 08.01.2020
926 Clouds 27 1013 69 10000 3.6 90 14:19 08.01.2020
927 Clouds 27 1012 65 10000 2.6 90 13:39 08.01.2020
928 Clouds 27 1012 65 10000 2.6 90 13:19 08.01.2020
929 Clouds 27 1012 69 10000 2.1 100 12:42 08.01.2020
930 Clouds 27 1012 69 10000 2.1 100 12:19 08.01.2020
931 Clouds 27 1011 69 10000 4.1 90 11:55 08.01.2020
932 Clouds 27 1011 69 10000 4.1 90 11:37 08.01.2020
933 Clouds 27 1011 69 10000 4.1 90 11:18 08.01.2020
934 Clouds 28 1011 66 10000 4.1 90 10:54 08.01.2020
935 Clouds 28 1011 66 10000 4.1 90 10:36 08.01.2020
936 Clouds 29 1011 66 10000 4.1 90 10:18 08.01.2020
937 Clouds 29 1010 66 10000 4.6 100 09:41 08.01.2020
938 Clouds 29 1010 66 10000 4.6 100 09:19 08.01.2020
939 Clouds 29 1010 66 10000 4.6 100 09:19 08.01.2020
940 Clouds 30 1010 62 10000 2.6 0 08:55 08.01.2020
941 Clouds 30 1010 62 10000 2.6 0 08:36 08.01.2020
942 Clouds 30 1010 62 10000 2.6 0 08:18 08.01.2020
943 Clouds 30 1011 70 10000 2.6 0 07:43 08.01.2020
944 Clouds 30 1011 70 10000 2.6 0 07:23 08.01.2020
945 Clouds 29 1012 74 10000 3.6 140 06:44 08.01.2020
946 Clouds 29 1012 70 10000 4.1 310 05:59 08.01.2020
947 Clouds 29 1012 70 10000 4.1 310 05:28 08.01.2020
948 Clouds 29 1013 74 10000 3.6 270 04:46 08.01.2020
949 Clouds 29 1014 74 10000 2.1 70 03:32 08.01.2020
950 Clouds 28 1014 74 10000 2.6 70 02:44 08.01.2020
951 Clouds 28 1014 74 10000 2.6 70 02:19 08.01.2020
952 Clouds 27 1013 78 10000 1.5 90 01:39 08.01.2020
953 Clouds 26 1013 88 10000 1 0 00:53 08.01.2020
954 Clouds 25 1013 88 10000 1 0 00:26 08.01.2020
955 Clouds 24 1013 94 10000 2.1 50 23:46 07.01.2020
956 Clouds 24 1013 94 10000 2.1 50 23:22 07.01.2020
957 Clouds 25 1013 88 10000 1.5 110 22:58 07.01.2020
958 Clouds 25 1013 88 10000 1.5 110 22:38 07.01.2020
959 Clouds 25 1013 88 10000 1.5 110 22:19 07.01.2020
960 Clouds 25 1013 88 10000 1.5 110 22:19 07.01.2020
961 Clouds 25 1012 83 10000 2.1 90 21:42 07.01.2020
962 Clouds 25 1012 83 10000 2.1 90 21:23 07.01.2020
963 Clouds 26 1012 83 10000 2.1 120 20:59 07.01.2020
964 Clouds 25 1012 83 10000 2.1 120 20:41 07.01.2020
965 Clouds 25 1012 83 10000 2.1 120 20:41 07.01.2020
966 Clouds 25 1012 83 10000 2.1 120 20:22 07.01.2020
967 Clouds 25 1013 88 10000 2.6 120 19:58 07.01.2020
968 Clouds 25 1013 88 10000 2.6 120 19:38 07.01.2020
969 Clouds 25 1013 88 10000 2.6 120 19:19 07.01.2020
970 Clouds 24 1013 88 10000 2.1 140 18:56 07.01.2020
971 Clouds 24 1013 88 10000 2.1 140 18:38 07.01.2020
972 Clouds 24 1013 88 10000 2.1 140 18:18 07.01.2020
973 Rain 24 1013 94 8000 2.1 100 17:56 07.01.2020
974 Rain 24 1013 94 8000 2.1 100 17:37 07.01.2020
975 Rain 24 1013 94 8000 2.1 100 17:18 07.01.2020
976 Rain 25 1014 74 8000 3.1 110 16:55 07.01.2020
977 Rain 26 1014 74 8000 3.1 110 16:37 07.01.2020
978 Rain 27 1014 74 8000 3.1 110 16:18 07.01.2020
979 Clouds 27 1014 74 10000 2.6 80 15:43 07.01.2020
980 Clouds 27 1014 74 10000 2.6 80 15:24 07.01.2020
981 Clouds 27 1014 74 10000 2.6 80 15:24 07.01.2020
982 Clouds 27 1014 74 10000 3.1 110 14:58 07.01.2020
983 Clouds 27 1014 74 10000 3.1 110 14:40 07.01.2020
984 Clouds 27 1014 74 10000 3.1 110 14:20 07.01.2020
985 Rain 27 1014 78 10000 3.1 0 13:46 07.01.2020
986 Rain 27 1014 78 10000 3.1 0 13:21 07.01.2020
987 Clouds 27 1013 74 10000 4.1 120 12:56 07.01.2020
988 Clouds 27 1013 74 10000 4.1 120 12:37 07.01.2020
989 Clouds 28 1013 74 10000 4.1 120 12:19 07.01.2020
990 Clouds 28 1012 74 10000 4.1 120 11:41 07.01.2020
991 Clouds 28 1012 74 10000 4.1 120 11:22 07.01.2020
992 Clouds 29 1011 66 10000 4.1 120 10:56 07.01.2020
993 Clouds 29 1011 66 10000 4.1 120 10:37 07.01.2020
994 Clouds 29 1011 66 10000 4.1 120 10:37 07.01.2020
995 Clouds 29 1011 66 10000 4.1 120 10:19 07.01.2020
996 Clouds 30 1011 62 10000 4.6 90 09:39 07.01.2020
997 Clouds 30 1011 62 10000 4.6 90 09:21 07.01.2020
998 Clouds 30 1011 62 10000 3.6 120 08:57 07.01.2020
999 Clouds 30 1011 62 10000 3.6 120 08:37 07.01.2020
1000 Clouds 30 1011 62 10000 3.6 120 08:37 07.01.2020
1001 Clouds 30 1011 62 10000 3.6 120 08:18 07.01.2020
1002 Clouds 31 1013 58 10000 1.5 0 07:42 07.01.2020
1003 Clouds 31 1013 58 10000 1.5 0 07:42 07.01.2020
1004 Clouds 30 1012 66 10000 1.5 0 06:57 07.01.2020
1005 Clouds 30 1012 66 10000 1.5 0 06:35 07.01.2020
1006 Clouds 31 1013 62 8000 4.1 280 05:59 07.01.2020
1007 Clouds 31 1013 62 8000 4.1 280 05:40 07.01.2020
1008 Clouds 31 1014 58 9000 2.1 40 03:45 07.01.2020
1009 Clouds 29 1014 62 9000 2.1 350 02:47 07.01.2020
1010 Clouds 28 1014 69 9000 1 0 01:59 07.01.2020
1011 Clouds 27 1014 69 9000 1 0 01:36 07.01.2020
1012 Clouds 26 1014 74 9000 2.1 20 00:55 07.01.2020
1013 Clouds 25 1014 74 9000 2.1 20 00:20 07.01.2020
1014 Clouds 24 1013 78 10000 2.1 330 23:56 06.01.2020
1015 Clouds 24 1013 78 10000 2.1 330 23:37 06.01.2020
1016 Clouds 24 1013 78 10000 2.1 330 23:19 06.01.2020
1017 Clouds 24 1013 78 10000 0.5 0 22:43 06.01.2020
1018 Clouds 24 1013 78 10000 0.5 0 22:24 06.01.2020
1019 Clouds 24 1013 78 10000 0.5 0 22:24 06.01.2020
1020 Clouds 24 1013 78 10000 0.5 0 22:24 06.01.2020
1021 Clouds 24 1013 78 10000 0.5 0 21:58 06.01.2020
1022 Clouds 24 1013 78 10000 0.5 0 21:39 06.01.2020
1023 Clouds 24 1013 78 10000 0.5 0 21:20 06.01.2020
1024 Clouds 24 1013 78 10000 0.5 0 21:20 06.01.2020
1025 Clouds 25 1013 78 10000 1.64 52 20:57 06.01.2020
1026 Clouds 25 1013 78 10000 1.64 52 20:38 06.01.2020
1027 Clouds 25 1013 78 10000 1.63 34 20:20 06.01.2020
1028 Clouds 25 1013 78 10000 0.5 0 19:56 06.01.2020
1029 Clouds 25 1013 78 10000 0.5 0 19:38 06.01.2020
1030 Clouds 25 1013 78 10000 0.5 0 19:20 06.01.2020
1031 Clouds 26 1013 74 10000 1 0 18:48 06.01.2020
1032 Clouds 26 1013 74 10000 1 0 18:22 06.01.2020
1033 Clouds 26 1014 74 10000 2.6 120 17:58 06.01.2020
1034 Clouds 26 1014 74 10000 2.6 120 17:38 06.01.2020
1035 Clouds 26 1014 74 10000 2.6 120 17:18 06.01.2020
1036 Clouds 26 1014 69 10000 2.1 120 16:44 06.01.2020
1037 Clouds 27 1014 69 10000 2.1 120 16:25 06.01.2020
1038 Clouds 27 1014 69 10000 2.1 120 16:25 06.01.2020
1039 Clouds 27 1014 69 10000 1.5 110 15:59 06.01.2020
1040 Clouds 27 1014 69 10000 1.5 110 15:39 06.01.2020
1041 Clouds 27 1014 69 10000 1.5 110 15:18 06.01.2020
1042 Clouds 27 1014 69 10000 3.6 100 14:56 06.01.2020
1043 Clouds 27 1014 69 10000 3.6 100 14:37 06.01.2020
1044 Clouds 27 1014 69 10000 3.6 100 14:18 06.01.2020
1045 Clouds 27 1014 69 10000 3.6 100 14:18 06.01.2020
1046 Clouds 27 1012 74 10000 5.7 60 13:41 06.01.2020
1047 Clouds 27 1012 74 10000 5.7 60 13:22 06.01.2020
1048 Clouds 27 1013 65 10000 3.1 120 12:59 06.01.2020
1049 Clouds 27 1013 65 10000 3.1 120 12:41 06.01.2020
1050 Clouds 28 1013 65 10000 3.1 120 12:20 06.01.2020
1051 Clouds 28 1012 58 10000 4.1 80 11:55 06.01.2020
1052 Clouds 28 1012 58 10000 4.1 80 11:37 06.01.2020
1053 Clouds 28 1012 58 10000 4.1 80 11:18 06.01.2020
1054 Clouds 29 1012 55 10000 5.1 80 10:42 06.01.2020
1055 Clouds 29 1012 55 10000 5.1 80 10:21 06.01.2020
1056 Clouds 30 1011 52 10000 5.7 80 09:42 06.01.2020
1057 Clouds 31 1011 52 10000 5.7 80 09:24 06.01.2020
1058 Clouds 31 1011 49 10000 5.1 90 08:57 06.01.2020
1059 Clouds 31 1011 49 10000 5.1 90 08:38 06.01.2020
1060 Clouds 31 1011 49 10000 5.1 90 08:38 06.01.2020
1061 Clouds 31 1011 49 10000 5.1 90 08:19 06.01.2020
1062 Clouds 31 1012 49 10000 5.1 100 07:44 06.01.2020
1063 Clouds 31 1013 52 10000 5.7 110 06:53 06.01.2020
1064 Clouds 31 1013 52 10000 5.7 110 06:35 06.01.2020
1065 Clouds 31 1013 55 10000 5.7 70 05:48 06.01.2020
1066 Clouds 31 1013 55 10000 5.7 70 05:23 06.01.2020
1067 Clouds 31 1015 52 10000 5.1 90 04:23 06.01.2020
1068 Clouds 30 1015 55 10000 6.2 90 03:30 06.01.2020
1069 Clouds 29 1015 58 10000 4.6 90 02:27 06.01.2020
1070 Clouds 28 1015 61 10000 3.1 120 01:53 06.01.2020
1071 Clouds 28 1015 61 10000 3.1 120 01:30 06.01.2020
1072 Clouds 27 1014 65 10000 3.1 100 00:46 06.01.2020
1073 Clouds 27 1014 65 10000 3.1 100 00:27 06.01.2020
1074 Clouds 26 1014 65 10000 2.6 110 23:57 05.01.2020
1075 Clouds 26 1014 65 10000 2.6 110 23:38 05.01.2020
1076 Clouds 26 1014 65 10000 2.6 110 23:19 05.01.2020
1077 Clouds 26 1013 69 10000 2.6 110 22:40 05.01.2020
1078 Clouds 26 1013 69 10000 2.6 110 22:40 05.01.2020
1079 Clouds 26 1013 69 10000 2.6 110 22:20 05.01.2020
1080 Clouds 26 1013 74 10000 1.5 100 21:56 05.01.2020
1081 Clouds 26 1013 74 10000 1.5 100 21:38 05.01.2020
1082 Clouds 26 1013 74 10000 1.5 100 21:20 05.01.2020
1083 Clouds 26 1013 74 10000 1.5 110 20:56 05.01.2020
1084 Clouds 26 1013 74 10000 1.5 110 20:38 05.01.2020
1085 Clouds 26 1013 69 10000 2.1 100 20:19 05.01.2020
1086 Clouds 26 1013 69 10000 2.1 100 19:57 05.01.2020
1087 Clouds 26 1013 69 10000 2.1 100 19:38 05.01.2020
1088 Clouds 27 1013 69 10000 2.1 100 19:19 05.01.2020
1089 Clouds 27 1014 69 10000 3.6 110 18:55 05.01.2020
1090 Clouds 27 1014 69 10000 3.6 110 18:36 05.01.2020
1091 Clouds 27 1014 69 10000 3.6 110 18:18 05.01.2020
1092 Clouds 26 1014 74 10000 3.6 110 17:57 05.01.2020
1093 Clouds 26 1014 74 10000 3.6 110 17:37 05.01.2020
1094 Clouds 26 1014 74 10000 3.6 110 17:19 05.01.2020
1095 Clouds 26 1014 74 10000 3.6 110 17:19 05.01.2020
1096 Clouds 27 1015 74 10000 4.1 100 16:55 05.01.2020
1097 Clouds 27 1015 74 10000 4.1 100 16:37 05.01.2020
1098 Clouds 27 1015 74 10000 4.1 100 16:19 05.01.2020
1099 Clouds 27 1015 74 10000 4.1 100 16:19 05.01.2020
1100 Clouds 27 1015 74 10000 4.1 100 15:37 05.01.2020
1101 Clouds 27 1015 74 10000 4.1 100 15:18 05.01.2020
1102 Clouds 27 1014 74 10000 2.6 110 14:55 05.01.2020
1103 Clouds 27 1014 74 10000 2.6 110 14:36 05.01.2020
1104 Clouds 27 1014 74 10000 2.6 110 14:18 05.01.2020
1105 Clouds 27 1014 74 10000 3.1 110 13:40 05.01.2020
1106 Clouds 27 1014 74 10000 3.1 110 13:21 05.01.2020
1107 Clouds 27 1013 69 10000 2.6 100 12:58 05.01.2020
1108 Clouds 27 1013 69 10000 2.6 100 12:39 05.01.2020
1109 Clouds 27 1013 69 10000 2.6 100 12:21 05.01.2020
1110 Clouds 27 1013 69 10000 4.1 120 11:58 05.01.2020
1111 Clouds 27 1013 69 10000 4.1 120 11:39 05.01.2020
1112 Clouds 27 1013 69 10000 4.1 120 11:39 05.01.2020
1113 Clouds 27 1013 69 10000 4.1 120 11:19 05.01.2020
1114 Clouds 28 1012 62 10000 5.1 100 10:56 05.01.2020
1115 Clouds 28 1012 62 10000 5.1 100 10:36 05.01.2020
1116 Clouds 28 1012 62 10000 5.1 100 10:36 05.01.2020
1117 Clouds 28 1012 62 10000 5.1 100 10:18 05.01.2020
1118 Clouds 29 1012 55 10000 5.7 90 09:41 05.01.2020
1119 Clouds 30 1012 55 10000 5.7 90 09:21 05.01.2020
1120 Clouds 30 1012 52 10000 6.7 80 08:46 05.01.2020
1121 Clouds 30 1012 52 10000 6.7 80 08:27 05.01.2020
1122 Clouds 30 1012 51 10000 7.7 80 07:55 05.01.2020
1123 Clouds 30 1012 51 10000 7.7 80 07:35 05.01.2020
1124 Clouds 30 1013 55 10000 7.7 80 06:58 05.01.2020
1125 Clouds 30 1014 55 10000 7.7 80 05:55 05.01.2020
1126 Clouds 30 1014 55 10000 7.7 80 05:30 05.01.2020
1127 Clouds 29 1014 58 10000 5.7 80 04:34 05.01.2020
1128 Clouds 29 1015 62 10000 5.7 80 03:47 05.01.2020
1129 Clouds 29 1015 58 10000 3.1 80 02:43 05.01.2020
1130 Clouds 28 1015 58 10000 3.1 80 02:20 05.01.2020
1131 Clouds 27 1015 69 10000 2.6 70 01:40 05.01.2020
1132 Clouds 26 1015 69 10000 2.6 70 01:18 05.01.2020
1133 Clouds 26 1014 74 10000 2.1 100 00:40 05.01.2020
1134 Clouds 25 1014 74 10000 2.1 100 00:21 05.01.2020
1135 Clouds 25 1013 83 10000 1.5 100 23:59 04.01.2020
1136 Clouds 25 1013 83 10000 1.5 100 23:39 04.01.2020
1137 Clouds 24 1013 83 10000 1.5 100 23:18 04.01.2020
1138 Clouds 24 1013 83 10000 1.5 80 22:39 04.01.2020
1139 Clouds 24 1013 83 10000 1.5 80 22:39 04.01.2020
1140 Clouds 24 1013 83 10000 1.5 80 22:21 04.01.2020
1141 Clouds 24 1013 83 10000 1 120 21:57 04.01.2020
1142 Clouds 24 1013 83 10000 1 120 21:57 04.01.2020
1143 Clouds 24 1013 83 10000 1 120 21:38 04.01.2020
1144 Clouds 24 1013 83 10000 1 120 21:19 04.01.2020
1145 Clouds 25 1013 83 10000 1 0 20:56 04.01.2020
1146 Clouds 25 1013 83 10000 1 0 20:37 04.01.2020
1147 Clouds 25 1013 83 10000 1 0 20:19 04.01.2020
1148 Clouds 25 1013 83 10000 3.1 70 19:42 04.01.2020
1149 Clouds 25 1013 83 10000 3.1 70 19:42 04.01.2020
1150 Clouds 25 1013 83 10000 3.1 70 19:23 04.01.2020
1151 Clouds 25 1013 83 10000 4.1 70 18:58 04.01.2020
1152 Clouds 25 1013 83 10000 4.1 70 18:39 04.01.2020
1153 Clouds 25 1013 83 10000 4.1 70 18:20 04.01.2020
1154 Clouds 25 1013 83 10000 3.6 110 17:58 04.01.2020
1155 Clouds 25 1013 83 10000 3.6 110 17:40 04.01.2020
1156 Clouds 25 1013 83 10000 3.6 110 17:21 04.01.2020
1157 Rain 25 1014 88 9000 3.6 120 16:42 04.01.2020
1158 Rain 25 1014 88 9000 3.6 120 16:24 04.01.2020
1159 Rain 25 1014 88 9000 3.6 120 16:24 04.01.2020
1160 Clouds 26 1014 83 10000 3.6 110 15:57 04.01.2020
1161 Clouds 26 1014 83 10000 3.6 110 15:39 04.01.2020
1162 Clouds 26 1014 83 10000 3.6 110 15:39 04.01.2020
1163 Clouds 26 1014 83 10000 3.6 110 15:19 04.01.2020
1164 Clouds 27 1014 74 10000 3.1 100 14:57 04.01.2020
1165 Clouds 26 1014 74 10000 3.1 100 14:39 04.01.2020
1166 Clouds 26 1014 74 10000 3.1 100 14:19 04.01.2020
1167 Clouds 27 1013 65 10000 3.1 110 13:55 04.01.2020
1168 Clouds 27 1013 65 10000 3.1 110 13:37 04.01.2020
1169 Clouds 27 1013 65 10000 3.1 110 13:37 04.01.2020
1170 Clouds 27 1013 65 10000 3.1 110 13:18 04.01.2020
1171 Clouds 27 1013 65 10000 3.1 110 13:18 04.01.2020
1172 Clouds 27 1012 65 10000 2.6 70 12:42 04.01.2020
1173 Clouds 27 1012 65 10000 2.6 70 12:20 04.01.2020
1174 Clouds 27 1012 65 10000 2.6 70 12:20 04.01.2020
1175 Clouds 27 1012 61 10000 5.1 80 11:59 04.01.2020
1176 Clouds 27 1012 61 10000 5.1 80 11:40 04.01.2020
1177 Clouds 28 1012 61 10000 5.1 80 11:19 04.01.2020
1178 Clouds 28 1011 66 10000 3.6 110 10:55 04.01.2020
1179 Clouds 28 1011 66 10000 3.6 110 10:55 04.01.2020
1180 Clouds 28 1011 66 10000 3.6 110 10:36 04.01.2020
1181 Clouds 29 1011 66 10000 3.6 110 10:18 04.01.2020
1182 Clouds 29 1011 62 10000 4.1 0 09:41 04.01.2020
1183 Clouds 29 1011 62 10000 4.1 0 09:22 04.01.2020
1184 Clouds 30 1011 58 10000 2.1 0 08:42 04.01.2020
1185 Clouds 31 1011 58 10000 2.1 0 08:21 04.01.2020
1186 Clouds 31 1011 55 10000 4.6 100 07:44 04.01.2020
1187 Clouds 31 1011 55 10000 4.6 100 07:21 04.01.2020
1188 Clouds 31 1012 55 10000 3.6 100 06:33 04.01.2020
1189 Clouds 30 1013 62 10000 1.5 290 05:39 04.01.2020
1190 Clouds 29 1014 65 10000 3.6 270 04:44 04.01.2020
1191 Clouds 29 1014 65 10000 3.6 270 04:26 04.01.2020
1192 Clouds 29 1015 61 10000 1.5 0 03:19 04.01.2020
1193 Clouds 28 1015 61 10000 1.5 60 02:23 04.01.2020
1194 Clouds 26 1015 69 10000 1.5 0 01:56 04.01.2020
1195 Clouds 26 1015 69 10000 1.5 0 01:32 04.01.2020
1196 Clouds 24 1014 73 10000 2.6 20 00:46 04.01.2020
1197 Clouds 24 1014 73 10000 2.6 20 00:27 04.01.2020
1198 Clouds 23 1013 73 10000 2.6 10 23:48 03.01.2020
1199 Clouds 23 1013 73 10000 2.6 10 23:26 03.01.2020
1200 Clouds 24 1013 69 10000 3.1 10 22:54 03.01.2020
1201 Clouds 24 1013 69 10000 3.1 10 22:36 03.01.2020
1202 Clouds 24 1013 69 10000 3.1 10 22:18 03.01.2020
1203 Clouds 24 1013 69 10000 3.1 10 22:18 03.01.2020
1204 Clouds 24 1013 69 10000 2.6 360 21:54 03.01.2020
1205 Clouds 24 1013 69 10000 2.6 360 21:36 03.01.2020
1206 Clouds 24 1013 69 10000 2.6 360 21:18 03.01.2020
1207 Clouds 24 1013 73 10000 1 0 20:43 03.01.2020
1208 Clouds 24 1013 73 10000 1 0 20:19 03.01.2020
1209 Clouds 24 1013 73 10000 2.1 320 19:58 03.01.2020
1210 Clouds 24 1013 73 10000 2.1 320 19:39 03.01.2020
1211 Clouds 24 1013 73 10000 2.1 320 19:21 03.01.2020
1212 Clouds 24 1014 73 10000 1.5 250 18:44 03.01.2020
1213 Clouds 24 1014 73 10000 1.5 250 18:44 03.01.2020
1214 Clouds 24 1014 73 10000 1.5 250 18:26 03.01.2020
1215 Clouds 24 1014 73 10000 1.5 220 17:57 03.01.2020
1216 Clouds 25 1014 73 10000 1.5 220 17:39 03.01.2020
1217 Clouds 25 1014 73 10000 1.5 220 17:19 03.01.2020
1218 Clouds 25 1015 65 10000 1.5 110 16:43 03.01.2020
1219 Clouds 25 1015 65 10000 1.5 110 16:24 03.01.2020
1220 Clouds 25 1015 65 10000 1.5 100 15:58 03.01.2020
1221 Clouds 25 1015 65 10000 1.5 100 15:58 03.01.2020
1222 Clouds 25 1015 65 10000 1.5 100 15:40 03.01.2020
1223 Clouds 26 1015 65 10000 1.5 100 15:18 03.01.2020
1224 Clouds 25 1015 69 10000 3.1 60 14:39 03.01.2020
1225 Clouds 26 1015 69 10000 3.1 60 14:20 03.01.2020
1226 Clouds 26 1015 65 10000 3.1 70 13:56 03.01.2020
1227 Clouds 26 1015 65 10000 3.1 70 13:37 03.01.2020
1228 Clouds 26 1015 65 10000 3.1 70 13:19 03.01.2020
1229 Clouds 27 1014 61 10000 3.1 80 12:39 03.01.2020
1230 Clouds 27 1014 61 10000 3.1 80 12:21 03.01.2020
1231 Clouds 27 1014 58 10000 3.1 80 11:48 03.01.2020
1232 Clouds 27 1014 58 10000 3.1 80 11:29 03.01.2020
1233 Clouds 29 1014 51 10000 5.1 70 10:47 03.01.2020
1234 Clouds 29 1014 51 10000 5.1 70 10:28 03.01.2020
1235 Clouds 29 1013 51 10000 6.7 80 09:59 03.01.2020
1236 Clouds 29 1013 51 10000 6.7 80 09:41 03.01.2020
1237 Clouds 30 1013 51 10000 6.7 80 09:22 03.01.2020
1238 Clouds 31 1013 49 10000 5.1 90 08:57 03.01.2020
1239 Clouds 31 1013 49 10000 5.1 90 08:38 03.01.2020
1240 Clouds 31 1013 49 10000 5.1 90 08:19 03.01.2020
1241 Clouds 31 1013 49 10000 5.1 100 07:40 03.01.2020
1242 Clouds 32 1013 49 10000 5.1 100 07:19 03.01.2020
1243 Clouds 31 1014 52 10000 7.7 80 06:51 03.01.2020
1244 Clouds 31 1014 52 10000 7.7 80 06:33 03.01.2020
1245 Clouds 31 1015 48 10000 7.2 80 05:47 03.01.2020
1246 Clouds 31 1016 48 10000 7.2 80 04:27 03.01.2020
1247 Clouds 29 1016 65 10000 1.5 60 02:59 03.01.2020
1248 Clouds 28 1016 65 10000 1.5 60 02:41 03.01.2020
1249 Clouds 28 1016 65 10000 1.5 60 01:45 03.01.2020
1250 Clouds 26 1016 73 10000 3.1 59 00:53 03.01.2020
1251 Clouds 25 1016 73 10000 3.1 59 00:31 03.01.2020
1252 Clouds 25 1015 73 10000 1 0 23:57 02.01.2020
1253 Clouds 25 1015 73 10000 1 0 23:38 02.01.2020
1254 Clouds 25 1015 73 10000 1 0 23:19 02.01.2020
1255 Clouds 25 1014 73 10000 1 0 22:57 02.01.2020
1256 Clouds 25 1014 73 10000 1 0 22:38 02.01.2020
1257 Clouds 25 1014 73 10000 1 0 22:18 02.01.2020
1258 Clouds 25 1015 69 10000 1 0 21:41 02.01.2020
1259 Clouds 25 1015 69 10000 1 0 21:23 02.01.2020
1260 Clouds 25 1014 73 10000 1 350 20:59 02.01.2020
1261 Clouds 25 1014 73 10000 1 350 20:59 02.01.2020
1262 Clouds 25 1014 73 10000 1 350 20:59 02.01.2020
1263 Clouds 25 1014 73 10000 1 350 20:39 02.01.2020
1264 Clouds 25 1014 73 10000 1 350 20:21 02.01.2020
1265 Clouds 25 1014 73 10000 1 350 20:21 02.01.2020
1266 Clouds 26 1015 65 10000 2.1 90 19:56 02.01.2020
1267 Clouds 26 1015 65 10000 2.1 90 19:38 02.01.2020
1268 Clouds 26 1015 65 10000 2.1 90 19:19 02.01.2020
1269 Clouds 26 1016 65 10000 2.1 40 18:58 02.01.2020
1270 Clouds 26 1016 65 10000 2.1 40 18:58 02.01.2020
1271 Clouds 26 1016 65 10000 2.1 40 18:39 02.01.2020
1272 Clouds 26 1016 65 10000 2.1 40 18:21 02.01.2020
1273 Clouds 26 1016 65 10000 1 0 17:56 02.01.2020
1274 Clouds 26 1016 65 10000 1 0 17:37 02.01.2020
1275 Clouds 26 1016 65 10000 1 0 17:19 02.01.2020
1276 Clouds 26 1016 65 10000 1.5 110 16:56 02.01.2020
1277 Clouds 26 1016 65 10000 1.5 110 16:38 02.01.2020
1278 Clouds 26 1016 65 10000 1.5 110 16:20 02.01.2020
1279 Clouds 26 1017 65 10000 2.1 90 15:45 02.01.2020
1280 Clouds 27 1017 65 10000 2.1 90 15:24 02.01.2020
1281 Clouds 27 1017 69 10000 2.6 80 14:59 02.01.2020
1282 Clouds 27 1017 69 10000 2.6 80 14:39 02.01.2020
1283 Clouds 27 1017 69 10000 2.6 80 14:39 02.01.2020
1284 Clouds 27 1017 69 10000 2.6 80 14:21 02.01.2020
1285 Clouds 27 1016 61 10000 2.6 90 13:58 02.01.2020
1286 Clouds 27 1016 61 10000 2.6 90 13:40 02.01.2020
1287 Clouds 27 1016 61 10000 2.6 90 13:19 02.01.2020
1288 Clouds 27 1016 61 10000 2.6 100 12:43 02.01.2020
1289 Clouds 28 1015 58 10000 4.6 80 12:23 02.01.2020
1290 Clouds 28 1015 58 10000 4.6 80 11:42 02.01.2020
1291 Clouds 28 1015 58 10000 4.6 80 11:23 02.01.2020
1292 Clouds 29 1014 55 10000 6.7 70 10:46 02.01.2020
1293 Clouds 29 1014 55 10000 6.7 70 10:28 02.01.2020
1294 Clouds 30 1014 58 10000 7.7 70 09:58 02.01.2020
1295 Clouds 30 1014 58 10000 7.7 70 09:36 02.01.2020
1296 Clouds 30 1014 58 10000 5.1 80 08:59 02.01.2020
1297 Clouds 30 1014 58 10000 5.1 80 08:40 02.01.2020
1298 Clouds 31 1014 58 10000 5.1 80 08:21 02.01.2020
1299 Clouds 31 1014 55 10000 6.2 90 07:47 02.01.2020
1300 Clouds 31 1014 55 10000 6.2 90 07:27 02.01.2020
1301 Clouds 30 1015 62 10000 6.7 70 06:43 02.01.2020
1302 Clouds 30 1016 62 10000 5.1 90 05:42 02.01.2020
1303 Clouds 30 1017 66 10000 5.7 70 04:36 02.01.2020
1304 Clouds 30 1018 62 10000 4.6 80 03:44 02.01.2020
1305 Clouds 29 1018 69 10000 4.1 70 02:21 02.01.2020
1306 Clouds 28 1018 78 10000 2.6 80 01:53 02.01.2020
1307 Clouds 27 1018 78 10000 2.6 80 01:25 02.01.2020
1308 Clouds 25 1017 88 10000 1 0 00:45 02.01.2020
1309 Clouds 25 1017 88 10000 1 0 00:26 02.01.2020
1310 Rain 25 1016 88 10000 6.38 78 23:43 01.01.2020
1311 Rain 25 1016 88 10000 6.38 78 23:23 01.01.2020
1312 Rain 25 1016 88 10000 5.52 76 22:39 01.01.2020
1313 Rain 25 1016 88 10000 5.52 76 22:39 01.01.2020
1314 Rain 25 1016 88 10000 5.52 76 22:20 01.01.2020
1315 Rain 25 1015 94 9000 1 0 21:58 01.01.2020
1316 Rain 25 1015 94 9000 1 0 21:39 01.01.2020
1317 Clouds 25 1015 83 50 5.52 76 21:20 01.01.2020
1318 Clouds 25 1015 88 10000 1 0 20:57 01.01.2020
1319 Clouds 25 1015 88 10000 1 0 20:38 01.01.2020
1320 Clouds 25 1015 88 10000 1 0 20:20 01.01.2020
1321 Rain 25 1017 83 10000 1 0 19:57 01.01.2020
1322 Rain 26 1017 83 10000 1 0 19:38 01.01.2020
1323 Rain 26 1017 83 10000 1 0 19:20 01.01.2020
1324 Clouds 26 1016 83 10000 1 0 18:57 01.01.2020
1325 Clouds 26 1016 83 10000 1 0 18:37 01.01.2020
1326 Clouds 26 1016 83 10000 1 0 18:19 01.01.2020
1327 Rain 26 1017 83 10000 4.03 78 17:57 01.01.2020
1328 Rain 26 1017 83 10000 4.03 78 17:39 01.01.2020
1329 Rain 26 1017 83 10000 4.77 68 17:19 01.01.2020
1330 Clouds 26 1017 88 10000 1 0 16:56 01.01.2020
1331 Clouds 26 1017 88 10000 1 0 16:56 01.01.2020
1332 Clouds 26 1017 88 10000 1 0 16:37 01.01.2020
1333 Clouds 26 1017 88 10000 1 0 16:19 01.01.2020
1334 Clouds 26 1017 88 10000 1 0 15:54 01.01.2020
1335 Clouds 26 1017 88 10000 1 0 15:36 01.01.2020
1336 Clouds 26 1017 88 10000 1 0 15:18 01.01.2020
1337 Rain 27 1017 78 10000 2.1 200 14:41 01.01.2020
1338 Rain 27 1017 78 10000 2.1 200 14:22 01.01.2020
1339 Rain 27 1017 83 10000 1.5 250 13:56 01.01.2020
1340 Rain 27 1017 83 10000 1.5 250 13:56 01.01.2020
1341 Rain 27 1017 83 10000 1.5 250 13:56 01.01.2020
1342 Rain 27 1017 83 10000 1.5 250 13:37 01.01.2020
1343 Rain 27 1017 83 10000 1.5 250 13:19 01.01.2020
1344 Clouds 27 1016 78 10000 1.5 220 12:57 01.01.2020
1345 Clouds 27 1016 78 10000 1.5 220 12:39 01.01.2020
1346 Clouds 27 1016 78 10000 1.5 220 12:19 01.01.2020
1347 Clouds 27 1016 78 10000 1.5 220 12:19 01.01.2020
1348 Clouds 27 1015 74 10000 2.6 20 11:56 01.01.2020
1349 Clouds 27 1015 74 10000 2.6 20 11:37 01.01.2020
1350 Clouds 27 1015 74 10000 2.6 20 11:18 01.01.2020
1351 Clouds 28 1015 74 10000 3.1 360 10:41 01.01.2020
1352 Clouds 28 1015 74 10000 3.1 360 10:21 01.01.2020
1353 Clouds 28 1014 74 10000 1.5 220 09:59 01.01.2020
1354 Clouds 28 1014 74 10000 1.5 220 09:38 01.01.2020
1355 Clouds 28 1014 74 10000 1.5 220 09:19 01.01.2020
1356 Rain 28 1014 78 10000 2.1 270 08:56 01.01.2020
1357 Rain 28 1014 78 10000 2.1 270 08:37 01.01.2020
1358 Rain 28 1014 78 10000 2.1 270 08:19 01.01.2020
1359 Rain 28 1014 78 9000 1.5 320 07:54 01.01.2020
1360 Rain 28 1014 78 9000 1.5 320 07:36 01.01.2020
1361 Rain 28 1015 74 9000 1.5 230 06:45 01.01.2020
1362 Rain 29 1015 74 9000 1.5 230 06:21 01.01.2020
1363 Rain 29 1016 66 10000 1 0 05:22 01.01.2020
1364 Clouds 29 1017 78 10000 1.5 350 03:46 01.01.2020
1365 Clouds 29 1017 78 10000 1.5 350 03:23 01.01.2020
1366 Clouds 27 1017 83 10000 1.5 10 02:57 01.01.2020
1367 Clouds 27 1017 83 10000 1.5 10 02:35 01.01.2020
1368 Rain 26 1017 88 8000 1.5 160 01:56 01.01.2020
1369 Rain 26 1017 88 8000 1.5 160 01:38 01.01.2020
1370 Rain 25 1017 88 8000 1.5 160 01:19 01.01.2020
1371 Rain 25 1016 88 9000 1 130 00:44 01.01.2020
1372 Rain 25 1016 88 9000 1 130 00:25 01.01.2020
1373 Clouds 26 1015 78 10000 3.1 20 23:41 31.12.2019
1374 Clouds 26 1015 78 10000 3.1 20 23:21 31.12.2019
1375 Clouds 26 1014 78 6000 0.5 0 22:57 31.12.2019
1376 Clouds 26 1014 78 6000 0.5 0 22:39 31.12.2019
1377 Clouds 26 1014 78 6000 0.5 0 22:20 31.12.2019
1378 Clouds 26 1014 78 6000 0.5 0 21:57 31.12.2019
1379 Clouds 26 1014 78 6000 0.5 0 21:38 31.12.2019
1380 Clouds 26 1014 78 6000 0.5 0 21:38 31.12.2019
1381 Clouds 26 1014 78 6000 0.5 0 21:20 31.12.2019
1382 Clouds 26 1014 78 6000 1 0 20:55 31.12.2019
1383 Clouds 26 1014 78 6000 1 0 20:36 31.12.2019
1384 Clouds 26 1014 78 6000 1 0 20:18 31.12.2019
1385 Clouds 26 1015 78 7000 1 0 19:42 31.12.2019
1386 Clouds 26 1015 78 7000 1 0 19:24 31.12.2019
1387 Clouds 26 1015 74 7000 2.1 80 18:59 31.12.2019
1388 Clouds 26 1015 74 7000 2.1 80 18:40 31.12.2019
1389 Clouds 27 1015 74 7000 2.1 80 18:20 31.12.2019
1390 Clouds 26 1016 78 10000 1.5 70 17:57 31.12.2019
1391 Clouds 26 1016 78 10000 1.5 70 17:38 31.12.2019
1392 Clouds 26 1016 78 10000 1.5 70 17:19 31.12.2019
1393 Clouds 26 1016 78 10000 3.92 73 16:57 31.12.2019
1394 Clouds 26 1016 78 10000 3.92 73 16:38 31.12.2019
1395 Clouds 26 1016 78 10000 3.92 73 16:19 31.12.2019
1396 Clouds 27 1016 78 10000 1 0 15:57 31.12.2019
1397 Clouds 26 1016 78 10000 1 0 15:38 31.12.2019
1398 Clouds 27 1016 78 10000 1 0 15:20 31.12.2019
1399 Clouds 27 1016 74 10000 2.1 70 14:58 31.12.2019
1400 Clouds 27 1016 74 10000 2.1 70 14:38 31.12.2019
1401 Clouds 27 1016 74 10000 2.1 70 14:19 31.12.2019
1402 Clouds 27 1016 69 10000 1.5 120 13:57 31.12.2019
1403 Clouds 27 1016 69 10000 1.5 120 13:39 31.12.2019
1404 Clouds 27 1016 69 10000 1.5 120 13:21 31.12.2019
1405 Clouds 27 1016 69 10000 1.5 120 13:21 31.12.2019
1406 Clouds 28 1015 62 10000 3.1 80 12:58 31.12.2019
1407 Clouds 28 1015 62 10000 3.1 80 12:39 31.12.2019
1408 Clouds 28 1015 62 10000 3.1 80 12:20 31.12.2019
1409 Clouds 28 1015 58 10000 4.1 70 11:56 31.12.2019
1410 Clouds 28 1015 58 10000 4.1 70 11:38 31.12.2019
1411 Clouds 28 1015 58 10000 4.1 70 11:20 31.12.2019
1412 Clouds 29 1015 58 10000 5.1 70 10:57 31.12.2019
1413 Clouds 29 1015 58 10000 5.1 70 10:38 31.12.2019
1414 Clouds 29 1015 58 10000 5.1 70 10:38 31.12.2019
1415 Clouds 29 1015 58 10000 5.1 70 10:20 31.12.2019
1416 Clouds 30 1014 55 10000 4.6 80 09:58 31.12.2019
1417 Clouds 30 1014 55 10000 4.6 80 09:39 31.12.2019
1418 Clouds 30 1014 55 10000 4.6 80 09:39 31.12.2019
1419 Clouds 30 1014 55 10000 4.6 80 09:20 31.12.2019
1420 Clouds 30 1014 70 10000 4.1 30 08:57 31.12.2019
1421 Clouds 30 1014 70 10000 4.1 30 08:37 31.12.2019
1422 Clouds 30 1014 70 10000 4.1 30 08:37 31.12.2019
1423 Clouds 30 1014 70 10000 4.1 30 08:18 31.12.2019
1424 Rain 29 1014 70 10000 5.7 50 07:41 31.12.2019
1425 Rain 29 1014 70 10000 5.7 50 07:19 31.12.2019
1426 Clouds 30 1015 58 10000 4.6 70 06:48 31.12.2019
1427 Clouds 30 1016 58 10000 2.6 90 05:55 31.12.2019
1428 Clouds 30 1017 70 10000 1.5 0 04:27 31.12.2019
1429 Clouds 29 1018 70 10000 1.5 60 03:27 31.12.2019
1430 Clouds 27 1018 78 10000 3.6 60 02:43 31.12.2019
1431 Clouds 27 1017 74 10000 2.6 40 01:53 31.12.2019
1432 Clouds 27 1017 74 10000 2.6 40 01:34 31.12.2019
1433 Clouds 26 1016 78 10000 2.6 40 00:57 31.12.2019
1434 Clouds 26 1016 78 10000 2.6 40 00:38 31.12.2019
1435 Clouds 25 1016 78 10000 2.6 40 00:18 31.12.2019
1436 Clouds 25 1015 78 10000 3.6 10 23:55 30.12.2019
1437 Clouds 25 1015 78 10000 3.6 10 23:37 30.12.2019
1438 Clouds 25 1015 78 10000 3.6 10 23:18 30.12.2019
1439 Clouds 25 1015 78 10000 2.6 30 22:55 30.12.2019
1440 Clouds 25 1015 78 10000 2.6 30 22:37 30.12.2019
1441 Clouds 25 1015 78 10000 2.6 30 22:18 30.12.2019
1442 Clouds 25 1015 78 10000 1 0 21:55 30.12.2019
1443 Clouds 25 1015 78 10000 1 0 21:37 30.12.2019
1444 Clouds 25 1015 78 10000 1 0 21:18 30.12.2019
1445 Clouds 25 1014 78 10000 0.5 0 20:54 30.12.2019
1446 Clouds 25 1014 78 10000 0.5 0 20:36 30.12.2019
1447 Clouds 25 1014 78 10000 0.5 0 20:18 30.12.2019
1448 Clouds 25 1012 74 10000 1 0 19:55 30.12.2019
1449 Clouds 26 1012 74 10000 1 0 19:36 30.12.2019
1450 Clouds 26 1012 74 10000 1 0 19:18 30.12.2019
1451 Clouds 26 1012 74 10000 1 0 19:18 30.12.2019
1452 Clouds 25 1015 78 10000 1.5 110 18:41 30.12.2019
1453 Clouds 26 1015 78 10000 1.5 110 18:21 30.12.2019
1454 Clouds 26 1015 78 10000 1.5 90 17:59 30.12.2019
1455 Clouds 26 1015 78 10000 1.5 90 17:41 30.12.2019
1456 Clouds 26 1015 78 10000 1.5 90 17:20 30.12.2019
1457 Clouds 26 1015 74 10000 0.5 0 16:59 30.12.2019
1458 Clouds 26 1015 74 10000 0.5 0 16:40 30.12.2019
1459 Clouds 26 1015 74 10000 0.5 0 16:20 30.12.2019
1460 Clouds 26 1016 74 10000 1 0 15:56 30.12.2019
1461 Clouds 26 1016 74 10000 1 0 15:38 30.12.2019
1462 Clouds 26 1016 74 10000 1 0 15:19 30.12.2019
1463 Clouds 27 1015 69 10000 1.5 110 14:43 30.12.2019
1464 Clouds 27 1015 69 10000 1.5 110 14:21 30.12.2019
1465 Clouds 27 1015 69 10000 1.5 110 14:21 30.12.2019
1466 Clouds 27 1015 69 10000 2.1 80 13:59 30.12.2019
1467 Clouds 27 1015 69 10000 2.1 80 13:41 30.12.2019
1468 Clouds 27 1015 69 10000 2.1 80 13:22 30.12.2019
1469 Clouds 28 1015 69 10000 3.6 80 12:57 30.12.2019
1470 Clouds 28 1015 69 10000 3.6 80 12:38 30.12.2019
1471 Clouds 28 1015 69 10000 3.6 80 12:19 30.12.2019
1472 Clouds 28 1015 69 10000 3.6 80 12:19 30.12.2019
1473 Clouds 28 1014 66 10000 3.6 90 11:46 30.12.2019
1474 Clouds 29 1014 66 10000 3.6 90 11:22 30.12.2019
1475 Clouds 29 1013 66 10000 4.6 110 10:59 30.12.2019
1476 Clouds 29 1013 66 10000 4.6 110 10:40 30.12.2019
1477 Clouds 29 1013 66 10000 4.6 110 10:19 30.12.2019
1478 Clouds 29 1013 62 10000 6.2 110 09:43 30.12.2019
1479 Clouds 30 1012 58 10000 5.7 110 09:21 30.12.2019
1480 Clouds 30 1012 58 10000 5.7 110 08:57 30.12.2019
1481 Clouds 31 1012 58 10000 5.7 110 08:38 30.12.2019
1482 Clouds 31 1012 58 10000 5.7 110 08:19 30.12.2019
1483 Clouds 31 1012 55 10000 5.7 120 07:46 30.12.2019
1484 Clouds 32 1012 55 10000 5.7 120 07:23 30.12.2019
1485 Clouds 31 1013 59 10000 4.6 120 06:30 30.12.2019
1486 Clouds 31 1015 62 10000 3.6 100 04:31 30.12.2019
1487 Clouds 30 1016 66 10000 3.6 100 03:47 30.12.2019
1488 Clouds 30 1016 66 10000 2.6 60 02:45 30.12.2019
1489 Clouds 29 1016 66 10000 2.6 60 02:25 30.12.2019
1490 Clouds 28 1015 69 10000 1.5 70 01:27 30.12.2019
1491 Clouds 27 1015 78 10000 1.5 130 00:56 30.12.2019
1492 Clouds 26 1015 78 10000 1.5 130 00:36 30.12.2019
1493 Clouds 25 1014 83 10000 2.6 70 23:42 29.12.2019
1494 Clouds 25 1014 83 10000 2.6 70 23:24 29.12.2019
1495 Clouds 26 1014 78 10000 1 0 22:58 29.12.2019
1496 Clouds 26 1014 78 10000 1 0 22:38 29.12.2019
1497 Clouds 26 1014 78 10000 1 0 22:20 29.12.2019
1498 Clouds 26 1014 78 10000 2.03 63 21:55 29.12.2019
1499 Clouds 26 1014 78 10000 2.03 63 21:37 29.12.2019
1500 Clouds 26 1014 78 10000 2.03 63 21:18 29.12.2019
1501 Clouds 26 1014 78 10000 1.5 210 20:55 29.12.2019
1502 Clouds 26 1014 78 10000 1.5 210 20:55 29.12.2019
1503 Clouds 26 1014 78 10000 1.5 210 20:37 29.12.2019
1504 Clouds 26 1014 78 10000 1.5 210 20:37 29.12.2019
1505 Clouds 25 1014 78 10000 1.5 210 20:18 29.12.2019
1506 Clouds 25 1014 78 10000 1 0 19:55 29.12.2019
1507 Clouds 25 1014 78 10000 1 0 19:37 29.12.2019
1508 Clouds 26 1014 78 10000 1 0 19:18 29.12.2019
1509 Clouds 26 1015 78 10000 2.65 63 18:40 29.12.2019
1510 Clouds 26 1015 78 10000 2.65 63 18:21 29.12.2019
1511 Clouds 26 1015 74 10000 2.65 63 17:59 29.12.2019
1512 Clouds 26 1015 74 10000 2.65 63 17:40 29.12.2019
1513 Clouds 26 1015 74 10000 4.43 76 17:20 29.12.2019
1514 Clouds 26 1015 74 10000 1 0 16:58 29.12.2019
1515 Clouds 26 1015 74 10000 1 0 16:40 29.12.2019
1516 Clouds 26 1015 74 10000 1 0 16:40 29.12.2019
1517 Clouds 27 1015 74 10000 1 0 16:21 29.12.2019
1518 Clouds 27 1015 74 10000 1 0 16:21 29.12.2019
1519 Clouds 26 1015 74 10000 1 0 15:59 29.12.2019
1520 Clouds 26 1015 74 10000 1 0 15:40 29.12.2019
1521 Clouds 27 1015 74 10000 1 0 15:20 29.12.2019
1522 Clouds 27 1015 74 10000 1 90 14:59 29.12.2019
1523 Clouds 27 1015 74 10000 1 90 14:41 29.12.2019
1524 Clouds 27 1015 74 10000 1 90 14:19 29.12.2019
1525 Clouds 28 1014 69 10000 1.5 90 13:59 29.12.2019
1526 Clouds 28 1014 69 10000 1.5 90 13:40 29.12.2019
1527 Clouds 28 1014 69 10000 1.5 90 13:22 29.12.2019
1528 Clouds 28 1013 69 10000 2.6 100 12:57 29.12.2019
1529 Clouds 28 1013 69 10000 2.6 100 12:38 29.12.2019
1530 Clouds 28 1013 69 10000 2.6 100 12:20 29.12.2019
1531 Clouds 29 1013 62 10000 3.1 120 11:41 29.12.2019
1532 Clouds 29 1013 62 10000 3.1 120 11:21 29.12.2019
1533 Clouds 29 1012 58 10000 4.1 110 10:57 29.12.2019
1534 Clouds 30 1012 58 10000 4.1 110 10:38 29.12.2019
1535 Clouds 30 1012 58 10000 4.1 110 10:18 29.12.2019
1536 Clouds 30 1012 55 10000 4.1 110 09:45 29.12.2019
1537 Clouds 31 1012 55 10000 4.1 110 09:27 29.12.2019
1538 Clouds 31 1012 55 10000 5.7 100 08:55 29.12.2019
1539 Clouds 31 1012 55 10000 5.7 100 08:37 29.12.2019
1540 Clouds 32 1012 55 10000 5.7 100 08:18 29.12.2019
1541 Clouds 31 1012 58 10000 5.7 110 07:43 29.12.2019
1542 Clouds 31 1012 58 10000 5.7 110 07:25 29.12.2019
1543 Clouds 31 1012 66 10000 6.7 120 06:28 29.12.2019
1544 Clouds 29 1014 69 10000 5.1 110 05:55 29.12.2019
1545 Clouds 29 1014 62 10000 5.1 100 04:59 29.12.2019
1546 Clouds 30 1014 62 10000 5.1 100 04:30 29.12.2019
1547 Clouds 30 1015 62 10000 5.1 90 03:32 29.12.2019
1548 Clouds 29 1014 65 10000 4.1 90 02:27 29.12.2019
1549 Clouds 28 1014 69 10000 3.6 90 01:47 29.12.2019
1550 Clouds 28 1014 69 10000 3.6 90 01:28 29.12.2019
1551 Clouds 27 1014 78 10000 2.6 100 00:45 29.12.2019
1552 Clouds 26 1014 78 10000 2.6 100 00:24 29.12.2019
1553 Clouds 26 1013 78 10000 1.5 110 23:46 28.12.2019
1554 Clouds 26 1013 78 10000 1.5 110 23:19 28.12.2019
1555 Clouds 26 1013 78 10000 1 90 22:59 28.12.2019
1556 Clouds 26 1013 78 10000 1 90 22:37 28.12.2019
1557 Clouds 26 1013 78 10000 1 90 22:18 28.12.2019
1558 Clouds 25 1013 83 10000 1 80 21:55 28.12.2019
1559 Clouds 25 1013 83 10000 1 80 21:37 28.12.2019
1560 Clouds 25 1013 83 10000 1 80 21:19 28.12.2019
1561 Clouds 26 1012 83 10000 1.5 80 20:40 28.12.2019
1562 Clouds 26 1012 83 10000 1.5 80 20:22 28.12.2019
1563 Clouds 26 1013 78 10000 1.5 90 19:59 28.12.2019
1564 Clouds 26 1013 78 10000 1.5 90 19:40 28.12.2019
1565 Clouds 27 1013 78 10000 1.5 90 19:22 28.12.2019
1566 Clouds 26 1013 83 10000 2.1 70 18:59 28.12.2019
1567 Clouds 26 1013 83 10000 2.1 70 18:40 28.12.2019
1568 Clouds 26 1013 83 10000 2.1 70 18:20 28.12.2019
1569 Clouds 27 1013 74 10000 1.5 90 17:56 28.12.2019
1570 Clouds 27 1013 74 10000 1.5 90 17:38 28.12.2019
1571 Clouds 27 1013 74 10000 1.5 90 17:19 28.12.2019
1572 Clouds 27 1013 65 10000 3.1 80 16:46 28.12.2019
1573 Clouds 27 1013 65 10000 3.1 80 16:26 28.12.2019
1574 Clouds 27 1013 69 10000 1.5 100 15:49 28.12.2019
1575 Clouds 27 1013 69 10000 1.5 100 15:25 28.12.2019
1576 Clouds 28 1013 65 10000 2.6 80 15:00 28.12.2019
1577 Clouds 28 1013 65 10000 2.6 80 14:40 28.12.2019
1578 Clouds 28 1013 65 10000 2.6 80 14:40 28.12.2019
1579 Clouds 28 1013 65 10000 2.6 80 14:21 28.12.2019
1580 Clouds 28 1013 74 10000 2.6 100 13:57 28.12.2019
1581 Clouds 28 1013 74 10000 2.6 100 13:38 28.12.2019
1582 Clouds 28 1013 74 10000 2.6 100 13:19 28.12.2019
1583 Clouds 28 1012 74 10000 3.1 110 12:43 28.12.2019
1584 Clouds 28 1012 74 10000 3.1 110 12:43 28.12.2019
1585 Clouds 28 1012 74 10000 3.1 110 12:24 28.12.2019
1586 Clouds 29 1012 66 10000 3.6 100 11:57 28.12.2019
1587 Clouds 29 1012 66 10000 3.6 100 11:38 28.12.2019
1588 Clouds 29 1012 66 10000 3.6 100 11:19 28.12.2019
1589 Clouds 29 1011 66 10000 4.1 90 10:44 28.12.2019
1590 Clouds 30 1011 66 10000 4.1 90 10:22 28.12.2019
1591 Clouds 30 1011 62 10000 5.7 100 09:58 28.12.2019
1592 Clouds 31 1011 62 10000 5.7 100 09:40 28.12.2019
1593 Clouds 31 1010 59 10000 5.7 90 09:20 28.12.2019
1594 Clouds 32 1010 59 10000 5.7 90 08:44 28.12.2019
1595 Clouds 32 1010 59 10000 5.7 90 08:26 28.12.2019
1596 Clouds 31 1010 66 10000 5.1 120 07:53 28.12.2019
1597 Clouds 32 1010 66 10000 5.1 120 07:30 28.12.2019
1598 Clouds 32 1011 62 10000 5.1 100 06:27 28.12.2019
1599 Clouds 30 1013 74 10000 5.1 90 04:36 28.12.2019
1600 Clouds 29 1013 70 10000 3.6 110 03:39 28.12.2019
1601 Clouds 29 1013 74 10000 2.1 100 02:48 28.12.2019
1602 Clouds 28 1013 83 10000 2.6 70 01:59 28.12.2019
1603 Clouds 27 1013 83 10000 2.6 70 01:30 28.12.2019
1604 Clouds 27 1012 78 10000 1 60 00:55 28.12.2019
1605 Clouds 26 1012 78 10000 1 60 00:37 28.12.2019
1606 Clouds 26 1012 78 10000 1 60 00:19 28.12.2019
1607 Clouds 26 1011 83 10000 1 0 23:43 27.12.2019
1608 Clouds 26 1011 83 10000 1 0 23:19 27.12.2019
1609 Clouds 26 1011 83 10000 1 0 23:19 27.12.2019
1610 Clouds 26 1010 83 10000 2.6 80 22:57 27.12.2019
1611 Clouds 26 1010 83 10000 2.6 80 22:38 27.12.2019
1612 Clouds 26 1010 83 10000 2.6 80 22:20 27.12.2019
1613 Clouds 26 1010 83 10000 2.6 70 21:55 27.12.2019
1614 Clouds 26 1010 83 10000 2.6 70 21:36 27.12.2019
1615 Clouds 26 1010 83 10000 2.6 70 21:36 27.12.2019
1616 Clouds 26 1010 83 10000 2.6 70 21:18 27.12.2019
1617 Clouds 27 1010 74 10000 3.85 83 20:41 27.12.2019
1618 Clouds 27 1010 74 10000 3.65 97 20:22 27.12.2019
1619 Clouds 27 1010 78 10000 2.6 130 19:42 27.12.2019
1620 Clouds 27 1010 78 10000 2.6 130 19:21 27.12.2019
1621 Clouds 27 1010 74 10000 3.1 120 18:59 27.12.2019
1622 Clouds 27 1010 74 10000 3.1 120 18:39 27.12.2019
1623 Clouds 27 1010 74 10000 3.1 120 18:20 27.12.2019
1624 Clouds 27 1011 78 10000 1 0 17:57 27.12.2019
1625 Clouds 27 1011 78 10000 1 0 17:39 27.12.2019
1626 Clouds 27 1011 78 10000 1 0 17:19 27.12.2019
1627 Clouds 27 1011 78 10000 1.5 120 16:58 27.12.2019
1628 Clouds 27 1011 78 10000 1.5 120 16:38 27.12.2019
1629 Clouds 27 1011 78 10000 1.5 120 16:19 27.12.2019
1630 Clouds 27 1011 78 10000 1.5 120 16:19 27.12.2019
1631 Clouds 28 1012 74 10000 1.5 130 15:43 27.12.2019
1632 Clouds 28 1012 74 10000 1.5 130 15:20 27.12.2019
1633 Clouds 28 1012 74 10000 2.1 120 14:57 27.12.2019
1634 Clouds 28 1012 74 10000 2.1 120 14:39 27.12.2019
1635 Clouds 28 1012 74 10000 2.1 120 14:20 27.12.2019
1636 Clouds 29 1011 70 10000 3.1 120 13:48 27.12.2019
1637 Clouds 29 1011 70 10000 3.1 120 13:25 27.12.2019
1638 Clouds 29 1011 70 10000 3.1 120 13:25 27.12.2019
1639 Clouds 29 1011 74 10000 2.1 0 12:58 27.12.2019
1640 Clouds 29 1011 74 10000 2.1 0 12:39 27.12.2019
1641 Clouds 29 1011 74 10000 2.1 0 12:21 27.12.2019
1642 Clouds 29 1010 70 10000 1.5 210 11:44 27.12.2019
1643 Clouds 30 1010 70 10000 1.5 210 11:24 27.12.2019
1644 Clouds 30 1009 66 10000 1.5 0 10:55 27.12.2019
1645 Clouds 31 1009 66 10000 1.5 0 10:37 27.12.2019
1646 Clouds 31 1009 66 10000 1.5 0 10:19 27.12.2019
1647 Clouds 31 1009 62 10000 3.1 140 09:42 27.12.2019
1648 Clouds 31 1009 62 10000 3.1 140 09:21 27.12.2019
1649 Clouds 32 1009 59 10000 3.1 130 08:56 27.12.2019
1650 Clouds 32 1009 59 10000 3.1 130 08:36 27.12.2019
1651 Clouds 32 1009 62 10000 2.6 0 07:51 27.12.2019
1652 Clouds 32 1009 62 10000 2.6 0 07:31 27.12.2019
1653 Clouds 33 1010 59 10000 4.1 100 06:37 27.12.2019
1654 Clouds 31 1011 62 10000 3.1 120 05:28 27.12.2019
1655 Clouds 30 1012 74 10000 3.6 110 03:40 27.12.2019
1656 Clouds 29 1011 70 10000 3.1 100 02:20 27.12.2019
1657 Clouds 28 1011 78 10000 2.6 100 01:37 27.12.2019
1658 Clouds 27 1011 78 10000 2.6 100 01:18 27.12.2019
1659 Clouds 26 1011 83 10000 2.1 80 00:41 27.12.2019
1660 Clouds 26 1011 83 10000 2.1 80 00:23 27.12.2019
1661 Clouds 25 1010 88 10000 1 0 23:41 26.12.2019
1662 Clouds 25 1010 88 10000 1 0 23:22 26.12.2019
1663 Clouds 25 1009 88 10000 1 100 22:47 26.12.2019
1664 Clouds 25 1009 88 10000 1 100 22:23 26.12.2019
1665 Clouds 26 1009 88 10000 2.85 119 21:59 26.12.2019
1666 Clouds 26 1009 88 10000 2.85 119 21:38 26.12.2019
1667 Clouds 26 1009 88 10000 2.85 119 21:20 26.12.2019
1668 Clouds 26 1009 83 10000 1 0 20:46 26.12.2019
1669 Clouds 26 1009 83 10000 1 0 20:23 26.12.2019
1670 Clouds 26 1009 88 10000 1 0 19:59 26.12.2019
1671 Clouds 26 1009 88 10000 1 0 19:40 26.12.2019
1672 Clouds 26 1009 88 10000 1 0 19:21 26.12.2019
1673 Clouds 26 1010 88 10000 1 0 18:58 26.12.2019
1674 Clouds 26 1010 88 10000 1 0 18:39 26.12.2019
1675 Clouds 26 1010 88 10000 1 0 18:19 26.12.2019
1676 Clouds 26 1011 83 10000 3.06 125 17:55 26.12.2019
1677 Clouds 26 1011 83 10000 3.06 125 17:37 26.12.2019
1678 Clouds 26 1011 83 10000 3.38 135 17:18 26.12.2019
1679 Clouds 26 1011 83 10000 1 0 16:41 26.12.2019
1680 Clouds 26 1011 83 10000 1 0 16:22 26.12.2019
1681 Clouds 27 1011 88 10000 1 0 15:56 26.12.2019
1682 Clouds 27 1011 88 10000 1 0 15:37 26.12.2019
1683 Clouds 27 1011 88 10000 1 0 15:18 26.12.2019
1684 Clouds 27 1011 88 10000 1 0 14:40 26.12.2019
1685 Clouds 27 1011 88 10000 1 0 14:21 26.12.2019
1686 Clouds 28 1011 83 10000 1 0 13:43 26.12.2019
1687 Clouds 28 1011 83 10000 1 0 13:21 26.12.2019
1688 Clouds 28 1011 83 10000 1 0 13:21 26.12.2019
1689 Clouds 28 1010 83 10000 0.5 0 12:58 26.12.2019
1690 Clouds 28 1010 83 10000 0.5 0 12:58 26.12.2019
1691 Clouds 28 1010 83 10000 0.5 0 12:39 26.12.2019
1692 Clouds 28 1010 83 10000 0.5 0 12:20 26.12.2019
1693 Thunderstorm 28 1009 79 10000 2.1 110 11:57 26.12.2019
1694 Thunderstorm 28 1009 79 10000 2.1 110 11:38 26.12.2019
1695 Thunderstorm 29 1009 79 10000 2.1 110 11:20 26.12.2019
1696 Clouds 29 1009 79 10000 2.6 110 10:47 26.12.2019
1697 Clouds 29 1009 79 10000 2.6 110 10:19 26.12.2019
1698 Clouds 29 1008 79 10000 3.6 110 09:50 26.12.2019
1699 Clouds 29 1008 79 10000 3.6 110 09:31 26.12.2019
1700 Clouds 30 1008 74 10000 3.1 100 08:43 26.12.2019
1701 Clouds 30 1008 70 10000 3.6 110 08:24 26.12.2019
1702 Clouds 30 1008 70 10000 3.6 110 07:53 26.12.2019
1703 Clouds 30 1008 70 10000 3.6 110 07:28 26.12.2019
1704 Clouds 31 1009 66 10000 3.6 0 06:53 26.12.2019
1705 Clouds 31 1009 66 10000 3.6 0 06:32 26.12.2019
1706 Clouds 31 1009 70 10000 4.1 110 05:45 26.12.2019
1707 Clouds 31 1010 70 10000 4.1 110 04:57 26.12.2019
1708 Clouds 30 1010 70 10000 4.1 110 04:30 26.12.2019
1709 Clouds 29 1010 83 10000 3.6 90 02:56 26.12.2019
1710 Clouds 28 1010 83 10000 3.6 90 02:34 26.12.2019
1711 Clouds 27 1010 83 10000 2.1 110 01:50 26.12.2019
1712 Clouds 27 1009 83 10000 2.1 100 01:32 26.12.2019
1713 Clouds 26 1009 83 10000 2.1 100 00:50 26.12.2019
1714 Clouds 26 1009 83 10000 2.1 100 00:27 26.12.2019
1715 Clouds 26 1009 83 10000 0.5 120 23:58 25.12.2019
1716 Clouds 26 1009 83 10000 0.5 120 23:39 25.12.2019
1717 Clouds 26 1009 83 10000 0.5 120 23:21 25.12.2019
1718 Clouds 25 1008 88 10000 1 80 22:59 25.12.2019
1719 Clouds 25 1008 88 10000 1 80 22:39 25.12.2019
1720 Clouds 25 1008 88 10000 1 80 22:20 25.12.2019
1721 Clouds 25 1008 94 10000 1 0 21:58 25.12.2019
1722 Clouds 25 1008 94 10000 1 0 21:39 25.12.2019
1723 Clouds 25 1008 94 10000 1 0 21:20 25.12.2019
1724 Clouds 25 1007 94 10000 2.1 90 20:54 25.12.2019
1725 Clouds 25 1007 94 10000 2.1 90 20:36 25.12.2019
1726 Clouds 25 1007 94 10000 2.1 90 20:18 25.12.2019
1727 Clouds 25 1008 88 10000 2.1 30 19:43 25.12.2019
1728 Clouds 25 1008 88 10000 2.1 30 19:23 25.12.2019
1729 Clouds 24 1009 94 10000 2.1 360 18:58 25.12.2019
1730 Clouds 24 1009 94 10000 2.1 360 18:36 25.12.2019
1731 Clouds 24 1009 94 10000 2.1 360 18:18 25.12.2019
1732 Clouds 25 1009 88 10000 2.1 70 17:40 25.12.2019
1733 Clouds 25 1009 88 10000 2.1 70 17:19 25.12.2019
1734 Clouds 24 1010 100 9000 2.1 70 16:57 25.12.2019
1735 Clouds 25 1010 100 9000 2.1 70 16:37 25.12.2019
1736 Clouds 25 1010 100 9000 2.1 70 16:18 25.12.2019
1737 Clouds 25 1010 100 9000 2.1 70 16:18 25.12.2019
1738 Rain 25 1010 100 7000 3.1 90 15:56 25.12.2019
1739 Rain 25 1010 100 7000 3.1 90 15:38 25.12.2019
1740 Rain 25 1010 100 7000 3.1 90 15:19 25.12.2019
1741 Rain 25 1010 100 7000 3.1 90 15:19 25.12.2019
1742 Rain 24 1010 100 8000 2.6 10 14:56 25.12.2019
1743 Rain 24 1010 100 8000 2.6 10 14:37 25.12.2019
1744 Rain 24 1010 100 8000 2.6 10 14:18 25.12.2019
1745 Thunderstorm 25 1010 94 3000 2.1 240 13:42 25.12.2019
1746 Thunderstorm 25 1010 94 3000 2.1 240 13:21 25.12.2019
1747 Rain 25 1009 88 8000 2.1 220 12:44 25.12.2019
1748 Rain 26 1009 88 8000 2.1 220 12:23 25.12.2019
1749 Rain 26 1008 88 7000 1 0 11:58 25.12.2019
1750 Rain 26 1008 88 7000 1 0 11:40 25.12.2019
1751 Rain 26 1008 88 7000 1 0 11:21 25.12.2019
1752 Rain 27 1007 83 9000 2.1 40 10:41 25.12.2019
1753 Rain 27 1007 83 9000 2.1 40 10:21 25.12.2019
1754 Clouds 28 1006 70 10000 3.1 40 09:59 25.12.2019
1755 Clouds 28 1006 70 10000 3.1 40 09:40 25.12.2019
1756 Clouds 28 1006 70 10000 3.1 40 09:22 25.12.2019
1757 Clouds 28 1006 70 10000 2.1 40 08:43 25.12.2019
1758 Clouds 28 1006 70 10000 2.1 40 08:24 25.12.2019
1759 Rain 28 1007 74 10000 3.6 10 07:43 25.12.2019
1760 Rain 27 1007 74 10000 3.6 10 07:22 25.12.2019
1761 Rain 28 1008 74 9000 3.1 70 06:24 25.12.2019
1762 Clouds 28 1009 70 10000 3.6 40 05:50 25.12.2019
1763 Clouds 29 1011 70 10000 2.1 40 04:46 25.12.2019
1764 Clouds 29 1011 70 10000 2.1 40 04:24 25.12.2019
1765 Clouds 28 1011 78 10000 1.5 10 03:44 25.12.2019
1766 Clouds 28 1011 78 10000 1.5 10 03:44 25.12.2019
1767 Rain 26 1011 83 6000 1.5 360 02:59 25.12.2019
1768 Rain 25 1011 83 6000 1.5 360 02:29 25.12.2019
1769 Rain 26 1011 78 8000 2.6 20 01:44 25.12.2019
1770 Clouds 26 1010 69 10000 3.6 20 01:19 25.12.2019
1771 Clouds 26 1009 69 10000 3.6 10 00:41 25.12.2019
1772 Clouds 26 1009 69 10000 3.6 10 00:41 25.12.2019
1773 Clouds 26 1009 69 10000 3.6 10 00:23 25.12.2019
1774 Clouds 26 1009 69 10000 3.6 10 23:39 24.12.2019
1775 Clouds 26 1009 69 10000 3.6 10 23:20 24.12.2019
1776 Clouds 26 1009 69 10000 4.6 360 22:42 24.12.2019
1777 Clouds 26 1009 69 10000 4.6 360 22:24 24.12.2019
1778 Clouds 26 1009 69 10000 2.1 240 21:59 24.12.2019
1779 Clouds 26 1009 69 10000 2.1 240 21:41 24.12.2019
1780 Clouds 26 1009 69 10000 2.1 240 21:41 24.12.2019
1781 Clouds 26 1009 69 10000 2.1 240 21:20 24.12.2019
1782 Clouds 26 1009 69 10000 1 0 20:42 24.12.2019
1783 Clouds 26 1009 69 10000 1 0 20:23 24.12.2019
1784 Clouds 26 1010 69 10000 1 0 19:55 24.12.2019
1785 Clouds 26 1010 69 10000 1 0 19:37 24.12.2019
1786 Clouds 26 1010 69 10000 1 0 19:18 24.12.2019
1787 Clouds 26 1010 69 10000 2.86 67 18:42 24.12.2019
1788 Clouds 26 1010 69 10000 2.86 67 18:18 24.12.2019
1789 Clouds 26 1012 65 10000 1.5 290 17:44 24.12.2019
1790 Clouds 26 1012 65 10000 1.5 290 17:22 24.12.2019
1791 Clouds 26 1012 65 10000 0.5 0 16:58 24.12.2019
1792 Clouds 26 1012 65 10000 0.5 0 16:39 24.12.2019
1793 Clouds 26 1012 65 10000 0.5 0 16:21 24.12.2019
1794 Clouds 26 1012 69 10000 1 0 15:57 24.12.2019
1795 Clouds 26 1012 69 10000 1 0 15:37 24.12.2019
1796 Clouds 26 1012 69 10000 1 0 15:19 24.12.2019
1797 Clouds 26 1013 71 0 2.15 36 14:58 24.12.2019
1798 Clouds 26 1013 70 0 2.15 36 14:39 24.12.2019
1799 Clouds 27 1012 54 10000 1.5 110 14:21 24.12.2019
1800 Clouds 27 1012 54 10000 1.5 110 14:21 24.12.2019
1801 Clouds 27 1012 54 10000 1.5 110 13:56 24.12.2019
1802 Clouds 27 1012 54 10000 1.5 110 13:38 24.12.2019
1803 Clouds 27 1012 54 10000 1.5 110 13:19 24.12.2019
1804 Clouds 28 1011 45 10000 3.1 80 12:56 24.12.2019
1805 Clouds 28 1011 45 10000 3.1 80 12:37 24.12.2019
1806 Clouds 28 1011 45 10000 3.1 80 12:19 24.12.2019
1807 Clouds 28 1010 51 10000 3.6 80 11:56 24.12.2019
1808 Clouds 28 1010 51 10000 3.6 80 11:37 24.12.2019
1809 Clouds 28 1010 51 10000 3.6 80 11:37 24.12.2019
1810 Clouds 29 1010 51 10000 3.6 80 11:19 24.12.2019
1811 Clouds 29 1010 48 10000 5.1 80 10:56 24.12.2019
1812 Clouds 30 1010 48 10000 5.1 80 10:37 24.12.2019
1813 Clouds 30 1010 48 10000 5.1 80 10:19 24.12.2019
1814 Clouds 31 1009 43 10000 5.7 80 09:55 24.12.2019
1815 Clouds 31 1009 43 10000 5.7 80 09:37 24.12.2019
1816 Clouds 31 1009 43 10000 5.7 80 09:19 24.12.2019
1817 Clouds 32 1009 43 10000 5.7 90 08:45 24.12.2019
1818 Clouds 32 1009 43 10000 5.7 90 08:24 24.12.2019
1819 Clouds 32 1010 46 10000 4.1 110 07:46 24.12.2019
1820 Clouds 32 1010 46 10000 4.1 110 07:26 24.12.2019
1821 Clouds 32 1011 49 10000 2.6 0 06:59 24.12.2019
1822 Clouds 32 1011 49 10000 2.6 0 06:38 24.12.2019
1823 Clouds 32 1011 49 10000 2.6 0 06:19 24.12.2019
1824 Clouds 31 1011 62 10000 4.1 260 05:46 24.12.2019
1825 Clouds 31 1011 62 10000 4.1 260 05:18 24.12.2019
1826 Clouds 29 1013 66 10000 3.6 270 03:55 24.12.2019
1827 Clouds 29 1013 66 10000 3.6 270 03:25 24.12.2019
1828 Clouds 29 1014 66 10000 0.5 0 02:25 24.12.2019
1829 Clouds 28 1013 74 10000 2.1 30 01:52 24.12.2019
1830 Clouds 27 1013 74 10000 2.1 30 01:23 24.12.2019
1831 Clouds 26 1013 78 10000 2.1 330 00:47 24.12.2019
1832 Clouds 25 1013 78 10000 2.1 330 00:26 24.12.2019
1833 Clouds 24 1012 88 10000 1 60 23:59 23.12.2019
1834 Clouds 24 1012 88 10000 1 60 23:41 23.12.2019
1835 Clouds 24 1012 88 10000 1 60 23:23 23.12.2019
1836 Clouds 24 1012 88 10000 1 60 23:23 23.12.2019
1837 Clouds 24 1012 88 10000 1.76 47 22:56 23.12.2019
1838 Clouds 24 1012 88 10000 1.76 47 22:56 23.12.2019
1839 Clouds 24 1012 88 10000 1.76 47 22:56 23.12.2019
1840 Clouds 24 1012 88 10000 1.76 47 22:37 23.12.2019
1841 Clouds 24 1012 88 10000 1.76 47 22:19 23.12.2019
1842 Clouds 24 1011 83 10000 1 0 21:55 23.12.2019
1843 Clouds 24 1011 83 10000 1 0 21:55 23.12.2019
1844 Clouds 24 1011 83 10000 1 0 21:36 23.12.2019
1845 Clouds 24 1011 83 10000 1 0 21:18 23.12.2019
1846 Clouds 24 1011 83 10000 2.6 70 20:57 23.12.2019
1847 Clouds 24 1011 83 10000 2.6 70 20:39 23.12.2019
1848 Clouds 24 1011 83 10000 2.6 70 20:39 23.12.2019
1849 Clouds 25 1011 83 10000 2.6 70 20:18 23.12.2019
1850 Clouds 25 1012 83 10000 1.5 100 19:56 23.12.2019
1851 Clouds 25 1012 83 10000 1.5 100 19:56 23.12.2019
1852 Clouds 25 1012 83 10000 1.5 100 19:38 23.12.2019
1853 Clouds 25 1012 83 10000 1.5 100 19:19 23.12.2019
1854 Clouds 25 1012 88 10000 2.1 70 18:57 23.12.2019
1855 Clouds 25 1012 88 10000 2.1 70 18:38 23.12.2019
1856 Clouds 25 1012 88 10000 2.1 70 18:20 23.12.2019
1857 Clouds 26 1013 74 10000 1.5 110 17:56 23.12.2019
1858 Clouds 26 1013 74 10000 1.5 110 17:37 23.12.2019
1859 Clouds 26 1013 74 10000 1.5 110 17:19 23.12.2019
1860 Clouds 26 1013 74 10000 1.5 110 16:54 23.12.2019
1861 Clouds 26 1013 74 10000 1.5 110 16:36 23.12.2019
1862 Clouds 26 1013 74 10000 1.5 110 16:18 23.12.2019
1863 Clouds 26 1013 78 10000 1 0 15:55 23.12.2019
1864 Clouds 26 1013 78 10000 1 0 15:36 23.12.2019
1865 Clouds 26 1013 78 10000 1 0 15:18 23.12.2019
1866 Clouds 26 1013 72 10000 1.5 130 14:42 23.12.2019
1867 Clouds 26 1013 72 10000 1.5 130 14:24 23.12.2019
1868 Clouds 27 1012 83 10000 1.5 140 13:59 23.12.2019
1869 Clouds 27 1012 83 10000 1.5 140 13:40 23.12.2019
1870 Clouds 27 1012 83 10000 1.5 140 13:22 23.12.2019
1871 Clouds 27 1012 83 10000 1.5 140 13:22 23.12.2019
1872 Clouds 27 1012 78 10000 1 0 12:58 23.12.2019
1873 Clouds 27 1012 78 10000 1 0 12:39 23.12.2019
1874 Clouds 27 1012 78 10000 1 0 12:20 23.12.2019
1875 Rain 27 1011 78 10000 2.1 0 11:45 23.12.2019
1876 Rain 27 1011 78 10000 2.1 0 11:26 23.12.2019
1877 Rain 28 1010 74 9000 1 0 10:59 23.12.2019
1878 Rain 28 1010 74 9000 1 0 10:41 23.12.2019
1879 Rain 28 1010 74 9000 1 0 10:21 23.12.2019
1880 Clouds 28 1009 70 10000 2.1 250 09:59 23.12.2019
1881 Clouds 29 1009 70 10000 2.1 250 09:40 23.12.2019
1882 Clouds 29 1009 70 10000 2.1 250 09:21 23.12.2019
1883 Clouds 29 1009 70 10000 2.1 280 08:58 23.12.2019
1884 Clouds 29 1009 70 10000 2.1 280 08:40 23.12.2019
1885 Clouds 29 1009 70 10000 2.1 280 08:22 23.12.2019
1886 Clouds 29 1010 66 10000 3.1 310 07:47 23.12.2019
1887 Clouds 29 1010 66 10000 3.1 310 07:20 23.12.2019
1888 Clouds 29 1010 66 10000 3.6 280 06:53 23.12.2019
1889 Clouds 29 1010 66 10000 3.6 280 06:53 23.12.2019
1890 Clouds 29 1010 66 10000 3.6 280 06:26 23.12.2019
1891 Clouds 30 1011 66 10000 1.5 290 05:53 23.12.2019
1892 Clouds 30 1011 66 10000 1.5 290 05:28 23.12.2019
1893 Clouds 30 1012 70 10000 3.1 270 04:31 23.12.2019
1894 Clouds 29 1012 74 10000 3.6 270 03:18 23.12.2019
1895 Clouds 29 1013 69 10000 2.1 250 02:40 23.12.2019
1896 Clouds 28 1013 69 10000 2.1 250 02:19 23.12.2019
1897 Clouds 27 1012 78 10000 1 0 01:42 23.12.2019
1898 Clouds 26 1012 78 10000 1 0 01:20 23.12.2019
1899 Clouds 25 1011 78 10000 2.1 40 00:43 23.12.2019
1900 Clouds 24 1011 78 10000 2.1 40 00:21 23.12.2019
1901 Clouds 24 1011 78 10000 2.6 360 23:39 22.12.2019
1902 Clouds 24 1011 78 10000 2.6 360 23:21 22.12.2019
1903 Clouds 24 1010 78 10000 2.1 10 22:58 22.12.2019
1904 Clouds 24 1010 78 10000 2.1 10 22:39 22.12.2019
1905 Clouds 24 1010 78 10000 2.1 10 22:19 22.12.2019
1906 Clouds 24 1010 78 10000 1.76 0 21:57 22.12.2019
1907 Clouds 24 1010 78 10000 1.76 0 21:39 22.12.2019
1908 Clouds 24 1010 78 10000 1.76 0 21:20 22.12.2019
1909 Clouds 24 1010 78 10000 0.5 0 20:56 22.12.2019
1910 Clouds 24 1010 78 10000 0.5 0 20:38 22.12.2019
1911 Clouds 25 1010 78 10000 0.5 0 20:18 22.12.2019
1912 Clouds 25 1010 78 10000 2.6 100 19:54 22.12.2019
1913 Clouds 25 1010 78 10000 2.6 100 19:36 22.12.2019
1914 Clouds 25 1010 78 10000 2.6 100 19:18 22.12.2019
1915 Clouds 26 1011 78 10000 2.6 90 18:39 22.12.2019
1916 Clouds 26 1011 78 10000 2.6 90 18:39 22.12.2019
1917 Clouds 26 1011 78 10000 2.6 90 18:21 22.12.2019
1918 Clouds 26 1011 83 10000 3.6 90 17:55 22.12.2019
1919 Clouds 26 1011 83 10000 3.6 90 17:37 22.12.2019
1920 Clouds 26 1011 83 10000 3.6 90 17:18 22.12.2019
1921 Clouds 27 1012 74 10000 3.1 100 16:56 22.12.2019
1922 Clouds 27 1012 74 10000 3.1 100 16:56 22.12.2019
1923 Clouds 27 1012 74 10000 3.1 100 16:37 22.12.2019
1924 Clouds 27 1012 74 10000 3.1 100 16:19 22.12.2019
1925 Clouds 27 1012 69 10000 1.5 110 15:54 22.12.2019
1926 Clouds 27 1012 69 10000 1.5 110 15:36 22.12.2019
1927 Clouds 27 1012 69 10000 1.5 110 15:18 22.12.2019
1928 Clouds 27 1011 61 10000 2.1 100 14:39 22.12.2019
1929 Clouds 27 1011 61 10000 2.1 100 14:20 22.12.2019
1930 Clouds 28 1014 62 10000 3.1 90 13:56 22.12.2019
1931 Clouds 28 1014 62 10000 3.1 90 13:38 22.12.2019
1932 Clouds 28 1014 62 10000 3.1 90 13:20 22.12.2019
1933 Clouds 28 1010 66 10000 3.1 110 12:57 22.12.2019
1934 Clouds 28 1010 66 10000 3.1 110 12:39 22.12.2019
1935 Clouds 29 1010 66 10000 3.1 110 12:20 22.12.2019
1936 Clouds 29 1010 66 10000 4.83 95 11:59 22.12.2019
1937 Clouds 29 1010 66 10000 4.83 95 11:39 22.12.2019
1938 Clouds 29 1010 66 10000 5.19 117 11:20 22.12.2019
1939 Clouds 29 1009 66 10000 2.6 130 10:58 22.12.2019
1940 Clouds 29 1009 66 10000 2.6 130 10:40 22.12.2019
1941 Clouds 29 1009 66 10000 2.6 130 10:40 22.12.2019
1942 Clouds 30 1009 66 10000 2.6 130 10:20 22.12.2019
1943 Clouds 31 1009 55 10000 2.1 0 09:58 22.12.2019
1944 Clouds 31 1009 55 10000 2.1 0 09:39 22.12.2019
1945 Clouds 32 1009 55 10000 2.1 0 09:21 22.12.2019
1946 Clouds 32 1009 55 10000 2.6 140 08:45 22.12.2019
1947 Clouds 32 1009 55 10000 2.6 140 08:45 22.12.2019
1948 Clouds 32 1009 55 10000 2.6 140 08:23 22.12.2019
1949 Clouds 32 1009 55 10000 2.6 110 07:50 22.12.2019
1950 Clouds 32 1009 55 10000 2.6 110 07:22 22.12.2019
1951 Clouds 32 1010 55 10000 2.1 0 06:57 22.12.2019
1952 Clouds 32 1010 55 10000 2.1 0 06:27 22.12.2019
1953 Clouds 31 1011 62 10000 4.1 290 05:43 22.12.2019
1954 Clouds 31 1011 62 10000 4.1 290 05:21 22.12.2019
1955 Clouds 31 1012 62 10000 2.6 290 04:26 22.12.2019
1956 Clouds 29 1013 62 10000 2.6 40 02:56 22.12.2019
1957 Clouds 29 1013 62 10000 2.6 40 02:34 22.12.2019
1958 Clouds 27 1013 65 10000 2.6 40 01:32 22.12.2019
1959 Clouds 26 1012 74 10000 2.1 30 00:57 22.12.2019
1960 Clouds 26 1012 74 10000 2.1 30 00:38 22.12.2019
1961 Clouds 25 1012 74 10000 2.1 30 00:20 22.12.2019
1962 Clouds 25 1012 83 10000 1 0 23:41 21.12.2019
1963 Clouds 25 1012 83 10000 1 0 23:22 21.12.2019
1964 Clouds 25 1011 78 10000 1.5 280 22:57 21.12.2019
1965 Clouds 25 1011 78 10000 1.5 280 22:39 21.12.2019
1966 Clouds 25 1011 78 10000 1.5 280 22:18 21.12.2019
1967 Clouds 25 1011 78 10000 1.5 280 22:18 21.12.2019
1968 Clouds 25 1011 83 10000 1 90 21:55 21.12.2019
1969 Clouds 25 1011 83 10000 1 90 21:36 21.12.2019
1970 Clouds 25 1011 83 10000 1 90 21:18 21.12.2019
1971 Clouds 25 1011 88 10000 2.6 60 20:56 21.12.2019
1972 Clouds 25 1011 88 10000 2.6 60 20:37 21.12.2019
1973 Clouds 25 1011 88 10000 2.6 60 20:19 21.12.2019
1974 Clouds 25 1011 78 10000 1 110 19:55 21.12.2019
1975 Clouds 26 1011 78 10000 1 110 19:36 21.12.2019
1976 Clouds 26 1011 78 10000 1 110 19:18 21.12.2019
1977 Clouds 26 1012 74 10000 2.1 90 18:41 21.12.2019
1978 Clouds 26 1012 74 10000 2.1 90 18:23 21.12.2019
1979 Clouds 26 1013 78 10000 2.6 110 17:56 21.12.2019
1980 Clouds 26 1013 78 10000 2.6 110 17:37 21.12.2019
1981 Clouds 26 1013 78 10000 2.6 110 17:19 21.12.2019
1982 Clouds 26 1012 74 10000 2.1 90 16:55 21.12.2019
1983 Clouds 26 1012 74 10000 2.1 90 16:36 21.12.2019
1984 Clouds 26 1012 74 10000 2.1 90 16:36 21.12.2019
1985 Clouds 27 1012 74 10000 2.1 90 16:18 21.12.2019
1986 Clouds 27 1012 78 10000 2.6 100 15:55 21.12.2019
1987 Clouds 27 1012 78 10000 2.6 100 15:36 21.12.2019
1988 Clouds 27 1012 78 10000 2.6 100 15:18 21.12.2019
1989 Clouds 27 1012 74 10000 2.6 110 14:41 21.12.2019
1990 Clouds 27 1012 74 10000 2.6 110 14:22 21.12.2019
1991 Clouds 27 1012 74 10000 3.1 110 13:58 21.12.2019
1992 Clouds 27 1012 74 10000 3.1 110 13:58 21.12.2019
1993 Clouds 27 1012 74 10000 3.1 110 13:39 21.12.2019
1994 Clouds 27 1012 74 10000 3.1 110 13:19 21.12.2019
1995 Clouds 28 1011 74 10000 4.1 110 12:56 21.12.2019
1996 Clouds 28 1011 74 10000 4.1 110 12:38 21.12.2019
1997 Clouds 28 1011 74 10000 4.1 110 12:19 21.12.2019
1998 Clouds 28 1010 74 10000 4.6 120 11:46 21.12.2019
1999 Clouds 28 1010 74 10000 4.6 120 11:27 21.12.2019
2000 Rain 28 1010 74 10000 5.7 110 10:58 21.12.2019
2001 Rain 28 1010 74 10000 5.7 110 10:39 21.12.2019
2002 Rain 28 1010 74 10000 5.7 110 10:21 21.12.2019
2003 Rain 28 1009 74 10000 5.7 120 09:57 21.12.2019
2004 Rain 29 1009 74 10000 5.7 120 09:39 21.12.2019
2005 Rain 29 1009 74 10000 5.7 120 09:39 21.12.2019
2006 Rain 29 1009 74 10000 5.7 120 09:19 21.12.2019
2007 Clouds 30 1009 59 10000 4.1 130 08:46 21.12.2019
2008 Clouds 31 1009 59 10000 4.1 130 08:26 21.12.2019
2009 Clouds 32 1010 59 10000 3.6 120 07:47 21.12.2019
2010 Clouds 32 1010 59 10000 3.6 120 07:23 21.12.2019
2011 Clouds 31 1011 70 10000 2.1 0 06:46 21.12.2019
2012 Clouds 31 1011 70 10000 2.1 0 06:28 21.12.2019
2013 Clouds 31 1012 66 10000 2.1 0 05:58 21.12.2019
2014 Clouds 30 1013 66 10000 1.5 0 04:59 21.12.2019
2015 Clouds 30 1013 66 10000 1.5 0 04:19 21.12.2019
2016 Clouds 30 1014 66 10000 2.6 90 03:56 21.12.2019
2017 Clouds 29 1014 70 10000 1 0 02:19 21.12.2019
2018 Clouds 28 1013 74 10000 0.5 0 01:41 21.12.2019
2019 Clouds 27 1013 74 10000 0.5 0 01:23 21.12.2019
2020 Clouds 26 1013 78 10000 1.5 300 00:39 21.12.2019
2021 Clouds 26 1013 78 10000 1.5 300 00:19 21.12.2019
2022 Clouds 25 1012 83 10000 1 0 23:38 20.12.2019
2023 Clouds 25 1012 83 10000 1 0 23:19 20.12.2019
2024 Clouds 25 1012 83 10000 2.98 75 22:57 20.12.2019
2025 Clouds 25 1012 83 10000 2.98 75 22:36 20.12.2019
2026 Clouds 25 1012 83 10000 2.98 75 22:18 20.12.2019
2027 Clouds 25 1011 83 10000 1.5 290 21:40 20.12.2019
2028 Clouds 25 1011 83 10000 1.5 290 21:20 20.12.2019
2029 Clouds 25 1011 88 10000 1 0 20:57 20.12.2019
2030 Clouds 25 1011 88 10000 1 0 20:38 20.12.2019
2031 Clouds 26 1011 88 10000 1 0 20:18 20.12.2019
2032 Clouds 26 1012 83 10000 1 0 19:42 20.12.2019
2033 Clouds 26 1012 83 10000 1 0 19:21 20.12.2019
2034 Clouds 26 1012 78 10000 2.1 130 18:58 20.12.2019
2035 Clouds 26 1012 78 10000 2.1 130 18:39 20.12.2019
2036 Clouds 26 1012 78 10000 2.1 130 18:21 20.12.2019
2037 Clouds 26 1012 78 10000 2.1 130 17:55 20.12.2019
2038 Clouds 26 1012 78 10000 2.1 130 17:37 20.12.2019
2039 Clouds 26 1012 78 10000 2.1 130 17:18 20.12.2019
2040 Clouds 26 1013 78 10000 1.5 110 16:41 20.12.2019
2041 Clouds 27 1013 78 10000 1.5 110 16:21 20.12.2019
2042 Clouds 27 1013 78 10000 2.6 110 15:57 20.12.2019
2043 Clouds 27 1013 78 10000 2.6 110 15:39 20.12.2019
2044 Clouds 27 1013 78 10000 2.6 110 15:20 20.12.2019
2045 Clouds 27 1013 74 10000 2.1 100 14:59 20.12.2019
2046 Clouds 27 1013 74 10000 2.1 100 14:59 20.12.2019
2047 Clouds 27 1013 74 10000 2.1 100 14:40 20.12.2019
2048 Clouds 27 1013 74 10000 2.1 100 14:22 20.12.2019
2049 Clouds 28 1013 66 0 2.6 90 13:56 20.12.2019
2050 Clouds 28 1013 66 0 2.6 90 13:56 20.12.2019
2051 Clouds 28 1013 66 0 2.6 90 13:36 20.12.2019
2052 Clouds 28 1013 66 0 2.6 90 13:18 20.12.2019
2053 Clouds 28 1012 66 10000 2.6 100 12:42 20.12.2019
2054 Clouds 29 1012 66 10000 2.6 100 12:20 20.12.2019
2055 Clouds 29 1011 66 10000 3.1 120 11:59 20.12.2019
2056 Clouds 29 1011 66 10000 3.1 120 11:40 20.12.2019
2057 Clouds 29 1011 66 10000 3.1 120 11:21 20.12.2019
2058 Clouds 30 1011 58 10000 4.6 100 10:59 20.12.2019
2059 Clouds 30 1011 58 10000 4.6 100 10:41 20.12.2019
2060 Clouds 30 1011 58 10000 4.6 100 10:22 20.12.2019
2061 Clouds 30 1010 62 10000 5.1 110 09:58 20.12.2019
2062 Clouds 30 1010 62 10000 5.1 110 09:40 20.12.2019
2063 Clouds 30 1010 62 10000 5.1 110 09:20 20.12.2019
2064 Clouds 32 1010 52 10000 3.1 130 08:44 20.12.2019
2065 Clouds 32 1010 52 10000 3.1 130 08:26 20.12.2019
2066 Clouds 31 1010 55 10000 4.1 120 07:59 20.12.2019
2067 Clouds 31 1010 55 10000 4.1 120 07:41 20.12.2019
2068 Clouds 31 1010 55 10000 4.1 120 07:20 20.12.2019
2069 Clouds 32 1011 55 10000 4.1 110 06:52 20.12.2019
2070 Clouds 32 1011 55 10000 4.1 110 06:33 20.12.2019
2071 Clouds 32 1012 55 10000 4.1 120 05:56 20.12.2019
2072 Clouds 32 1012 55 10000 4.1 120 05:37 20.12.2019
2073 Clouds 32 1012 55 10000 4.1 120 05:37 20.12.2019
2074 Clouds 31 1013 55 10000 4.6 100 04:33 20.12.2019
2075 Clouds 31 1013 62 10000 3.6 100 03:30 20.12.2019
2076 Clouds 29 1014 66 10000 2.6 70 02:44 20.12.2019
2077 Clouds 28 1013 74 10000 1.5 60 01:54 20.12.2019
2078 Clouds 28 1013 74 10000 1.5 60 01:33 20.12.2019
2079 Clouds 26 1012 83 10000 2.1 20 00:48 20.12.2019
2080 Clouds 26 1012 83 10000 2.1 20 00:29 20.12.2019
2081 Clouds 25 1011 88 10000 1.5 60 23:54 19.12.2019
2082 Clouds 24 1011 88 10000 1.5 60 23:36 19.12.2019
2083 Clouds 24 1011 88 10000 1.5 60 23:18 19.12.2019
2084 Clouds 24 1011 88 10000 1.5 10 22:37 19.12.2019
2085 Clouds 24 1011 88 10000 1.5 10 22:19 19.12.2019
2086 Clouds 24 1011 88 10000 1.5 0 21:56 19.12.2019
2087 Clouds 24 1011 88 10000 1.5 0 21:37 19.12.2019
2088 Clouds 24 1011 88 10000 1.5 0 21:18 19.12.2019
2089 Clouds 25 1011 88 10000 1.5 280 20:56 19.12.2019
2090 Clouds 25 1011 88 10000 1.5 280 20:36 19.12.2019
2091 Clouds 25 1011 88 10000 1.5 280 20:18 19.12.2019
2092 Clouds 25 1012 83 10000 1 120 19:56 19.12.2019
2093 Clouds 25 1012 83 10000 1 120 19:37 19.12.2019
2094 Clouds 25 1012 83 10000 1 120 19:19 19.12.2019
2095 Clouds 26 1012 83 10000 3.54 81 18:41 19.12.2019
2096 Clouds 26 1012 83 10000 3.54 81 18:22 19.12.2019
2097 Clouds 26 1013 78 10000 1 0 17:58 19.12.2019
2098 Clouds 26 1013 78 10000 1 0 17:39 19.12.2019
2099 Clouds 26 1013 78 10000 1 0 17:19 19.12.2019
2100 Clouds 26 1013 78 10000 5.04 87 16:58 19.12.2019
2101 Clouds 26 1013 78 10000 5.04 87 16:40 19.12.2019
2102 Clouds 26 1013 78 10000 5.04 87 16:22 19.12.2019
2103 Clouds 26 1014 78 10000 0.5 0 15:59 19.12.2019
2104 Clouds 26 1014 78 10000 0.5 0 15:59 19.12.2019
2105 Clouds 27 1014 78 10000 0.5 0 15:39 19.12.2019
2106 Clouds 27 1014 78 10000 0.5 0 15:20 19.12.2019
2107 Clouds 27 1014 78 10000 0.5 0 15:20 19.12.2019
2108 Clouds 27 1013 74 10000 1.5 120 14:59 19.12.2019
2109 Clouds 27 1013 74 10000 1.5 120 14:41 19.12.2019
2110 Clouds 27 1013 74 10000 1.5 120 14:19 19.12.2019
2111 Clouds 27 1013 74 10000 1.5 110 13:57 19.12.2019
2112 Clouds 27 1013 74 10000 1.5 110 13:37 19.12.2019
2113 Clouds 27 1013 74 10000 1.5 110 13:18 19.12.2019
2114 Clouds 27 1012 74 10000 2.1 110 12:55 19.12.2019
2115 Clouds 28 1012 74 10000 2.1 110 12:36 19.12.2019
2116 Clouds 28 1012 74 10000 2.1 110 12:18 19.12.2019
2117 Clouds 28 1012 74 10000 2.1 110 12:18 19.12.2019
2118 Clouds 28 1012 74 10000 2.1 110 12:18 19.12.2019
2119 Clouds 28 1011 70 10000 3.1 120 11:56 19.12.2019
2120 Clouds 28 1011 70 10000 3.1 120 11:38 19.12.2019
2121 Clouds 29 1011 70 10000 3.1 120 11:18 19.12.2019
2122 Clouds 29 1011 66 10000 2.6 0 10:39 19.12.2019
2123 Clouds 30 1011 66 10000 2.6 0 10:20 19.12.2019
2124 Clouds 30 1011 62 10000 3.6 140 09:59 19.12.2019
2125 Clouds 30 1011 62 10000 3.6 140 09:38 19.12.2019
2126 Clouds 31 1011 62 10000 3.6 140 09:20 19.12.2019
2127 Clouds 30 1010 70 10000 2.6 0 08:56 19.12.2019
2128 Clouds 31 1010 70 10000 2.6 0 08:37 19.12.2019
2129 Clouds 30 1010 70 10000 2.6 0 08:18 19.12.2019
2130 Clouds 31 1011 66 10000 3.1 310 07:55 19.12.2019
2131 Clouds 31 1011 66 10000 3.1 310 07:55 19.12.2019
2132 Clouds 31 1011 66 10000 3.1 310 07:37 19.12.2019
2133 Clouds 31 1011 66 10000 3.1 310 07:19 19.12.2019
2134 Clouds 32 1011 59 10000 4.1 120 06:45 19.12.2019
2135 Clouds 31 1011 59 10000 4.1 120 06:26 19.12.2019
2136 Clouds 31 1012 59 10000 4.1 130 05:49 19.12.2019
2137 Clouds 31 1012 59 10000 4.1 130 05:28 19.12.2019
2138 Clouds 31 1013 62 10000 2.6 0 04:41 19.12.2019
2139 Clouds 30 1014 62 10000 1.5 0 02:30 19.12.2019
2140 Clouds 28 1013 74 10000 1 0 01:43 19.12.2019
2141 Clouds 27 1013 74 10000 1 0 01:21 19.12.2019
2142 Clouds 26 1013 78 10000 1 0 00:39 19.12.2019
2143 Clouds 25 1013 78 10000 1 0 00:19 19.12.2019
2144 Clouds 25 1013 88 10000 2 43 23:45 18.12.2019
2145 Clouds 25 1013 88 10000 2.17 76 23:19 18.12.2019
2146 Clouds 25 1013 88 10000 2.17 76 23:19 18.12.2019
2147 Clouds 25 1012 88 10000 1 0 22:58 18.12.2019
2148 Clouds 25 1012 88 10000 1 0 22:40 18.12.2019
2149 Clouds 25 1012 88 10000 1 0 22:22 18.12.2019
2150 Clouds 25 1012 83 10000 1 0 21:59 18.12.2019
2151 Clouds 25 1012 83 10000 1 0 21:41 18.12.2019
2152 Clouds 25 1012 83 10000 1 0 21:21 18.12.2019
2153 Clouds 25 1012 83 10000 2.6 100 20:57 18.12.2019
2154 Clouds 25 1012 83 10000 2.6 100 20:57 18.12.2019
2155 Clouds 25 1012 83 10000 2.6 100 20:39 18.12.2019
2156 Clouds 26 1012 83 10000 2.6 100 20:20 18.12.2019
2157 Clouds 26 1012 83 10000 2.6 100 20:20 18.12.2019
2158 Clouds 25 1012 83 10000 2.6 60 19:57 18.12.2019
2159 Clouds 25 1012 83 10000 2.6 60 19:39 18.12.2019
2160 Clouds 25 1012 83 10000 2.6 60 19:19 18.12.2019
2161 Clouds 26 1013 78 10000 1.5 50 18:56 18.12.2019
2162 Clouds 26 1013 78 10000 1.5 50 18:37 18.12.2019
2163 Clouds 26 1013 78 10000 1.5 50 18:18 18.12.2019
2164 Clouds 26 1013 74 10000 2.6 100 17:55 18.12.2019
2165 Clouds 26 1013 74 10000 2.6 100 17:37 18.12.2019
2166 Clouds 26 1013 74 10000 2.6 100 17:37 18.12.2019
2167 Clouds 26 1013 74 10000 2.6 100 17:18 18.12.2019
2168 Clouds 26 1014 78 10000 1.5 110 16:42 18.12.2019
2169 Clouds 26 1014 78 10000 1.5 110 16:24 18.12.2019
2170 Clouds 27 1014 69 10000 2.6 110 15:57 18.12.2019
2171 Clouds 27 1014 69 10000 2.6 110 15:39 18.12.2019
2172 Clouds 27 1014 69 10000 2.6 110 15:21 18.12.2019
2173 Clouds 27 1013 65 10000 2.1 90 14:56 18.12.2019
2174 Clouds 27 1013 65 10000 2.1 90 14:56 18.12.2019
2175 Clouds 27 1013 65 10000 2.1 90 14:38 18.12.2019
2176 Clouds 27 1013 65 10000 2.1 90 14:19 18.12.2019
2177 Clouds 27 1013 65 10000 2.1 80 13:55 18.12.2019
2178 Clouds 27 1013 65 10000 2.1 80 13:36 18.12.2019
2179 Clouds 28 1013 65 10000 2.1 80 13:18 18.12.2019
2180 Clouds 28 1013 62 10000 2.1 110 12:40 18.12.2019
2181 Clouds 28 1013 62 10000 2.1 110 12:21 18.12.2019
2182 Clouds 28 1012 58 10000 3.1 100 11:57 18.12.2019
2183 Clouds 28 1012 58 10000 3.1 100 11:39 18.12.2019
2184 Clouds 28 1012 58 10000 3.1 100 11:20 18.12.2019
2185 Clouds 29 1011 51 10000 5.1 80 10:58 18.12.2019
2186 Clouds 29 1011 51 10000 5.1 80 10:58 18.12.2019
2187 Clouds 29 1011 51 10000 5.1 80 10:39 18.12.2019
2188 Clouds 29 1011 51 10000 5.1 80 10:21 18.12.2019
2189 Clouds 30 1011 46 10000 5.1 90 09:59 18.12.2019
2190 Clouds 30 1011 46 10000 5.1 90 09:59 18.12.2019
2191 Clouds 30 1011 46 10000 5.1 90 09:20 18.12.2019
2192 Clouds 31 1010 43 10000 5.7 100 08:55 18.12.2019
2193 Clouds 32 1010 43 10000 5.7 100 08:37 18.12.2019
2194 Clouds 32 1010 43 10000 5.7 100 08:19 18.12.2019
2195 Clouds 33 1011 49 10000 6.7 170 07:42 18.12.2019
2196 Clouds 32 1011 49 10000 6.7 170 07:21 18.12.2019
2197 Clouds 33 1011 46 10000 3.6 130 06:52 18.12.2019
2198 Clouds 32 1011 46 10000 3.6 130 06:26 18.12.2019
2199 Clouds 33 1013 43 10000 3.1 120 05:37 18.12.2019
2200 Clouds 32 1014 55 10000 3.1 100 04:33 18.12.2019
2201 Clouds 30 1014 58 10000 1.5 0 02:48 18.12.2019
2202 Clouds 30 1014 58 10000 1.5 0 02:29 18.12.2019
2203 Clouds 28 1014 65 10000 0.5 0 01:46 18.12.2019
2204 Clouds 28 1014 65 10000 0.5 0 01:27 18.12.2019
2205 Clouds 26 1014 78 10000 2.93 46 00:55 18.12.2019
2206 Clouds 25 1014 78 10000 2.93 46 00:37 18.12.2019
2207 Clouds 25 1014 78 10000 2.93 46 00:19 18.12.2019
2208 Clouds 24 1013 83 10000 0.5 0 23:43 17.12.2019
2209 Clouds 24 1013 83 10000 0.5 0 23:24 17.12.2019
2210 Clouds 24 1012 83 9000 2.74 53 22:57 17.12.2019
2211 Clouds 24 1012 83 9000 2.74 53 22:39 17.12.2019
2212 Clouds 24 1012 83 9000 2.74 53 22:20 17.12.2019
2213 Clouds 24 1012 83 10000 2.74 53 21:57 17.12.2019
2214 Clouds 24 1012 83 10000 2.74 53 21:39 17.12.2019
2215 Clouds 25 1012 83 10000 2.74 53 21:20 17.12.2019
2216 Clouds 25 1012 83 10000 2.74 53 21:20 17.12.2019
2217 Clouds 25 1012 78 10000 1 0 20:59 17.12.2019
2218 Clouds 25 1012 78 10000 1 0 20:40 17.12.2019
2219 Clouds 25 1012 78 10000 1 0 20:19 17.12.2019
2220 Clouds 26 1013 78 10000 1 0 19:57 17.12.2019
2221 Clouds 26 1013 78 10000 1 0 19:39 17.12.2019
2222 Clouds 26 1013 78 10000 1 0 19:19 17.12.2019
2223 Clouds 26 1013 78 10000 1.5 90 18:57 17.12.2019
2224 Clouds 26 1013 78 10000 1.5 90 18:57 17.12.2019
2225 Clouds 26 1013 78 10000 1.5 90 18:57 17.12.2019
2226 Clouds 26 1013 78 10000 1.5 90 18:38 17.12.2019
2227 Clouds 26 1013 78 10000 1.5 90 18:20 17.12.2019
2228 Clouds 26 1014 74 10000 2.1 100 17:55 17.12.2019
2229 Clouds 26 1014 74 10000 2.1 100 17:36 17.12.2019
2230 Clouds 26 1014 74 10000 2.1 100 17:18 17.12.2019
2231 Clouds 26 1014 74 10000 3.65 66 16:54 17.12.2019
2232 Clouds 27 1014 74 10000 3.65 66 16:36 17.12.2019
2233 Clouds 27 1014 74 10000 3.65 66 16:18 17.12.2019
2234 Clouds 27 1014 69 10000 2.1 80 15:38 17.12.2019
2235 Clouds 27 1014 69 10000 2.1 80 15:19 17.12.2019
2236 Clouds 27 1014 74 10000 2.1 120 14:56 17.12.2019
2237 Clouds 27 1014 74 10000 2.1 120 14:38 17.12.2019
2238 Clouds 27 1014 74 10000 2.1 120 14:19 17.12.2019
2239 Clouds 27 1014 74 10000 1 0 13:56 17.12.2019
2240 Clouds 27 1014 74 10000 1 0 13:38 17.12.2019
2241 Clouds 27 1014 74 10000 1 0 13:19 17.12.2019
2242 Clouds 27 1014 74 10000 1 0 13:19 17.12.2019
2243 Clouds 27 1013 74 10000 2.6 100 12:56 17.12.2019
2244 Clouds 28 1013 74 10000 2.6 100 12:37 17.12.2019
2245 Clouds 28 1013 74 10000 2.6 100 12:18 17.12.2019
2246 Clouds 28 1012 66 10000 3.1 100 11:56 17.12.2019
2247 Clouds 29 1012 66 10000 3.1 100 11:36 17.12.2019
2248 Clouds 29 1012 66 10000 3.1 100 11:18 17.12.2019
2249 Clouds 29 1011 62 10000 4.1 110 10:55 17.12.2019
2250 Clouds 29 1011 62 10000 4.1 110 10:37 17.12.2019
2251 Clouds 29 1011 62 10000 4.1 110 10:18 17.12.2019
2252 Clouds 31 1011 52 10000 4.1 80 09:42 17.12.2019
2253 Clouds 31 1011 52 10000 4.1 80 09:21 17.12.2019
2254 Clouds 31 1011 55 10000 4.1 100 08:58 17.12.2019
2255 Clouds 31 1011 55 10000 4.1 100 08:39 17.12.2019
2256 Clouds 32 1011 55 10000 4.1 100 08:21 17.12.2019
2257 Clouds 32 1010 55 10000 5.7 110 07:57 17.12.2019
2258 Clouds 32 1010 55 10000 5.7 110 07:39 17.12.2019
2259 Clouds 32 1010 55 10000 5.7 110 07:19 17.12.2019
2260 Clouds 32 1011 52 10000 5.7 110 06:36 17.12.2019
2261 Clouds 31 1011 52 10000 5.7 110 06:18 17.12.2019
2262 Clouds 31 1013 66 10000 4.6 110 05:38 17.12.2019
2263 Clouds 32 1014 52 10000 4.1 90 04:46 17.12.2019
2264 Clouds 31 1015 58 10000 1 0 02:47 17.12.2019
2265 Clouds 29 1014 65 10000 1.5 0 01:56 17.12.2019
2266 Clouds 28 1014 65 10000 1.5 0 01:20 17.12.2019
2267 Clouds 26 1013 69 10000 2.1 340 00:38 17.12.2019
2268 Clouds 25 1013 69 10000 2.1 340 00:20 17.12.2019
2269 Clouds 25 1013 88 10000 1.5 50 23:42 16.12.2019
2270 Clouds 25 1013 88 10000 1.5 50 23:19 16.12.2019
2271 Clouds 25 1013 78 10000 1 0 22:58 16.12.2019
2272 Clouds 25 1013 78 10000 1 0 22:38 16.12.2019
2273 Clouds 25 1013 78 10000 1 0 22:20 16.12.2019
2274 Clouds 25 1012 83 10000 1 0 21:56 16.12.2019
2275 Clouds 25 1012 83 10000 1 0 21:38 16.12.2019
2276 Clouds 26 1012 83 10000 1 0 21:20 16.12.2019
2277 Clouds 26 1012 74 10000 1.5 110 20:58 16.12.2019
2278 Clouds 26 1012 74 10000 1.5 110 20:38 16.12.2019
2279 Clouds 26 1012 74 10000 1.5 110 20:19 16.12.2019
2280 Clouds 26 1013 74 10000 1 0 19:56 16.12.2019
2281 Clouds 26 1013 74 10000 1 0 19:37 16.12.2019
2282 Clouds 26 1013 74 10000 1 0 19:19 16.12.2019
2283 Clouds 26 1013 74 10000 1.5 90 18:56 16.12.2019
2284 Clouds 26 1013 74 10000 1.5 90 18:38 16.12.2019
2285 Clouds 27 1013 74 10000 1.5 90 18:20 16.12.2019
2286 Clouds 27 1013 74 10000 2.1 90 17:57 16.12.2019
2287 Clouds 27 1013 74 10000 2.1 90 17:57 16.12.2019
2288 Clouds 27 1013 74 10000 2.1 90 17:38 16.12.2019
2289 Clouds 27 1013 74 10000 2.1 90 17:20 16.12.2019
2290 Clouds 27 1013 74 10000 2.1 90 17:20 16.12.2019
2291 Clouds 27 1013 74 10000 2.1 70 16:57 16.12.2019
2292 Clouds 27 1013 74 10000 2.1 70 16:38 16.12.2019
2293 Clouds 27 1013 74 10000 2.1 70 16:19 16.12.2019
2294 Clouds 27 1013 74 10000 2.6 90 15:57 16.12.2019
2295 Clouds 28 1013 74 10000 2.6 90 15:38 16.12.2019
2296 Clouds 28 1013 74 10000 2.6 90 15:20 16.12.2019
2297 Clouds 28 1013 70 10000 3.1 100 14:55 16.12.2019
2298 Clouds 28 1013 70 10000 3.1 100 14:37 16.12.2019
2299 Clouds 28 1013 70 10000 3.1 100 14:18 16.12.2019
2300 Clouds 28 1013 70 10000 3.1 100 14:18 16.12.2019
2301 Clouds 28 1013 70 10000 3.1 80 13:56 16.12.2019
2302 Clouds 28 1013 70 10000 3.1 80 13:37 16.12.2019
2303 Clouds 28 1013 70 10000 3.1 80 13:19 16.12.2019
2304 Clouds 28 1012 70 10000 3.6 100 12:56 16.12.2019
2305 Clouds 28 1012 70 10000 3.6 100 12:38 16.12.2019
2306 Clouds 28 1012 70 10000 3.6 100 12:18 16.12.2019
2307 Clouds 29 1011 66 10000 3.1 100 11:57 16.12.2019
2308 Clouds 29 1011 66 10000 3.1 100 11:38 16.12.2019
2309 Clouds 29 1011 66 10000 3.1 100 11:19 16.12.2019
2310 Clouds 30 1010 62 10000 4.6 110 10:54 16.12.2019
2311 Clouds 30 1010 62 10000 4.6 110 10:36 16.12.2019
2312 Clouds 30 1010 62 10000 4.6 110 10:18 16.12.2019
2313 Clouds 31 1010 55 10000 5.1 100 09:43 16.12.2019
2314 Clouds 31 1010 55 10000 5.1 100 09:24 16.12.2019
2315 Clouds 32 1010 55 10000 6.2 110 08:40 16.12.2019
2316 Clouds 32 1010 55 10000 6.2 110 08:20 16.12.2019
2317 Clouds 32 1010 55 10000 6.7 110 07:53 16.12.2019
2318 Clouds 32 1010 55 10000 6.7 110 07:31 16.12.2019
2319 Clouds 32 1010 59 10000 6.2 110 06:58 16.12.2019
2320 Clouds 32 1010 59 10000 6.2 110 06:40 16.12.2019
2321 Clouds 32 1010 59 10000 6.2 110 06:20 16.12.2019
2322 Clouds 32 1011 55 10000 5.7 110 05:41 16.12.2019
2323 Clouds 32 1011 55 10000 5.7 110 05:22 16.12.2019
2324 Clouds 31 1013 62 10000 3.6 90 03:28 16.12.2019
2325 Clouds 28 1013 74 10000 4.1 70 01:51 16.12.2019
2326 Clouds 28 1013 74 10000 4.1 70 01:33 16.12.2019
2327 Clouds 27 1013 78 10000 1.5 90 00:39 16.12.2019
2328 Clouds 26 1013 78 10000 1.5 90 00:19 16.12.2019
2329 Clouds 26 1012 78 10000 2.6 80 23:44 15.12.2019
2330 Clouds 26 1012 78 10000 2.6 80 23:25 15.12.2019
2331 Clouds 26 1012 74 10000 2.1 140 22:57 15.12.2019
2332 Clouds 26 1012 74 10000 2.1 140 22:39 15.12.2019
2333 Clouds 27 1012 74 10000 2.1 140 22:19 15.12.2019
2334 Clouds 26 1012 78 10000 3.76 78 21:58 15.12.2019
2335 Clouds 26 1012 78 10000 3.76 78 21:39 15.12.2019
2336 Clouds 26 1012 78 10000 3.76 78 21:20 15.12.2019
2337 Clouds 26 1012 83 10000 2.1 250 20:58 15.12.2019
2338 Clouds 26 1012 83 10000 2.1 250 20:58 15.12.2019
2339 Clouds 26 1012 83 10000 2.1 250 20:40 15.12.2019
2340 Clouds 26 1012 83 10000 2.1 250 20:21 15.12.2019
2341 Clouds 27 1012 74 10000 3.71 68 19:58 15.12.2019
2342 Clouds 27 1012 74 10000 3.71 68 19:40 15.12.2019
2343 Clouds 27 1012 74 10000 3.71 68 19:20 15.12.2019
2344 Clouds 27 1012 74 10000 4.22 68 19:20 15.12.2019
2345 Clouds 27 1013 69 10000 1 0 18:58 15.12.2019
2346 Clouds 27 1013 69 10000 1 0 18:39 15.12.2019
2347 Clouds 27 1013 69 10000 1 0 18:19 15.12.2019
2348 Clouds 27 1013 74 10000 1.5 90 17:57 15.12.2019
2349 Clouds 27 1013 74 10000 1.5 90 17:38 15.12.2019
2350 Clouds 27 1013 74 10000 1.5 90 17:38 15.12.2019
2351 Clouds 27 1013 74 10000 1.5 90 17:19 15.12.2019
2352 Clouds 27 1014 74 10000 2.6 70 16:58 15.12.2019
2353 Clouds 27 1014 74 10000 2.6 70 16:39 15.12.2019
2354 Clouds 27 1014 74 10000 2.6 70 16:21 15.12.2019
2355 Clouds 27 1014 74 10000 2.6 80 15:56 15.12.2019
2356 Clouds 27 1014 74 10000 2.6 80 15:38 15.12.2019
2357 Clouds 27 1014 74 10000 2.6 80 15:18 15.12.2019
2358 Clouds 27 1014 74 10000 1.5 90 14:55 15.12.2019
2359 Clouds 28 1014 74 10000 1.5 90 14:37 15.12.2019
2360 Clouds 28 1014 74 10000 1.5 90 14:37 15.12.2019
2361 Clouds 27 1014 74 10000 1.5 90 14:18 15.12.2019
2362 Clouds 27 1013 78 10000 2.1 70 13:58 15.12.2019
2363 Clouds 27 1013 78 10000 2.1 70 13:37 15.12.2019
2364 Clouds 27 1013 78 10000 2.1 70 13:19 15.12.2019
2365 Rain 27 1013 78 10000 4.1 110 12:56 15.12.2019
2366 Rain 28 1013 78 10000 4.1 110 12:38 15.12.2019
2367 Rain 27 1013 78 10000 4.1 110 12:20 15.12.2019
2368 Clouds 28 1012 70 10000 3.1 100 11:39 15.12.2019
2369 Clouds 29 1012 70 10000 3.1 100 11:20 15.12.2019
2370 Clouds 29 1011 66 0 3.1 110 10:59 15.12.2019
2371 Clouds 29 1011 66 0 3.1 110 10:41 15.12.2019
2372 Clouds 29 1011 66 0 3.1 110 10:20 15.12.2019
2373 Rain 30 1011 55 10000 5.1 80 09:59 15.12.2019
2374 Rain 30 1011 55 10000 5.1 80 09:39 15.12.2019
2375 Rain 31 1011 55 10000 5.1 80 09:20 15.12.2019
2376 Clouds 32 1011 55 10000 4.6 90 08:56 15.12.2019
2377 Clouds 32 1011 55 10000 4.6 90 08:38 15.12.2019
2378 Clouds 32 1011 55 10000 4.6 90 08:20 15.12.2019
2379 Clouds 32 1011 55 10000 4.6 90 07:55 15.12.2019
2380 Clouds 33 1011 55 10000 4.6 90 07:33 15.12.2019
2381 Clouds 32 1012 55 10000 6.2 90 06:31 15.12.2019
2382 Clouds 32 1013 52 10000 5.7 80 05:51 15.12.2019
2383 Clouds 32 1013 52 10000 5.7 80 05:25 15.12.2019
2384 Clouds 32 1014 55 10000 6.2 90 04:24 15.12.2019
2385 Clouds 31 1014 66 10000 3.1 100 03:22 15.12.2019
2386 Clouds 30 1014 66 10000 1 0 02:32 15.12.2019
2387 Clouds 29 1014 70 10000 1 0 01:43 15.12.2019
2388 Clouds 28 1014 70 10000 1 0 01:20 15.12.2019
2389 Clouds 27 1013 88 10000 1 0 00:53 15.12.2019
2390 Clouds 26 1013 88 10000 1 0 00:34 15.12.2019
2391 Clouds 25 1013 94 10000 2.1 70 23:56 14.12.2019
2392 Clouds 25 1013 94 10000 2.1 70 23:38 14.12.2019
2393 Clouds 25 1013 94 10000 2.1 70 23:18 14.12.2019
2394 Clouds 25 1013 83 10000 1 0 22:56 14.12.2019
2395 Clouds 25 1013 83 10000 1 0 22:37 14.12.2019
2396 Clouds 25 1013 83 10000 1 0 22:18 14.12.2019
2397 Clouds 25 1012 83 10000 0.5 0 21:55 14.12.2019
2398 Clouds 25 1012 83 10000 0.5 0 21:37 14.12.2019
2399 Clouds 25 1012 83 10000 0.5 0 21:18 14.12.2019
2400 Clouds 25 1013 83 10000 0.5 0 20:42 14.12.2019
2401 Clouds 26 1013 83 10000 0.5 0 20:20 14.12.2019
2402 Clouds 26 1013 88 10000 1 0 19:59 14.12.2019
2403 Clouds 26 1013 88 10000 1 0 19:39 14.12.2019
2404 Clouds 26 1013 88 10000 1 0 19:21 14.12.2019
2405 Clouds 26 1013 83 10000 1 0 18:57 14.12.2019
2406 Clouds 26 1013 83 10000 1 0 18:38 14.12.2019
2407 Clouds 26 1013 83 10000 1 0 18:20 14.12.2019
2408 Rain 26 1014 83 10000 1.5 140 17:54 14.12.2019
2409 Rain 26 1014 83 10000 1.5 140 17:36 14.12.2019
2410 Rain 26 1014 83 10000 1.5 140 17:18 14.12.2019
2411 Clouds 27 1014 78 10000 2.1 60 16:40 14.12.2019
2412 Clouds 27 1014 78 10000 2.1 60 16:19 14.12.2019
2413 Clouds 27 1014 74 10000 3.1 110 15:54 14.12.2019
2414 Clouds 27 1014 74 10000 3.1 110 15:36 14.12.2019
2415 Clouds 27 1014 74 10000 3.1 110 15:36 14.12.2019
2416 Clouds 27 1014 74 10000 3.1 110 15:36 14.12.2019
2417 Clouds 27 1014 74 10000 3.1 110 15:18 14.12.2019
2418 Clouds 27 1014 74 10000 2.1 110 14:40 14.12.2019
2419 Clouds 28 1014 74 10000 2.1 110 14:21 14.12.2019
2420 Clouds 28 1014 74 10000 1.5 90 13:59 14.12.2019
2421 Clouds 28 1014 74 10000 1.5 90 13:41 14.12.2019
2422 Clouds 28 1014 74 10000 1.5 90 13:19 14.12.2019
2423 Clouds 28 1013 78 10000 2.6 120 12:56 14.12.2019
2424 Clouds 28 1013 78 10000 2.6 120 12:37 14.12.2019
2425 Clouds 28 1013 78 10000 2.6 120 12:19 14.12.2019
2426 Clouds 28 1012 74 10000 2.1 110 11:56 14.12.2019
2427 Clouds 29 1012 74 10000 2.1 110 11:37 14.12.2019
2428 Clouds 29 1012 74 10000 2.1 110 11:18 14.12.2019
2429 Clouds 29 1012 62 10000 2.6 80 10:56 14.12.2019
2430 Clouds 30 1012 62 10000 2.6 80 10:38 14.12.2019
2431 Clouds 30 1012 62 10000 2.6 80 10:19 14.12.2019
2432 Clouds 30 1012 62 10000 3.1 90 09:42 14.12.2019
2433 Clouds 30 1012 62 10000 3.1 90 09:21 14.12.2019
2434 Clouds 30 1012 59 10000 3.6 100 08:56 14.12.2019
2435 Clouds 30 1012 59 10000 3.6 100 08:56 14.12.2019
2436 Clouds 30 1012 59 10000 3.6 100 08:37 14.12.2019
2437 Clouds 31 1012 59 10000 3.6 100 08:18 14.12.2019
2438 Clouds 31 1012 59 10000 2.6 0 07:40 14.12.2019
2439 Clouds 32 1012 59 10000 2.6 0 07:19 14.12.2019
2440 Clouds 30 1013 74 10000 1.5 260 06:42 14.12.2019
2441 Clouds 30 1013 74 10000 1.5 260 06:22 14.12.2019
2442 Clouds 31 1014 59 10000 2.1 0 05:25 14.12.2019
2443 Clouds 29 1015 70 10000 1.5 30 02:51 14.12.2019
2444 Clouds 29 1015 70 10000 1.5 30 02:23 14.12.2019
2445 Clouds 28 1015 74 10000 2.1 50 01:44 14.12.2019
2446 Clouds 26 1015 88 9000 1.5 80 00:58 14.12.2019
2447 Clouds 25 1015 88 9000 1.5 80 00:40 14.12.2019
2448 Clouds 25 1015 88 9000 1.5 80 00:19 14.12.2019
2449 Clouds 24 1014 88 10000 1 0 23:41 13.12.2019
2450 Clouds 24 1014 88 10000 1 0 23:19 13.12.2019
2451 Clouds 25 1014 83 10000 1 0 22:56 13.12.2019
2452 Clouds 25 1014 83 10000 1 0 22:37 13.12.2019
2453 Clouds 25 1014 83 10000 1 0 22:18 13.12.2019
2454 Clouds 25 1014 83 10000 1.5 330 21:42 13.12.2019
2455 Clouds 25 1014 83 10000 1.5 330 21:21 13.12.2019
2456 Clouds 25 1014 88 10000 0.5 0 20:58 13.12.2019
2457 Clouds 25 1014 88 10000 0.5 0 20:39 13.12.2019
2458 Clouds 25 1014 88 10000 1 0 20:19 13.12.2019
2459 Clouds 25 1014 88 10000 1 0 19:56 13.12.2019
2460 Clouds 25 1014 88 10000 1 0 19:38 13.12.2019
2461 Clouds 25 1014 88 10000 1 0 19:18 13.12.2019
2462 Clouds 25 1015 83 10000 2.1 100 18:42 13.12.2019
2463 Clouds 25 1015 83 10000 2.1 100 18:42 13.12.2019
2464 Clouds 26 1015 83 10000 2.1 100 18:20 13.12.2019
2465 Clouds 25 1015 94 10000 2.6 100 17:59 13.12.2019
2466 Clouds 25 1015 94 10000 2.6 100 17:39 13.12.2019
2467 Clouds 25 1015 94 10000 2.6 100 17:18 13.12.2019
2468 Clouds 25 1015 94 10000 2.6 100 17:18 13.12.2019
2469 Rain 25 1015 94 8000 2.6 110 16:56 13.12.2019
2470 Rain 25 1015 94 8000 2.6 110 16:38 13.12.2019
2471 Rain 25 1015 94 8000 2.6 110 16:19 13.12.2019
2472 Rain 26 1015 74 10000 2.6 100 15:42 13.12.2019
2473 Rain 27 1015 74 10000 2.6 100 15:21 13.12.2019
2474 Rain 27 1015 69 10000 1.5 110 14:57 13.12.2019
2475 Clouds 27 1015 69 10000 1.5 110 14:37 13.12.2019
2476 Clouds 27 1015 69 10000 1.5 110 14:19 13.12.2019
2477 Clouds 27 1015 69 10000 2.6 110 13:43 13.12.2019
2478 Clouds 27 1015 69 10000 2.6 110 13:24 13.12.2019
2479 Clouds 28 1014 74 10000 2.6 110 12:55 13.12.2019
2480 Clouds 28 1014 74 10000 2.6 110 12:37 13.12.2019
2481 Clouds 28 1014 74 10000 2.6 110 12:18 13.12.2019
2482 Clouds 29 1013 58 10000 2.6 100 11:43 13.12.2019
2483 Clouds 29 1013 58 10000 2.6 100 11:24 13.12.2019
2484 Clouds 30 1013 55 10000 3.6 90 10:56 13.12.2019
2485 Clouds 30 1013 55 10000 3.6 90 10:38 13.12.2019
2486 Clouds 30 1013 55 10000 3.6 90 10:19 13.12.2019
2487 Clouds 31 1012 49 10000 4.6 80 09:42 13.12.2019
2488 Clouds 31 1012 49 10000 4.6 80 09:21 13.12.2019
2489 Clouds 31 1012 52 10000 5.1 80 08:45 13.12.2019
2490 Clouds 31 1012 52 10000 5.1 80 08:26 13.12.2019
2491 Clouds 32 1012 59 10000 3.6 110 07:48 13.12.2019
2492 Clouds 32 1012 59 10000 3.6 110 07:25 13.12.2019
2493 Clouds 31 1013 62 10000 2.6 270 06:57 13.12.2019
2494 Clouds 31 1013 62 10000 2.6 270 06:31 13.12.2019
2495 Clouds 31 1014 66 10000 1.5 0 05:51 13.12.2019
2496 Clouds 31 1014 66 10000 1.5 0 05:31 13.12.2019
2497 Clouds 31 1014 66 10000 2.6 0 04:53 13.12.2019
2498 Clouds 31 1015 62 10000 2.6 90 03:50 13.12.2019
2499 Clouds 30 1015 70 10000 1 0 02:35 13.12.2019
2500 Clouds 28 1015 69 10000 1 0 01:50 13.12.2019
2501 Clouds 28 1015 69 10000 1 0 01:21 13.12.2019
2502 Clouds 26 1014 88 10000 1 0 00:46 13.12.2019
2503 Clouds 25 1014 88 10000 1 0 00:24 13.12.2019
2504 Clouds 25 1013 83 10000 1.5 120 23:41 12.12.2019
2505 Clouds 25 1013 83 10000 1.5 120 23:22 12.12.2019
2506 Clouds 25 1013 83 10000 1.5 0 22:56 12.12.2019
2507 Clouds 25 1013 83 10000 1.5 0 22:38 12.12.2019
2508 Clouds 25 1013 83 10000 1.5 0 22:19 12.12.2019
2509 Clouds 25 1013 83 10000 1.5 0 22:19 12.12.2019
2510 Clouds 25 1013 88 10000 0.5 0 21:55 12.12.2019
2511 Clouds 25 1013 88 10000 0.5 0 21:37 12.12.2019
2512 Clouds 25 1013 88 10000 0.5 0 21:19 12.12.2019
2513 Clouds 25 1013 88 10000 4.51 78 20:57 12.12.2019
2514 Clouds 25 1013 88 10000 4.51 78 20:38 12.12.2019
2515 Clouds 25 1013 88 10000 3.68 82 20:20 12.12.2019
2516 Clouds 25 1013 88 10000 2.1 70 19:55 12.12.2019
2517 Clouds 25 1013 88 10000 2.1 70 19:37 12.12.2019
2518 Clouds 25 1013 88 10000 2.1 70 19:18 12.12.2019
2519 Clouds 26 1014 83 10000 0.5 0 18:55 12.12.2019
2520 Clouds 26 1014 83 10000 0.5 0 18:36 12.12.2019
2521 Clouds 26 1014 83 10000 0.5 0 18:18 12.12.2019
2522 Clouds 26 1014 83 10000 1 0 17:41 12.12.2019
2523 Clouds 26 1014 83 10000 1 0 17:21 12.12.2019
2524 Clouds 26 1014 83 10000 1 0 16:59 12.12.2019
2525 Clouds 26 1014 83 10000 1 0 16:41 12.12.2019
2526 Clouds 26 1014 83 10000 1 0 16:21 12.12.2019
2527 Clouds 26 1014 78 10000 1.5 150 15:58 12.12.2019
2528 Clouds 26 1014 78 10000 1.5 150 15:40 12.12.2019
2529 Clouds 26 1014 78 10000 1.5 150 15:19 12.12.2019
2530 Clouds 26 1014 78 10000 1.5 130 14:56 12.12.2019
2531 Clouds 27 1014 78 10000 1.5 130 14:36 12.12.2019
2532 Clouds 27 1014 78 10000 1.5 130 14:18 12.12.2019
2533 Clouds 27 1014 78 10000 1.5 110 13:54 12.12.2019
2534 Clouds 27 1014 78 10000 1.5 110 13:36 12.12.2019
2535 Clouds 27 1014 78 10000 1.5 110 13:18 12.12.2019
2536 Clouds 27 1013 74 10000 3.1 110 12:41 12.12.2019
2537 Clouds 27 1013 74 10000 3.1 110 12:41 12.12.2019
2538 Clouds 27 1013 74 10000 3.1 110 12:22 12.12.2019
2539 Clouds 27 1012 70 10000 3.6 110 11:59 12.12.2019
2540 Clouds 27 1012 70 10000 3.6 110 11:39 12.12.2019
2541 Clouds 27 1012 70 10000 3.6 110 11:39 12.12.2019
2542 Clouds 27 1012 64 10000 3.6 110 11:21 12.12.2019
2543 Clouds 28 1011 66 10000 3.6 100 10:58 12.12.2019
2544 Clouds 28 1011 66 10000 3.6 100 10:40 12.12.2019
2545 Clouds 29 1011 66 10000 3.6 100 10:21 12.12.2019
2546 Clouds 29 1011 66 10000 3.6 100 10:21 12.12.2019
2547 Clouds 30 1011 55 10000 5.7 60 09:56 12.12.2019
2548 Clouds 30 1011 55 10000 5.7 60 09:38 12.12.2019
2549 Clouds 30 1011 55 10000 5.7 60 09:19 12.12.2019
2550 Clouds 30 1011 55 10000 5.7 60 09:19 12.12.2019
2551 Clouds 31 1011 52 10000 4.6 100 08:46 12.12.2019
2552 Clouds 31 1011 52 10000 4.6 100 08:28 12.12.2019
2553 Clouds 31 1011 58 10000 6.2 70 07:50 12.12.2019
2554 Clouds 30 1011 58 10000 6.2 70 07:28 12.12.2019
2555 Clouds 29 1012 70 10000 4.1 110 06:57 12.12.2019
2556 Clouds 29 1012 70 10000 4.1 110 06:36 12.12.2019
2557 Clouds 30 1012 58 10000 2.6 0 05:49 12.12.2019
2558 Clouds 30 1012 58 10000 2.6 0 05:25 12.12.2019
2559 Clouds 28 1013 74 10000 2.1 270 04:28 12.12.2019
2560 Clouds 28 1013 74 10000 1.5 300 02:41 12.12.2019
2561 Clouds 28 1013 74 10000 1.5 300 02:22 12.12.2019
2562 Clouds 28 1013 69 10000 1 0 01:54 12.12.2019
2563 Clouds 27 1013 69 10000 1 0 01:35 12.12.2019
2564 Clouds 27 1012 74 10000 1 0 00:48 12.12.2019
2565 Clouds 26 1012 74 10000 1 0 00:21 12.12.2019
2566 Clouds 26 1011 78 10000 2.1 30 23:54 11.12.2019
2567 Clouds 25 1011 78 10000 2.1 30 23:36 11.12.2019
2568 Clouds 25 1011 78 10000 2.1 30 23:18 11.12.2019
2569 Clouds 25 1011 83 10000 1.5 300 22:55 11.12.2019
2570 Clouds 25 1011 83 10000 1.5 300 22:36 11.12.2019
2571 Clouds 25 1011 83 10000 1.5 300 22:18 11.12.2019
2572 Clouds 25 1011 83 10000 2.04 36 21:39 11.12.2019
2573 Clouds 25 1011 83 10000 2.04 36 21:20 11.12.2019
2574 Clouds 26 1011 83 10000 0.5 0 20:58 11.12.2019
2575 Clouds 25 1010 86 0 2.04 36 20:39 11.12.2019
2576 Clouds 26 1012 83 10000 0.5 0 20:19 11.12.2019
2577 Clouds 26 1012 83 10000 0.5 0 20:19 11.12.2019
2578 Clouds 26 1012 83 10000 0.5 0 19:59 11.12.2019
2579 Clouds 26 1012 83 10000 0.5 0 19:40 11.12.2019
2580 Clouds 26 1012 83 10000 0.5 0 19:21 11.12.2019
2581 Clouds 26 1012 83 10000 0.5 0 18:57 11.12.2019
2582 Clouds 26 1012 83 10000 0.5 0 18:38 11.12.2019
2583 Clouds 26 1012 83 10000 0.5 0 18:18 11.12.2019
2584 Clouds 26 1012 83 10000 1 0 17:55 11.12.2019
2585 Clouds 26 1012 83 10000 1 0 17:36 11.12.2019
2586 Clouds 26 1012 83 10000 1 0 17:18 11.12.2019
2587 Clouds 27 1013 78 10000 1.5 110 16:55 11.12.2019
2588 Clouds 27 1013 78 10000 1.5 110 16:36 11.12.2019
2589 Clouds 27 1013 78 10000 1.5 110 16:18 11.12.2019
2590 Clouds 27 1013 74 10000 2.1 100 15:41 11.12.2019
2591 Clouds 27 1013 74 10000 2.1 100 15:23 11.12.2019
2592 Clouds 27 1012 69 10000 2.1 90 14:56 11.12.2019
2593 Clouds 27 1012 69 10000 2.1 90 14:38 11.12.2019
2594 Clouds 27 1012 69 10000 2.1 90 14:20 11.12.2019
2595 Clouds 27 1012 74 50 2.1 90 13:55 11.12.2019
2596 Clouds 27 1012 74 50 2.1 90 13:37 11.12.2019
2597 Clouds 27 1012 74 50 2.1 90 13:18 11.12.2019
2598 Clouds 27 1011 74 10000 2.1 100 12:56 11.12.2019
2599 Clouds 27 1011 74 10000 2.1 100 12:38 11.12.2019
2600 Clouds 28 1011 74 10000 2.1 100 12:18 11.12.2019
2601 Clouds 28 1010 70 10000 2.6 110 11:57 11.12.2019
2602 Clouds 28 1010 70 10000 2.6 110 11:38 11.12.2019
2603 Clouds 28 1010 70 10000 2.6 110 11:18 11.12.2019
2604 Clouds 28 1010 70 10000 3.1 100 10:45 11.12.2019
2605 Clouds 29 1010 70 10000 3.1 100 10:27 11.12.2019
2606 Clouds 29 1010 66 10000 3.6 110 09:59 11.12.2019
2607 Clouds 29 1010 66 10000 3.6 110 09:39 11.12.2019
2608 Clouds 29 1010 66 10000 3.6 110 09:39 11.12.2019
2609 Clouds 29 1010 66 10000 3.6 110 09:39 11.12.2019
2610 Clouds 29 1010 66 10000 3.6 110 09:20 11.12.2019
2611 Clouds 29 1009 66 10000 3.1 120 08:57 11.12.2019
2612 Clouds 29 1009 66 10000 3.1 120 08:38 11.12.2019
2613 Clouds 29 1009 66 10000 3.1 120 08:19 11.12.2019
2614 Clouds 30 1009 62 10000 1 0 07:46 11.12.2019
2615 Clouds 31 1009 62 10000 1 0 07:26 11.12.2019
2616 Clouds 31 1010 66 10000 3.1 270 06:57 11.12.2019
2617 Clouds 31 1010 66 10000 3.1 270 06:37 11.12.2019
2618 Clouds 31 1010 66 10000 3.1 270 06:18 11.12.2019
2619 Clouds 31 1011 66 9000 3.1 280 05:37 11.12.2019
2620 Clouds 30 1012 70 9000 2.6 300 04:57 11.12.2019
2621 Clouds 29 1013 74 10000 3.1 290 03:49 11.12.2019
2622 Clouds 29 1013 69 10000 1.5 210 02:40 11.12.2019
2623 Clouds 27 1013 78 10000 1.5 270 01:23 11.12.2019
2624 Clouds 26 1012 78 10000 1.5 290 00:46 11.12.2019
2625 Clouds 25 1012 78 10000 1.5 290 00:21 11.12.2019
2626 Clouds 25 1011 78 10000 1 0 23:46 10.12.2019
2627 Clouds 25 1011 78 10000 1 0 23:28 10.12.2019
2628 Clouds 25 1011 78 10000 1 0 22:57 10.12.2019
2629 Clouds 25 1011 78 10000 1 0 22:57 10.12.2019
2630 Clouds 25 1011 78 10000 1 0 22:39 10.12.2019
2631 Clouds 25 1011 78 10000 1 0 22:21 10.12.2019
2632 Clouds 25 1011 78 10000 0.5 0 21:55 10.12.2019
2633 Clouds 25 1011 78 10000 0.5 0 21:37 10.12.2019
2634 Clouds 25 1011 78 10000 0.5 0 21:18 10.12.2019
2635 Clouds 25 1010 78 10000 1 0 20:56 10.12.2019
2636 Clouds 25 1010 78 10000 1 0 20:37 10.12.2019
2637 Clouds 25 1010 78 10000 1 0 20:18 10.12.2019
2638 Clouds 25 1011 78 10000 1 0 19:54 10.12.2019
2639 Clouds 25 1011 78 10000 1 0 19:36 10.12.2019
2640 Clouds 25 1011 78 10000 1 0 19:36 10.12.2019
2641 Clouds 25 1011 78 10000 1 0 19:18 10.12.2019
2642 Clouds 25 1011 78 10000 1.5 100 18:39 10.12.2019
2643 Clouds 26 1011 78 10000 1.5 100 18:20 10.12.2019
2644 Clouds 26 1012 78 10000 2.1 0 17:57 10.12.2019
2645 Clouds 26 1012 78 10000 2.1 0 17:39 10.12.2019
2646 Clouds 26 1012 78 10000 2.1 0 17:19 10.12.2019
2647 Clouds 26 1012 78 10000 1.5 130 16:43 10.12.2019
2648 Clouds 26 1012 78 10000 1.5 130 16:20 10.12.2019
2649 Clouds 26 1012 78 10000 1.5 130 16:20 10.12.2019
2650 Clouds 26 1012 78 10000 2.6 140 15:55 10.12.2019
2651 Clouds 26 1012 78 10000 2.6 140 15:37 10.12.2019
2652 Clouds 26 1012 78 10000 2.6 140 15:18 10.12.2019
2653 Clouds 26 1012 78 10000 2.6 140 15:18 10.12.2019
2654 Clouds 26 1012 78 10000 2.6 140 15:18 10.12.2019
2655 Clouds 26 1012 69 10000 2.1 130 14:55 10.12.2019
2656 Clouds 27 1012 69 10000 2.1 130 14:36 10.12.2019
2657 Clouds 27 1012 69 10000 2.1 130 14:18 10.12.2019
2658 Clouds 27 1012 74 10000 1 0 13:56 10.12.2019
2659 Clouds 27 1012 74 10000 1 0 13:56 10.12.2019
2660 Clouds 27 1012 74 10000 1 0 13:37 10.12.2019
2661 Clouds 27 1012 74 10000 1 0 13:18 10.12.2019
2662 Clouds 27 1011 69 10000 2.6 120 12:40 10.12.2019
2663 Clouds 27 1011 69 10000 2.6 120 12:21 10.12.2019
2664 Clouds 28 1011 69 10000 2.6 130 11:42 10.12.2019
2665 Clouds 28 1011 69 10000 2.6 130 11:23 10.12.2019
2666 Clouds 28 1010 66 10000 3.1 140 10:56 10.12.2019
2667 Clouds 28 1010 66 10000 3.1 140 10:56 10.12.2019
2668 Clouds 28 1010 66 10000 3.1 140 10:37 10.12.2019
2669 Clouds 28 1010 66 10000 3.1 140 10:19 10.12.2019
2670 Clouds 29 1010 70 10000 2.1 260 09:54 10.12.2019
2671 Clouds 29 1010 70 10000 2.1 260 09:36 10.12.2019
2672 Clouds 29 1010 70 10000 2.1 260 09:18 10.12.2019
2673 Clouds 29 1010 70 10000 3.1 280 08:41 10.12.2019
2674 Clouds 29 1010 70 10000 3.1 280 08:22 10.12.2019
2675 Clouds 29 1010 62 10000 3.6 280 07:57 10.12.2019
2676 Clouds 29 1010 62 10000 3.6 280 07:39 10.12.2019
2677 Clouds 30 1010 62 10000 3.6 280 07:21 10.12.2019
2678 Clouds 30 1011 66 10000 4.1 300 06:46 10.12.2019
2679 Clouds 29 1011 66 10000 4.1 300 06:19 10.12.2019
2680 Clouds 29 1012 66 10000 3.1 290 05:52 10.12.2019
2681 Clouds 29 1012 69 9000 3.6 300 04:51 10.12.2019
2682 Clouds 29 1013 69 10000 3.1 260 03:32 10.12.2019
2683 Clouds 28 1013 69 10000 1 0 02:40 10.12.2019
2684 Clouds 27 1013 69 10000 1 0 01:44 10.12.2019
2685 Clouds 27 1013 69 10000 1 0 01:20 10.12.2019
2686 Clouds 26 1012 74 10000 1.5 330 00:40 10.12.2019
2687 Clouds 25 1012 74 10000 1.5 330 00:19 10.12.2019
2688 Clouds 24 1012 78 10000 2.1 330 23:41 09.12.2019
2689 Clouds 24 1012 78 10000 2.1 330 23:22 09.12.2019
2690 Clouds 24 1011 78 10000 1.5 0 22:57 09.12.2019
2691 Clouds 24 1011 78 10000 1.5 0 22:39 09.12.2019
2692 Clouds 24 1011 78 10000 1.5 0 22:19 09.12.2019
2693 Clouds 24 1011 83 10000 2.59 21 21:56 09.12.2019
2694 Clouds 25 1011 83 10000 2.59 21 21:38 09.12.2019
2695 Clouds 25 1011 83 10000 2.59 21 21:18 09.12.2019
2696 Clouds 25 1011 78 10000 1 0 20:56 09.12.2019
2697 Clouds 25 1011 78 10000 1 0 20:38 09.12.2019
2698 Clouds 25 1011 78 10000 1 0 20:19 09.12.2019
2699 Clouds 25 1012 74 0 1 0 19:55 09.12.2019
2700 Clouds 25 1012 74 0 1 0 19:37 09.12.2019
2701 Clouds 25 1012 74 0 1 0 19:19 09.12.2019
2702 Clouds 25 1012 74 10000 1 0 18:55 09.12.2019
2703 Clouds 26 1012 74 10000 1 0 18:36 09.12.2019
2704 Clouds 26 1012 74 10000 1 0 18:18 09.12.2019
2705 Clouds 26 1013 74 10000 1 0 17:56 09.12.2019
2706 Clouds 26 1013 74 10000 1 0 17:37 09.12.2019
2707 Clouds 26 1013 74 10000 1 0 17:19 09.12.2019
2708 Clouds 26 1013 74 10000 2.1 130 16:54 09.12.2019
2709 Clouds 26 1013 74 10000 2.1 130 16:36 09.12.2019
2710 Clouds 26 1013 74 10000 2.1 130 16:18 09.12.2019
2711 Clouds 26 1013 69 10000 2.1 110 15:54 09.12.2019
2712 Clouds 26 1013 69 10000 2.1 110 15:36 09.12.2019
2713 Clouds 26 1013 69 10000 2.1 110 15:18 09.12.2019
2714 Clouds 27 1013 69 10000 2.1 120 14:42 09.12.2019
2715 Clouds 27 1013 69 10000 2.1 120 14:18 09.12.2019
2716 Clouds 27 1013 69 10000 2.1 120 14:18 09.12.2019
2717 Clouds 27 1012 61 10000 3.1 90 13:56 09.12.2019
2718 Clouds 27 1012 61 10000 3.1 90 13:38 09.12.2019
2719 Clouds 27 1012 61 10000 3.1 90 13:19 09.12.2019
2720 Clouds 27 1012 69 10000 3.1 120 12:56 09.12.2019
2721 Clouds 27 1012 69 10000 3.1 120 12:37 09.12.2019
2722 Clouds 27 1012 69 10000 3.1 120 12:19 09.12.2019
2723 Clouds 27 1012 65 10000 3.6 120 11:55 09.12.2019
2724 Clouds 27 1012 65 10000 3.6 120 11:36 09.12.2019
2725 Clouds 27 1012 65 10000 3.6 120 11:18 09.12.2019
2726 Clouds 28 1011 58 10000 4.1 100 10:40 09.12.2019
2727 Clouds 28 1011 58 10000 4.1 100 10:20 09.12.2019
2728 Clouds 28 1010 62 10000 4.1 110 09:56 09.12.2019
2729 Clouds 29 1010 62 10000 4.1 110 09:38 09.12.2019
2730 Clouds 29 1010 62 10000 4.1 110 09:20 09.12.2019
2731 Clouds 29 1010 58 10000 5.47 84 08:40 09.12.2019
2732 Clouds 30 1010 58 10000 4.58 73 08:22 09.12.2019
2733 Clouds 30 1011 58 10000 5.7 110 07:53 09.12.2019
2734 Clouds 30 1011 58 10000 5.7 110 07:34 09.12.2019
2735 Clouds 31 1011 52 10000 4.1 100 06:59 09.12.2019
2736 Clouds 30 1011 52 10000 4.1 100 06:37 09.12.2019
2737 Clouds 31 1011 52 10000 4.1 100 06:19 09.12.2019
2738 Clouds 30 1013 58 10000 2.1 0 05:25 09.12.2019
2739 Clouds 29 1014 65 10000 1.5 250 04:28 09.12.2019
2740 Clouds 29 1014 65 10000 1 0 03:18 09.12.2019
2741 Clouds 28 1014 69 10000 1 0 01:48 09.12.2019
2742 Clouds 27 1014 69 10000 1 0 01:28 09.12.2019
2743 Clouds 25 1013 73 10000 1.5 350 00:39 09.12.2019
2744 Clouds 25 1013 73 10000 1.5 350 00:19 09.12.2019
2745 Clouds 24 1013 78 10000 1.5 240 23:39 08.12.2019
2746 Clouds 24 1013 78 10000 1.5 240 23:20 08.12.2019
2747 Clouds 24 1012 78 10000 1 0 22:56 08.12.2019
2748 Clouds 24 1012 78 10000 1 0 22:38 08.12.2019
2749 Clouds 24 1012 78 10000 1 0 22:18 08.12.2019
2750 Clouds 24 1012 78 10000 1.5 240 21:57 08.12.2019
2751 Clouds 24 1012 78 10000 1.5 240 21:38 08.12.2019
2752 Clouds 24 1012 78 10000 1.5 240 21:19 08.12.2019
2753 Clouds 24 1012 78 10000 1 0 20:56 08.12.2019
2754 Clouds 25 1012 78 10000 1 0 20:37 08.12.2019
2755 Clouds 25 1012 78 10000 1 0 20:19 08.12.2019
2756 Clouds 25 1013 78 10000 0.5 0 19:55 08.12.2019
2757 Clouds 25 1013 78 10000 0.5 0 19:37 08.12.2019
2758 Clouds 25 1013 78 10000 0.5 0 19:19 08.12.2019
2759 Clouds 25 1013 78 10000 1 0 18:55 08.12.2019
2760 Clouds 25 1013 78 10000 1 0 18:36 08.12.2019
2761 Clouds 25 1013 78 10000 1 0 18:36 08.12.2019
2762 Clouds 25 1013 78 10000 1 0 18:36 08.12.2019
2763 Clouds 25 1013 78 10000 1 0 18:18 08.12.2019
2764 Clouds 25 1013 78 10000 1 0 17:55 08.12.2019
2765 Clouds 25 1013 78 10000 1 0 17:36 08.12.2019
2766 Clouds 25 1013 78 10000 1 0 17:18 08.12.2019
2767 Clouds 25 1014 69 10000 3.31 82 16:55 08.12.2019
2768 Clouds 26 1014 69 10000 3.31 82 16:37 08.12.2019
2769 Clouds 26 1014 69 10000 3.31 82 16:18 08.12.2019
2770 Clouds 26 1011 69 10000 1.5 300 15:37 08.12.2019
2771 Clouds 26 1011 69 10000 1.5 300 15:18 08.12.2019
2772 Clouds 26 1014 65 10000 2.1 120 14:57 08.12.2019
2773 Clouds 26 1014 65 10000 2.1 120 14:37 08.12.2019
2774 Clouds 26 1014 65 10000 2.1 120 14:19 08.12.2019
2775 Clouds 26 1014 65 10000 3.1 80 13:41 08.12.2019
2776 Clouds 27 1014 65 10000 3.1 80 13:23 08.12.2019
2777 Clouds 27 1013 65 10000 3.6 90 12:59 08.12.2019
2778 Clouds 27 1013 65 10000 3.6 90 12:40 08.12.2019
2779 Clouds 27 1013 65 10000 3.6 90 12:20 08.12.2019
2780 Clouds 27 1012 74 10000 3.1 100 11:58 08.12.2019
2781 Clouds 27 1012 74 10000 3.1 100 11:38 08.12.2019
2782 Clouds 27 1012 74 10000 3.1 100 11:19 08.12.2019
2783 Clouds 28 1012 58 10000 4.6 90 10:57 08.12.2019
2784 Clouds 28 1012 58 10000 4.6 90 10:38 08.12.2019
2785 Clouds 28 1012 58 10000 4.6 90 10:19 08.12.2019
2786 Clouds 29 1011 55 10000 6.2 90 09:55 08.12.2019
2787 Clouds 29 1011 55 10000 6.2 90 09:37 08.12.2019
2788 Clouds 29 1011 55 10000 6.2 90 09:18 08.12.2019
2789 Clouds 30 1011 52 10000 5.1 100 08:43 08.12.2019
2790 Clouds 30 1011 52 10000 5.1 100 08:23 08.12.2019
2791 Clouds 31 1011 55 10000 3.1 100 07:57 08.12.2019
2792 Clouds 31 1011 55 10000 3.1 100 07:39 08.12.2019
2793 Clouds 31 1011 55 10000 3.1 100 07:18 08.12.2019
2794 Clouds 31 1012 58 10000 5.1 90 06:41 08.12.2019
2795 Clouds 31 1012 58 10000 5.1 90 06:21 08.12.2019
2796 Clouds 30 1012 58 10000 4.1 310 05:26 08.12.2019
2797 Clouds 30 1013 58 10000 3.1 0 04:54 08.12.2019
2798 Clouds 29 1014 65 10000 2.6 280 03:40 08.12.2019
2799 Clouds 28 1014 69 10000 2.6 300 02:43 08.12.2019
2800 Clouds 28 1014 69 10000 2.6 300 02:20 08.12.2019
2801 Clouds 27 1013 69 10000 2.1 270 01:40 08.12.2019
2802 Clouds 27 1013 78 10000 1 0 00:54 08.12.2019
2803 Clouds 26 1013 78 10000 1 0 00:24 08.12.2019
2804 Clouds 25 1012 74 10000 1 0 23:59 07.12.2019
2805 Clouds 25 1012 74 10000 1 0 23:38 07.12.2019
2806 Clouds 25 1012 74 10000 1 0 23:20 07.12.2019
2807 Clouds 25 1012 74 10000 0.5 0 22:55 07.12.2019
2808 Clouds 25 1012 74 10000 0.5 0 22:37 07.12.2019
2809 Clouds 25 1012 74 10000 0.5 0 22:37 07.12.2019
2810 Clouds 25 1012 74 10000 0.5 0 22:37 07.12.2019
2811 Clouds 25 1012 74 10000 0.5 0 22:37 07.12.2019
2812 Clouds 25 1012 74 10000 0.5 0 22:19 07.12.2019
2813 Clouds 25 1011 78 10000 1 220 21:55 07.12.2019
2814 Clouds 26 1011 78 10000 1 220 21:37 07.12.2019
2815 Clouds 26 1011 78 10000 1 220 21:18 07.12.2019
2816 Clouds 26 1011 78 10000 2.61 51 20:38 07.12.2019
2817 Clouds 26 1011 78 10000 2.88 57 20:20 07.12.2019
2818 Clouds 26 1012 78 10000 1 220 19:58 07.12.2019
2819 Clouds 26 1012 78 10000 1 220 19:39 07.12.2019
2820 Clouds 26 1012 78 10000 1 220 19:21 07.12.2019
2821 Clouds 26 1012 78 10000 1.5 230 18:58 07.12.2019
2822 Clouds 26 1012 78 10000 1.5 230 18:40 07.12.2019
2823 Clouds 26 1012 78 10000 1.5 230 18:40 07.12.2019
2824 Clouds 26 1012 78 10000 1.5 230 18:18 07.12.2019
2825 Clouds 26 1012 78 10000 0.5 0 17:56 07.12.2019
2826 Clouds 26 1012 78 10000 0.5 0 17:37 07.12.2019
2827 Clouds 26 1012 78 10000 0.5 0 17:19 07.12.2019
2828 Clouds 26 1013 78 10000 1 0 16:56 07.12.2019
2829 Clouds 26 1013 78 10000 1 0 16:36 07.12.2019
2830 Clouds 26 1013 78 10000 1 0 16:36 07.12.2019
2831 Clouds 26 1013 78 10000 1 0 16:18 07.12.2019
2832 Clouds 26 1013 78 10000 1 0 16:18 07.12.2019
2833 Clouds 27 1013 78 10000 2.1 120 15:41 07.12.2019
2834 Clouds 27 1013 78 10000 2.1 120 15:23 07.12.2019
2835 Clouds 27 1013 78 10000 2.1 120 15:23 07.12.2019
2836 Clouds 27 1012 78 10000 2.1 120 14:56 07.12.2019
2837 Clouds 27 1012 78 10000 2.1 120 14:38 07.12.2019
2838 Clouds 27 1012 78 10000 2.1 120 14:18 07.12.2019
2839 Clouds 27 1012 74 10000 2.1 130 13:40 07.12.2019
2840 Clouds 28 1012 74 10000 2.1 130 13:20 07.12.2019
2841 Clouds 28 1011 74 10000 2.1 100 12:55 07.12.2019
2842 Clouds 28 1011 74 10000 2.1 100 12:37 07.12.2019
2843 Clouds 28 1011 74 10000 2.1 100 12:19 07.12.2019
2844 Clouds 28 1010 74 10000 2.6 110 11:42 07.12.2019
2845 Clouds 29 1010 74 10000 2.6 110 11:24 07.12.2019
2846 Clouds 29 1010 62 10000 2.6 150 10:59 07.12.2019
2847 Clouds 29 1010 62 10000 2.6 150 10:37 07.12.2019
2848 Clouds 29 1010 62 10000 2.6 150 10:19 07.12.2019
2849 Clouds 30 1009 66 10000 1.5 240 09:40 07.12.2019
2850 Clouds 30 1009 66 10000 1.5 240 09:21 07.12.2019
2851 Clouds 31 1009 66 10000 3.1 280 08:47 07.12.2019
2852 Clouds 31 1009 66 10000 3.1 280 08:25 07.12.2019
2853 Clouds 31 1009 70 10000 3.1 290 07:54 07.12.2019
2854 Clouds 31 1009 70 10000 3.1 290 07:30 07.12.2019
2855 Clouds 31 1010 74 10000 3.6 290 06:53 07.12.2019
2856 Clouds 30 1010 74 10000 3.6 290 06:28 07.12.2019
2857 Clouds 30 1010 74 10000 2.6 280 05:50 07.12.2019
2858 Clouds 29 1012 74 10000 3.6 290 04:49 07.12.2019
2859 Clouds 29 1013 74 10000 4.1 310 03:53 07.12.2019
2860 Clouds 29 1013 70 10000 2.6 360 02:50 07.12.2019
2861 Clouds 28 1013 70 10000 2.6 360 02:19 07.12.2019
2862 Clouds 27 1012 74 10000 3.6 350 01:30 07.12.2019
2863 Clouds 26 1012 83 10000 4.1 10 00:43 07.12.2019
2864 Clouds 26 1012 83 10000 4.1 10 00:19 07.12.2019
2865 Clouds 25 1011 83 10000 4.1 20 23:45 06.12.2019
2866 Clouds 25 1011 83 10000 4.1 20 23:23 06.12.2019
2867 Clouds 25 1010 83 10000 4.6 10 22:58 06.12.2019
2868 Clouds 25 1010 83 10000 4.6 10 22:58 06.12.2019
2869 Clouds 25 1010 83 10000 4.6 10 22:37 06.12.2019
2870 Clouds 25 1010 83 10000 4.6 10 22:18 06.12.2019
2871 Clouds 25 1010 83 10000 4.6 360 21:41 06.12.2019
2872 Clouds 25 1010 83 10000 4.6 360 21:21 06.12.2019
2873 Clouds 26 1010 83 10000 4.6 360 20:59 06.12.2019
2874 Clouds 26 1010 83 10000 4.6 360 20:41 06.12.2019
2875 Clouds 26 1010 83 10000 4.6 360 20:41 06.12.2019
2876 Clouds 26 1010 83 10000 4.6 360 20:21 06.12.2019
2877 Clouds 26 1010 78 10000 4.6 360 19:54 06.12.2019
2878 Clouds 26 1010 78 10000 4.6 360 19:36 06.12.2019
2879 Clouds 26 1010 78 10000 4.6 360 19:18 06.12.2019
2880 Clouds 26 1011 78 10000 4.1 360 18:44 06.12.2019
2881 Clouds 26 1011 78 10000 4.1 360 18:22 06.12.2019
2882 Clouds 26 1011 83 9000 1 270 17:58 06.12.2019
2883 Clouds 26 1011 83 9000 1 270 17:40 06.12.2019
2884 Clouds 26 1011 83 9000 1 270 17:40 06.12.2019
2885 Clouds 26 1011 83 9000 1 270 17:22 06.12.2019
2886 Clouds 27 1011 83 8000 2.6 330 16:58 06.12.2019
2887 Clouds 27 1011 83 8000 2.6 330 16:39 06.12.2019
2888 Clouds 27 1011 83 8000 2.6 330 16:20 06.12.2019
2889 Clouds 27 1012 88 10000 2.6 250 15:41 06.12.2019
2890 Clouds 27 1012 88 10000 2.6 250 15:23 06.12.2019
2891 Clouds 27 1011 88 10000 3.1 260 14:58 06.12.2019
2892 Clouds 27 1011 88 10000 3.1 260 14:40 06.12.2019
2893 Clouds 27 1011 88 10000 3.1 260 14:20 06.12.2019
2894 Clouds 27 1011 83 10000 1.5 240 13:55 06.12.2019
2895 Clouds 27 1011 83 10000 1.5 240 13:37 06.12.2019
2896 Clouds 28 1011 83 10000 1.5 240 13:19 06.12.2019
2897 Clouds 28 1010 83 10000 2.6 240 12:39 06.12.2019
2898 Clouds 28 1010 83 10000 2.6 240 12:21 06.12.2019
2899 Clouds 28 1009 78 10000 4.1 260 11:43 06.12.2019
2900 Clouds 28 1009 78 10000 4.1 260 11:23 06.12.2019
2901 Clouds 28 1009 79 10000 5.1 270 10:57 06.12.2019
2902 Clouds 28 1009 79 10000 5.1 270 10:38 06.12.2019
2903 Clouds 29 1009 79 10000 5.1 270 10:20 06.12.2019
2904 Clouds 29 1008 70 10000 5.7 270 09:56 06.12.2019
2905 Clouds 30 1008 70 10000 5.7 270 09:37 06.12.2019
2906 Clouds 30 1008 70 10000 5.7 270 09:19 06.12.2019
2907 Clouds 30 1008 70 10000 5.7 270 09:19 06.12.2019
2908 Clouds 30 1008 70 10000 5.7 270 08:43 06.12.2019
2909 Clouds 30 1008 70 10000 5.7 270 08:25 06.12.2019
2910 Clouds 30 1008 70 10000 4.6 290 07:42 06.12.2019
2911 Clouds 30 1008 70 10000 4.6 290 07:22 06.12.2019
2912 Clouds 31 1009 74 9000 3.1 280 06:48 06.12.2019
2913 Clouds 30 1009 74 9000 3.1 280 06:25 06.12.2019
2914 Clouds 30 1010 74 9000 3.1 0 05:49 06.12.2019
2915 Clouds 29 1011 78 10000 3.6 290 03:50 06.12.2019
2916 Clouds 28 1011 78 10000 1 0 01:46 06.12.2019
2917 Clouds 27 1011 88 10000 0.5 0 00:56 06.12.2019
2918 Clouds 26 1011 88 10000 0.5 0 00:24 06.12.2019
2919 Clouds 25 1010 88 10000 0.5 0 23:52 05.12.2019
2920 Clouds 25 1010 88 10000 0.5 0 23:21 05.12.2019
2921 Clouds 25 1010 88 10000 0.5 0 22:59 05.12.2019
2922 Clouds 25 1010 88 10000 0.5 0 22:39 05.12.2019
2923 Clouds 26 1010 88 10000 0.5 0 22:20 05.12.2019
2924 Clouds 26 1010 83 10000 1.15 74 21:58 05.12.2019
2925 Clouds 26 1010 83 10000 1.15 74 21:40 05.12.2019
2926 Clouds 26 1010 83 10000 1.15 74 21:21 05.12.2019
2927 Clouds 26 1010 88 10000 1 0 20:57 05.12.2019
2928 Clouds 26 1010 88 10000 1 0 20:38 05.12.2019
2929 Clouds 26 1010 88 10000 1 0 20:19 05.12.2019
2930 Clouds 26 1010 88 10000 1 0 19:43 05.12.2019
2931 Clouds 26 1010 88 10000 1 0 19:25 05.12.2019
2932 Clouds 26 1011 88 10000 1 0 18:59 05.12.2019
2933 Clouds 26 1011 88 10000 1 0 18:39 05.12.2019
2934 Clouds 26 1011 88 10000 1 0 18:20 05.12.2019
2935 Clouds 26 1011 83 10000 1 0 17:55 05.12.2019
2936 Clouds 26 1011 83 10000 1 0 17:37 05.12.2019
2937 Clouds 26 1011 83 10000 1 0 17:18 05.12.2019
2938 Clouds 27 1011 88 10000 1 0 16:40 05.12.2019
2939 Clouds 27 1011 88 10000 1 0 16:40 05.12.2019
2940 Clouds 27 1011 88 10000 1 0 16:22 05.12.2019
2941 Clouds 27 1011 88 10000 1 0 15:58 05.12.2019
2942 Clouds 27 1011 88 10000 1 0 15:40 05.12.2019
2943 Clouds 27 1011 88 10000 1 0 15:21 05.12.2019
2944 Clouds 26 1011 78 10000 1 0 14:56 05.12.2019
2945 Clouds 26 1011 78 10000 1 0 14:38 05.12.2019
2946 Clouds 27 1011 78 10000 1 0 14:20 05.12.2019
2947 Clouds 28 1011 83 10000 1 0 13:58 05.12.2019
2948 Clouds 27 1011 83 10000 1 0 13:40 05.12.2019
2949 Clouds 27 1011 83 10000 1 0 13:21 05.12.2019
2950 Clouds 28 1011 83 10000 1.5 0 12:58 05.12.2019
2951 Clouds 28 1011 83 10000 1.5 0 12:39 05.12.2019
2952 Clouds 28 1011 83 10000 1.5 0 12:21 05.12.2019
2953 Clouds 28 1010 79 10000 1 0 11:41 05.12.2019
2954 Clouds 29 1010 79 10000 1 0 11:22 05.12.2019
2955 Clouds 29 1009 79 10000 1.5 60 10:59 05.12.2019
2956 Clouds 29 1009 79 10000 1.5 60 10:41 05.12.2019
2957 Clouds 29 1009 79 10000 1.5 60 10:19 05.12.2019
2958 Clouds 29 1009 79 10000 1.5 60 10:19 05.12.2019
2959 Clouds 29 1009 70 10000 3.1 80 09:57 05.12.2019
2960 Clouds 29 1009 70 10000 3.1 80 09:38 05.12.2019
2961 Clouds 29 1009 70 10000 3.1 80 09:20 05.12.2019
2962 Clouds 29 1009 70 10000 3.1 80 09:20 05.12.2019
2963 Clouds 30 1009 66 10000 4.1 340 08:56 05.12.2019
2964 Clouds 30 1009 66 10000 4.1 340 08:37 05.12.2019
2965 Rain 29 1009 66 10000 4.1 340 08:18 05.12.2019
2966 Rain 29 1009 66 10000 4.1 340 08:18 05.12.2019
2967 Rain 29 1009 70 9000 4.6 310 07:41 05.12.2019
2968 Rain 30 1009 70 9000 4.6 310 07:21 05.12.2019
2969 Clouds 30 1010 74 10000 4.1 0 06:47 05.12.2019
2970 Clouds 30 1010 74 10000 4.1 0 06:23 05.12.2019
2971 Clouds 30 1011 74 10000 3.6 0 05:54 05.12.2019
2972 Clouds 30 1011 74 10000 3.6 0 05:24 05.12.2019
2973 Clouds 30 1012 74 10000 2.6 280 04:37 05.12.2019
2974 Clouds 30 1012 79 10000 1.5 0 03:35 05.12.2019
2975 Clouds 29 1013 70 10000 2.1 330 02:41 05.12.2019
2976 Clouds 29 1013 70 10000 2.1 330 02:21 05.12.2019
2977 Clouds 28 1012 83 10000 2.1 30 01:50 05.12.2019
2978 Clouds 28 1012 83 10000 2.1 30 01:50 05.12.2019
2979 Clouds 28 1012 83 10000 2.1 30 01:23 05.12.2019
2980 Clouds 26 1012 88 10000 1 0 00:43 05.12.2019
2981 Clouds 26 1012 88 10000 1 0 00:20 05.12.2019
2982 Clouds 26 1011 88 10000 1 0 23:46 04.12.2019
2983 Clouds 26 1011 88 10000 1 0 23:22 04.12.2019
2984 Clouds 26 1010 88 10000 1 90 22:59 04.12.2019
2985 Clouds 26 1010 88 10000 1 90 22:38 04.12.2019
2986 Clouds 26 1010 88 10000 1 90 22:19 04.12.2019
2987 Clouds 26 1010 88 10000 1 90 22:19 04.12.2019
2988 Clouds 26 1010 88 10000 1.5 120 21:56 04.12.2019
2989 Clouds 26 1010 88 10000 1.5 120 21:56 04.12.2019
2990 Clouds 26 1010 88 10000 1.5 120 21:37 04.12.2019
2991 Clouds 26 1010 88 10000 1.5 120 21:19 04.12.2019
2992 Clouds 26 1010 88 10000 2.5 85 20:56 04.12.2019
2993 Clouds 26 1010 88 10000 2.5 85 20:56 04.12.2019
2994 Clouds 26 1010 88 10000 2.5 85 20:38 04.12.2019
2995 Clouds 26 1010 88 10000 3.78 99 20:20 04.12.2019
2996 Clouds 26 1010 88 10000 1.5 140 19:42 04.12.2019
2997 Clouds 26 1010 88 10000 1.5 140 19:24 04.12.2019
2998 Clouds 27 1010 83 10000 1.5 110 18:59 04.12.2019
2999 Clouds 27 1010 83 10000 1.5 110 18:41 04.12.2019
3000 Clouds 27 1010 83 10000 1.5 110 18:22 04.12.2019
3001 Clouds 27 1010 83 10000 1.5 110 18:22 04.12.2019
3002 Clouds 27 1011 83 10000 1 0 17:58 04.12.2019
3003 Clouds 27 1011 83 10000 1 0 17:58 04.12.2019
3004 Clouds 27 1011 83 10000 1 0 17:39 04.12.2019
3005 Clouds 27 1011 83 10000 1 0 17:19 04.12.2019
3006 Clouds 27 1011 83 10000 1 0 17:19 04.12.2019
3007 Clouds 27 1011 83 10000 1.5 150 16:54 04.12.2019
3008 Clouds 27 1011 83 10000 1.5 150 16:36 04.12.2019
3009 Clouds 27 1011 83 10000 1.5 150 16:18 04.12.2019
3010 Clouds 27 1011 88 10000 2.6 140 15:42 04.12.2019
3011 Clouds 27 1011 88 10000 2.6 140 15:21 04.12.2019
3012 Clouds 28 1011 78 10000 2.6 130 15:00 04.12.2019
3013 Clouds 28 1011 78 10000 2.6 130 14:41 04.12.2019
3014 Clouds 28 1011 78 10000 2.6 130 14:21 04.12.2019
3015 Clouds 28 1010 78 10000 2.1 130 13:56 04.12.2019
3016 Clouds 28 1010 78 10000 2.1 130 13:36 04.12.2019
3017 Clouds 28 1010 78 10000 2.1 130 13:18 04.12.2019
3018 Clouds 28 1009 74 10000 2.6 120 12:41 04.12.2019
3019 Clouds 28 1009 74 10000 2.6 120 12:23 04.12.2019
3020 Clouds 28 1009 74 10000 3.1 110 11:44 04.12.2019
3021 Clouds 28 1009 74 10000 3.1 110 11:44 04.12.2019
3022 Clouds 29 1009 74 10000 3.1 110 11:26 04.12.2019
3023 Clouds 29 1008 74 10000 4.1 110 10:58 04.12.2019
3024 Clouds 30 1008 74 10000 4.1 110 10:40 04.12.2019
3025 Clouds 30 1008 74 10000 4.1 110 10:22 04.12.2019
3026 Clouds 31 1007 66 10000 3.1 120 09:44 04.12.2019
3027 Clouds 32 1007 66 10000 3.1 120 09:24 04.12.2019
3028 Clouds 32 1007 62 10000 3.6 130 08:54 04.12.2019
3029 Clouds 32 1007 62 10000 3.6 130 08:36 04.12.2019
3030 Clouds 32 1007 62 10000 3.6 130 08:18 04.12.2019
3031 Clouds 33 1008 59 10000 4.6 120 07:41 04.12.2019
3032 Clouds 33 1008 59 10000 4.6 120 07:22 04.12.2019
3033 Clouds 32 1008 62 10000 5.1 120 06:33 04.12.2019
3034 Clouds 32 1009 62 10000 4.6 100 05:47 04.12.2019
3035 Clouds 31 1010 66 10000 5.1 110 04:39 04.12.2019
3036 Clouds 30 1010 74 10000 4.6 110 03:52 04.12.2019
3037 Clouds 29 1009 78 10000 4.6 110 01:53 04.12.2019
3038 Clouds 28 1008 74 10000 4.6 110 00:49 04.12.2019
3039 Clouds 27 1008 74 10000 4.6 110 00:22 04.12.2019
3040 Clouds 27 1007 83 10000 4.6 120 23:55 03.12.2019
3041 Clouds 27 1007 83 10000 4.6 120 23:36 03.12.2019
3042 Clouds 27 1007 83 10000 4.6 120 23:18 03.12.2019
3043 Clouds 27 1007 78 10000 3.6 100 22:39 03.12.2019
3044 Clouds 27 1007 78 10000 3.6 100 22:39 03.12.2019
3045 Clouds 27 1007 78 10000 3.6 100 22:18 03.12.2019
3046 Clouds 27 1006 78 10000 4.6 110 21:57 03.12.2019
3047 Clouds 27 1006 78 10000 4.6 110 21:37 03.12.2019
3048 Clouds 27 1006 78 10000 4.6 110 21:18 03.12.2019
3049 Clouds 27 1006 78 10000 5.1 100 20:54 03.12.2019
3050 Clouds 27 1006 78 10000 5.1 100 20:36 03.12.2019
3051 Clouds 27 1006 78 10000 5.1 100 20:18 03.12.2019
3052 Clouds 27 1006 78 10000 5.1 90 19:54 03.12.2019
3053 Clouds 27 1006 78 10000 5.1 90 19:36 03.12.2019
3054 Clouds 27 1006 78 10000 5.1 90 19:18 03.12.2019
3055 Clouds 27 1006 78 10000 5.7 110 18:55 03.12.2019
3056 Clouds 27 1006 78 10000 5.7 110 18:36 03.12.2019
3057 Clouds 27 1006 78 10000 5.7 110 18:36 03.12.2019
3058 Clouds 27 1006 78 10000 5.7 110 18:18 03.12.2019
3059 Clouds 27 1006 78 10000 5.7 100 17:39 03.12.2019
3060 Clouds 27 1006 78 10000 5.7 100 17:19 03.12.2019
3061 Clouds 27 1005 78 10000 6.7 90 16:59 03.12.2019
3062 Clouds 27 1005 78 10000 6.7 90 16:39 03.12.2019
3063 Clouds 27 1005 78 10000 6.7 90 16:21 03.12.2019
3064 Clouds 27 1006 78 10000 3.6 90 15:58 03.12.2019
3065 Clouds 26 1006 78 10000 3.6 90 15:38 03.12.2019
3066 Clouds 26 1006 78 10000 3.6 90 15:19 03.12.2019
3067 Clouds 26 1005 78 10000 6.2 80 14:44 03.12.2019
3068 Clouds 26 1005 78 10000 6.2 80 14:21 03.12.2019
3069 Clouds 25 1005 83 10000 7.2 70 13:59 03.12.2019
3070 Clouds 25 1005 83 10000 7.2 70 13:38 03.12.2019
3071 Clouds 25 1005 83 10000 7.2 70 13:19 03.12.2019
3072 Clouds 24 1004 88 10000 4.6 70 12:56 03.12.2019
3073 Clouds 24 1004 88 10000 4.6 70 12:36 03.12.2019
3074 Clouds 24 1004 88 10000 4.6 70 12:18 03.12.2019
3075 Rain 23 1003 94 10000 4.6 20 11:54 03.12.2019
3076 Rain 23 1003 94 10000 4.6 20 11:36 03.12.2019
3077 Rain 23 1003 94 10000 4.6 20 11:18 03.12.2019
3078 Rain 23 1002 94 2200 3.6 30 10:42 03.12.2019
3079 Rain 24 1002 94 2200 3.6 30 10:21 03.12.2019
3080 Rain 24 1001 94 9000 5.1 20 09:57 03.12.2019
3081 Rain 23 1001 94 9000 5.1 20 09:38 03.12.2019
3082 Rain 23 1001 94 9000 5.1 20 09:20 03.12.2019
3083 Rain 24 1002 94 2500 4.6 20 08:41 03.12.2019
3084 Rain 23 1002 94 2500 4.6 20 08:22 03.12.2019
3085 Rain 23 1001 100 2500 8.2 20 07:57 03.12.2019
3086 Rain 23 1001 100 2500 8.2 20 07:39 03.12.2019
3087 Rain 23 1001 100 2500 8.2 20 07:20 03.12.2019
3088 Rain 23 1001 88 2500 8.2 10 06:23 03.12.2019
3089 Rain 23 1002 94 1500 7.7 10 05:58 03.12.2019
3090 Rain 25 1004 65 10000 7.7 10 04:49 03.12.2019
3091 Rain 25 1004 65 10000 7.7 10 03:38 03.12.2019
3092 Rain 25 1004 65 10000 7.7 10 03:18 03.12.2019
3093 Rain 25 1005 81 0 3.58 332 02:45 03.12.2019
3094 Rain 26 1004 65 10000 5.7 350 02:25 03.12.2019
3095 Clouds 26 1004 65 10000 5.7 350 01:42 03.12.2019
3096 Clouds 26 1004 65 10000 5.7 350 01:23 03.12.2019
3097 Clouds 26 1004 65 10000 5.1 350 00:45 03.12.2019
3098 Clouds 26 1004 65 10000 5.1 350 00:26 03.12.2019
3099 Clouds 26 1004 69 10000 4.1 340 23:59 02.12.2019
3100 Clouds 26 1004 69 10000 4.1 340 23:41 02.12.2019
3101 Clouds 26 1004 69 10000 4.1 340 23:19 02.12.2019
3102 Clouds 26 1004 69 10000 4.1 340 23:19 02.12.2019
3103 Clouds 26 1004 69 10000 4.6 350 22:40 02.12.2019
3104 Clouds 26 1004 69 10000 4.6 350 22:21 02.12.2019
3105 Clouds 26 1004 69 10000 4.1 330 21:57 02.12.2019
3106 Clouds 26 1004 69 10000 4.1 330 21:37 02.12.2019
3107 Clouds 26 1004 69 10000 4.1 330 21:18 02.12.2019
3108 Clouds 26 1004 69 8000 5.1 350 20:55 02.12.2019
3109 Clouds 26 1004 69 8000 5.1 350 20:37 02.12.2019
3110 Clouds 26 1004 69 8000 5.1 350 20:19 02.12.2019
3111 Clouds 26 1005 74 8000 4.1 350 19:42 02.12.2019
3112 Clouds 26 1005 74 8000 4.1 350 19:21 02.12.2019
3113 Clouds 26 1005 74 8000 4.1 350 19:21 02.12.2019
3114 Rain 27 1006 69 8000 6.2 10 18:57 02.12.2019
3115 Rain 27 1006 69 8000 6.2 10 18:57 02.12.2019
3116 Rain 27 1006 69 8000 6.2 10 18:57 02.12.2019
3117 Rain 27 1006 69 8000 6.2 10 18:57 02.12.2019
3118 Rain 26 1006 69 8000 6.2 10 18:38 02.12.2019
3119 Rain 27 1006 69 8000 6.2 10 18:18 02.12.2019
3120 Clouds 27 1007 69 10000 5.1 360 17:57 02.12.2019
3121 Clouds 27 1007 69 10000 5.1 360 17:38 02.12.2019
3122 Clouds 27 1007 69 10000 5.1 360 17:19 02.12.2019
3123 Clouds 27 1007 69 10000 5.1 360 16:40 02.12.2019
3124 Clouds 27 1007 69 10000 5.1 360 16:19 02.12.2019
3125 Clouds 27 1007 69 10000 4.1 360 15:58 02.12.2019
3126 Clouds 27 1007 69 10000 4.1 360 15:39 02.12.2019
3127 Clouds 27 1007 69 10000 4.1 360 15:39 02.12.2019
3128 Clouds 27 1007 69 10000 4.1 360 15:21 02.12.2019
3129 Clouds 27 1007 74 10000 4.1 360 14:56 02.12.2019
3130 Clouds 27 1007 74 10000 4.1 360 14:37 02.12.2019
3131 Clouds 27 1007 74 10000 4.1 360 14:19 02.12.2019
3132 Clouds 28 1007 70 10000 4.6 10 13:56 02.12.2019
3133 Clouds 28 1007 70 10000 4.6 10 13:38 02.12.2019
3134 Clouds 28 1007 70 10000 4.6 10 13:19 02.12.2019
3135 Clouds 28 1006 70 10000 3.1 0 12:42 02.12.2019
3136 Clouds 28 1006 70 10000 3.1 0 12:21 02.12.2019
3137 Clouds 28 1006 78 10000 2.6 290 11:57 02.12.2019
3138 Clouds 28 1006 78 10000 2.6 290 11:38 02.12.2019
3139 Clouds 28 1006 78 10000 2.6 290 11:19 02.12.2019
3140 Clouds 28 1005 74 10000 2.6 310 10:57 02.12.2019
3141 Clouds 28 1005 74 10000 2.6 310 10:57 02.12.2019
3142 Clouds 28 1005 74 10000 2.6 310 10:39 02.12.2019
3143 Clouds 28 1005 74 10000 2.6 310 10:21 02.12.2019
3144 Clouds 28 1005 74 10000 2.6 310 10:21 02.12.2019
3145 Clouds 28 1005 78 10000 4.1 270 09:55 02.12.2019
3146 Clouds 28 1005 78 10000 4.1 270 09:37 02.12.2019
3147 Clouds 28 1005 78 10000 4.1 270 09:18 02.12.2019
3148 Clouds 29 1005 66 10000 4.1 360 08:41 02.12.2019
3149 Clouds 29 1005 66 10000 4.1 360 08:23 02.12.2019
3150 Clouds 29 1006 62 10000 4.6 360 07:59 02.12.2019
3151 Clouds 29 1006 62 10000 4.6 360 07:37 02.12.2019
3152 Clouds 29 1006 62 10000 4.6 360 07:18 02.12.2019
3153 Clouds 29 1007 70 10000 4.6 0 06:39 02.12.2019
3154 Clouds 29 1008 70 10000 5.1 310 05:43 02.12.2019
3155 Clouds 29 1008 74 10000 5.1 310 04:59 02.12.2019
3156 Clouds 28 1009 74 10000 4.1 320 03:19 02.12.2019
3157 Clouds 27 1010 74 10000 4.6 350 02:45 02.12.2019
3158 Clouds 26 1009 74 10000 4.1 10 01:45 02.12.2019
3159 Clouds 26 1009 74 10000 4.1 10 01:18 02.12.2019
3160 Clouds 25 1009 74 10000 3.1 350 00:33 02.12.2019
3161 Clouds 25 1008 83 10000 4.6 340 23:57 01.12.2019
3162 Clouds 25 1008 83 10000 4.6 340 23:57 01.12.2019
3163 Clouds 24 1008 83 10000 4.6 340 23:39 01.12.2019
3164 Clouds 24 1008 83 10000 4.6 340 23:20 01.12.2019
3165 Clouds 24 1008 78 10000 4.6 10 22:56 01.12.2019
3166 Clouds 24 1008 78 10000 4.6 10 22:38 01.12.2019
3167 Clouds 24 1008 78 10000 4.6 10 22:18 01.12.2019
3168 Clouds 24 1008 78 10000 4.6 10 21:56 01.12.2019
3169 Clouds 24 1008 78 10000 4.6 10 21:38 01.12.2019
3170 Clouds 24 1008 78 10000 4.6 10 21:19 01.12.2019
3171 Clouds 25 1007 74 10000 4.6 350 20:56 01.12.2019
3172 Clouds 25 1007 74 10000 4.6 350 20:37 01.12.2019
3173 Clouds 25 1007 74 10000 4.6 350 20:37 01.12.2019
3174 Clouds 25 1007 74 10000 4.6 350 20:19 01.12.2019
3175 Clouds 25 1008 74 10000 3.1 360 19:55 01.12.2019
3176 Clouds 25 1008 74 10000 3.1 360 19:37 01.12.2019
3177 Clouds 25 1008 74 10000 3.1 360 19:19 01.12.2019
3178 Clouds 25 1009 74 10000 4.1 10 18:55 01.12.2019
3179 Clouds 25 1009 74 10000 4.1 10 18:37 01.12.2019
3180 Clouds 25 1009 74 10000 4.1 10 18:18 01.12.2019
3181 Clouds 25 1009 74 10000 4.1 10 18:18 01.12.2019
3182 Clouds 25 1009 74 10000 4.1 10 18:18 01.12.2019
3183 Clouds 26 1009 69 10000 4.1 330 17:56 01.12.2019
3184 Clouds 26 1009 69 10000 4.1 330 17:38 01.12.2019
3185 Clouds 26 1009 69 10000 4.1 330 17:19 01.12.2019
3186 Clouds 27 1009 61 10000 3.6 10 16:43 01.12.2019
3187 Clouds 27 1009 61 10000 3.6 10 16:24 01.12.2019
3188 Clouds 27 1009 61 10000 4.6 50 15:53 01.12.2019
3189 Clouds 27 1009 61 10000 4.6 50 15:33 01.12.2019
3190 Clouds 27 1009 61 10000 4.6 50 14:58 01.12.2019
3191 Clouds 27 1009 61 10000 4.6 50 14:58 01.12.2019
3192 Clouds 27 1009 61 10000 4.6 50 14:58 01.12.2019
3193 Clouds 27 1009 61 10000 4.6 50 14:37 01.12.2019
3194 Clouds 27 1009 61 10000 4.6 50 14:19 01.12.2019
3195 Clouds 27 1010 58 10000 1.5 80 13:40 01.12.2019
3196 Clouds 27 1010 58 10000 1.5 80 13:21 01.12.2019
3197 Clouds 28 1009 54 10000 4.1 50 12:47 01.12.2019
3198 Clouds 28 1009 54 10000 4.1 50 12:19 01.12.2019
3199 Clouds 28 1009 54 10000 4.1 60 11:44 01.12.2019
3200 Clouds 28 1009 54 10000 4.1 60 11:24 01.12.2019
3201 Clouds 29 1008 55 10000 4.6 40 10:55 01.12.2019
3202 Clouds 29 1008 55 10000 4.6 40 10:37 01.12.2019
3203 Clouds 29 1008 55 10000 4.6 40 10:18 01.12.2019
3204 Clouds 29 1008 58 10000 1.5 90 09:40 01.12.2019
3205 Clouds 30 1008 58 10000 1.5 90 09:21 01.12.2019
3206 Clouds 30 1008 55 10000 2.6 40 08:49 01.12.2019
3207 Clouds 30 1008 55 10000 2.6 40 08:21 01.12.2019
3208 Clouds 30 1008 55 10000 3.1 80 07:52 01.12.2019
3209 Clouds 30 1008 55 10000 3.1 80 07:31 01.12.2019
3210 Clouds 30 1009 55 10000 2.6 30 06:57 01.12.2019
3211 Clouds 30 1009 55 10000 2.6 30 06:35 01.12.2019
3212 Clouds 29 1010 58 10000 4.1 290 05:49 01.12.2019
3213 Clouds 29 1011 58 10000 3.6 50 04:52 01.12.2019
3214 Clouds 29 1011 51 10000 4.6 20 03:31 01.12.2019
3215 Clouds 29 1012 54 10000 4.1 10 02:37 01.12.2019
3216 Clouds 28 1012 54 10000 4.1 10 02:18 01.12.2019
3217 Clouds 28 1012 65 10000 3.1 20 01:52 01.12.2019
3218 Clouds 27 1012 65 10000 3.1 20 01:25 01.12.2019
3219 Rain 26 1012 73 10000 2.1 80 00:42 01.12.2019
3220 Rain 25 1012 73 10000 2.1 80 00:24 01.12.2019
3221 Clouds 25 1011 73 10000 3.6 40 23:43 30.11.2019
3222 Clouds 25 1011 73 10000 3.6 40 23:24 30.11.2019
3223 Clouds 24 1010 73 10000 1 0 22:57 30.11.2019
3224 Clouds 24 1010 73 10000 1 0 22:38 30.11.2019
3225 Clouds 24 1010 73 10000 1 0 22:19 30.11.2019
3226 Clouds 24 1010 73 10000 1 0 22:19 30.11.2019
3227 Clouds 24 1010 73 10000 2.78 48 21:43 30.11.2019
3228 Clouds 24 1010 73 10000 2.78 48 21:24 30.11.2019
3229 Clouds 25 1010 69 10000 0.5 0 20:56 30.11.2019
3230 Clouds 25 1010 69 10000 0.5 0 20:38 30.11.2019
3231 Clouds 25 1010 69 10000 0.5 0 20:38 30.11.2019
3232 Clouds 25 1010 69 10000 0.5 0 20:19 30.11.2019
3233 Clouds 25 1010 69 10000 0.5 0 20:19 30.11.2019
3234 Clouds 25 1010 73 10000 2.1 20 19:55 30.11.2019
3235 Clouds 25 1010 73 10000 2.1 20 19:37 30.11.2019
3236 Clouds 25 1010 73 10000 2.1 20 19:19 30.11.2019
3237 Clouds 25 1011 73 10000 2.6 70 18:56 30.11.2019
3238 Clouds 25 1011 73 10000 2.6 70 18:37 30.11.2019
3239 Clouds 25 1011 73 10000 2.6 70 18:19 30.11.2019
3240 Clouds 26 1011 65 10000 3.1 80 17:57 30.11.2019
3241 Clouds 26 1011 65 10000 3.1 80 17:38 30.11.2019
3242 Clouds 26 1011 65 10000 3.1 80 17:19 30.11.2019
3243 Clouds 26 1012 69 10000 2.1 80 16:56 30.11.2019
3244 Clouds 26 1012 69 10000 2.1 80 16:37 30.11.2019
3245 Clouds 26 1012 69 10000 2.1 80 16:18 30.11.2019
3246 Rain 26 1012 74 10000 2.1 80 15:42 30.11.2019
3247 Rain 26 1012 74 10000 2.1 80 15:42 30.11.2019
3248 Rain 26 1012 74 10000 2.1 80 15:19 30.11.2019
3249 Clouds 26 1012 65 10000 2.1 110 14:57 30.11.2019
3250 Clouds 26 1012 65 10000 2.1 110 14:38 30.11.2019
3251 Clouds 26 1012 65 10000 2.1 110 14:19 30.11.2019
3252 Clouds 26 1012 61 10000 1.5 80 13:57 30.11.2019
3253 Clouds 26 1012 61 10000 1.5 80 13:37 30.11.2019
3254 Clouds 26 1012 61 10000 1.5 80 13:37 30.11.2019
3255 Clouds 26 1012 61 10000 1.5 80 13:19 30.11.2019
3256 Clouds 27 1012 57 10000 2.6 80 12:45 30.11.2019
3257 Clouds 27 1012 57 10000 2.6 80 12:27 30.11.2019
3258 Clouds 27 1011 51 10000 3.6 80 11:45 30.11.2019
3259 Clouds 27 1011 51 10000 3.6 80 11:20 30.11.2019
3260 Clouds 28 1011 48 10000 4.6 80 10:58 30.11.2019
3261 Clouds 28 1011 48 10000 4.6 80 10:39 30.11.2019
3262 Clouds 28 1011 48 10000 4.6 80 10:20 30.11.2019
3263 Clouds 30 1010 45 10000 4.1 80 09:47 30.11.2019
3264 Clouds 30 1010 45 10000 4.1 80 09:29 30.11.2019
3265 Clouds 31 1010 45 10000 4.6 90 08:45 30.11.2019
3266 Clouds 31 1010 45 10000 4.6 90 08:24 30.11.2019
3267 Clouds 31 1010 48 10000 4.6 100 07:59 30.11.2019
3268 Clouds 31 1010 48 10000 4.6 100 07:41 30.11.2019
3269 Clouds 31 1010 48 10000 4.6 100 07:22 30.11.2019
3270 Clouds 31 1011 48 10000 4.6 80 06:30 30.11.2019
3271 Clouds 31 1012 48 10000 4.6 90 05:58 30.11.2019
3272 Clouds 29 1014 54 10000 1.5 50 03:54 30.11.2019
3273 Clouds 29 1014 54 10000 1.5 50 03:54 30.11.2019
3274 Clouds 29 1014 54 10000 1.5 50 03:18 30.11.2019
3275 Clouds 28 1014 61 10000 1 0 02:25 30.11.2019
3276 Clouds 27 1014 65 9000 1 0 01:47 30.11.2019
3277 Clouds 27 1014 65 9000 1 0 01:24 30.11.2019
3278 Clouds 25 1014 73 9000 1 0 00:38 30.11.2019
3279 Clouds 24 1014 73 9000 1 0 00:20 30.11.2019
3280 Clouds 24 1013 69 10000 1.5 10 23:43 29.11.2019
3281 Clouds 24 1013 69 10000 1.5 10 23:23 29.11.2019
3282 Clouds 24 1013 69 10000 1.5 10 23:23 29.11.2019
3283 Clouds 24 1013 78 10000 1 0 22:47 29.11.2019
3284 Clouds 24 1013 78 10000 1 0 22:26 29.11.2019
3285 Clouds 24 1012 69 10000 2.1 350 21:45 29.11.2019
3286 Clouds 24 1012 69 10000 2.1 350 21:26 29.11.2019
3287 Clouds 24 1012 73 10000 2.8 64 20:59 29.11.2019
3288 Clouds 24 1012 73 10000 2.8 64 20:40 29.11.2019
3289 Clouds 24 1012 73 10000 3.89 67 20:21 29.11.2019
3290 Clouds 25 1012 69 10000 0.5 0 19:58 29.11.2019
3291 Clouds 25 1012 69 10000 0.5 0 19:40 29.11.2019
3292 Clouds 25 1012 69 10000 0.5 0 19:20 29.11.2019
3293 Clouds 24 1013 78 10000 1 70 18:58 29.11.2019
3294 Clouds 24 1013 78 10000 1 70 18:40 29.11.2019
3295 Clouds 25 1013 78 10000 1 70 18:21 29.11.2019
3296 Clouds 25 1013 69 10000 1.5 110 17:45 29.11.2019
3297 Clouds 25 1013 69 10000 1.5 110 17:27 29.11.2019
3298 Clouds 26 1013 69 10000 1.5 100 16:59 29.11.2019
3299 Clouds 26 1013 69 10000 1.5 100 16:59 29.11.2019
3300 Clouds 26 1013 69 10000 1.5 100 16:41 29.11.2019
3301 Clouds 26 1013 69 10000 1.5 100 16:19 29.11.2019
3302 Clouds 26 1013 69 10000 1.5 100 16:19 29.11.2019
3303 Clouds 26 1013 74 10000 1 0 15:42 29.11.2019
3304 Clouds 26 1013 74 10000 1 0 15:24 29.11.2019
3305 Clouds 26 1012 74 10000 2.1 110 14:58 29.11.2019
3306 Clouds 26 1012 74 10000 2.1 110 14:39 29.11.2019
3307 Clouds 26 1012 74 10000 2.1 110 14:20 29.11.2019
3308 Clouds 26 1014 65 10000 2.6 90 13:55 29.11.2019
3309 Clouds 26 1014 65 10000 2.6 90 13:36 29.11.2019
3310 Clouds 26 1014 65 10000 2.6 90 13:18 29.11.2019
3311 Clouds 26 1013 69 10000 2.6 100 12:39 29.11.2019
3312 Clouds 27 1013 69 10000 2.6 100 12:21 29.11.2019
3313 Clouds 27 1013 78 10000 3.6 100 11:55 29.11.2019
3314 Clouds 27 1013 78 10000 3.6 100 11:55 29.11.2019
3315 Clouds 27 1013 78 10000 3.6 100 11:36 29.11.2019
3316 Clouds 27 1013 78 10000 3.6 100 11:18 29.11.2019
3317 Clouds 27 1012 69 10000 3.6 120 10:56 29.11.2019
3318 Clouds 27 1012 69 10000 3.6 120 10:37 29.11.2019
3319 Clouds 27 1012 69 10000 3.6 120 10:18 29.11.2019
3320 Clouds 28 1011 62 10000 4.1 80 09:55 29.11.2019
3321 Clouds 28 1011 62 10000 4.1 80 09:36 29.11.2019
3322 Clouds 28 1011 62 10000 4.1 80 09:18 29.11.2019
3323 Clouds 29 1011 66 10000 4.6 80 08:39 29.11.2019
3324 Clouds 29 1011 66 10000 4.6 80 08:20 29.11.2019
3325 Clouds 29 1011 62 10000 5.1 50 07:56 29.11.2019
3326 Clouds 29 1011 62 10000 5.1 50 07:38 29.11.2019
3327 Clouds 29 1011 62 10000 5.1 50 07:19 29.11.2019
3328 Clouds 30 1011 52 10000 7.7 70 06:42 29.11.2019
3329 Clouds 30 1012 49 10000 7.2 70 05:48 29.11.2019
3330 Clouds 31 1012 49 10000 7.2 70 05:24 29.11.2019
3331 Clouds 31 1013 52 10000 3.1 80 04:31 29.11.2019
3332 Clouds 30 1013 70 10000 1.5 310 03:21 29.11.2019
3333 Clouds 29 1013 69 10000 1.5 230 02:29 29.11.2019
3334 Clouds 28 1013 74 10000 1.5 210 01:51 29.11.2019
3335 Clouds 28 1013 74 10000 1.5 210 01:26 29.11.2019
3336 Clouds 27 1012 78 10000 1 0 00:42 29.11.2019
3337 Clouds 27 1012 78 10000 1 0 00:42 29.11.2019
3338 Clouds 27 1012 78 10000 1 0 00:21 29.11.2019
3339 Clouds 27 1011 74 10000 1.5 260 23:46 28.11.2019
3340 Clouds 26 1011 74 10000 1.5 260 23:22 28.11.2019
3341 Clouds 26 1011 74 10000 1 0 22:59 28.11.2019
3342 Clouds 27 1011 74 10000 1 0 22:38 28.11.2019
3343 Clouds 27 1011 74 10000 1 0 22:38 28.11.2019
3344 Clouds 27 1011 74 10000 1 0 22:20 28.11.2019
3345 Clouds 27 1010 74 10000 0.5 0 21:58 28.11.2019
3346 Clouds 27 1010 74 10000 0.5 0 21:39 28.11.2019
3347 Clouds 27 1010 74 10000 0.5 0 21:19 28.11.2019
3348 Clouds 27 1010 74 10000 0.5 0 21:19 28.11.2019
3349 Clouds 27 1010 74 10000 2.1 10 20:55 28.11.2019
3350 Clouds 27 1010 74 10000 2.1 10 20:37 28.11.2019
3351 Clouds 27 1010 74 10000 2.1 10 20:18 28.11.2019
3352 Clouds 27 1010 74 10000 2.1 350 19:41 28.11.2019
3353 Clouds 27 1010 74 10000 2.1 350 19:41 28.11.2019
3354 Clouds 27 1010 74 10000 2.1 350 19:23 28.11.2019
3355 Clouds 27 1011 65 10000 1 0 18:59 28.11.2019
3356 Clouds 27 1011 65 10000 1 0 18:40 28.11.2019
3357 Clouds 27 1011 65 10000 1 0 18:19 28.11.2019
3358 Clouds 28 1011 65 10000 0.5 0 17:59 28.11.2019
3359 Clouds 28 1011 65 10000 0.5 0 17:41 28.11.2019
3360 Clouds 28 1011 65 10000 0.5 0 17:40 28.11.2019
3361 Clouds 28 1011 65 10000 0.5 0 17:20 28.11.2019
3362 Clouds 28 1011 65 10000 1.5 70 16:41 28.11.2019
3363 Clouds 28 1011 65 10000 1.5 70 16:41 28.11.2019
3364 Clouds 28 1011 65 10000 1.5 70 16:20 28.11.2019
3365 Clouds 28 1011 65 10000 1.5 120 15:59 28.11.2019
3366 Clouds 28 1011 65 10000 1.5 120 15:40 28.11.2019
3367 Clouds 28 1011 65 10000 1.5 120 15:20 28.11.2019
3368 Clouds 28 1011 65 10000 1.5 120 15:20 28.11.2019
3369 Clouds 28 1012 62 10000 1.5 110 14:58 28.11.2019
3370 Clouds 28 1012 62 10000 1.5 110 14:39 28.11.2019
3371 Clouds 28 1012 62 10000 1.5 110 14:20 28.11.2019
3372 Clouds 28 1011 65 10000 2.1 80 13:44 28.11.2019
3373 Clouds 28 1011 65 10000 2.1 80 13:24 28.11.2019
3374 Clouds 29 1010 62 10000 2.1 100 12:57 28.11.2019
3375 Clouds 29 1010 62 10000 2.1 100 12:38 28.11.2019
3376 Clouds 29 1010 62 10000 2.1 100 12:20 28.11.2019
3377 -273 0 0 0 0 0 11:56 28.11.2019
3378 Clouds 29 1010 62 10000 2.1 100 11:37 28.11.2019
3379 -273 0 0 0 0 0 11:19 28.11.2019
3380 Clouds 29 1010 62 10000 2.1 100 11:19 28.11.2019
3381 Clouds 29 1010 58 10000 5.7 70 10:42 28.11.2019
3382 Clouds 29 1010 58 10000 5.7 70 10:22 28.11.2019
3383 Clouds 30 1010 52 10000 4.1 90 09:56 28.11.2019
3384 Clouds 30 1010 52 10000 4.1 90 09:38 28.11.2019
3385 Clouds 30 1010 52 10000 4.1 90 09:38 28.11.2019
3386 Clouds 31 1010 52 10000 4.1 90 09:19 28.11.2019
3387 Clouds 31 1009 63 10000 5.1 80 08:41 28.11.2019
3388 Clouds 31 1009 57 10000 5.1 80 08:22 28.11.2019
3389 Clouds 32 1009 46 10000 8.2 70 07:56 28.11.2019
3390 Clouds 32 1009 46 10000 8.2 70 07:38 28.11.2019
3391 Clouds 32 1009 46 10000 8.2 70 07:18 28.11.2019
3392 Clouds 32 1010 49 10000 6.2 70 06:40 28.11.2019
3393 Clouds 31 1011 70 10000 1 290 05:53 28.11.2019
3394 Clouds 31 1011 70 10000 1 290 05:34 28.11.2019
3395 Rain 30 1012 70 10000 2.6 90 03:52 28.11.2019
3396 Clouds 29 1012 78 10000 3.1 260 02:30 28.11.2019
3397 Rain 27 1012 88 9000 3.1 20 01:23 28.11.2019
3398 Clouds 27 1011 83 10000 1 0 00:39 28.11.2019
3399 Clouds 27 1011 83 10000 1 0 00:18 28.11.2019
3400 Clouds 26 1011 88 10000 0.5 90 23:38 27.11.2019
3401 Clouds 26 1011 88 10000 0.5 90 23:20 27.11.2019
3402 Clouds 26 1010 88 10000 2.5 66 22:56 27.11.2019
3403 Clouds 26 1010 88 10000 2.5 66 22:37 27.11.2019
3404 Clouds 26 1010 88 10000 2.5 66 22:18 27.11.2019
3405 Clouds 26 1010 88 10000 2.5 66 21:55 27.11.2019
3406 Clouds 26 1010 88 10000 2.5 66 21:36 27.11.2019
3407 Clouds 26 1010 88 10000 2.5 66 21:18 27.11.2019
3408 Clouds 26 1010 88 10000 2.5 66 21:18 27.11.2019
3409 Clouds 26 1010 88 10000 1.5 130 20:55 27.11.2019
3410 Clouds 26 1010 88 10000 1.5 130 20:55 27.11.2019
3411 Clouds 26 1010 88 10000 1.5 130 20:36 27.11.2019
3412 Clouds 26 1010 88 10000 1 0 20:18 27.11.2019
3413 Clouds 26 1010 88 10000 1 0 19:54 27.11.2019
3414 Clouds 26 1010 88 10000 1 0 19:36 27.11.2019
3415 Clouds 26 1010 88 10000 1 0 19:18 27.11.2019
3416 Rain 27 1011 83 8000 1 0 18:38 27.11.2019
3417 Rain 27 1011 83 8000 1 0 18:20 27.11.2019
3418 Rain 27 1012 83 8000 2.1 100 17:59 27.11.2019
3419 Rain 27 1012 83 8000 2.1 100 17:41 27.11.2019
3420 Rain 27 1012 83 8000 2.1 100 17:23 27.11.2019
3421 Clouds 27 1011 83 10000 2.1 60 16:58 27.11.2019
3422 Clouds 27 1011 83 10000 2.1 60 16:58 27.11.2019
3423 Clouds 27 1011 83 10000 2.1 60 16:39 27.11.2019
3424 Clouds 27 1011 83 10000 2.1 60 16:21 27.11.2019
3425 Clouds 27 1011 78 10000 2.1 110 15:58 27.11.2019
3426 Clouds 27 1011 78 10000 2.1 110 15:39 27.11.2019
3427 Clouds 27 1011 78 10000 2.1 110 15:21 27.11.2019
3428 Clouds 27 1011 78 10000 1.5 120 14:58 27.11.2019
3429 Clouds 28 1011 78 10000 1.5 120 14:39 27.11.2019
3430 Clouds 28 1011 78 10000 1.5 120 14:39 27.11.2019
3431 Clouds 28 1011 78 10000 1.5 120 14:39 27.11.2019
3432 Clouds 28 1011 78 10000 1.5 120 14:39 27.11.2019
3433 Clouds 28 1011 78 10000 1.5 120 14:21 27.11.2019
3434 Clouds 28 1011 78 10000 1.5 100 13:58 27.11.2019
3435 Clouds 28 1011 78 10000 1.5 100 13:58 27.11.2019
3436 Clouds 28 1011 78 10000 1.5 100 13:39 27.11.2019
3437 Clouds 28 1011 78 10000 1.5 100 13:19 27.11.2019
3438 Clouds 28 1010 74 10000 1.5 120 12:57 27.11.2019
3439 Clouds 28 1010 74 10000 1.5 120 12:39 27.11.2019
3440 Clouds 29 1010 74 10000 1.5 120 12:19 27.11.2019
3441 Clouds 29 1010 74 10000 1.5 140 11:38 27.11.2019
3442 Clouds 29 1009 70 10000 3.6 120 11:19 27.11.2019
3443 Clouds 29 1009 70 10000 3.6 120 10:58 27.11.2019
3444 Clouds 29 1009 70 10000 3.6 120 10:40 27.11.2019
3445 Clouds 30 1009 70 10000 3.6 120 10:22 27.11.2019
3446 Clouds 30 1009 88 10000 1 0 09:44 27.11.2019
3447 Clouds 30 1009 88 10000 1 0 09:26 27.11.2019
3448 Clouds 30 1008 62 10000 2.6 110 08:57 27.11.2019
3449 Clouds 30 1008 62 10000 2.6 110 08:57 27.11.2019
3450 Clouds 31 1008 62 10000 2.6 110 08:38 27.11.2019
3451 Clouds 32 1008 62 10000 2.6 110 08:19 27.11.2019
3452 Clouds 32 1009 59 10000 1.5 0 07:45 27.11.2019
3453 Clouds 32 1009 59 10000 1.5 0 07:27 27.11.2019
3454 Clouds 32 1010 66 10000 1 0 06:47 27.11.2019
3455 Clouds 32 1010 66 10000 1 0 06:29 27.11.2019
3456 Clouds 30 1011 74 10000 4.1 290 05:27 27.11.2019
3457 Clouds 31 1011 70 10000 3.6 290 04:59 27.11.2019
3458 Clouds 30 1011 70 10000 3.6 290 04:40 27.11.2019
3459 Clouds 30 1012 70 10000 2.1 350 03:53 27.11.2019
3460 Clouds 30 1012 70 10000 2.1 350 03:22 27.11.2019
3461 Clouds 28 1013 83 8000 2.1 40 02:54 27.11.2019
3462 Clouds 28 1012 74 10000 2.6 360 01:35 27.11.2019
3463 Clouds 26 1011 83 10000 0.5 0 00:44 27.11.2019
3464 Clouds 25 1011 83 10000 0.5 0 00:25 27.11.2019
3465 Clouds 25 1011 83 10000 0.5 0 23:48 26.11.2019
3466 Clouds 25 1011 83 10000 0.5 0 23:26 26.11.2019
3467 Clouds 25 1010 83 10000 0.5 0 22:58 26.11.2019
3468 Clouds 25 1010 83 10000 0.5 0 22:38 26.11.2019
3469 Clouds 25 1010 83 10000 0.5 0 22:19 26.11.2019
3470 Clouds 25 1010 83 10000 0.5 0 21:58 26.11.2019
3471 Clouds 25 1010 83 10000 0.5 0 21:37 26.11.2019
3472 Clouds 25 1010 83 10000 0.5 0 21:19 26.11.2019
3473 Clouds 25 1010 78 10000 0.5 0 20:54 26.11.2019
3474 Clouds 25 1010 78 10000 0.5 0 20:36 26.11.2019
3475 Clouds 26 1010 78 10000 0.5 0 20:18 26.11.2019
3476 Clouds 26 1011 83 10000 2.1 20 19:54 26.11.2019
3477 Clouds 26 1011 83 10000 2.1 20 19:36 26.11.2019
3478 Clouds 26 1011 83 10000 2.1 20 19:18 26.11.2019
3479 Clouds 26 1012 78 10000 1 0 18:56 26.11.2019
3480 Clouds 26 1012 78 10000 1 0 18:37 26.11.2019
3481 Clouds 26 1012 78 10000 1 0 18:19 26.11.2019
3482 Clouds 26 1012 83 10000 0.5 0 17:43 26.11.2019
3483 Clouds 26 1012 83 10000 0.5 0 17:24 26.11.2019
3484 Clouds 26 1012 78 10000 3.25 71 16:58 26.11.2019
3485 Clouds 26 1012 78 10000 3.25 71 16:38 26.11.2019
3486 Clouds 26 1012 78 10000 3.25 71 16:38 26.11.2019
3487 Clouds 26 1012 78 10000 3.25 71 16:20 26.11.2019
3488 Clouds 27 1012 74 10000 2.1 20 15:59 26.11.2019
3489 Clouds 27 1012 74 10000 2.1 20 15:59 26.11.2019
3490 Clouds 27 1012 74 10000 2.1 20 15:59 26.11.2019
3491 Clouds 27 1012 74 10000 2.1 20 15:39 26.11.2019
3492 Clouds 27 1012 74 10000 2.1 20 15:20 26.11.2019
3493 Clouds 27 1012 74 10000 1.5 0 14:59 26.11.2019
3494 Clouds 27 1012 74 10000 1.5 0 14:41 26.11.2019
3495 Clouds 27 1012 74 10000 2.1 90 14:22 26.11.2019
3496 Clouds 27 1012 74 10000 2.1 90 13:43 26.11.2019
3497 Clouds 27 1012 74 10000 2.1 90 13:23 26.11.2019
3498 Clouds 27 1011 69 10000 3.1 40 12:54 26.11.2019
3499 Clouds 27 1011 69 10000 3.1 40 12:36 26.11.2019
3500 Clouds 27 1011 69 10000 3.1 40 12:18 26.11.2019
3501 Clouds 28 1010 70 10000 3.1 40 11:40 26.11.2019
3502 Clouds 28 1010 70 10000 3.1 40 11:20 26.11.2019
3503 Clouds 28 1010 70 10000 3.1 10 10:59 26.11.2019
3504 Clouds 28 1010 70 10000 3.1 10 10:41 26.11.2019
3505 Clouds 28 1010 70 10000 2.6 20 10:21 26.11.2019
3506 Clouds 29 1010 70 10000 2.6 20 09:58 26.11.2019
3507 Clouds 29 1010 70 10000 2.6 20 09:39 26.11.2019
3508 Clouds 29 1010 70 10000 2.6 20 09:21 26.11.2019
3509 Clouds 30 1010 55 10000 7.7 50 08:46 26.11.2019
3510 Clouds 29 1010 55 10000 7.7 50 08:25 26.11.2019
3511 Clouds 28 1010 78 10000 2.1 100 07:47 26.11.2019
3512 Clouds 28 1010 78 10000 2.1 100 07:29 26.11.2019
3513 Clouds 28 1010 78 10000 2.1 100 07:29 26.11.2019
3514 Clouds 28 1011 78 9000 6.2 110 06:56 26.11.2019
3515 Rain 30 1010 55 10000 5.7 70 06:35 26.11.2019
3516 Clouds 32 1012 52 10000 5.7 70 05:54 26.11.2019
3517 Clouds 31 1012 58 10000 4.6 60 04:47 26.11.2019
3518 Clouds 29 1013 70 10000 1.5 0 02:53 26.11.2019
3519 Clouds 28 1013 74 10000 1 0 01:34 26.11.2019
3520 Clouds 27 1012 78 10000 1.5 0 00:53 26.11.2019
3521 Clouds 27 1012 78 10000 1.5 0 00:31 26.11.2019
3522 Clouds 27 1011 78 10000 0.5 0 23:55 25.11.2019
3523 Clouds 27 1011 78 10000 0.5 0 23:55 25.11.2019
3524 Clouds 27 1011 78 10000 0.5 0 23:36 25.11.2019
3525 Clouds 26 1011 78 10000 0.5 0 23:18 25.11.2019
3526 Clouds 27 1010 74 10000 2.1 20 22:39 25.11.2019
3527 Clouds 27 1010 74 10000 2.1 20 22:19 25.11.2019
3528 Clouds 27 1010 78 10000 1.5 360 21:59 25.11.2019
3529 Clouds 27 1010 78 10000 1.5 360 21:40 25.11.2019
3530 Clouds 27 1010 78 10000 1.5 360 21:21 25.11.2019
3531 Clouds 26 1010 83 10000 3.88 69 20:57 25.11.2019
3532 Clouds 26 1010 83 10000 3.88 69 20:39 25.11.2019
3533 Clouds 26 1010 83 10000 4.27 75 20:20 25.11.2019
3534 Clouds 27 1011 78 10000 2.1 20 19:56 25.11.2019
3535 Clouds 27 1011 78 10000 2.1 20 19:56 25.11.2019
3536 Clouds 27 1011 78 10000 2.1 20 19:38 25.11.2019
3537 Clouds 27 1011 78 10000 2.1 20 19:18 25.11.2019
3538 Clouds 27 1011 74 10000 2.1 10 18:57 25.11.2019
3539 Clouds 27 1011 74 10000 2.1 10 18:39 25.11.2019
3540 Clouds 27 1011 74 10000 2.1 10 18:21 25.11.2019
3541 Clouds 27 1012 74 10000 0.5 0 17:57 25.11.2019
3542 Clouds 27 1012 74 10000 0.5 0 17:38 25.11.2019
3543 Clouds 27 1012 74 10000 0.5 0 17:20 25.11.2019
3544 Clouds 27 1012 69 10000 2.1 360 16:57 25.11.2019
3545 Clouds 27 1012 69 10000 2.1 360 16:39 25.11.2019
3546 Clouds 27 1012 69 10000 2.1 360 16:20 25.11.2019
3547 Clouds 27 1012 74 10000 3.1 10 15:54 25.11.2019
3548 Clouds 27 1012 74 10000 3.1 10 15:36 25.11.2019
3549 Clouds 27 1012 74 10000 3.1 10 15:18 25.11.2019
3550 Clouds 27 1012 74 10000 2.1 50 14:41 25.11.2019
3551 Clouds 27 1012 74 10000 2.1 50 14:22 25.11.2019
3552 Clouds 27 1011 78 10000 0.5 0 13:55 25.11.2019
3553 Clouds 27 1011 78 10000 0.5 0 13:36 25.11.2019
3554 Clouds 27 1011 78 10000 0.5 0 13:18 25.11.2019
3555 Clouds 27 1010 78 10000 1 0 12:41 25.11.2019
3556 Clouds 27 1010 78 10000 1 0 12:22 25.11.2019
3557 Clouds 28 1011 74 10000 2.1 80 11:59 25.11.2019
3558 Clouds 28 1011 74 10000 2.1 80 11:39 25.11.2019
3559 Clouds 28 1011 74 10000 2.1 80 11:20 25.11.2019
3560 Clouds 28 1011 74 10000 2.1 80 11:20 25.11.2019
3561 Clouds 29 1010 65 10000 2.6 100 10:46 25.11.2019
3562 Clouds 30 1009 58 10000 2.1 80 10:28 25.11.2019
3563 Clouds 31 1009 58 10000 2.1 80 09:59 25.11.2019
3564 Clouds 30 1009 58 10000 2.1 80 09:40 25.11.2019
3565 Clouds 31 1009 58 10000 2.1 80 09:22 25.11.2019
3566 Clouds 30 1010 66 10000 2.1 100 08:41 25.11.2019
3567 Clouds 30 1010 66 10000 2.1 100 08:22 25.11.2019
3568 Clouds 30 1010 66 10000 2.6 140 07:45 25.11.2019
3569 Clouds 30 1010 66 10000 2.6 140 07:25 25.11.2019
3570 Clouds 30 1010 66 10000 2.6 0 06:51 25.11.2019
3571 Clouds 30 1010 66 10000 2.6 0 06:22 25.11.2019
3572 Clouds 30 1011 66 10000 2.1 110 05:49 25.11.2019
3573 Clouds 30 1011 66 10000 2.1 110 05:28 25.11.2019
3574 Clouds 31 1013 58 10000 6.2 40 03:26 25.11.2019
3575 Clouds 31 1012 58 10000 5.7 60 02:31 25.11.2019
3576 Clouds 27 1012 94 10000 2.6 60 01:42 25.11.2019
3577 Clouds 27 1012 94 10000 2.6 60 01:23 25.11.2019
3578 Clouds 27 1012 74 10000 3.6 60 00:37 25.11.2019
3579 Clouds 27 1012 74 10000 3.6 60 00:18 25.11.2019
3580 Clouds 26 1012 78 10000 1.5 10 23:43 24.11.2019
3581 Clouds 26 1012 78 10000 1.5 10 23:20 24.11.2019
3582 Clouds 26 1011 88 10000 0.5 0 22:56 24.11.2019
3583 Clouds 25 1011 88 10000 0.5 0 22:37 24.11.2019
3584 Clouds 25 1011 88 10000 0.5 0 22:18 24.11.2019
3585 Clouds 26 1011 88 10000 0.5 0 21:54 24.11.2019
3586 Clouds 26 1011 88 10000 0.5 0 21:36 24.11.2019
3587 Clouds 26 1011 88 10000 0.5 0 21:18 24.11.2019
3588 Clouds 26 1011 83 10000 0.5 0 20:54 24.11.2019
3589 Clouds 26 1011 83 10000 0.5 0 20:36 24.11.2019
3590 Clouds 26 1011 83 10000 0.5 0 20:18 24.11.2019
3591 Clouds 26 1011 83 10000 3.82 80 19:54 24.11.2019
3592 Clouds 26 1011 83 10000 3.82 80 19:36 24.11.2019
3593 Clouds 26 1011 83 10000 3.82 80 19:18 24.11.2019
3594 Clouds 26 1012 83 10000 1 90 18:38 24.11.2019
3595 Clouds 26 1012 83 10000 1 90 18:20 24.11.2019
3596 Clouds 27 1013 83 10000 1 130 17:59 24.11.2019
3597 Clouds 27 1013 83 10000 1 130 17:41 24.11.2019
3598 Clouds 27 1013 83 10000 1 130 17:22 24.11.2019
3599 Clouds 27 1013 83 10000 1 0 16:59 24.11.2019
3600 Clouds 27 1013 83 10000 1 0 16:40 24.11.2019
3601 Clouds 27 1013 83 10000 1 0 16:40 24.11.2019
3602 Clouds 27 1013 83 10000 1 0 16:22 24.11.2019
3603 Clouds 27 1013 83 10000 1 0 15:56 24.11.2019
3604 Clouds 27 1013 83 10000 1 0 15:38 24.11.2019
3605 Clouds 27 1013 83 10000 1 0 15:38 24.11.2019
3606 Clouds 27 1013 83 10000 1 0 15:38 24.11.2019
3607 Clouds 27 1013 83 10000 1 0 15:38 24.11.2019
3608 Clouds 27 1013 83 10000 1 0 15:38 24.11.2019
3609 Clouds 27 1013 83 10000 1 0 15:19 24.11.2019
3610 Clouds 28 1013 78 10000 1.5 90 14:40 24.11.2019
3611 Clouds 28 1013 78 10000 1.5 90 14:19 24.11.2019
3612 Clouds 28 1012 74 10000 1.5 130 13:59 24.11.2019
3613 Clouds 28 1012 74 10000 1.5 130 13:38 24.11.2019
3614 Clouds 28 1012 74 10000 1.5 130 13:19 24.11.2019
3615 Clouds 29 1011 74 10000 1.5 110 12:56 24.11.2019
3616 Clouds 29 1011 74 10000 1.5 110 12:37 24.11.2019
3617 Clouds 29 1011 74 10000 1.5 110 12:18 24.11.2019
3618 Clouds 29 1010 74 10000 2.6 110 11:38 24.11.2019
3619 Clouds 29 1010 74 10000 2.6 110 11:19 24.11.2019
3620 Clouds 29 1010 70 10000 3.1 100 10:55 24.11.2019
3621 Clouds 30 1010 70 10000 3.1 100 10:37 24.11.2019
3622 Clouds 30 1010 70 10000 3.1 100 10:19 24.11.2019
3623 Clouds 31 1010 66 10000 3.1 100 09:38 24.11.2019
3624 Clouds 31 1010 66 10000 3.1 100 09:20 24.11.2019
3625 Clouds 31 1010 70 10000 2.6 110 08:57 24.11.2019
3626 Rain 30 1010 70 10000 2.6 110 08:38 24.11.2019
3627 Rain 30 1010 70 10000 2.6 110 08:19 24.11.2019
3628 Clouds 30 1010 74 10000 2.1 70 07:47 24.11.2019
3629 Clouds 30 1010 74 10000 2.1 70 07:21 24.11.2019
3630 Rain 29 1010 88 9000 7.2 50 06:40 24.11.2019
3631 Clouds 30 1012 74 10000 3.1 280 04:54 24.11.2019
3632 Clouds 30 1012 74 10000 3.1 280 04:35 24.11.2019
3633 Clouds 30 1013 70 10000 1.5 40 02:35 24.11.2019
3634 Clouds 28 1012 74 10000 1.5 340 01:49 24.11.2019
3635 Clouds 28 1012 74 10000 1.5 340 01:27 24.11.2019
3636 Clouds 27 1012 78 10000 1.5 360 00:48 24.11.2019
3637 Clouds 27 1012 78 10000 1.5 360 00:24 24.11.2019
3638 Clouds 26 1011 83 10000 1 40 23:56 23.11.2019
3639 Clouds 26 1011 83 10000 1 40 23:37 23.11.2019
3640 Clouds 26 1011 83 10000 1 40 23:19 23.11.2019
3641 Clouds 26 1011 83 10000 1 0 22:55 23.11.2019
3642 Clouds 26 1011 83 10000 1 0 22:55 23.11.2019
3643 Clouds 26 1011 83 10000 1 0 22:36 23.11.2019
3644 Clouds 26 1011 83 10000 1 0 22:18 23.11.2019
3645 Clouds 26 1011 83 10000 1 0 21:43 23.11.2019
3646 Clouds 26 1011 83 10000 1 0 21:43 23.11.2019
3647 Clouds 26 1011 83 10000 1 0 21:23 23.11.2019
3648 Clouds 26 1011 83 10000 1 0 21:23 23.11.2019
3649 Clouds 26 1011 83 10000 0.5 0 20:59 23.11.2019
3650 Clouds 26 1011 83 10000 0.5 0 20:37 23.11.2019
3651 Clouds 26 1011 83 10000 0.5 0 20:19 23.11.2019
3652 Clouds 26 1011 88 10000 3.14 80 19:56 23.11.2019
3653 Clouds 26 1011 88 10000 3.14 80 19:37 23.11.2019
3654 Clouds 26 1011 88 10000 3.14 80 19:37 23.11.2019
3655 Clouds 26 1011 88 10000 3.14 80 19:37 23.11.2019
3656 Clouds 26 1011 88 10000 3.14 80 19:37 23.11.2019
3657 Clouds 26 1011 88 10000 3.14 80 19:18 23.11.2019
3658 Clouds 26 1011 88 10000 3.14 80 19:18 23.11.2019
3659 Clouds 26 1011 88 10000 3.14 80 19:18 23.11.2019
3660 Clouds 26 1012 88 10000 1.5 60 18:40 23.11.2019
3661 Clouds 26 1012 88 10000 1.5 60 18:21 23.11.2019
3662 Clouds 26 1012 88 10000 1.5 60 18:21 23.11.2019
3663 Clouds 26 1012 88 10000 1.5 60 18:21 23.11.2019
3664 Clouds 27 1012 78 10000 1 70 17:59 23.11.2019
3665 Clouds 27 1012 78 10000 1 70 17:40 23.11.2019
3666 Clouds 27 1012 78 10000 1 70 17:20 23.11.2019
3667 Clouds 27 1013 78 10000 1 0 16:56 23.11.2019
3668 Clouds 27 1013 78 10000 1 0 16:38 23.11.2019
3669 Clouds 27 1013 78 10000 1 0 16:20 23.11.2019
3670 Clouds 27 1013 74 10000 1 0 15:57 23.11.2019
3671 Clouds 27 1013 74 10000 1 0 15:38 23.11.2019
3672 Clouds 27 1013 74 10000 1 0 15:18 23.11.2019
3673 Clouds 27 1013 74 10000 1 0 15:18 23.11.2019
3674 Clouds 28 1013 74 10000 1.5 90 14:46 23.11.2019
3675 Clouds 28 1013 74 10000 1.5 90 14:23 23.11.2019
3676 Clouds 28 1013 74 10000 1.5 90 14:23 23.11.2019
3677 Clouds 28 1013 70 10000 2.6 120 13:59 23.11.2019
3678 Clouds 28 1013 70 10000 2.6 120 13:41 23.11.2019
3679 Clouds 28 1013 70 10000 2.6 120 13:19 23.11.2019
3680 Clouds 28 1012 74 10000 2.6 120 12:55 23.11.2019
3681 Clouds 28 1012 74 10000 2.6 120 12:37 23.11.2019
3682 Clouds 28 1012 74 10000 2.6 120 12:18 23.11.2019
3683 Clouds 28 1012 79 10000 2.1 80 11:41 23.11.2019
3684 Clouds 28 1012 79 10000 2.1 80 11:19 23.11.2019
3685 Clouds 29 1011 74 9000 1 0 10:43 23.11.2019
3686 Clouds 29 1011 74 9000 1 0 10:21 23.11.2019
3687 Clouds 30 1010 74 10000 1 0 09:41 23.11.2019
3688 Clouds 30 1010 74 10000 1 0 09:20 23.11.2019
3689 Clouds 30 1010 74 10000 1 0 08:42 23.11.2019
3690 Clouds 29 1010 74 10000 1 0 08:19 23.11.2019
3691 Clouds 29 1011 79 10000 0.5 0 07:52 23.11.2019
3692 Rain 29 1011 79 10000 0.5 0 07:34 23.11.2019
3693 Rain 30 1011 70 10000 3.6 320 06:45 23.11.2019
3694 Clouds 30 1011 70 10000 3.6 320 06:19 23.11.2019
3695 Clouds 30 1012 74 10000 3.6 0 05:48 23.11.2019
3696 Clouds 29 1012 74 10000 3.6 0 05:28 23.11.2019
3697 Clouds 29 1013 79 10000 3.1 310 04:47 23.11.2019
3698 Clouds 29 1013 79 10000 3.1 310 04:26 23.11.2019
3699 Clouds 29 1013 79 10000 1.5 0 02:40 23.11.2019
3700 Clouds 28 1013 83 10000 1.5 270 01:42 23.11.2019
3701 Clouds 28 1013 83 10000 1.5 270 01:21 23.11.2019
3702 Clouds 26 1012 83 10000 1.79 63 00:39 23.11.2019
3703 Clouds 26 1012 83 10000 1.79 63 00:18 23.11.2019
3704 Clouds 26 1012 83 10000 1.79 63 00:18 23.11.2019
3705 Clouds 25 1011 88 10000 1.79 63 23:39 22.11.2019
3706 Clouds 25 1011 88 10000 1.67 67 23:20 22.11.2019
3707 Clouds 25 1011 88 10000 1 80 22:57 22.11.2019
3708 Clouds 25 1011 88 10000 1 80 22:38 22.11.2019
3709 Clouds 25 1011 88 10000 1 80 22:20 22.11.2019
3710 Clouds 25 1011 83 10000 2.1 10 21:58 22.11.2019
3711 Clouds 25 1011 83 10000 2.1 10 21:39 22.11.2019
3712 Clouds 25 1011 83 10000 2.1 10 21:19 22.11.2019
3713 Clouds 25 1011 83 10000 1.5 10 20:43 22.11.2019
3714 Clouds 25 1011 83 10000 1.5 10 20:22 22.11.2019
3715 Clouds 25 1011 83 10000 0.5 0 19:55 22.11.2019
3716 Clouds 25 1011 83 10000 0.5 0 19:37 22.11.2019
3717 Clouds 25 1011 83 10000 0.5 0 19:18 22.11.2019
3718 Clouds 26 1012 83 10000 0.5 0 18:39 22.11.2019
3719 Clouds 26 1012 83 10000 0.5 0 18:21 22.11.2019
3720 Clouds 26 1012 88 10000 1 220 17:56 22.11.2019
3721 Clouds 26 1012 88 10000 1 220 17:56 22.11.2019
3722 Clouds 26 1012 88 10000 1 220 17:38 22.11.2019
3723 Clouds 25 1012 88 10000 1 220 17:20 22.11.2019
3724 Clouds 25 1013 88 10000 1 0 16:41 22.11.2019
3725 Clouds 25 1013 88 10000 1 0 16:23 22.11.2019
3726 Clouds 25 1013 83 10000 1.5 40 15:44 22.11.2019
3727 Clouds 25 1013 83 10000 1.5 40 15:24 22.11.2019
3728 Clouds 26 1013 88 10000 3.1 360 14:56 22.11.2019
3729 Clouds 25 1013 88 10000 3.1 360 14:37 22.11.2019
3730 Clouds 25 1013 88 10000 3.1 360 14:19 22.11.2019
3731 Clouds 25 1012 88 10000 2.6 20 13:56 22.11.2019
3732 Clouds 26 1012 88 10000 2.6 20 13:36 22.11.2019
3733 Clouds 26 1012 88 10000 2.6 20 13:18 22.11.2019
3734 Clouds 26 1012 83 10000 3.6 20 12:40 22.11.2019
3735 Clouds 26 1012 83 10000 3.6 20 12:20 22.11.2019
3736 Clouds 26 1011 83 10000 4.1 10 11:59 22.11.2019
3737 Rain 26 1011 83 10000 4.1 10 11:39 22.11.2019
3738 Rain 26 1011 83 10000 4.1 10 11:20 22.11.2019
3739 Rain 26 1011 78 10000 1.5 220 10:58 22.11.2019
3740 Rain 26 1011 78 10000 1.5 220 10:39 22.11.2019
3741 Rain 27 1011 78 10000 1.5 220 10:21 22.11.2019
3742 Rain 27 1010 78 10000 2.1 10 09:55 22.11.2019
3743 Rain 28 1010 78 10000 2.1 10 09:37 22.11.2019
3744 Rain 28 1010 78 10000 2.1 10 09:18 22.11.2019
3745 Rain 28 1010 74 10000 3.6 10 08:44 22.11.2019
3746 Rain 28 1010 74 10000 3.6 10 08:25 22.11.2019
3747 Rain 28 1010 74 10000 3.6 330 07:45 22.11.2019
3748 Rain 28 1010 74 10000 3.6 330 07:45 22.11.2019
3749 Rain 29 1010 74 10000 3.6 330 07:23 22.11.2019
3750 Clouds 29 1011 74 10000 1.5 0 06:49 22.11.2019
3751 Clouds 30 1011 74 10000 1.5 0 06:30 22.11.2019
3752 Clouds 30 1012 74 10000 2.1 90 05:45 22.11.2019
3753 Clouds 30 1012 70 9000 2.1 130 04:22 22.11.2019
3754 Clouds 28 1013 88 9000 1 0 02:52 22.11.2019
3755 Clouds 28 1013 88 9000 1 0 02:30 22.11.2019
3756 Clouds 27 1013 94 8000 1 0 01:45 22.11.2019
3757 Clouds 26 1013 94 8000 1 0 01:19 22.11.2019
3758 Rain 27 1012 78 6000 0.5 0 00:50 22.11.2019
3759 Rain 26 1012 78 6000 0.5 0 00:23 22.11.2019
3760 Clouds 26 1011 78 10000 0.5 0 23:46 21.11.2019
3761 Clouds 26 1011 78 10000 0.5 0 23:28 21.11.2019
3762 Clouds 26 1010 83 10000 2.1 310 22:58 21.11.2019
3763 Clouds 26 1010 83 10000 2.1 310 22:39 21.11.2019
3764 Clouds 26 1010 83 10000 2.1 310 22:39 21.11.2019
3765 Clouds 26 1010 83 10000 2.1 310 22:21 21.11.2019
3766 Clouds 26 1010 78 10000 2.1 300 21:56 21.11.2019
3767 Clouds 26 1010 78 10000 2.1 300 21:37 21.11.2019
3768 Clouds 26 1010 78 10000 2.1 300 21:19 21.11.2019
3769 Clouds 26 1010 83 10000 1 230 20:58 21.11.2019
3770 Clouds 26 1010 83 10000 1 230 20:38 21.11.2019
3771 Clouds 27 1010 83 10000 1 230 20:19 21.11.2019
3772 Clouds 27 1010 83 10000 1 230 20:19 21.11.2019
3773 Clouds 27 1010 78 10000 1 260 19:59 21.11.2019
3774 Clouds 27 1010 78 10000 1 260 19:39 21.11.2019
3775 Clouds 27 1010 78 10000 1 260 19:39 21.11.2019
3776 Clouds 27 1010 78 10000 1 260 19:21 21.11.2019
3777 Clouds 27 1011 78 10000 1 0 18:56 21.11.2019
3778 Clouds 27 1011 78 10000 1 0 18:56 21.11.2019
3779 Clouds 27 1011 78 10000 1 0 18:37 21.11.2019
3780 Clouds 27 1011 78 10000 1 0 18:18 21.11.2019
3781 Clouds 27 1011 78 10000 1 0 17:41 21.11.2019
3782 Clouds 27 1011 78 10000 1 0 17:22 21.11.2019
3783 Clouds 27 1011 74 10000 2.1 110 16:59 21.11.2019
3784 Clouds 27 1011 74 10000 2.1 110 16:59 21.11.2019
3785 Clouds 27 1011 74 10000 2.1 110 16:40 21.11.2019
3786 Clouds 27 1011 74 10000 2.1 110 16:21 21.11.2019
3787 Clouds 28 1011 78 10000 1.5 140 15:56 21.11.2019
3788 Clouds 28 1011 78 10000 1.5 140 15:37 21.11.2019
3789 Clouds 28 1011 78 10000 1.5 140 15:19 21.11.2019
3790 Clouds 28 1011 78 10000 1.5 110 14:39 21.11.2019
3791 Clouds 28 1011 78 10000 1.5 110 14:21 21.11.2019
3792 Clouds 28 1011 78 10000 1.5 130 13:59 21.11.2019
3793 Clouds 28 1011 78 10000 1.5 130 13:38 21.11.2019
3794 Clouds 28 1011 78 10000 1.5 130 13:19 21.11.2019
3795 Clouds 28 1011 78 10000 1 0 12:54 21.11.2019
3796 Clouds 28 1011 78 10000 1 0 12:36 21.11.2019
3797 Clouds 28 1011 78 10000 1 0 12:18 21.11.2019
3798 Clouds 28 1010 74 10000 0.5 0 11:40 21.11.2019
3799 Clouds 28 1010 74 10000 0.5 0 11:21 21.11.2019
3800 Clouds 29 1009 74 10000 1.5 140 10:57 21.11.2019
3801 Clouds 29 1009 74 10000 1.5 140 10:57 21.11.2019
3802 Clouds 29 1009 74 10000 1.5 140 10:39 21.11.2019
3803 Clouds 29 1009 74 10000 1.5 140 10:20 21.11.2019
3804 Clouds 29 1008 74 10000 2.1 280 09:43 21.11.2019
3805 Clouds 29 1008 74 10000 2.1 280 09:23 21.11.2019
3806 Clouds 29 1008 79 10000 3.1 310 08:58 21.11.2019
3807 Clouds 29 1008 79 10000 3.1 310 08:39 21.11.2019
3808 Clouds 29 1008 79 10000 3.1 310 08:18 21.11.2019
3809 Clouds 30 1008 74 10000 3.1 310 07:40 21.11.2019
3810 Clouds 30 1008 74 10000 3.1 310 07:18 21.11.2019
3811 Clouds 29 1009 79 10000 3.1 310 06:47 21.11.2019
3812 Clouds 30 1009 79 10000 3.1 310 06:28 21.11.2019
3813 Clouds 30 1010 79 10000 3.1 290 05:27 21.11.2019
3814 Clouds 30 1011 74 10000 2.6 310 03:31 21.11.2019
3815 Clouds 28 1011 78 10000 2.1 10 02:40 21.11.2019
3816 Clouds 27 1010 83 10000 2.1 20 01:53 21.11.2019
3817 Clouds 27 1010 83 10000 2.1 20 01:53 21.11.2019
3818 Clouds 27 1010 83 10000 2.1 20 01:23 21.11.2019
3819 Clouds 26 1010 88 10000 2.1 10 00:52 21.11.2019
3820 Clouds 26 1010 88 10000 2.1 10 00:20 21.11.2019
3821 Clouds 26 1008 88 10000 2.6 10 23:51 20.11.2019
3822 Clouds 26 1008 88 10000 2.6 10 23:23 20.11.2019
3823 Clouds 26 1008 88 10000 2.1 70 22:59 20.11.2019
3824 Clouds 26 1008 88 10000 2.1 70 22:41 20.11.2019
3825 Clouds 26 1008 88 10000 2.1 70 22:20 20.11.2019
3826 Rain 26 1008 88 10000 1.5 100 21:59 20.11.2019
3827 Rain 26 1008 88 10000 1.5 100 21:40 20.11.2019
3828 Rain 26 1008 88 10000 1.5 100 21:22 20.11.2019
3829 Rain 26 1008 88 10000 2.1 70 20:58 20.11.2019
3830 Rain 26 1008 88 10000 2.1 70 20:40 20.11.2019
3831 Rain 27 1008 88 10000 2.1 70 20:21 20.11.2019
3832 Clouds 27 1008 83 10000 1.5 0 19:58 20.11.2019
3833 Clouds 27 1008 83 10000 1.5 0 19:58 20.11.2019
3834 Clouds 28 1008 83 10000 1.5 0 19:37 20.11.2019
3835 Clouds 28 1008 83 10000 1.5 0 19:19 20.11.2019
3836 Clouds 28 1008 83 10000 1.5 130 18:59 20.11.2019
3837 Clouds 28 1008 83 10000 1.5 130 18:40 20.11.2019
3838 Clouds 28 1008 83 10000 1.5 130 18:21 20.11.2019
3839 Clouds 28 1008 74 10000 1.5 130 17:57 20.11.2019
3840 Clouds 29 1008 74 10000 1.5 130 17:39 20.11.2019
3841 Clouds 29 1008 74 10000 1.5 130 17:20 20.11.2019
3842 Clouds 28 1008 79 10000 1 0 16:57 20.11.2019
3843 Clouds 28 1008 79 10000 1 0 16:39 20.11.2019
3844 Clouds 29 1008 79 10000 1 0 16:18 20.11.2019
3845 Clouds 28 1008 83 10000 1 0 15:55 20.11.2019
3846 Clouds 28 1008 83 10000 1 0 15:36 20.11.2019
3847 Clouds 28 1008 83 10000 1 0 15:18 20.11.2019
3848 Clouds 28 1008 79 10000 1.5 180 14:40 20.11.2019
3849 Clouds 29 1008 79 10000 1.5 180 14:22 20.11.2019
3850 Clouds 29 1008 79 10000 1.5 180 14:22 20.11.2019
3851 Clouds 29 1008 79 10000 1.5 180 14:22 20.11.2019
3852 Clouds 29 1008 79 10000 1.5 180 14:22 20.11.2019
3853 Clouds 29 1008 79 10000 1.5 180 14:22 20.11.2019
3854 Clouds 28 1007 79 10000 1.5 220 13:58 20.11.2019
3855 Clouds 29 1007 79 10000 1.5 220 13:39 20.11.2019
3856 Clouds 29 1007 79 10000 1.5 220 13:20 20.11.2019
3857 Clouds 29 1007 74 10000 2.1 220 12:55 20.11.2019
3858 Clouds 29 1007 74 10000 2.1 220 12:36 20.11.2019
3859 Clouds 29 1007 74 10000 2.1 220 12:18 20.11.2019
3860 Clouds 29 1007 74 10000 3.1 240 11:41 20.11.2019
3861 Clouds 29 1007 74 10000 3.1 240 11:22 20.11.2019
3862 Clouds 29 1006 70 10000 3.1 240 10:56 20.11.2019
3863 Clouds 29 1006 70 10000 3.1 240 10:37 20.11.2019
3864 Clouds 29 1006 70 10000 3.1 240 10:19 20.11.2019
3865 Clouds 30 1005 74 10000 4.6 260 09:43 20.11.2019
3866 Clouds 30 1005 74 10000 4.6 260 09:22 20.11.2019
3867 Clouds 30 1005 70 10000 5.1 260 08:56 20.11.2019
3868 Clouds 30 1005 70 10000 5.1 260 08:38 20.11.2019
3869 Clouds 30 1005 70 10000 5.1 260 08:20 20.11.2019
3870 Clouds 31 1006 70 10000 3.6 270 07:45 20.11.2019
3871 Clouds 31 1006 70 10000 3.6 270 07:25 20.11.2019
3872 Clouds 31 1007 66 10000 3.1 280 06:49 20.11.2019
3873 Clouds 30 1007 66 10000 3.1 280 06:22 20.11.2019
3874 Clouds 30 1008 70 10000 3.6 290 05:39 20.11.2019
3875 Clouds 30 1009 70 10000 3.6 310 03:36 20.11.2019
3876 Clouds 29 1009 74 10000 2.6 350 02:21 20.11.2019
3877 Clouds 29 1010 74 9000 2.1 350 01:33 20.11.2019
3878 Clouds 27 1009 83 10000 3.6 10 00:41 20.11.2019
3879 Clouds 26 1008 78 10000 3.1 10 23:55 19.11.2019
3880 Clouds 26 1008 78 10000 3.1 10 23:26 19.11.2019
3881 Clouds 26 1008 83 10000 1 0 22:58 19.11.2019
3882 Clouds 26 1008 83 10000 1 0 22:40 19.11.2019
3883 Clouds 26 1008 83 10000 1 0 22:19 19.11.2019
3884 Clouds 26 1007 83 10000 2.1 20 21:56 19.11.2019
3885 Clouds 26 1007 83 10000 2.1 20 21:37 19.11.2019
3886 Clouds 26 1007 83 10000 2.1 20 21:19 19.11.2019
3887 Clouds 27 1009 83 10000 2.1 360 20:56 19.11.2019
3888 Clouds 27 1009 83 10000 2.1 360 20:38 19.11.2019
3889 Clouds 27 1009 83 10000 2.1 360 20:19 19.11.2019
3890 Clouds 27 1008 83 10000 0.5 250 19:55 19.11.2019
3891 Clouds 27 1008 83 10000 0.5 250 19:37 19.11.2019
3892 Clouds 27 1008 83 10000 0.5 250 19:18 19.11.2019
3893 Clouds 27 1008 83 10000 1.37 54 18:54 19.11.2019
3894 Clouds 27 1008 83 10000 1.37 54 18:36 19.11.2019
3895 Clouds 27 1008 83 10000 1.37 54 18:18 19.11.2019
3896 Clouds 27 1008 83 10000 1.37 54 17:54 19.11.2019
3897 Clouds 27 1008 83 10000 1.37 54 17:36 19.11.2019
3898 Clouds 28 1008 83 10000 1.92 118 17:18 19.11.2019
3899 Clouds 28 1008 83 10000 0.5 0 16:41 19.11.2019
3900 Clouds 28 1008 83 10000 0.5 0 16:22 19.11.2019
3901 Clouds 28 1009 79 10000 1.5 0 15:47 19.11.2019
3902 Clouds 28 1009 79 10000 1.5 0 15:28 19.11.2019
3903 Clouds 29 1009 79 10000 2.1 150 14:59 19.11.2019
3904 Clouds 29 1009 79 10000 2.1 150 14:59 19.11.2019
3905 Clouds 29 1009 79 10000 2.1 150 14:59 19.11.2019
3906 Clouds 29 1009 79 10000 2.1 150 14:59 19.11.2019
3907 Clouds 29 1009 79 10000 2.1 150 14:40 19.11.2019
3908 Clouds 29 1009 79 10000 2.1 150 14:21 19.11.2019
3909 Clouds 30 1008 48 10000 1.5 140 13:59 19.11.2019
3910 Clouds 30 1008 48 10000 1.5 140 13:39 19.11.2019
3911 Clouds 30 1008 48 10000 1.5 140 13:19 19.11.2019
3912 Clouds 30 1008 74 10000 1.5 120 12:40 19.11.2019
3913 Clouds 30 1008 74 10000 1.5 120 12:40 19.11.2019
3914 Clouds 30 1008 74 10000 1.5 120 12:21 19.11.2019
3915 Clouds 30 1007 74 10000 2.1 260 11:57 19.11.2019
3916 Clouds 30 1007 74 10000 2.1 260 11:37 19.11.2019
3917 Clouds 30 1007 74 10000 2.1 260 11:19 19.11.2019
3918 Clouds 30 1007 74 10000 2.1 260 11:19 19.11.2019
3919 Clouds 31 1006 66 10000 2.1 300 10:45 19.11.2019
3920 Clouds 31 1006 66 10000 2.1 300 10:22 19.11.2019
3921 Clouds 31 1006 70 10000 3.1 300 09:56 19.11.2019
3922 Clouds 31 1006 70 10000 3.1 300 09:38 19.11.2019
3923 Clouds 31 1006 70 10000 3.1 300 09:18 19.11.2019
3924 Clouds 32 1006 66 10000 4.1 290 08:40 19.11.2019
3925 Clouds 32 1006 66 10000 4.1 290 08:22 19.11.2019
3926 Clouds 32 1006 66 10000 4.1 290 08:22 19.11.2019
3927 Clouds 32 1006 62 10000 3.6 310 07:56 19.11.2019
3928 Clouds 32 1006 62 10000 3.6 310 07:37 19.11.2019
3929 Clouds 32 1006 62 10000 3.6 310 07:19 19.11.2019
3930 Clouds 31 1007 70 10000 4.6 310 06:44 19.11.2019
3931 Clouds 31 1007 70 10000 4.6 310 06:24 19.11.2019
3932 Clouds 31 1008 66 10000 4.1 320 05:19 19.11.2019
3933 Clouds 31 1009 66 10000 3.6 290 03:41 19.11.2019
3934 Clouds 30 1009 66 10000 3.6 290 03:20 19.11.2019
3935 Clouds 30 1009 70 10000 1.5 0 02:50 19.11.2019
3936 Clouds 29 1009 74 10000 2.1 40 01:58 19.11.2019
3937 Clouds 28 1009 78 10000 1 0 00:51 19.11.2019
3938 Clouds 27 1009 78 10000 1 0 00:21 19.11.2019
3939 Clouds 27 1008 83 10000 0.5 0 23:41 18.11.2019
3940 Clouds 26 1008 83 10000 0.5 0 23:20 18.11.2019
3941 Clouds 26 1008 83 10000 0.5 0 23:20 18.11.2019
3942 Clouds 26 1007 78 10000 2.1 10 22:48 18.11.2019
3943 Clouds 26 1007 78 10000 2.1 10 22:24 18.11.2019
3944 Clouds 26 1007 83 10000 0.5 0 21:59 18.11.2019
3945 Clouds 26 1007 83 10000 0.5 0 21:40 18.11.2019
3946 Clouds 26 1007 83 10000 0.5 0 21:22 18.11.2019
3947 Clouds 26 1007 78 10000 2.1 10 20:59 18.11.2019
3948 Clouds 27 1007 78 10000 2.1 10 20:41 18.11.2019
3949 Clouds 27 1007 78 10000 2.1 10 20:19 18.11.2019
3950 Clouds 27 1008 83 10000 1 0 19:58 18.11.2019
3951 Clouds 27 1008 83 10000 1 0 19:38 18.11.2019
3952 Clouds 27 1008 83 10000 1 0 19:38 18.11.2019
3953 Clouds 27 1008 83 10000 1 0 19:20 18.11.2019
3954 Clouds 27 1008 78 10000 3.1 20 18:56 18.11.2019
3955 Clouds 27 1008 78 10000 3.1 20 18:38 18.11.2019
3956 Clouds 27 1008 78 10000 3.1 20 18:19 18.11.2019
3957 Clouds 27 1008 83 10000 3.1 20 17:56 18.11.2019
3958 Clouds 27 1008 83 10000 3.1 20 17:37 18.11.2019
3959 Clouds 27 1008 83 10000 3.1 20 17:19 18.11.2019
3960 Clouds 27 1008 83 10000 3.1 20 17:19 18.11.2019
3961 Clouds 27 1009 78 10000 2.6 360 16:42 18.11.2019
3962 Clouds 28 1009 78 10000 2.6 360 16:24 18.11.2019
3963 Clouds 28 1009 78 10000 3.6 60 15:58 18.11.2019
3964 Clouds 28 1009 78 10000 3.6 60 15:39 18.11.2019
3965 Clouds 28 1009 78 10000 3.6 60 15:20 18.11.2019
3966 Clouds 28 1009 88 10000 2.6 220 14:56 18.11.2019
3967 Clouds 28 1009 88 10000 2.6 220 14:37 18.11.2019
3968 Clouds 28 1009 88 10000 2.6 220 14:18 18.11.2019
3969 Clouds 28 1009 83 10000 2.6 230 13:42 18.11.2019
3970 Clouds 28 1009 83 10000 2.6 230 13:23 18.11.2019
3971 Clouds 29 1008 83 10000 4.1 240 12:40 18.11.2019
3972 Clouds 29 1008 83 10000 4.1 240 12:20 18.11.2019
3973 Clouds 29 1008 79 10000 4.1 250 11:56 18.11.2019
3974 Clouds 29 1008 79 10000 4.1 250 11:38 18.11.2019
3975 Clouds 29 1008 79 10000 4.1 250 11:19 18.11.2019
3976 Clouds 29 1007 74 10000 4.6 240 10:42 18.11.2019
3977 Clouds 29 1007 74 10000 4.6 240 10:42 18.11.2019
3978 -273 0 0 0 0 0 10:23 18.11.2019
3979 Clouds 30 1007 74 10000 6.2 260 09:57 18.11.2019
3980 Clouds 30 1007 74 10000 6.2 260 09:38 18.11.2019
3981 Clouds 30 1007 74 10000 6.2 260 09:19 18.11.2019
3982 Clouds 30 1007 74 10000 6.2 260 09:19 18.11.2019
3983 Clouds 30 1007 79 10000 6.7 260 08:47 18.11.2019
3984 Clouds 31 1007 79 10000 6.7 260 08:24 18.11.2019
3985 Clouds 31 1007 74 10000 7.2 260 07:55 18.11.2019
3986 Clouds 31 1007 74 10000 7.2 260 07:37 18.11.2019
3987 Clouds 31 1007 74 10000 7.2 260 07:19 18.11.2019
3988 Clouds 31 1008 74 10000 7.2 270 06:41 18.11.2019
3989 Clouds 31 1008 74 10000 7.2 270 06:21 18.11.2019
3990 Clouds 31 1009 70 10000 7.2 270 05:26 18.11.2019
3991 Clouds 31 1010 74 10000 4.6 290 03:40 18.11.2019
3992 Clouds 29 1010 79 10000 1.5 230 01:39 18.11.2019
3993 Clouds 28 1010 83 10000 1 0 00:53 18.11.2019
3994 Clouds 27 1010 83 10000 1 0 00:18 18.11.2019
3995 Clouds 27 1009 88 10000 1.5 220 23:40 17.11.2019
3996 Clouds 27 1009 88 10000 1.5 220 23:21 17.11.2019
3997 Clouds 27 1008 88 10000 1 0 22:57 17.11.2019
3998 Clouds 27 1008 88 10000 1 0 22:39 17.11.2019
3999 Clouds 27 1008 88 10000 1 0 22:39 17.11.2019
4000 Clouds 27 1008 88 10000 1 0 22:20 17.11.2019
4001 Clouds 27 1007 88 10000 1 0 21:42 17.11.2019
4002 Clouds 27 1007 88 10000 1 0 21:20 17.11.2019
4003 Clouds 27 1008 83 10000 1.5 190 20:59 17.11.2019
4004 Clouds 27 1008 83 10000 1.5 190 20:40 17.11.2019
4005 Clouds 27 1008 83 10000 1.5 190 20:20 17.11.2019
4006 Clouds 27 1008 83 10000 3.63 248 19:57 17.11.2019
4007 Clouds 27 1008 83 10000 3.63 248 19:39 17.11.2019
4008 Clouds 27 1008 83 10000 3.63 248 19:39 17.11.2019
4009 Clouds 28 1008 83 10000 3.63 248 19:20 17.11.2019
4010 Clouds 28 1008 83 10000 3.63 248 19:20 17.11.2019
4011 Clouds 28 1008 83 10000 3.63 248 19:20 17.11.2019
4012 Clouds 28 1008 83 10000 1.5 200 18:57 17.11.2019
4013 Clouds 28 1008 83 10000 1.5 200 18:57 17.11.2019
4014 Clouds 28 1008 83 10000 1.5 200 18:57 17.11.2019
4015 Clouds 28 1008 83 10000 1.5 200 18:39 17.11.2019
4016 Clouds 28 1008 83 10000 1.5 200 18:19 17.11.2019
4017 Clouds 28 1009 83 10000 2.1 210 17:58 17.11.2019
4018 Clouds 28 1009 83 10000 2.1 210 17:58 17.11.2019
4019 Clouds 28 1009 83 10000 2.1 210 17:40 17.11.2019
4020 Clouds 28 1009 83 10000 2.1 210 17:21 17.11.2019
4021 Clouds 28 1009 83 10000 2.1 230 16:59 17.11.2019
4022 Clouds 28 1009 83 10000 2.1 230 16:41 17.11.2019
4023 Clouds 28 1009 83 10000 2.1 230 16:21 17.11.2019
4024 Clouds 28 1010 83 10000 2.6 240 15:57 17.11.2019
4025 Clouds 28 1010 83 10000 2.6 240 15:39 17.11.2019
4026 Clouds 28 1010 83 10000 2.6 240 15:19 17.11.2019
4027 Clouds 28 1010 83 10000 2.6 240 14:57 17.11.2019
4028 Clouds 28 1010 83 10000 2.6 240 14:39 17.11.2019
4029 Clouds 28 1010 83 10000 2.6 240 14:39 17.11.2019
4030 Clouds 28 1010 83 10000 2.6 240 14:20 17.11.2019
4031 Clouds 28 1009 83 10000 3.1 230 13:58 17.11.2019
4032 Clouds 28 1009 83 10000 3.1 230 13:39 17.11.2019
4033 Clouds 28 1009 83 10000 3.1 230 13:19 17.11.2019
4034 Clouds 29 1009 79 10000 3.1 230 12:45 17.11.2019
4035 Clouds 29 1009 79 10000 3.1 230 12:23 17.11.2019
4036 Clouds 29 1008 79 10000 5.1 250 11:58 17.11.2019
4037 Clouds 29 1008 79 10000 5.1 250 11:39 17.11.2019
4038 Clouds 29 1008 79 10000 5.1 250 11:20 17.11.2019
4039 Clouds 29 1008 79 10000 5.7 250 10:45 17.11.2019
4040 Clouds 29 1008 79 10000 5.7 250 10:24 17.11.2019
4041 Clouds 30 1007 74 10000 6.2 260 09:58 17.11.2019
4042 Clouds 30 1007 74 10000 6.2 260 09:40 17.11.2019
4043 Clouds 30 1007 74 10000 6.2 260 09:40 17.11.2019
4044 Clouds 30 1007 74 10000 6.2 260 09:22 17.11.2019
4045 Clouds 31 1007 79 10000 5.7 270 08:41 17.11.2019
4046 Clouds 31 1007 79 10000 5.7 270 08:23 17.11.2019
4047 Clouds 31 1007 74 10000 4.1 280 07:56 17.11.2019
4048 Clouds 31 1007 74 10000 4.1 280 07:37 17.11.2019
4049 Clouds 31 1007 74 10000 4.1 280 07:19 17.11.2019
4050 Clouds 31 1008 70 10000 3.6 280 06:46 17.11.2019
4051 Clouds 31 1008 70 10000 3.6 280 06:27 17.11.2019
4052 Clouds 31 1010 79 9000 4.1 280 04:48 17.11.2019
4053 Clouds 31 1010 70 10000 3.1 310 03:53 17.11.2019
4054 Clouds 30 1010 70 10000 3.1 310 03:33 17.11.2019
4055 Clouds 30 1011 74 9000 1.5 310 02:36 17.11.2019
4056 Clouds 29 1010 83 9000 1.5 280 01:43 17.11.2019
4057 Clouds 28 1010 88 8000 1 0 00:55 17.11.2019
4058 Clouds 27 1010 88 8000 1 0 00:23 17.11.2019
4059 Clouds 26 1009 94 6000 2.11 345 23:52 16.11.2019
4060 Clouds 26 1009 94 6000 2.45 333 23:20 16.11.2019
4061 Clouds 26 1009 94 10000 0.5 90 22:59 16.11.2019
4062 Clouds 26 1009 94 10000 0.5 90 22:41 16.11.2019
4063 Clouds 26 1009 94 10000 0.5 90 22:19 16.11.2019
4064 Clouds 26 1009 94 8000 1 90 21:56 16.11.2019
4065 Clouds 26 1009 94 8000 1 90 21:38 16.11.2019
4066 Clouds 26 1009 94 8000 1 90 21:19 16.11.2019
4067 Clouds 26 1009 88 10000 2.45 333 20:43 16.11.2019
4068 Clouds 26 1009 88 10000 1.31 309 20:21 16.11.2019
4069 Clouds 26 1009 94 10000 0.5 0 19:59 16.11.2019
4070 Clouds 26 1009 94 10000 0.5 0 19:40 16.11.2019
4071 Clouds 26 1009 94 10000 0.5 0 19:21 16.11.2019
4072 Thunderstorm 26 1010 94 10000 1 0 18:47 16.11.2019
4073 Thunderstorm 26 1010 94 10000 1 0 18:29 16.11.2019
4074 Thunderstorm 26 1010 94 9000 1.5 0 17:57 16.11.2019
4075 Thunderstorm 26 1010 94 9000 1.5 0 17:39 16.11.2019
4076 Thunderstorm 26 1010 94 9000 1.5 0 17:19 16.11.2019
4077 Rain 26 1010 94 9000 1.5 0 16:48 16.11.2019
4078 Rain 26 1010 94 9000 1.5 0 16:30 16.11.2019
4079 Thunderstorm 27 1010 78 5000 3.1 80 15:59 16.11.2019
4080 Thunderstorm 27 1010 78 5000 3.1 80 15:41 16.11.2019
4081 Rain 27 1010 78 10000 1 0 15:21 16.11.2019
4082 Rain 28 1010 78 10000 2.6 210 14:57 16.11.2019
4083 Clouds 28 1010 78 10000 2.6 210 14:39 16.11.2019
4084 Clouds 28 1010 78 10000 2.6 210 14:21 16.11.2019
4085 Clouds 28 1010 79 10000 2.6 230 13:55 16.11.2019
4086 Clouds 28 1010 79 10000 2.6 230 13:37 16.11.2019
4087 Clouds 29 1010 79 10000 2.6 230 13:18 16.11.2019
4088 Clouds 29 1009 79 10000 2.1 160 12:43 16.11.2019
4089 Clouds 29 1009 79 10000 2.1 160 12:23 16.11.2019
4090 Clouds 29 1008 83 10000 3.6 260 11:57 16.11.2019
4091 Clouds 29 1008 83 10000 3.6 260 11:38 16.11.2019
4092 Clouds 29 1008 83 10000 3.6 260 11:20 16.11.2019
4093 Clouds 31 1007 66 10000 3.1 260 10:44 16.11.2019
4094 Clouds 31 1007 66 10000 3.1 260 10:25 16.11.2019
4095 Clouds 31 1007 62 10000 4.6 270 09:59 16.11.2019
4096 Clouds 31 1007 62 10000 4.6 270 09:59 16.11.2019
4097 Clouds 31 1007 62 10000 4.6 270 09:40 16.11.2019
4098 Clouds 32 1007 62 10000 4.6 270 09:19 16.11.2019
4099 Clouds 31 1007 70 10000 4.6 270 08:41 16.11.2019
4100 Clouds 32 1007 70 10000 4.6 270 08:20 16.11.2019
4101 Clouds 32 1008 66 10000 4.1 290 07:46 16.11.2019
4102 Clouds 32 1008 66 10000 4.1 290 07:22 16.11.2019
4103 Clouds 32 1008 66 10000 4.1 290 07:22 16.11.2019
4104 Clouds 32 1009 70 10000 3.6 270 06:59 16.11.2019
4105 Clouds 32 1009 70 10000 3.6 270 06:41 16.11.2019
4106 Clouds 32 1009 70 10000 3.6 270 06:19 16.11.2019
4107 Clouds 31 1010 74 10000 3.1 270 04:34 16.11.2019
4108 Clouds 30 1011 79 8000 2.6 270 03:26 16.11.2019
4109 Clouds 30 1011 79 8000 2.6 270 03:26 16.11.2019
4110 Clouds 30 1011 79 8000 2.6 270 03:26 16.11.2019
4111 Clouds 30 1011 79 10000 1 0 02:36 16.11.2019
4112 Clouds 29 1011 79 10000 0.5 0 01:38 16.11.2019
4113 Clouds 27 1010 83 9000 0.28 110 00:49 16.11.2019
4114 Clouds 27 1010 83 9000 0.28 110 00:29 16.11.2019
4115 Clouds 26 1010 94 7000 1.5 240 23:45 15.11.2019
4116 Clouds 26 1010 94 7000 1.5 240 23:25 15.11.2019
4117 Clouds 26 1010 94 7000 1.5 240 23:25 15.11.2019
4118 Clouds 26 1009 94 8000 1 230 22:59 15.11.2019
4119 Clouds 26 1009 94 8000 1 230 22:40 15.11.2019
4120 Clouds 26 1009 94 8000 1 230 22:19 15.11.2019
4121 Clouds 26 1008 88 8000 0.92 124 21:55 15.11.2019
4122 Clouds 26 1008 88 8000 0.92 124 21:37 15.11.2019
4123 Clouds 26 1008 88 8000 0.92 124 21:19 15.11.2019
4124 Clouds 26 1008 88 8000 0.5 0 20:56 15.11.2019
4125 Clouds 26 1008 88 8000 0.5 0 20:56 15.11.2019
4126 Clouds 26 1008 88 8000 0.5 0 20:38 15.11.2019
4127 Clouds 26 1008 88 8000 0.5 0 20:19 15.11.2019
4128 Clouds 26 1009 94 10000 1.15 145 19:56 15.11.2019
4129 Clouds 26 1009 94 10000 1.15 145 19:37 15.11.2019
4130 Clouds 26 1009 94 10000 1.15 145 19:19 15.11.2019
4131 Clouds 26 1010 88 10000 1.15 145 18:42 15.11.2019
4132 Clouds 26 1010 88 10000 1.15 145 18:24 15.11.2019
4133 Clouds 26 1010 94 10000 0.5 0 17:58 15.11.2019
4134 Clouds 26 1010 94 10000 0.5 0 17:39 15.11.2019
4135 Clouds 26 1010 94 10000 0.5 0 17:20 15.11.2019
4136 Clouds 26 1010 94 10000 2.6 210 16:54 15.11.2019
4137 Clouds 26 1010 94 10000 2.6 210 16:36 15.11.2019
4138 Clouds 26 1010 94 10000 2.6 210 16:18 15.11.2019
4139 Clouds 26 1010 94 10000 2.6 210 16:18 15.11.2019
4140 Clouds 26 1010 94 9000 3.1 260 15:37 15.11.2019
4141 Clouds 26 1010 94 9000 3.1 260 15:37 15.11.2019
4142 Clouds 26 1010 94 9000 3.1 260 15:19 15.11.2019
4143 Thunderstorm 27 1010 78 8000 1 0 14:56 15.11.2019
4144 Thunderstorm 27 1010 78 8000 1 0 14:37 15.11.2019
4145 Rain 27 1009 78 10000 2.1 240 14:19 15.11.2019
4146 Rain 28 1009 74 10000 1.5 230 13:56 15.11.2019
4147 Rain 28 1009 74 10000 1.5 230 13:38 15.11.2019
4148 Clouds 29 1009 74 10000 1.5 230 13:19 15.11.2019
4149 Clouds 29 1008 74 10000 2.6 230 12:56 15.11.2019
4150 Clouds 29 1008 74 10000 2.6 230 12:37 15.11.2019
4151 Clouds 29 1008 74 10000 2.6 230 12:18 15.11.2019
4152 Clouds 29 1008 74 10000 2.6 240 11:40 15.11.2019
4153 Clouds 29 1008 74 10000 2.6 240 11:21 15.11.2019
4154 Clouds 29 1008 74 10000 2.6 240 11:21 15.11.2019
4155 Clouds 29 1007 70 10000 4.1 260 10:59 15.11.2019
4156 Clouds 29 1007 70 10000 4.1 260 10:59 15.11.2019
4157 Clouds 29 1007 70 10000 4.1 260 10:39 15.11.2019
4158 Clouds 30 1007 70 10000 4.1 260 10:20 15.11.2019
4159 Clouds 31 1007 62 10000 4.1 280 09:41 15.11.2019
4160 Clouds 31 1007 62 10000 4.1 280 09:21 15.11.2019
4161 Clouds 31 1007 62 10000 5.1 270 08:58 15.11.2019
4162 Clouds 31 1007 62 10000 5.1 270 08:39 15.11.2019
4163 Clouds 31 1007 62 10000 5.1 270 08:21 15.11.2019
4164 Clouds 31 1007 66 10000 4.6 280 07:42 15.11.2019
4165 Clouds 31 1007 66 10000 4.6 280 07:23 15.11.2019
4166 Clouds 31 1008 66 10000 4.1 280 06:36 15.11.2019
4167 Clouds 30 1009 74 10000 4.1 280 05:54 15.11.2019
4168 Clouds 30 1009 74 10000 4.1 280 05:35 15.11.2019
4169 Clouds 30 1010 74 10000 4.1 280 04:53 15.11.2019
4170 Clouds 29 1010 74 9000 3.6 280 03:39 15.11.2019
4171 Clouds 29 1010 74 10000 2.1 260 02:34 15.11.2019
4172 Clouds 28 1010 78 10000 0.5 0 01:51 15.11.2019
4173 Clouds 28 1010 78 10000 0.5 0 01:32 15.11.2019
4174 Clouds 26 1009 88 10000 1 0 00:40 15.11.2019
4175 Clouds 26 1009 88 10000 1 0 00:20 15.11.2019
4176 Clouds 26 1008 88 10000 1 0 23:45 14.11.2019
4177 Clouds 26 1008 88 10000 1 0 23:25 14.11.2019
4178 Clouds 26 1008 88 10000 1 0 22:41 14.11.2019
4179 Clouds 26 1008 88 10000 1 0 22:22 14.11.2019
4180 Clouds 26 1007 88 10000 1 250 21:58 14.11.2019
4181 Clouds 26 1007 88 10000 1 250 21:58 14.11.2019
4182 Clouds 26 1007 88 10000 1 250 21:40 14.11.2019
4183 Clouds 26 1007 88 10000 1 250 21:21 14.11.2019
4184 Clouds 26 1007 88 10000 1.5 200 20:55 14.11.2019
4185 Clouds 26 1007 88 10000 1.5 200 20:37 14.11.2019
4186 Clouds 26 1007 88 10000 1.5 200 20:18 14.11.2019
4187 Clouds 26 1007 88 10000 1.5 200 20:18 14.11.2019
4188 Clouds 27 1008 78 10000 1 240 19:54 14.11.2019
4189 Clouds 27 1008 78 10000 1 240 19:36 14.11.2019
4190 Clouds 27 1008 78 10000 1 240 19:18 14.11.2019
4191 Clouds 27 1009 86 0 2.1 138 18:42 14.11.2019
4192 Clouds 27 1009 83 10000 1 0 18:22 14.11.2019
4193 Clouds 27 1009 83 10000 1 0 17:57 14.11.2019
4194 Clouds 27 1009 83 10000 1 0 17:37 14.11.2019
4195 Clouds 27 1009 83 10000 1 0 17:19 14.11.2019
4196 Clouds 27 1009 78 10000 1 0 16:57 14.11.2019
4197 Clouds 27 1009 78 10000 1 0 16:37 14.11.2019
4198 Clouds 27 1009 78 10000 1 0 16:19 14.11.2019
4199 Clouds 27 1009 78 10000 1 0 16:19 14.11.2019
4200 Clouds 27 1009 78 10000 1 0 15:57 14.11.2019
4201 Clouds 27 1009 78 10000 1 0 15:38 14.11.2019
4202 Clouds 27 1009 78 10000 1 0 15:19 14.11.2019
4203 Clouds 27 1009 74 10000 2.1 220 14:45 14.11.2019
4204 Clouds 28 1009 74 10000 2.1 220 14:22 14.11.2019
4205 Clouds 28 1009 78 10000 1.99 141 13:57 14.11.2019
4206 Clouds 28 1009 78 10000 1.99 141 13:38 14.11.2019
4207 Clouds 28 1009 78 10000 1.85 140 13:19 14.11.2019
4208 Clouds 28 1008 78 10000 1.5 0 12:56 14.11.2019
4209 Clouds 28 1008 78 10000 1.5 0 12:37 14.11.2019
4210 Clouds 28 1008 78 10000 1.5 0 12:18 14.11.2019
4211 Clouds 28 1008 78 10000 2.1 130 11:39 14.11.2019
4212 Clouds 28 1008 78 10000 2.1 130 11:20 14.11.2019
4213 Clouds 28 1008 78 10000 2.1 130 11:20 14.11.2019
4214 Clouds 28 1008 78 10000 2.1 130 11:20 14.11.2019
4215 Clouds 29 1007 74 10000 2.1 130 10:58 14.11.2019
4216 Clouds 29 1007 74 10000 2.1 130 10:40 14.11.2019
4217 Clouds 29 1007 74 10000 2.1 130 10:20 14.11.2019
4218 Clouds 29 1006 74 10000 1.5 260 09:56 14.11.2019
4219 Clouds 29 1006 73 0 0.69 277 09:38 14.11.2019
4220 Clouds 29 1007 70 10000 2.6 270 09:19 14.11.2019
4221 Clouds 29 1007 70 10000 2.6 270 08:47 14.11.2019
4222 Clouds 29 1007 70 10000 2.6 270 08:25 14.11.2019
4223 Clouds 30 1007 66 10000 3.6 310 07:56 14.11.2019
4224 Clouds 30 1007 66 10000 3.6 310 07:37 14.11.2019
4225 Clouds 30 1007 66 10000 3.6 310 07:19 14.11.2019
4226 Clouds 30 1008 66 10000 4.1 300 06:41 14.11.2019
4227 Clouds 30 1008 66 10000 4.1 300 06:18 14.11.2019
4228 Clouds 29 1010 66 10000 3.6 280 04:41 14.11.2019
4229 Clouds 29 1011 66 10000 1.5 80 04:19 14.11.2019
4230 Clouds 28 1010 74 10000 1.5 290 02:45 14.11.2019
4231 Clouds 27 1010 74 10000 2.6 20 01:44 14.11.2019
4232 Clouds 27 1010 74 10000 2.6 20 01:26 14.11.2019
4233 Clouds 26 1010 74 10000 3.1 10 00:49 14.11.2019
4234 Clouds 26 1010 74 10000 3.1 10 00:29 14.11.2019
4235 Clouds 27 1009 74 10000 3.1 20 23:41 13.11.2019
4236 Clouds 27 1009 74 10000 3.1 20 23:22 13.11.2019
4237 Clouds 27 1009 74 10000 2.6 30 22:56 13.11.2019
4238 Clouds 27 1009 74 10000 2.6 30 22:38 13.11.2019
4239 Clouds 27 1009 74 10000 2.6 30 22:38 13.11.2019
4240 Clouds 26 1009 74 10000 2.6 30 22:20 13.11.2019
4241 Clouds 26 1008 78 10000 2.1 0 21:56 13.11.2019
4242 Clouds 26 1008 78 10000 2.1 0 21:56 13.11.2019
4243 Clouds 26 1008 78 10000 2.1 0 21:37 13.11.2019
4244 Clouds 26 1008 78 10000 2.1 0 21:19 13.11.2019
4245 Clouds 26 1008 83 10000 1.5 240 20:56 13.11.2019
4246 Clouds 26 1008 83 10000 1.5 240 20:37 13.11.2019
4247 Clouds 26 1008 83 10000 1.5 240 20:18 13.11.2019
4248 Clouds 26 1010 74 10000 1.16 54 19:44 13.11.2019
4249 Clouds 26 1010 74 10000 1.16 54 19:20 13.11.2019
4250 Clouds 27 1010 74 10000 1 0 18:58 13.11.2019
4251 Clouds 27 1010 74 10000 1 0 18:58 13.11.2019
4252 Clouds 27 1010 74 10000 1 0 18:39 13.11.2019
4253 Clouds 27 1010 74 10000 1 0 18:39 13.11.2019
4254 Clouds 27 1010 74 10000 1 0 18:21 13.11.2019
4255 Clouds 27 1010 74 10000 1.5 210 17:58 13.11.2019
4256 Clouds 27 1010 74 10000 1.5 210 17:40 13.11.2019
4257 Clouds 27 1010 74 10000 1.5 210 17:21 13.11.2019
4258 Clouds 27 1011 69 10000 1 0 16:58 13.11.2019
4259 Clouds 27 1011 69 10000 1 0 16:39 13.11.2019
4260 Clouds 27 1011 69 10000 1 0 16:21 13.11.2019
4261 Clouds 27 1011 69 10000 2.47 106 15:58 13.11.2019
4262 Clouds 27 1011 69 10000 2.47 106 15:39 13.11.2019
4263 Clouds 27 1011 69 10000 2.47 106 15:20 13.11.2019
4264 Clouds 27 1011 65 10000 1 140 14:43 13.11.2019
4265 Clouds 27 1011 65 10000 1 140 14:22 13.11.2019
4266 Clouds 28 1011 65 10000 1.5 100 13:58 13.11.2019
4267 Clouds 28 1011 65 10000 1.5 100 13:36 13.11.2019
4268 Clouds 28 1011 65 10000 1.5 100 13:18 13.11.2019
4269 Clouds 28 1011 65 10000 0.5 0 12:54 13.11.2019
4270 Clouds 28 1011 65 10000 0.5 0 12:36 13.11.2019
4271 Clouds 28 1011 65 10000 0.5 0 12:36 13.11.2019
4272 Clouds 28 1011 65 10000 0.5 0 12:18 13.11.2019
4273 Clouds 28 1010 65 10000 1 150 11:40 13.11.2019
4274 Clouds 28 1010 65 10000 1 150 11:20 13.11.2019
4275 Clouds 28 1009 62 10000 1 0 10:58 13.11.2019
4276 Clouds 29 1009 62 10000 1 0 10:40 13.11.2019
4277 Clouds 29 1009 62 10000 1 0 10:19 13.11.2019
4278 Clouds 29 1009 62 10000 2.1 100 09:45 13.11.2019
4279 Clouds 29 1009 62 10000 2.1 100 09:24 13.11.2019
4280 Clouds 29 1009 58 10000 2.1 120 08:59 13.11.2019
4281 Clouds 30 1009 58 10000 2.1 120 08:37 13.11.2019
4282 Clouds 30 1009 58 10000 2.1 120 08:19 13.11.2019
4283 Clouds 30 1009 58 10000 1 0 07:42 13.11.2019
4284 Clouds 30 1009 58 10000 1 0 07:42 13.11.2019
4285 Clouds 30 1009 58 10000 1 0 07:20 13.11.2019
4286 Clouds 29 1010 62 10000 3.1 270 06:46 13.11.2019
4287 Clouds 29 1010 62 10000 3.1 270 06:19 13.11.2019
4288 Clouds 29 1010 62 10000 3.1 270 06:19 13.11.2019
4289 Clouds 29 1010 62 10000 3.1 270 06:19 13.11.2019
4290 Clouds 29 1010 62 10000 3.1 250 05:53 13.11.2019
4291 Clouds 29 1010 62 10000 3.1 250 05:31 13.11.2019
4292 Clouds 30 1011 58 10000 0.5 0 04:27 13.11.2019
4293 Clouds 28 1012 61 10000 1.5 60 02:19 13.11.2019
4294 Clouds 27 1012 65 10000 2.1 10 01:41 13.11.2019
4295 Clouds 26 1011 65 10000 1.5 300 00:44 13.11.2019
4296 Clouds 26 1011 65 10000 1.5 300 00:44 13.11.2019
4297 Clouds 26 1011 65 10000 1.5 300 00:21 13.11.2019
4298 Clouds 24 1011 73 10000 2.1 230 23:41 12.11.2019
4299 Clouds 24 1011 73 10000 2.1 230 23:21 12.11.2019
4300 Clouds 25 1010 83 10000 1 250 22:54 12.11.2019
4301 Clouds 25 1010 83 10000 1 250 22:36 12.11.2019
4302 Clouds 25 1010 83 10000 1 250 22:18 12.11.2019
4303 Clouds 25 1010 78 10000 1 200 21:43 12.11.2019
4304 Clouds 26 1010 78 10000 1 200 21:24 12.11.2019
4305 Clouds 25 1009 76 0 1.34 339 20:57 12.11.2019
4306 Clouds 25 1009 76 0 1.34 315 20:37 12.11.2019
4307 Clouds 26 1010 78 10000 0.5 0 20:19 12.11.2019
4308 Clouds 26 1010 78 10000 0.5 0 19:57 12.11.2019
4309 Clouds 26 1010 78 10000 0.5 0 19:39 12.11.2019
4310 Clouds 26 1010 78 10000 0.5 0 19:19 12.11.2019
4311 Clouds 26 1011 78 10000 0.5 0 18:58 12.11.2019
4312 Clouds 26 1011 78 10000 0.5 0 18:58 12.11.2019
4313 Clouds 26 1011 78 10000 0.5 0 18:39 12.11.2019
4314 Clouds 26 1011 78 10000 0.5 0 18:21 12.11.2019
4315 Clouds 26 1011 78 10000 0.5 0 18:21 12.11.2019
4316 Clouds 26 1011 78 10000 1 0 17:56 12.11.2019
4317 Clouds 26 1011 78 10000 1 0 17:37 12.11.2019
4318 Clouds 26 1011 78 10000 1 0 17:19 12.11.2019
4319 Clouds 26 1011 78 10000 1.5 140 16:44 12.11.2019
4320 Clouds 26 1011 78 10000 1.5 140 16:25 12.11.2019
4321 Clouds 26 1011 78 10000 1.5 130 15:58 12.11.2019
4322 Clouds 26 1011 78 10000 1.5 130 15:39 12.11.2019
4323 Clouds 26 1011 78 10000 1.5 130 15:20 12.11.2019
4324 Clouds 26 1011 78 10000 1.5 120 14:55 12.11.2019
4325 Clouds 27 1011 78 10000 1.5 120 14:36 12.11.2019
4326 Clouds 27 1011 78 10000 1.5 120 14:36 12.11.2019
4327 Clouds 27 1011 78 10000 1.5 120 14:18 12.11.2019
4328 Clouds 27 1011 74 10000 2.6 110 13:54 12.11.2019
4329 Clouds 27 1011 74 10000 2.6 110 13:36 12.11.2019
4330 Clouds 27 1011 74 10000 2.6 110 13:18 12.11.2019
4331 Clouds 27 1010 78 10000 3.1 110 12:40 12.11.2019
4332 Clouds 27 1010 78 10000 3.1 110 12:19 12.11.2019
4333 Clouds 27 1010 78 10000 3.1 110 12:19 12.11.2019
4334 Clouds 27 1010 74 10000 2.1 110 11:56 12.11.2019
4335 Clouds 28 1010 74 10000 2.1 110 11:38 12.11.2019
4336 Clouds 28 1010 74 10000 2.1 110 11:38 12.11.2019
4337 Clouds 28 1010 74 10000 2.1 110 11:20 12.11.2019
4338 Clouds 28 1009 78 10000 2.1 120 10:55 12.11.2019
4339 Clouds 28 1009 78 10000 2.1 120 10:36 12.11.2019
4340 Clouds 28 1009 78 10000 2.1 120 10:18 12.11.2019
4341 Clouds 28 1009 83 10000 1.5 140 09:40 12.11.2019
4342 Clouds 28 1009 83 10000 1.5 140 09:20 12.11.2019
4343 Rain 28 1009 78 9000 1.5 0 08:50 12.11.2019
4344 Rain 28 1009 70 10000 3.6 100 08:29 12.11.2019
4345 Rain 29 1009 70 10000 3.6 100 07:43 12.11.2019
4346 Rain 29 1009 70 10000 3.6 100 07:25 12.11.2019
4347 Clouds 29 1010 70 10000 2.1 130 06:54 12.11.2019
4348 Clouds 29 1010 70 10000 2.1 130 06:28 12.11.2019
4349 Clouds 30 1012 74 9000 3.1 290 05:56 12.11.2019
4350 Clouds 29 1012 74 9000 3.1 290 04:59 12.11.2019
4351 Clouds 29 1012 74 9000 3.1 290 04:37 12.11.2019
4352 Clouds 29 1013 78 10000 2.6 280 02:41 12.11.2019
4353 Clouds 28 1012 74 10000 0.5 0 01:38 12.11.2019
4354 Clouds 28 1012 74 10000 0.5 0 01:18 12.11.2019
4355 Clouds 27 1012 83 10000 1 0 00:40 12.11.2019
4356 Clouds 27 1012 83 10000 1 0 00:18 12.11.2019
4357 Clouds 26 1011 83 10000 1 0 23:41 11.11.2019
4358 Clouds 26 1011 83 10000 1 0 23:20 11.11.2019
4359 Clouds 26 1010 78 10000 1 0 22:39 11.11.2019
4360 Clouds 27 1010 78 10000 1 0 22:20 11.11.2019
4361 Clouds 26 1010 78 10000 1.5 30 21:59 11.11.2019
4362 Clouds 26 1010 78 10000 1.5 30 21:39 11.11.2019
4363 Clouds 26 1010 78 10000 1.5 30 21:21 11.11.2019
4364 Clouds 26 1010 83 10000 1.5 20 20:59 11.11.2019
4365 Clouds 26 1010 83 10000 1.5 20 20:40 11.11.2019
4366 Clouds 26 1010 83 10000 1.5 20 20:19 11.11.2019
4367 Clouds 26 1011 78 10000 2.6 60 19:55 11.11.2019
4368 Clouds 26 1011 78 10000 2.6 60 19:37 11.11.2019
4369 Clouds 26 1011 78 10000 2.6 60 19:18 11.11.2019
4370 Clouds 26 1011 78 10000 1.5 90 18:41 11.11.2019
4371 Clouds 27 1011 78 10000 1.5 90 18:21 11.11.2019
4372 Clouds 27 1011 83 10000 1.5 120 17:46 11.11.2019
4373 Clouds 27 1011 83 10000 1.5 120 17:46 11.11.2019
4374 Clouds 27 1011 83 10000 1.5 120 17:28 11.11.2019
4375 Clouds 27 1012 78 10000 2.1 0 16:59 11.11.2019
4376 Clouds 27 1012 78 10000 2.1 0 16:38 11.11.2019
4377 Clouds 27 1012 78 10000 2.1 0 16:20 11.11.2019
4378 Clouds 27 1012 78 10000 2.1 130 15:42 11.11.2019
4379 Clouds 27 1012 78 10000 2.1 130 15:20 11.11.2019
4380 Clouds 27 1011 78 10000 2.6 150 14:57 11.11.2019
4381 Clouds 28 1011 78 10000 2.6 150 14:39 11.11.2019
4382 Clouds 28 1011 78 10000 2.6 150 14:21 11.11.2019
4383 Clouds 28 1011 74 10000 2.1 0 13:56 11.11.2019
4384 Clouds 28 1011 74 10000 2.1 0 13:37 11.11.2019
4385 Clouds 28 1011 74 10000 2.1 0 13:19 11.11.2019
4386 Rain 28 1011 74 10000 2.6 0 12:55 11.11.2019
4387 Rain 28 1011 74 10000 2.6 0 12:37 11.11.2019
4388 Rain 28 1011 74 10000 2.6 0 12:19 11.11.2019
4389 Clouds 29 1010 74 10000 1.5 130 11:41 11.11.2019
4390 Clouds 29 1010 74 10000 1.5 130 11:21 11.11.2019
4391 Clouds 29 1010 74 9000 3.1 110 10:44 11.11.2019
4392 Clouds 29 1008 74 10000 2.6 260 10:20 11.11.2019
4393 Clouds 29 1008 74 10000 2.6 260 09:59 11.11.2019
4394 Clouds 30 1008 74 10000 2.6 260 09:41 11.11.2019
4395 Clouds 30 1008 74 10000 2.6 260 09:20 11.11.2019
4396 Clouds 30 1008 70 10000 2.6 280 08:43 11.11.2019
4397 Clouds 31 1008 70 10000 2.6 280 08:23 11.11.2019
4398 Clouds 30 1009 70 10000 3.6 270 07:57 11.11.2019
4399 Clouds 30 1009 70 10000 3.6 270 07:38 11.11.2019
4400 Clouds 30 1009 70 10000 3.6 270 07:19 11.11.2019
4401 Clouds 30 1010 70 10000 4.6 280 06:55 11.11.2019
4402 Clouds 30 1010 70 10000 4.6 280 06:37 11.11.2019
4403 Clouds 30 1010 70 10000 4.6 280 06:18 11.11.2019
4404 Clouds 30 1010 62 10000 4.6 300 05:42 11.11.2019
4405 Clouds 31 1011 62 10000 1.5 0 03:25 11.11.2019
4406 Clouds 29 1011 70 10000 2.1 350 02:30 11.11.2019
4407 Clouds 28 1011 74 10000 1.5 360 01:57 11.11.2019
4408 Clouds 28 1011 74 10000 1.5 360 01:36 11.11.2019
4409 Clouds 27 1010 78 10000 3.1 20 00:53 11.11.2019
4410 Clouds 27 1010 78 10000 3.1 20 00:29 11.11.2019
4411 Clouds 26 1010 83 10000 1.5 30 23:56 10.11.2019
4412 Clouds 26 1010 83 10000 1.5 30 23:36 10.11.2019
4413 Clouds 26 1010 83 10000 1.5 30 23:36 10.11.2019
4414 Clouds 26 1010 83 10000 1.5 30 23:18 10.11.2019
4415 Clouds 26 1009 74 10000 2.1 310 22:54 10.11.2019
4416 Clouds 26 1009 74 10000 2.1 310 22:36 10.11.2019
4417 Clouds 26 1009 74 10000 2.1 310 22:18 10.11.2019
4418 Clouds 26 1009 78 10000 2.1 340 21:40 10.11.2019
4419 Clouds 26 1009 78 10000 2.1 340 21:21 10.11.2019
4420 Clouds 26 1009 78 10000 2.1 0 20:58 10.11.2019
4421 Clouds 26 1009 78 10000 2.1 0 20:39 10.11.2019
4422 Clouds 26 1009 78 10000 2.1 0 20:21 10.11.2019
4423 Clouds 26 1010 78 10000 2.1 320 19:55 10.11.2019
4424 Clouds 26 1010 78 10000 2.1 320 19:37 10.11.2019
4425 Clouds 27 1010 69 10000 1.5 240 19:18 10.11.2019
4426 Clouds 27 1010 69 10000 1.5 240 18:55 10.11.2019
4427 Clouds 27 1010 69 10000 1.5 240 18:36 10.11.2019
4428 Clouds 27 1010 69 10000 1.5 240 18:18 10.11.2019
4429 Clouds 27 1011 69 10000 2.1 330 17:55 10.11.2019
4430 Clouds 27 1011 69 10000 2.1 330 17:55 10.11.2019
4431 Clouds 27 1011 69 10000 2.1 330 17:37 10.11.2019
4432 Clouds 27 1011 69 10000 2.1 330 17:18 10.11.2019
4433 Clouds 28 1011 66 10000 2.1 20 16:43 10.11.2019
4434 Clouds 28 1011 66 10000 2.1 20 16:25 10.11.2019
4435 Clouds 27 1011 74 10000 2.1 30 15:57 10.11.2019
4436 Clouds 27 1011 74 10000 2.1 30 15:38 10.11.2019
4437 Clouds 27 1011 74 10000 2.1 30 15:19 10.11.2019
4438 Clouds 27 1011 74 10000 2.6 10 14:58 10.11.2019
4439 Clouds 27 1011 74 10000 2.6 10 14:38 10.11.2019
4440 Clouds 27 1011 74 10000 2.6 10 14:20 10.11.2019
4441 Clouds 27 1010 78 10000 2.6 280 13:55 10.11.2019
4442 Clouds 27 1010 78 10000 2.6 280 13:36 10.11.2019
4443 Clouds 28 1010 78 10000 2.6 280 13:18 10.11.2019
4444 Clouds 28 1010 78 10000 2.6 280 12:41 10.11.2019
4445 Clouds 28 1010 78 10000 2.6 280 12:19 10.11.2019
4446 Clouds 28 1009 74 10000 3.1 280 11:55 10.11.2019
4447 Clouds 28 1009 74 10000 3.1 280 11:55 10.11.2019
4448 Clouds 28 1009 74 10000 3.1 280 11:55 10.11.2019
4449 Clouds 28 1009 74 10000 3.1 280 11:55 10.11.2019
4450 Clouds 28 1009 74 10000 3.1 280 11:37 10.11.2019
4451 Clouds 28 1009 74 10000 3.1 280 11:19 10.11.2019
4452 Clouds 29 1009 70 50 2.6 0 10:42 10.11.2019
4453 Clouds 29 1009 70 50 2.6 0 10:21 10.11.2019
4454 Clouds 29 1008 66 10000 2.6 310 09:56 10.11.2019
4455 Clouds 29 1008 66 10000 2.6 310 09:38 10.11.2019
4456 Clouds 29 1008 66 10000 2.6 310 09:19 10.11.2019
4457 Clouds 29 1008 70 9000 3.1 320 08:39 10.11.2019
4458 Clouds 29 1008 70 9000 3.1 320 08:20 10.11.2019
4459 Clouds 29 1009 70 10000 3.6 300 07:45 10.11.2019
4460 Clouds 29 1009 70 10000 3.6 300 07:26 10.11.2019
4461 Clouds 30 1010 66 10000 3.6 310 06:57 10.11.2019
4462 Clouds 30 1011 66 10000 3.6 320 05:55 10.11.2019
4463 Clouds 29 1012 74 9000 3.1 310 03:31 10.11.2019
4464 Clouds 28 1012 74 9000 1.5 360 02:22 10.11.2019
4465 Clouds 27 1012 83 8000 1 0 01:20 10.11.2019
4466 Clouds 27 1011 88 8000 1.5 100 00:49 10.11.2019
4467 Clouds 27 1011 88 8000 1.5 100 00:23 10.11.2019
4468 Haze 26 1010 94 5000 0.5 0 23:40 09.11.2019
4469 Haze 26 1010 94 5000 0.5 0 23:19 09.11.2019
4470 Clouds 26 1010 88 9000 0.5 0 22:42 09.11.2019
4471 Clouds 26 1010 88 9000 0.5 0 22:22 09.11.2019
4472 Clouds 26 1009 88 9000 0.5 0 21:58 09.11.2019
4473 Clouds 26 1009 88 9000 0.5 0 21:39 09.11.2019
4474 Clouds 26 1009 88 9000 0.5 0 21:20 09.11.2019
4475 Clouds 26 1009 94 9000 0.5 0 20:44 09.11.2019
4476 Clouds 26 1009 94 9000 0.5 0 20:24 09.11.2019
4477 Clouds 27 1010 88 10000 2.1 220 19:59 09.11.2019
4478 Clouds 27 1010 88 10000 2.1 220 19:40 09.11.2019
4479 Clouds 27 1010 88 10000 2.1 220 19:22 09.11.2019
4480 Clouds 27 1010 88 10000 1 0 18:57 09.11.2019
4481 Clouds 27 1010 88 10000 1 0 18:38 09.11.2019
4482 Clouds 27 1010 88 10000 1.5 80 18:18 09.11.2019
4483 Clouds 27 1010 88 10000 1.5 80 17:42 09.11.2019
4484 Clouds 27 1010 88 10000 1.5 80 17:22 09.11.2019
4485 Clouds 27 1011 83 10000 1.5 110 16:57 09.11.2019
4486 Clouds 28 1011 83 10000 1.5 110 16:38 09.11.2019
4487 Clouds 28 1011 83 10000 1.5 110 16:18 09.11.2019
4488 Clouds 27 1011 83 10000 0.5 0 15:42 09.11.2019
4489 Clouds 27 1011 83 10000 0.5 0 15:23 09.11.2019
4490 Clouds 28 1011 78 10000 1.5 120 14:47 09.11.2019
4491 Clouds 28 1011 78 10000 1.5 120 14:23 09.11.2019
4492 Clouds 28 1010 83 8000 2.1 100 13:58 09.11.2019
4493 Clouds 28 1010 83 8000 2.1 100 13:40 09.11.2019
4494 Clouds 28 1010 83 8000 2.1 100 13:21 09.11.2019
4495 Clouds 28 1010 78 10000 1.5 130 12:58 09.11.2019
4496 Clouds 28 1010 78 10000 1.5 130 12:40 09.11.2019
4497 Clouds 28 1010 78 10000 1.5 130 12:22 09.11.2019
4498 Clouds 28 1009 78 10000 2.1 170 11:48 09.11.2019
4499 Clouds 28 1009 78 10000 2.1 170 11:23 09.11.2019
4500 Clouds 29 1009 74 10000 2.6 0 10:59 09.11.2019
4501 Clouds 29 1009 74 10000 2.6 0 10:39 09.11.2019
4502 Clouds 29 1009 74 10000 2.6 0 10:19 09.11.2019
4503 Clouds 30 1008 70 10000 2.6 0 09:45 09.11.2019
4504 Clouds 30 1008 70 10000 2.6 0 09:26 09.11.2019
4505 Clouds 29 1007 74 10000 4.1 260 08:57 09.11.2019
4506 Clouds 30 1007 74 10000 4.1 260 08:39 09.11.2019
4507 Clouds 30 1007 74 10000 4.1 260 08:19 09.11.2019
4508 Clouds 31 1007 79 9000 5.7 270 07:44 09.11.2019
4509 Clouds 31 1007 79 9000 5.7 270 07:22 09.11.2019
4510 Clouds 31 1008 66 10000 1.5 0 06:49 09.11.2019
4511 Clouds 32 1008 66 10000 1.5 0 06:30 09.11.2019
4512 Clouds 33 1009 59 10000 1.5 0 05:42 09.11.2019
4513 Clouds 32 1010 66 10000 1 0 04:56 09.11.2019
4514 Clouds 31 1011 70 10000 2.1 140 03:35 09.11.2019
4515 Clouds 31 1011 74 10000 2.6 130 02:41 09.11.2019
4516 Clouds 29 1010 74 10000 1 0 01:55 09.11.2019
4517 Clouds 28 1010 74 10000 2.1 10 00:49 09.11.2019
4518 Clouds 27 1010 74 10000 2.1 10 00:31 09.11.2019
4519 Clouds 27 1009 78 10000 2.1 10 23:57 08.11.2019
4520 Clouds 26 1009 78 10000 2.1 10 23:38 08.11.2019
4521 Clouds 26 1009 78 10000 2.1 10 23:19 08.11.2019
4522 Clouds 26 1009 78 10000 1.5 360 22:42 08.11.2019
4523 Clouds 26 1009 78 10000 1.5 360 22:21 08.11.2019
4524 Clouds 26 1009 78 10000 1.5 360 21:56 08.11.2019
4525 Clouds 26 1009 78 10000 1.5 360 21:37 08.11.2019
4526 Clouds 26 1009 78 10000 1.5 360 21:18 08.11.2019
4527 Clouds 26 1008 88 10000 1 60 20:41 08.11.2019
4528 Clouds 26 1008 88 10000 1 60 20:21 08.11.2019
4529 Clouds 26 1009 83 9000 1 0 19:58 08.11.2019
4530 Clouds 26 1009 83 9000 1 0 19:38 08.11.2019
4531 Clouds 26 1009 83 9000 1 0 19:38 08.11.2019
4532 Clouds 26 1009 83 9000 1 0 19:18 08.11.2019
4533 Clouds 26 1009 83 9000 3.67 116 18:55 08.11.2019
4534 Clouds 26 1009 83 9000 3.67 116 18:37 08.11.2019
4535 Clouds 27 1009 83 9000 3.67 116 18:19 08.11.2019
4536 Clouds 27 1009 78 9000 1 0 17:55 08.11.2019
4537 Clouds 27 1009 78 9000 1 0 17:36 08.11.2019
4538 Clouds 27 1009 78 9000 1 0 17:18 08.11.2019
4539 Clouds 27 1010 83 10000 0.5 0 16:57 08.11.2019
4540 Clouds 27 1010 83 10000 0.5 0 16:39 08.11.2019
4541 Clouds 27 1010 83 10000 0.5 0 16:19 08.11.2019
4542 Clouds 27 1010 83 10000 0.5 0 15:56 08.11.2019
4543 Clouds 27 1010 83 10000 0.5 0 15:38 08.11.2019
4544 Clouds 27 1010 83 10000 0.5 0 15:19 08.11.2019
4545 Clouds 27 1010 83 10000 1 0 14:55 08.11.2019
4546 Clouds 27 1010 83 10000 1 0 14:36 08.11.2019
4547 Clouds 27 1010 83 10000 1 0 14:18 08.11.2019
4548 Clouds 27 1009 78 10000 1 0 13:42 08.11.2019
4549 Clouds 27 1009 78 10000 1 0 13:22 08.11.2019
4550 Clouds 27 1009 78 10000 1 0 13:22 08.11.2019
4551 Clouds 27 1008 83 10000 2.1 290 12:57 08.11.2019
4552 Clouds 27 1008 83 10000 2.1 290 12:39 08.11.2019
4553 Clouds 27 1008 83 10000 2.1 290 12:21 08.11.2019
4554 Clouds 28 1007 78 10000 3.1 280 11:55 08.11.2019
4555 Clouds 28 1007 78 10000 3.1 280 11:37 08.11.2019
4556 Clouds 28 1007 78 10000 3.1 280 11:37 08.11.2019
4557 Clouds 28 1007 78 10000 3.1 280 11:18 08.11.2019
4558 Clouds 29 1007 74 10000 2.1 110 10:42 08.11.2019
4559 Clouds 30 1007 74 10000 2.1 110 10:22 08.11.2019
4560 Clouds 30 1007 74 10000 2.1 120 09:58 08.11.2019
4561 Clouds 30 1007 74 10000 2.1 120 09:39 08.11.2019
4562 Clouds 30 1007 74 10000 2.1 120 09:19 08.11.2019
4563 Clouds 29 1006 74 9000 2.1 0 08:46 08.11.2019
4564 Clouds 29 1006 74 9000 2.1 0 08:23 08.11.2019
4565 Clouds 31 1006 70 10000 3.6 0 07:56 08.11.2019
4566 Clouds 31 1006 70 10000 3.6 0 07:37 08.11.2019
4567 Clouds 31 1006 70 10000 3.6 0 07:19 08.11.2019
4568 Clouds 31 1006 70 10000 5.1 130 06:38 08.11.2019
4569 Clouds 31 1006 70 10000 5.1 130 06:19 08.11.2019
4570 Clouds 31 1007 70 10000 3.6 0 05:36 08.11.2019
4571 Clouds 30 1009 70 10000 2.6 160 04:29 08.11.2019
4572 Clouds 31 1009 66 10000 3.1 120 03:43 08.11.2019
4573 Clouds 31 1009 66 10000 3.1 120 03:19 08.11.2019
4574 Clouds 29 1007 70 10000 3.6 90 01:57 08.11.2019
4575 Clouds 29 1007 70 10000 3.6 90 01:37 08.11.2019
4576 Clouds 25 1007 83 10000 3.1 80 00:49 08.11.2019
4577 Clouds 26 1007 83 10000 3.1 80 00:23 08.11.2019
4578 Clouds 26 1006 83 10000 3.1 70 23:52 07.11.2019
4579 Clouds 26 1006 83 10000 3.1 70 23:33 07.11.2019
4580 Clouds 26 1006 78 10000 1.5 90 22:58 07.11.2019
4581 Clouds 26 1006 78 10000 1.5 90 22:40 07.11.2019
4582 Clouds 26 1006 78 10000 1.5 90 22:20 07.11.2019
4583 Clouds 26 1005 83 10000 2.6 80 21:40 07.11.2019
4584 Clouds 26 1005 83 10000 2.6 80 21:21 07.11.2019
4585 Clouds 26 1005 78 10000 2.6 110 20:59 07.11.2019
4586 Clouds 27 1005 78 10000 2.6 110 20:41 07.11.2019
4587 Clouds 27 1005 78 10000 2.6 110 20:23 07.11.2019
4588 Clouds 27 1005 83 10000 3.6 110 19:59 07.11.2019
4589 Clouds 27 1005 83 10000 3.6 110 19:40 07.11.2019
4590 Clouds 27 1005 83 10000 3.6 110 19:21 07.11.2019
4591 Clouds 27 1006 88 10000 1.5 0 18:57 07.11.2019
4592 Clouds 27 1006 88 10000 1.5 0 18:39 07.11.2019
4593 Clouds 26 1006 88 10000 1.5 0 18:19 07.11.2019
4594 Clouds 26 1006 83 10000 2.1 110 17:56 07.11.2019
4595 Clouds 26 1006 83 10000 2.1 110 17:38 07.11.2019
4596 Clouds 26 1007 88 10000 1.5 180 17:20 07.11.2019
4597 Clouds 26 1007 88 10000 1.5 180 16:55 07.11.2019
4598 Clouds 27 1007 88 10000 1.5 180 16:37 07.11.2019
4599 Clouds 27 1007 88 10000 1.5 180 16:19 07.11.2019
4600 Clouds 27 1007 88 10000 1.5 180 15:42 07.11.2019
4601 Clouds 27 1007 88 10000 1.5 180 15:21 07.11.2019
4602 Clouds 27 1007 88 10000 1 210 14:58 07.11.2019
4603 Clouds 27 1007 88 10000 1 210 14:38 07.11.2019
4604 Clouds 27 1007 88 10000 1 210 14:20 07.11.2019
4605 Clouds 27 1007 83 10000 1.5 220 13:55 07.11.2019
4606 Clouds 27 1007 83 10000 1.5 220 13:37 07.11.2019
4607 Clouds 27 1007 83 10000 1.5 220 13:18 07.11.2019
4608 Clouds 27 1006 83 10000 2.1 110 12:56 07.11.2019
4609 Clouds 27 1006 83 10000 2.1 110 12:38 07.11.2019
4610 Clouds 27 1006 83 10000 2.1 110 12:18 07.11.2019
4611 Clouds 27 1005 78 10000 1.5 80 11:41 07.11.2019
4612 Clouds 27 1005 78 10000 1.5 80 11:22 07.11.2019
4613 Clouds 28 1004 74 10000 1.5 110 10:42 07.11.2019
4614 Clouds 28 1004 74 10000 1.5 110 10:42 07.11.2019
4615 Clouds 28 1004 74 10000 1.5 110 10:19 07.11.2019
4616 Clouds 28 1004 74 10000 1.5 110 10:19 07.11.2019
4617 Clouds 28 1004 64 10000 3.1 160 09:55 07.11.2019
4618 Clouds 28 1004 64 10000 3.1 160 09:36 07.11.2019
4619 Clouds 28 1004 64 10000 3.1 160 09:18 07.11.2019
4620 Rain 28 1004 79 10000 1.5 120 08:41 07.11.2019
4621 Rain 28 1004 79 10000 1.5 120 08:22 07.11.2019
4622 Rain 28 1004 74 10000 3.6 230 07:56 07.11.2019
4623 -273 0 0 0 0 0 07:38 07.11.2019
4624 Rain 28 1004 74 10000 3.6 230 07:38 07.11.2019
4625 Rain 28 1004 74 10000 3.6 230 07:20 07.11.2019
4626 Rain 30 1004 70 10000 2.6 120 06:45 07.11.2019
4627 Rain 31 1004 70 10000 2.6 120 06:25 07.11.2019
4628 Clouds 31 1005 62 10000 2.6 0 05:49 07.11.2019
4629 Clouds 32 1005 62 10000 2.6 0 05:31 07.11.2019
4630 Clouds 31 1006 74 10000 2.1 0 04:51 07.11.2019
4631 -273 0 0 0 0 0 04:51 07.11.2019
4632 Clouds 30 1006 74 10000 2.1 0 04:29 07.11.2019
4633 Clouds 28 1006 78 10000 3.6 110 01:28 07.11.2019
4634 Clouds 27 1005 83 10000 2.1 110 00:32 07.11.2019
4635 Clouds 26 1004 88 10000 2.1 80 23:58 06.11.2019
4636 Clouds 26 1004 88 10000 2.1 80 23:40 06.11.2019
4637 Clouds 26 1004 88 10000 2.1 80 23:18 06.11.2019
4638 Clouds 26 1004 88 10000 2.1 90 22:40 06.11.2019
4639 Clouds 26 1004 88 10000 2.1 90 22:20 06.11.2019
4640 Clouds 25 1004 88 10000 3.31 66 21:57 06.11.2019
4641 Clouds 25 1004 88 10000 3.31 66 21:39 06.11.2019
4642 Clouds 25 1004 88 10000 3.31 66 21:19 06.11.2019
4643 Clouds 25 1004 88 10000 1 0 20:56 06.11.2019
4644 Clouds 25 1004 88 10000 1 0 20:38 06.11.2019
4645 Clouds 25 1004 88 10000 1 0 20:20 06.11.2019
4646 Clouds 25 1004 88 9000 1 0 19:56 06.11.2019
4647 Clouds 25 1004 88 9000 1 0 19:36 06.11.2019
4648 Clouds 25 1004 88 9000 1 0 19:18 06.11.2019
4649 Clouds 25 1005 88 9000 1 0 18:40 06.11.2019
4650 Clouds 24 1005 88 9000 1 0 18:20 06.11.2019
4651 Clouds 24 1005 94 9000 0.5 0 17:59 06.11.2019
4652 Clouds 24 1005 94 9000 0.5 0 17:41 06.11.2019
4653 Clouds 24 1005 94 9000 0.5 0 17:41 06.11.2019
4654 Rain 24 1005 94 9000 0.5 0 17:23 06.11.2019
4655 Rain 24 1005 94 9000 0.5 0 17:23 06.11.2019
4656 Rain 24 1006 94 8000 3.1 80 16:57 06.11.2019
4657 Rain 24 1006 94 8000 3.1 80 16:38 06.11.2019
4658 Rain 24 1006 94 8000 3.1 80 16:20 06.11.2019
4659 Rain 25 1006 88 9000 2.6 70 15:57 06.11.2019
4660 Rain 25 1006 88 9000 2.6 70 15:37 06.11.2019
4661 Rain 25 1006 88 9000 2.6 70 15:19 06.11.2019
4662 Rain 25 1006 94 7000 2.6 170 14:57 06.11.2019
4663 Rain 25 1006 94 7000 2.6 170 14:38 06.11.2019
4664 Rain 25 1006 94 7000 2.6 170 14:20 06.11.2019
4665 Rain 26 1006 88 9000 1.5 0 13:54 06.11.2019
4666 Rain 26 1006 88 9000 1.5 0 13:36 06.11.2019
4667 Rain 26 1006 88 9000 1.5 0 13:18 06.11.2019
4668 Rain 26 1006 88 9000 1.5 0 13:18 06.11.2019
4669 Clouds 25 1004 88 10000 1.5 100 12:43 06.11.2019
4670 Clouds 25 1004 88 10000 1.5 100 12:23 06.11.2019
4671 Rain 25 1004 94 9000 2.1 90 11:59 06.11.2019
4672 Rain 25 1004 94 9000 2.1 90 11:59 06.11.2019
4673 Rain 25 1004 94 9000 2.1 90 11:38 06.11.2019
4674 Rain 25 1004 94 9000 2.1 90 11:19 06.11.2019
4675 Rain 26 1005 88 7000 2.6 210 10:57 06.11.2019
4676 Rain 26 1005 88 7000 2.6 210 10:39 06.11.2019
4677 Rain 26 1004 88 9000 0.5 0 10:21 06.11.2019
4678 Rain 26 1003 94 9000 1.5 0 09:57 06.11.2019
4679 Rain 26 1003 94 9000 1.5 0 09:38 06.11.2019
4680 Rain 26 1003 94 9000 1.5 0 09:19 06.11.2019
4681 Thunderstorm 26 1003 88 9000 3.6 110 08:54 06.11.2019
4682 Thunderstorm 26 1003 88 9000 3.6 110 08:36 06.11.2019
4683 Thunderstorm 27 1003 88 9000 3.6 110 08:18 06.11.2019
4684 Thunderstorm 27 1003 88 9000 3.6 110 08:18 06.11.2019
4685 Thunderstorm 28 1002 78 10000 3.6 240 07:40 06.11.2019
4686 Thunderstorm 28 1002 78 10000 3.6 240 07:22 06.11.2019
4687 Clouds 28 1004 79 10000 3.1 210 06:47 06.11.2019
4688 Clouds 28 1004 79 10000 3.1 210 06:27 06.11.2019
4689 Clouds 31 1005 70 10000 3.1 0 04:53 06.11.2019
4690 Clouds 30 1006 79 9000 1 0 02:28 06.11.2019
4691 Clouds 28 1006 88 9000 2.1 270 01:39 06.11.2019
4692 Clouds 27 1005 88 10000 0.5 0 00:46 06.11.2019
4693 Clouds 27 1005 88 10000 0.5 0 00:46 06.11.2019
4694 Clouds 26 1004 94 10000 1 0 23:58 05.11.2019
4695 Clouds 26 1004 94 10000 1 0 23:39 05.11.2019
4696 Clouds 26 1004 94 10000 1 0 23:39 05.11.2019
4697 Clouds 26 1004 94 10000 1 0 23:39 05.11.2019
4698 Clouds 26 1004 94 10000 1 0 23:21 05.11.2019
4699 Clouds 26 1004 94 10000 1 0 23:21 05.11.2019
4700 Clouds 26 1003 94 10000 2.6 30 22:46 05.11.2019
4701 Clouds 26 1003 94 10000 2.6 30 22:20 05.11.2019
4702 Rain 25 1004 100 6000 2.1 300 21:59 05.11.2019
4703 Rain 26 1004 100 6000 2.1 300 21:41 05.11.2019
4704 Rain 26 1004 100 6000 2.1 300 21:21 05.11.2019
4705 Rain 26 1004 94 10000 1.5 260 20:58 05.11.2019
4706 Rain 26 1004 94 10000 1.5 260 20:39 05.11.2019
4707 Rain 26 1004 94 10000 1.5 260 20:20 05.11.2019
4708 Clouds 26 1004 94 10000 1.5 30 19:57 05.11.2019
4709 Clouds 26 1004 94 10000 1.5 30 19:38 05.11.2019
4710 Clouds 26 1004 94 10000 1.5 30 19:38 05.11.2019
4711 Clouds 26 1004 94 10000 1.5 30 19:38 05.11.2019
4712 Clouds 26 1004 94 10000 1.5 30 19:20 05.11.2019
4713 Rain 26 1005 94 9000 1 0 18:57 05.11.2019
4714 Rain 26 1005 94 9000 1 0 18:38 05.11.2019
4715 Rain 26 1005 94 9000 1 0 18:20 05.11.2019
4716 Rain 26 1005 94 9000 1 0 18:20 05.11.2019
4717 Clouds 26 1006 88 10000 2.1 60 17:57 05.11.2019
4718 Clouds 26 1006 88 10000 2.1 60 17:38 05.11.2019
4719 Clouds 26 1006 88 10000 2.1 60 17:38 05.11.2019
4720 Clouds 25 1006 88 10000 2.1 60 17:18 05.11.2019
4721 Clouds 25 1005 88 10000 1 0 16:42 05.11.2019
4722 Clouds 25 1005 88 10000 1 0 16:22 05.11.2019
4723 Rain 25 1006 88 8000 2.1 340 15:59 05.11.2019
4724 Rain 25 1006 88 8000 2.1 340 15:37 05.11.2019
4725 Rain 25 1006 88 8000 2.1 340 15:37 05.11.2019
4726 Rain 25 1006 88 8000 2.1 340 15:19 05.11.2019
4727 Rain 25 1006 88 8000 6.7 260 14:57 05.11.2019
4728 Rain 26 1006 88 8000 6.7 260 14:38 05.11.2019
4729 Clouds 28 1006 79 10000 0.5 0 14:19 05.11.2019
4730 Clouds 28 1006 79 10000 0.5 0 14:19 05.11.2019
4731 Clouds 28 1005 79 10000 2.1 70 13:43 05.11.2019
4732 Clouds 29 1005 79 10000 2.1 70 13:24 05.11.2019
4733 Clouds 29 1005 74 10000 2.1 0 12:59 05.11.2019
4734 Clouds 29 1005 74 10000 2.1 0 12:39 05.11.2019
4735 Clouds 29 1005 74 10000 2.1 0 12:18 05.11.2019
4736 Clouds 29 1004 74 10000 1.5 320 11:40 05.11.2019
4737 Clouds 29 1004 74 10000 1.5 320 11:21 05.11.2019
4738 Clouds 30 1004 70 10000 2.1 330 10:59 05.11.2019
4739 Clouds 30 1004 70 10000 2.1 330 10:59 05.11.2019
4740 Clouds 30 1004 70 10000 2.1 330 10:41 05.11.2019
4741 Clouds 30 1004 70 10000 2.1 330 10:22 05.11.2019
4742 Clouds 31 1003 62 10000 3.6 240 09:56 05.11.2019
4743 Clouds 31 1003 62 10000 3.6 240 09:37 05.11.2019
4744 Clouds 31 1003 62 10000 3.6 240 09:18 05.11.2019
4745 Clouds 32 1003 70 10000 4.1 290 08:39 05.11.2019
4746 Clouds 32 1003 70 10000 4.1 290 08:20 05.11.2019
4747 Clouds 31 1004 74 10000 3.1 280 07:57 05.11.2019
4748 Clouds 31 1004 74 10000 3.1 280 07:39 05.11.2019
4749 Clouds 31 1004 74 10000 3.1 280 07:39 05.11.2019
4750 Clouds 31 1004 74 10000 3.1 280 07:39 05.11.2019
4751 Clouds 31 1004 74 10000 3.1 280 07:20 05.11.2019
4752 Rain 31 1004 79 10000 1.5 290 06:49 05.11.2019
4753 Clouds 31 1005 70 10000 3.6 0 05:51 05.11.2019
4754 Clouds 32 1005 70 10000 3.6 0 05:22 05.11.2019
4755 Clouds 32 1005 70 10000 3.6 0 05:22 05.11.2019
4756 Clouds 31 1006 66 10000 5.7 240 04:25 05.11.2019
4757 Clouds 31 1006 66 10000 5.7 240 04:25 05.11.2019
4758 Clouds 32 1007 62 10000 3.6 230 03:55 05.11.2019
4759 Clouds 31 1007 66 10000 3.1 210 02:46 05.11.2019
4760 Clouds 31 1007 66 10000 3.1 210 02:18 05.11.2019
4761 Clouds 28 1007 78 10000 1.5 210 00:52 05.11.2019
4762 Clouds 28 1007 78 10000 1.5 210 00:30 05.11.2019
4763 Clouds 27 1006 83 9000 1.26 143 23:56 04.11.2019
4764 Clouds 27 1006 83 9000 1.26 143 23:37 04.11.2019
4765 Clouds 27 1006 83 9000 1.74 150 23:18 04.11.2019
4766 Clouds 27 1006 88 10000 0.5 0 22:41 04.11.2019
4767 Clouds 27 1006 88 10000 0.5 0 22:23 04.11.2019
4768 Clouds 27 1006 88 10000 0.5 0 22:23 04.11.2019
4769 Clouds 27 1006 88 10000 1.5 310 21:56 04.11.2019
4770 Clouds 27 1006 88 10000 1.5 310 21:37 04.11.2019
4771 Clouds 27 1006 88 10000 1.5 310 21:19 04.11.2019
4772 Clouds 27 1006 83 0 1 0 20:58 04.11.2019
4773 Clouds 27 1006 83 0 1 0 20:39 04.11.2019
4774 Clouds 27 1007 74 10000 1.5 240 20:21 04.11.2019
4775 Clouds 27 1007 74 10000 1.5 240 19:58 04.11.2019
4776 Clouds 27 1007 74 10000 1.5 240 19:40 04.11.2019
4777 Clouds 27 1007 74 10000 1.5 240 19:21 04.11.2019
4778 Clouds 27 1007 74 10000 1.5 210 18:56 04.11.2019
4779 Clouds 27 1007 74 10000 1.5 210 18:56 04.11.2019
4780 Clouds 28 1007 74 10000 1.5 210 18:37 04.11.2019
4781 Clouds 28 1007 74 10000 1.5 210 18:19 04.11.2019
4782 Clouds 28 1008 74 10000 2.1 200 17:39 04.11.2019
4783 Clouds 28 1008 74 10000 2.1 200 17:21 04.11.2019
4784 Clouds 28 1009 78 10000 1.5 190 16:56 04.11.2019
4785 Clouds 28 1009 78 10000 1.5 190 16:38 04.11.2019
4786 Clouds 27 1009 78 10000 1.5 190 16:19 04.11.2019
4787 Clouds 27 1009 88 10000 2.6 280 15:41 04.11.2019
4788 Clouds 27 1009 88 10000 2.6 280 15:22 04.11.2019
4789 Clouds 27 1009 78 10000 3.6 260 14:59 04.11.2019
4790 Clouds 27 1009 78 10000 3.6 260 14:41 04.11.2019
4791 Clouds 27 1009 78 10000 3.6 260 14:21 04.11.2019
4792 Clouds 28 1009 79 10000 1.5 230 13:58 04.11.2019
4793 Clouds 28 1009 79 10000 1.5 230 13:40 04.11.2019
4794 Clouds 28 1009 79 10000 1.5 230 13:21 04.11.2019
4795 Clouds 28 1009 79 10000 1.5 230 13:21 04.11.2019
4796 Clouds 28 1008 83 10000 5.1 270 12:57 04.11.2019
4797 Clouds 28 1008 83 10000 5.1 270 12:38 04.11.2019
4798 Clouds 28 1008 83 10000 5.1 270 12:20 04.11.2019
4799 Clouds 28 1007 83 0 4.74 241 11:43 04.11.2019
4800 Clouds 29 1007 74 10000 6.7 260 11:24 04.11.2019
4801 Clouds 29 1007 74 10000 6.7 260 10:59 04.11.2019
4802 Clouds 29 1007 74 10000 6.7 260 10:41 04.11.2019
4803 Clouds 29 1007 74 10000 6.7 260 10:23 04.11.2019
4804 Clouds 30 1006 70 10000 5.7 280 09:45 04.11.2019
4805 Clouds 30 1006 70 10000 5.7 280 09:27 04.11.2019
4806 Clouds 31 1006 74 10000 4.6 280 08:58 04.11.2019
4807 Clouds 31 1006 74 10000 4.6 280 08:38 04.11.2019
4808 Clouds 31 1006 74 10000 4.6 280 08:19 04.11.2019
4809 Clouds 31 1006 70 10000 5.1 270 07:43 04.11.2019
4810 Clouds 31 1006 70 10000 5.1 270 07:21 04.11.2019
4811 Rain 30 1007 74 10000 6.2 270 06:56 04.11.2019
4812 Rain 31 1007 74 10000 6.2 270 06:18 04.11.2019
4813 Clouds 31 1008 74 10000 4.6 280 05:48 04.11.2019
4814 Clouds 31 1009 70 10000 3.6 270 04:43 04.11.2019
4815 Clouds 31 1009 70 10000 3.6 270 04:21 04.11.2019
4816 Clouds 30 1010 79 10000 1.5 270 02:32 04.11.2019
4817 Clouds 28 1009 83 10000 1.5 0 01:21 04.11.2019
4818 Clouds 28 1009 88 10000 3.43 131 00:40 04.11.2019
4819 Clouds 27 1009 88 10000 3.43 131 00:20 04.11.2019
4820 Clouds 27 1009 88 10000 1 0 23:41 03.11.2019
4821 Clouds 27 1009 88 10000 1 0 23:21 03.11.2019
4822 Clouds 27 1009 88 10000 1 0 23:21 03.11.2019
4823 Clouds 27 1008 88 10000 0.5 0 22:58 03.11.2019
4824 Clouds 27 1008 88 10000 0.5 0 22:40 03.11.2019
4825 Clouds 27 1008 88 10000 0.5 0 22:20 03.11.2019
4826 Clouds 27 1008 88 10000 0.5 0 22:20 03.11.2019
4827 Clouds 27 1008 88 10000 1 0 21:56 03.11.2019
4828 Clouds 27 1008 88 10000 1 0 21:38 03.11.2019
4829 Clouds 27 1008 88 10000 1 0 21:19 03.11.2019
4830 Clouds 27 1008 88 10000 1 0 20:54 03.11.2019
4831 Clouds 27 1008 88 10000 1 0 20:36 03.11.2019
4832 Clouds 27 1008 88 10000 1 0 20:18 03.11.2019
4833 Clouds 28 1009 83 10000 1.5 140 19:54 03.11.2019
4834 Clouds 27 1009 83 10000 1.5 140 19:36 03.11.2019
4835 Clouds 28 1009 83 10000 1.5 140 19:18 03.11.2019
4836 Clouds 28 1009 78 10000 1.5 150 18:38 03.11.2019
4837 Clouds 28 1009 78 10000 1.5 150 18:18 03.11.2019
4838 Clouds 28 1009 78 10000 1.5 150 18:18 03.11.2019
4839 Clouds 28 1009 78 10000 1.5 140 17:57 03.11.2019
4840 Clouds 28 1009 78 10000 1.5 140 17:39 03.11.2019
4841 Clouds 28 1009 78 10000 1.5 140 17:18 03.11.2019
4842 Clouds 28 1009 78 10000 2.1 120 16:54 03.11.2019
4843 Clouds 28 1009 78 10000 2.1 120 16:36 03.11.2019
4844 Clouds 28 1009 78 10000 2.1 120 16:18 03.11.2019
4845 Clouds 28 1010 83 10000 1 0 15:45 03.11.2019
4846 Clouds 28 1010 83 10000 1 0 15:25 03.11.2019
4847 Clouds 28 1009 79 10000 2.6 130 14:57 03.11.2019
4848 Clouds 28 1009 79 10000 2.6 130 14:38 03.11.2019
4849 Clouds 29 1009 79 10000 2.6 130 14:18 03.11.2019
4850 Thunderstorm 29 1009 79 0 2.6 120 13:43 03.11.2019
4851 Thunderstorm 29 1009 79 0 2.6 120 13:20 03.11.2019
4852 Thunderstorm 29 1009 79 0 2.6 120 13:20 03.11.2019
4853 Thunderstorm 29 1009 79 9000 2.6 130 12:59 03.11.2019
4854 Thunderstorm 29 1009 79 9000 2.6 130 12:37 03.11.2019
4855 Clouds 29 1008 79 10000 2.6 120 12:19 03.11.2019
4856 Clouds 29 1007 74 10000 2.6 110 11:44 03.11.2019
4857 Clouds 29 1007 74 10000 2.6 110 11:22 03.11.2019
4858 Clouds 29 1007 74 10000 2.1 120 10:58 03.11.2019
4859 Clouds 29 1007 74 10000 2.1 120 10:40 03.11.2019
4860 Clouds 30 1007 74 10000 2.1 120 10:22 03.11.2019
4861 Clouds 30 1006 74 10000 3.1 120 09:55 03.11.2019
4862 Clouds 30 1006 74 10000 3.1 120 09:37 03.11.2019
4863 Clouds 30 1006 74 10000 3.1 120 09:37 03.11.2019
4864 Clouds 30 1006 74 10000 3.1 120 09:19 03.11.2019
4865 Clouds 30 1006 70 10000 3.6 110 08:39 03.11.2019
4866 Clouds 30 1006 70 10000 3.6 110 08:20 03.11.2019
4867 Clouds 30 1007 70 10000 5.1 120 07:45 03.11.2019
4868 Clouds 30 1007 70 10000 5.1 120 07:23 03.11.2019
4869 Clouds 31 1007 62 10000 4.1 110 06:46 03.11.2019
4870 Clouds 31 1007 62 10000 4.1 110 06:46 03.11.2019
4871 Clouds 32 1007 62 10000 4.1 110 06:28 03.11.2019
4872 Clouds 32 1008 62 10000 3.6 110 05:38 03.11.2019
4873 Clouds 32 1009 66 10000 2.6 110 04:56 03.11.2019
4874 Clouds 32 1009 66 10000 2.6 110 04:28 03.11.2019
4875 Clouds 32 1010 70 10000 2.6 80 03:28 03.11.2019
4876 Clouds 30 1010 74 10000 1 0 02:30 03.11.2019
4877 Clouds 29 1010 74 10000 0.5 0 01:57 03.11.2019
4878 Clouds 29 1010 74 10000 0.5 0 01:37 03.11.2019
4879 Clouds 28 1010 74 10000 0.5 0 01:19 03.11.2019
4880 Clouds 28 1009 78 10000 2.1 10 00:41 03.11.2019
4881 Clouds 27 1009 78 10000 2.1 10 00:22 03.11.2019
4882 Clouds 26 1008 88 10000 1.5 90 23:57 02.11.2019
4883 Clouds 26 1008 88 10000 1.5 90 23:37 02.11.2019
4884 Clouds 26 1008 88 10000 1.5 90 23:18 02.11.2019
4885 Clouds 26 1008 83 10000 1.5 90 22:54 02.11.2019
4886 Clouds 26 1008 83 10000 1.5 90 22:36 02.11.2019
4887 Clouds 26 1008 83 10000 1.5 90 22:18 02.11.2019
4888 Clouds 26 1008 83 10000 1.5 90 22:18 02.11.2019
4889 Clouds 26 1008 83 10000 1.5 90 22:18 02.11.2019
4890 Clouds 26 1007 83 10000 1.5 90 21:55 02.11.2019
4891 Clouds 26 1007 83 10000 1.5 90 21:36 02.11.2019
4892 Clouds 26 1007 83 10000 1.5 90 21:18 02.11.2019
4893 Clouds 26 1007 83 10000 1.5 90 21:18 02.11.2019
4894 Clouds 26 1007 83 10000 1.5 90 21:18 02.11.2019
4895 Clouds 26 1007 83 10000 1.5 90 21:18 02.11.2019
4896 Clouds 26 1007 83 10000 1 90 20:55 02.11.2019
4897 Clouds 26 1007 83 10000 1 90 20:37 02.11.2019
4898 Clouds 27 1007 83 10000 1 90 20:18 02.11.2019
4899 Clouds 26 1007 83 10000 1.5 100 19:39 02.11.2019
4900 Clouds 26 1007 83 10000 1.5 100 19:20 02.11.2019
4901 Clouds 27 1008 78 10000 2.1 130 18:55 02.11.2019
4902 Clouds 27 1008 78 10000 2.1 130 18:36 02.11.2019
4903 Clouds 27 1008 78 10000 2.1 130 18:18 02.11.2019
4904 Clouds 27 1008 78 10000 2.1 110 17:55 02.11.2019
4905 Clouds 27 1008 78 10000 2.1 110 17:36 02.11.2019
4906 Clouds 27 1008 78 10000 2.1 110 17:18 02.11.2019
4907 Clouds 27 1008 83 10000 1 0 16:40 02.11.2019
4908 Clouds 27 1008 83 10000 1 0 16:21 02.11.2019
4909 Clouds 27 1008 78 10000 2.6 130 15:44 02.11.2019
4910 Clouds 28 1008 78 10000 2.6 130 15:22 02.11.2019
4911 Clouds 28 1008 78 10000 2.1 120 14:59 02.11.2019
4912 Clouds 27 1008 78 10000 2.1 120 14:41 02.11.2019
4913 Clouds 27 1008 78 10000 2.1 120 14:41 02.11.2019
4914 Clouds 27 1008 78 10000 2.1 120 14:41 02.11.2019
4915 Clouds 27 1008 78 10000 2.1 120 14:22 02.11.2019
4916 Clouds 27 1008 78 10000 2.1 120 13:55 02.11.2019
4917 Clouds 27 1008 78 10000 2.1 120 13:37 02.11.2019
4918 Clouds 27 1008 78 10000 2.1 120 13:18 02.11.2019
4919 Clouds 28 1007 83 10000 1 0 12:40 02.11.2019
4920 Clouds 28 1007 83 10000 1 0 12:22 02.11.2019
4921 Clouds 28 1007 79 10000 2.1 50 11:56 02.11.2019
4922 Clouds 28 1007 79 10000 2.1 50 11:38 02.11.2019
4923 Clouds 28 1007 79 10000 2.1 50 11:19 02.11.2019
4924 Clouds 28 1006 79 10000 1.5 70 10:43 02.11.2019
4925 Clouds 28 1006 79 10000 1.5 70 10:24 02.11.2019
4926 Clouds 29 1006 79 10000 3.6 30 09:54 02.11.2019
4927 Clouds 29 1006 79 10000 3.6 30 09:54 02.11.2019
4928 Clouds 29 1006 79 10000 3.6 30 09:36 02.11.2019
4929 Clouds 29 1006 79 10000 3.6 30 09:18 02.11.2019
4930 Clouds 30 1005 62 10000 1.5 0 08:42 02.11.2019
4931 Rain 30 1005 62 10000 1.5 0 08:20 02.11.2019
4932 Rain 29 1006 70 10000 2.1 110 07:47 02.11.2019
4933 Rain 30 1006 70 10000 2.1 110 07:27 02.11.2019
4934 Rain 31 1006 70 10000 2.1 0 06:52 02.11.2019
4935 Clouds 31 1006 70 10000 2.1 120 06:25 02.11.2019
4936 Clouds 31 1007 70 10000 2.6 90 05:54 02.11.2019
4937 Clouds 30 1007 70 10000 2.6 100 04:46 02.11.2019
4938 Clouds 30 1007 70 10000 2.6 100 04:19 02.11.2019
4939 Clouds 29 1008 79 10000 2.1 0 03:45 02.11.2019
4940 Clouds 29 1008 79 10000 2.1 150 02:32 02.11.2019
4941 Clouds 27 1008 88 10000 1 0 01:41 02.11.2019
4942 Clouds 27 1008 88 10000 1 0 01:19 02.11.2019
4943 Clouds 26 1008 94 10000 1.54 66 00:42 02.11.2019
4944 Clouds 26 1008 94 10000 1.54 66 00:23 02.11.2019
4945 Clouds 25 1007 94 9000 0.5 0 23:42 01.11.2019
4946 Clouds 25 1007 94 9000 0.5 0 23:20 01.11.2019
4947 Clouds 25 1006 94 9000 0.5 0 22:43 01.11.2019
4948 Clouds 25 1006 94 9000 0.5 0 22:22 01.11.2019
4949 Clouds 25 1006 94 9000 0.5 0 22:22 01.11.2019
4950 Rain 25 1007 94 9000 1 190 21:56 01.11.2019
4951 Rain 25 1007 94 9000 1 190 21:38 01.11.2019
4952 Rain 25 1007 94 9000 1 190 21:19 01.11.2019
4953 Rain 25 1007 94 9000 1.46 47 20:42 01.11.2019
4954 Rain 25 1007 94 9000 1.91 81 20:24 01.11.2019
4955 Rain 25 1007 94 7000 1.5 60 19:59 01.11.2019
4956 Rain 25 1007 94 7000 1.5 60 19:41 01.11.2019
4957 Rain 25 1007 94 7000 1.5 60 19:22 01.11.2019
4958 Rain 26 1008 94 9000 1 0 18:42 01.11.2019
4959 Rain 26 1008 94 9000 1 0 18:21 01.11.2019
4960 Rain 26 1008 88 9000 1 0 17:59 01.11.2019
4961 Rain 26 1008 88 9000 1 0 17:41 01.11.2019
4962 Rain 26 1008 88 9000 1 0 17:23 01.11.2019
4963 Rain 26 1009 94 9000 1.5 70 16:41 01.11.2019
4964 Rain 26 1009 94 9000 1.5 70 16:21 01.11.2019
4965 Rain 26 1009 94 10000 0.5 0 15:59 01.11.2019
4966 Clouds 26 1009 94 10000 0.5 0 15:40 01.11.2019
4967 Clouds 26 1009 94 10000 0.5 0 15:40 01.11.2019
4968 Clouds 26 1009 94 10000 0.5 0 15:22 01.11.2019
4969 Clouds 26 1009 94 10000 0.5 0 15:22 01.11.2019
4970 Clouds 26 1009 94 10000 0.5 0 15:22 01.11.2019
4971 Rain 27 1008 88 10000 0.5 0 14:55 01.11.2019
4972 Rain 27 1008 88 10000 0.5 0 14:36 01.11.2019
4973 Rain 27 1008 88 10000 0.5 0 14:36 01.11.2019
4974 Rain 27 1008 88 10000 0.5 0 14:18 01.11.2019
4975 Rain 27 1008 88 9000 1 0 13:41 01.11.2019
4976 Rain 27 1008 88 9000 1 0 13:22 01.11.2019
4977 Rain 27 1007 88 10000 2.1 130 12:56 01.11.2019
4978 Rain 27 1007 88 10000 2.1 130 12:37 01.11.2019
4979 Rain 27 1007 88 10000 2.1 130 12:19 01.11.2019
4980 Rain 27 1007 94 10000 0.5 260 11:42 01.11.2019
4981 Rain 27 1007 94 10000 0.5 260 11:24 01.11.2019
4982 Clouds 27 1007 94 10000 1.5 200 10:56 01.11.2019
4983 Clouds 27 1007 94 10000 1.5 200 10:37 01.11.2019
4984 Clouds 28 1007 94 10000 1.5 200 10:18 01.11.2019
4985 Clouds 27 1006 88 10000 1.5 200 09:42 01.11.2019
4986 Clouds 27 1006 88 10000 1.5 200 09:22 01.11.2019
4987 Clouds 27 1006 94 10000 1 0 08:55 01.11.2019
4988 Clouds 27 1006 94 10000 1 0 08:36 01.11.2019
4989 Clouds 27 1006 94 10000 1 0 08:36 01.11.2019
4990 Clouds 27 1006 94 10000 1 0 08:18 01.11.2019
4991 Rain 27 1007 94 6000 3.6 30 07:45 01.11.2019
4992 Rain 27 1007 94 6000 3.6 30 07:22 01.11.2019
4993 Clouds 29 1007 83 10000 0.5 0 06:54 01.11.2019
4994 Clouds 29 1007 83 10000 0.5 0 06:22 01.11.2019
4995 Rain 29 1008 83 6000 3.6 330 05:44 01.11.2019
4996 Clouds 29 1009 79 10000 2.1 320 04:55 01.11.2019
4997 Clouds 29 1010 79 9000 2.1 290 03:32 01.11.2019
4998 Clouds 28 1010 83 10000 0.5 0 01:46 01.11.2019
4999 Clouds 27 1009 94 10000 0.5 0 00:58 01.11.2019
5000 Clouds 26 1009 94 10000 0.5 0 00:20 01.11.2019
5001 Clouds 26 1009 88 10000 0.5 0 23:44 31.10.2019
5002 Clouds 26 1009 88 10000 0.5 0 23:23 31.10.2019
5003 Clouds 26 1008 88 10000 1 0 22:58 31.10.2019
5004 Clouds 26 1008 88 10000 1 0 22:40 31.10.2019
5005 Clouds 26 1008 88 10000 1 0 22:21 31.10.2019
5006 Clouds 26 1007 94 10000 1 0 21:45 31.10.2019
5007 Clouds 26 1007 94 10000 1 0 21:22 31.10.2019
5008 Clouds 26 1008 88 10000 1 220 20:58 31.10.2019
5009 Clouds 25 1008 88 10000 1 220 20:39 31.10.2019
5010 Clouds 25 1008 88 10000 1 220 20:21 31.10.2019
5011 Rain 25 1009 88 8000 0.5 0 19:42 31.10.2019
5012 Rain 25 1009 88 8000 0.5 0 19:23 31.10.2019
5013 Rain 25 1009 88 8000 0.5 0 18:58 31.10.2019
5014 Rain 25 1009 88 8000 0.5 0 18:39 31.10.2019
5015 Rain 25 1009 88 8000 0.5 0 18:20 31.10.2019
5016 Rain 25 1010 94 8000 2.6 60 17:43 31.10.2019
5017 Rain 25 1010 94 8000 2.6 60 17:43 31.10.2019
5018 Rain 25 1010 94 8000 2.6 60 17:22 31.10.2019
5019 Rain 26 1010 94 7000 2.1 130 16:59 31.10.2019
5020 Rain 26 1010 94 7000 2.1 130 16:40 31.10.2019
5021 Rain 26 1010 94 7000 2.1 130 16:20 31.10.2019
5022 Rain 27 1010 88 10000 2.1 140 15:56 31.10.2019
5023 Rain 27 1010 88 10000 2.1 140 15:38 31.10.2019
5024 Rain 27 1010 88 10000 2.1 140 15:19 31.10.2019
5025 Clouds 28 1010 88 10000 1.5 170 14:56 31.10.2019
5026 Clouds 28 1010 88 10000 1.5 170 14:38 31.10.2019
5027 Clouds 28 1010 88 10000 1.5 170 14:20 31.10.2019
5028 Clouds 28 1010 88 10000 2.1 150 13:55 31.10.2019
5029 Clouds 28 1010 88 10000 2.1 150 13:37 31.10.2019
5030 Clouds 27 1010 88 10000 2.1 150 13:19 31.10.2019
5031 Clouds 27 1009 88 10000 1.5 130 12:43 31.10.2019
5032 Clouds 28 1009 88 10000 1.5 130 12:23 31.10.2019
5033 Rain 28 1008 83 9000 3.1 140 11:57 31.10.2019
5034 Rain 28 1008 83 9000 3.1 140 11:38 31.10.2019
5035 Rain 28 1008 83 9000 3.1 140 11:18 31.10.2019
5036 Rain 30 1009 62 8000 2.1 150 10:40 31.10.2019
5037 Rain 30 1009 62 8000 2.1 150 10:22 31.10.2019
5038 Clouds 30 1007 70 10000 2.1 0 09:59 31.10.2019
5039 Clouds 31 1007 70 10000 2.1 0 09:41 31.10.2019
5040 Clouds 31 1007 70 10000 2.1 0 09:18 31.10.2019
5041 Clouds 31 1007 66 10000 1.5 350 08:49 31.10.2019
5042 Clouds 31 1007 66 10000 1.5 350 08:30 31.10.2019
5043 Clouds 30 1007 78 10000 2.6 190 07:55 31.10.2019
5044 Clouds 29 1007 78 10000 2.6 190 07:36 31.10.2019
5045 Clouds 29 1007 78 10000 2.6 190 07:18 31.10.2019
5046 Rain 30 1008 62 10000 3.1 270 06:38 31.10.2019
5047 Rain 30 1008 62 10000 3.1 270 06:18 31.10.2019
5048 Rain 30 1008 62 10000 3.1 270 06:18 31.10.2019
5049 Clouds 30 1011 70 10000 3.6 300 03:43 31.10.2019
5050 Clouds 31 1011 66 10000 3.1 260 02:41 31.10.2019
5051 Clouds 30 1011 70 10000 1 0 01:52 31.10.2019
5052 Clouds 28 1010 78 10000 0.5 0 00:37 31.10.2019
5053 Clouds 27 1010 78 10000 0.5 0 00:18 31.10.2019
5054 Clouds 25 1009 83 10000 1 0 23:30 30.10.2019
5055 Clouds 25 1008 83 10000 0.5 0 22:43 30.10.2019
5056 Clouds 25 1008 83 10000 0.5 0 22:23 30.10.2019
5057 Clouds 26 1008 83 10000 1.5 110 21:56 30.10.2019
5058 Clouds 26 1008 83 10000 1.5 110 21:37 30.10.2019
5059 Clouds 26 1008 83 10000 1.5 110 21:18 30.10.2019
5060 Clouds 26 1009 83 10000 1.5 110 20:59 30.10.2019
5061 Clouds 26 1009 83 10000 1.5 110 20:41 30.10.2019
5062 Clouds 26 1009 83 10000 1.5 110 20:22 30.10.2019
5063 Clouds 26 1009 83 10000 1.5 170 19:58 30.10.2019
5064 Clouds 26 1009 83 10000 1.5 170 19:38 30.10.2019
5065 Clouds 26 1009 83 10000 1.5 170 19:19 30.10.2019
5066 Clouds 26 1010 83 10000 2.6 70 18:39 30.10.2019
5067 Clouds 27 1010 83 10000 2.6 70 18:21 30.10.2019
5068 Clouds 27 1011 83 10000 1 0 17:59 30.10.2019
5069 Clouds 27 1011 83 10000 1 0 17:41 30.10.2019
5070 Clouds 27 1011 83 10000 1 0 17:19 30.10.2019
5071 Clouds 27 1011 83 10000 1 0 17:19 30.10.2019
5072 Clouds 27 1011 78 10000 1 0 16:55 30.10.2019
5073 Clouds 27 1011 78 10000 1 0 16:37 30.10.2019
5074 Clouds 27 1011 78 10000 1 0 16:19 30.10.2019
5075 Clouds 27 1011 78 10000 1.5 140 15:56 30.10.2019
5076 Clouds 27 1011 78 10000 1.5 140 15:37 30.10.2019
5077 Clouds 27 1011 78 10000 1.5 140 15:19 30.10.2019
5078 Clouds 28 1011 74 10000 1 0 14:42 30.10.2019
5079 Clouds 28 1011 74 10000 1 0 14:22 30.10.2019
5080 Clouds 28 1011 70 10000 1 0 13:58 30.10.2019
5081 Clouds 28 1011 70 10000 1 0 13:40 30.10.2019
5082 Clouds 28 1011 70 10000 1 0 13:20 30.10.2019
5083 Clouds 28 1010 70 10000 2.6 90 12:57 30.10.2019
5084 Clouds 28 1010 70 10000 2.6 90 12:38 30.10.2019
5085 Clouds 28 1010 70 10000 2.6 90 12:19 30.10.2019
5086 Clouds 29 1010 66 10000 1.5 120 11:41 30.10.2019
5087 Clouds 29 1010 66 10000 1.5 120 11:23 30.10.2019
5088 Clouds 29 1009 70 10000 1.5 240 10:46 30.10.2019
5089 Clouds 29 1009 70 10000 1.5 240 10:27 30.10.2019
5090 Clouds 30 1008 70 10000 2.1 310 09:58 30.10.2019
5091 Clouds 30 1008 70 10000 2.1 310 09:58 30.10.2019
5092 Clouds 30 1008 70 10000 2.1 310 09:58 30.10.2019
5093 Clouds 30 1008 70 10000 2.1 310 09:39 30.10.2019
5094 Clouds 30 1008 70 10000 2.1 310 09:19 30.10.2019
5095 Clouds 31 1008 66 10000 1 0 08:42 30.10.2019
5096 Clouds 31 1008 66 10000 1 0 08:42 30.10.2019
5097 Clouds 31 1008 66 10000 1 0 08:22 30.10.2019
5098 Clouds 31 1009 70 10000 1 0 07:56 30.10.2019
5099 Clouds 31 1009 70 10000 1 0 07:37 30.10.2019
5100 Clouds 31 1009 62 10000 3.1 70 06:43 30.10.2019
5101 Clouds 31 1009 62 10000 3.1 70 06:25 30.10.2019
5102 Clouds 32 1011 62 10000 3.1 80 05:54 30.10.2019
5103 Clouds 32 1011 62 10000 3.1 80 05:54 30.10.2019
5104 Clouds 32 1011 62 10000 3.1 80 05:35 30.10.2019
5105 Clouds 29 1012 79 5000 1 0 03:47 30.10.2019
5106 Clouds 28 1012 79 5000 1 0 03:20 30.10.2019
5107 Clouds 28 1012 74 9000 1.5 90 02:32 30.10.2019
5108 Clouds 28 1012 78 8000 1 0 01:34 30.10.2019
5109 Rain 26 1011 83 9000 1.5 120 00:31 30.10.2019
5110 Clouds 26 1010 83 9000 1 0 23:47 29.10.2019
5111 Clouds 26 1010 83 9000 1 0 23:28 29.10.2019
5112 Clouds 26 1009 88 9000 1.5 50 22:57 29.10.2019
5113 Clouds 26 1009 88 9000 1.5 50 22:37 29.10.2019
5114 Clouds 26 1009 88 9000 1.5 50 22:18 29.10.2019
5115 Clouds 26 1009 88 9000 1.5 50 22:18 29.10.2019
5116 Clouds 26 1009 83 10000 2.11 77 21:54 29.10.2019
5117 Clouds 26 1009 83 10000 2.11 77 21:36 29.10.2019
5118 Clouds 26 1009 83 10000 2.11 77 21:18 29.10.2019
5119 Clouds 26 1009 83 10000 2.11 77 20:41 29.10.2019
5120 Clouds 26 1009 83 10000 3.21 99 20:21 29.10.2019
5121 Clouds 26 1009 83 10000 3.21 99 20:21 29.10.2019
5122 Clouds 26 1010 83 10000 0.5 0 19:57 29.10.2019
5123 Clouds 26 1010 83 10000 0.5 0 19:38 29.10.2019
5124 Clouds 26 1010 83 10000 0.5 0 19:20 29.10.2019
5125 Clouds 27 1010 83 10000 1.5 90 18:57 29.10.2019
5126 Clouds 27 1010 83 10000 1.5 90 18:37 29.10.2019
5127 Clouds 27 1010 83 10000 1.5 90 18:19 29.10.2019
5128 Clouds 27 1010 83 10000 1.5 90 18:19 29.10.2019
5129 Clouds 27 1011 78 10000 2.1 130 17:55 29.10.2019
5130 Clouds 27 1011 78 10000 2.1 130 17:37 29.10.2019
5131 Clouds 27 1011 78 10000 2.1 130 17:18 29.10.2019
5132 Clouds 27 1011 78 10000 1 110 16:40 29.10.2019
5133 Clouds 27 1011 78 10000 1 110 16:21 29.10.2019
5134 Clouds 27 1011 78 10000 1.5 120 15:57 29.10.2019
5135 Clouds 27 1011 78 10000 1.5 120 15:39 29.10.2019
5136 Clouds 27 1011 78 10000 1.5 120 15:20 29.10.2019
5137 Clouds 28 1011 73 10000 2.1 120 14:55 29.10.2019
5138 Clouds 27 1011 73 10000 2.1 120 14:37 29.10.2019
5139 Clouds 27 1011 68 10000 2.1 120 14:19 29.10.2019
5140 Clouds 28 1010 74 10000 2.1 120 13:40 29.10.2019
5141 Clouds 28 1010 74 10000 2.1 120 13:22 29.10.2019
5142 Clouds 28 1009 74 10000 2.6 110 12:55 29.10.2019
5143 Clouds 28 1009 74 10000 2.6 110 12:36 29.10.2019
5144 Clouds 28 1009 74 10000 2.6 110 12:18 29.10.2019
5145 Clouds 28 1008 79 10000 2.1 100 11:42 29.10.2019
5146 Clouds 28 1008 79 10000 2.1 100 11:22 29.10.2019
5147 Clouds 29 1008 70 10000 2.6 130 10:58 29.10.2019
5148 Clouds 29 1008 70 10000 2.6 130 10:39 29.10.2019
5149 Clouds 29 1008 70 10000 2.6 130 10:20 29.10.2019
5150 Clouds 30 1007 66 10000 3.1 90 09:56 29.10.2019
5151 Clouds 30 1007 66 10000 3.1 90 09:37 29.10.2019
5152 Clouds 31 1007 66 10000 3.1 90 09:19 29.10.2019
5153 Clouds 31 1007 66 10000 3.1 90 09:19 29.10.2019
5154 Clouds 31 1007 66 10000 3.1 100 08:44 29.10.2019
5155 Clouds 31 1007 66 10000 3.1 100 08:24 29.10.2019
5156 Clouds 31 1008 62 10000 3.6 100 07:55 29.10.2019
5157 Clouds 31 1008 62 10000 3.6 100 07:36 29.10.2019
5158 Clouds 31 1008 62 10000 3.6 100 07:18 29.10.2019
5159 Clouds 31 1009 66 10000 5.1 80 06:42 29.10.2019
5160 Clouds 31 1009 66 10000 5.1 80 06:20 29.10.2019
5161 Clouds 31 1009 66 10000 4.1 80 05:50 29.10.2019
5162 Clouds 31 1009 66 10000 4.1 80 05:50 29.10.2019
5163 Clouds 31 1009 66 10000 4.1 80 05:19 29.10.2019
5164 Clouds 31 1010 66 10000 3.6 100 03:55 29.10.2019
5165 Clouds 29 1011 79 10000 2.1 80 02:32 29.10.2019
5166 Clouds 28 1010 83 10000 2.6 80 01:46 29.10.2019
5167 Clouds 27 1010 83 10000 2.6 80 01:18 29.10.2019
5168 Clouds 27 1009 83 10000 1.5 90 00:30 29.10.2019
5169 Clouds 27 1008 88 9000 1 0 23:42 28.10.2019
5170 Clouds 26 1008 88 9000 1 0 23:20 28.10.2019
5171 Clouds 26 1008 83 10000 1 0 22:57 28.10.2019
5172 Clouds 26 1008 83 10000 1 0 22:37 28.10.2019
5173 Clouds 26 1008 83 10000 1 0 22:18 28.10.2019
5174 Clouds 26 1007 83 10000 0.5 0 21:54 28.10.2019
5175 Clouds 26 1007 83 10000 0.5 0 21:54 28.10.2019
5176 Clouds 26 1007 83 10000 0.5 0 21:36 28.10.2019
5177 Clouds 26 1007 83 10000 0.5 0 21:18 28.10.2019
5178 Clouds 26 1008 83 10000 0.5 260 20:41 28.10.2019
5179 Clouds 26 1008 83 10000 0.5 260 20:23 28.10.2019
5180 Clouds 26 1008 83 10000 4.08 87 19:55 28.10.2019
5181 Clouds 26 1008 83 10000 4.08 87 19:37 28.10.2019
5182 Clouds 26 1008 83 10000 4.08 87 19:19 28.10.2019
5183 Clouds 26 1009 83 10000 1.5 180 18:58 28.10.2019
5184 Clouds 26 1009 83 10000 1.5 180 18:58 28.10.2019
5185 Clouds 26 1009 83 10000 1.5 180 18:38 28.10.2019
5186 Clouds 26 1009 83 10000 1.5 180 18:38 28.10.2019
5187 Clouds 26 1009 83 10000 1.5 180 18:20 28.10.2019
5188 Clouds 26 1009 83 10000 1 0 17:56 28.10.2019
5189 Clouds 26 1009 83 10000 1 0 17:38 28.10.2019
5190 Clouds 26 1009 83 10000 1 0 17:18 28.10.2019
5191 Clouds 26 1010 83 10000 1.5 100 16:55 28.10.2019
5192 Clouds 26 1010 83 10000 1.5 100 16:36 28.10.2019
5193 Clouds 27 1010 83 10000 1.5 100 16:18 28.10.2019
5194 Clouds 26 1010 83 10000 2.1 80 15:55 28.10.2019
5195 Clouds 27 1010 83 10000 2.1 80 15:37 28.10.2019
5196 Clouds 27 1010 83 10000 2.1 80 15:37 28.10.2019
5197 Clouds 27 1010 83 10000 2.1 80 15:18 28.10.2019
5198 Clouds 27 1009 83 10000 1.5 120 14:54 28.10.2019
5199 Clouds 27 1009 83 10000 1.5 120 14:36 28.10.2019
5200 Rain 27 1009 83 10000 1.5 120 14:18 28.10.2019
5201 Rain 27 1009 83 10000 2.1 110 13:41 28.10.2019
5202 Rain 27 1009 83 10000 2.1 110 13:18 28.10.2019
5203 Clouds 28 1009 74 10000 2.1 140 12:59 28.10.2019
5204 Clouds 28 1009 74 10000 2.1 140 12:40 28.10.2019
5205 Clouds 28 1009 74 10000 2.1 140 12:19 28.10.2019
5206 Clouds 28 1008 74 10000 1.5 0 11:38 28.10.2019
5207 Clouds 28 1008 74 10000 1.5 0 11:20 28.10.2019
5208 Clouds 29 1007 70 10000 1.5 140 10:42 28.10.2019
5209 Clouds 29 1007 70 10000 1.5 140 10:24 28.10.2019
5210 Clouds 29 1007 70 10000 2.6 110 09:58 28.10.2019
5211 Rain 29 1007 70 10000 2.6 110 09:39 28.10.2019
5212 Rain 28 1007 70 10000 2.6 110 09:20 28.10.2019
5213 Rain 29 1007 66 10000 4.6 100 08:57 28.10.2019
5214 Rain 29 1007 66 10000 4.6 100 08:39 28.10.2019
5215 Clouds 29 1007 66 10000 4.6 100 08:19 28.10.2019
5216 Rain 29 1007 74 10000 2.6 130 07:57 28.10.2019
5217 Rain 29 1007 74 10000 2.6 130 07:38 28.10.2019
5218 Rain 29 1007 74 10000 2.6 130 07:19 28.10.2019
5219 Rain 29 1007 74 9000 2.1 270 06:40 28.10.2019
5220 Clouds 30 1008 74 10000 3.6 0 05:53 28.10.2019
5221 Clouds 30 1009 74 10000 4.1 290 03:56 28.10.2019
5222 Clouds 30 1009 74 10000 4.1 290 03:38 28.10.2019
5223 Clouds 30 1009 79 10000 4.1 270 02:40 28.10.2019
5224 Clouds 28 1009 78 10000 1 0 00:59 28.10.2019
5225 Clouds 28 1009 78 10000 1 0 00:38 28.10.2019
5226 Clouds 27 1009 78 10000 1 0 00:19 28.10.2019
5227 Clouds 26 1008 88 10000 2.13 56 23:42 27.10.2019
5228 Clouds 26 1008 88 10000 1.99 71 23:18 27.10.2019
5229 Clouds 26 1008 88 10000 1 0 22:42 27.10.2019
5230 Clouds 26 1008 88 10000 1 0 22:23 27.10.2019
5231 Clouds 26 1008 88 10000 0.5 0 21:58 27.10.2019
5232 Clouds 26 1008 88 10000 0.5 0 21:39 27.10.2019
5233 Clouds 26 1008 88 10000 0.5 0 21:21 27.10.2019
5234 Clouds 26 1008 88 10000 1 360 20:58 27.10.2019
5235 Clouds 26 1008 88 10000 1 360 20:39 27.10.2019
5236 Clouds 26 1008 88 10000 1 360 20:21 27.10.2019
5237 Rain 25 1009 88 10000 2.1 60 19:55 27.10.2019
5238 Rain 25 1009 88 10000 2.1 60 19:36 27.10.2019
5239 Rain 25 1009 88 10000 2.1 60 19:18 27.10.2019
5240 Rain 25 1010 88 7000 3.6 90 18:55 27.10.2019
5241 Rain 25 1010 88 7000 3.6 90 18:36 27.10.2019
5242 Rain 26 1010 88 7000 3.6 90 18:18 27.10.2019
5243 Clouds 27 1010 78 10000 2.1 110 17:40 27.10.2019
5244 Clouds 28 1010 78 10000 2.1 110 17:20 27.10.2019
5245 Clouds 28 1010 78 10000 1.5 0 16:58 27.10.2019
5246 Clouds 28 1010 78 10000 1.5 0 16:58 27.10.2019
5247 Clouds 28 1010 78 10000 1.5 0 16:39 27.10.2019
5248 Clouds 28 1010 78 10000 1.5 0 16:21 27.10.2019
5249 Clouds 28 1010 78 10000 2.1 0 15:56 27.10.2019
5250 Clouds 28 1010 78 10000 2.1 0 15:38 27.10.2019
5251 Clouds 28 1010 78 10000 2.1 0 15:19 27.10.2019
5252 Clouds 28 1010 74 10000 2.6 120 14:43 27.10.2019
5253 Clouds 28 1010 74 10000 2.6 120 14:21 27.10.2019
5254 Clouds 29 1009 70 10000 2.6 110 13:58 27.10.2019
5255 Clouds 29 1009 70 10000 2.6 110 13:39 27.10.2019
5256 Clouds 29 1009 70 10000 2.6 110 13:20 27.10.2019
5257 Clouds 29 1008 62 10000 3.1 100 12:57 27.10.2019
5258 Clouds 29 1008 62 10000 3.1 100 12:38 27.10.2019
5259 Clouds 29 1008 62 10000 3.1 100 12:19 27.10.2019
5260 Clouds 30 1007 62 10000 2.6 90 11:41 27.10.2019
5261 Clouds 30 1007 62 10000 2.6 90 11:21 27.10.2019
5262 Clouds 31 1007 55 10000 3.1 100 10:45 27.10.2019
5263 Clouds 31 1007 55 10000 3.1 100 10:26 27.10.2019
5264 Rain 31 1007 52 10000 5.7 70 09:58 27.10.2019
5265 Rain 31 1007 52 10000 5.7 70 09:39 27.10.2019
5266 Rain 31 1007 52 10000 5.7 70 09:18 27.10.2019
5267 Rain 31 1007 52 10000 5.7 70 09:18 27.10.2019
5268 Clouds 32 1007 49 10000 7.7 70 08:56 27.10.2019
5269 Clouds 32 1007 49 10000 7.7 70 08:37 27.10.2019
5270 Clouds 33 1007 49 10000 7.7 70 08:18 27.10.2019
5271 Clouds 33 1007 52 10000 5.1 70 07:43 27.10.2019
5272 Clouds 33 1007 52 10000 5.1 70 07:24 27.10.2019
5273 Clouds 33 1008 52 10000 6.2 60 06:49 27.10.2019
5274 Clouds 33 1008 52 10000 6.2 60 06:26 27.10.2019
5275 Clouds 33 1009 52 10000 6.7 60 05:39 27.10.2019
5276 Clouds 32 1010 55 10000 3.1 110 04:51 27.10.2019
5277 Clouds 30 1010 70 10000 2.1 270 02:55 27.10.2019
5278 Clouds 30 1010 70 10000 2.1 270 02:55 27.10.2019
5279 Clouds 28 1010 74 10000 1 0 01:49 27.10.2019
5280 Clouds 27 1010 74 10000 1 0 01:20 27.10.2019
5281 Clouds 26 1009 83 10000 1 0 00:46 27.10.2019
5282 Clouds 26 1009 83 10000 1 0 00:22 27.10.2019
5283 Clouds 26 1009 83 10000 1 0 23:55 26.10.2019
5284 Clouds 26 1009 83 10000 1 0 23:36 26.10.2019
5285 Clouds 26 1009 83 10000 1 0 23:18 26.10.2019
5286 Clouds 26 1009 83 10000 1 0 22:40 26.10.2019
5287 Clouds 26 1009 83 10000 1 0 22:20 26.10.2019
5288 Clouds 26 1009 83 0 1 0 21:59 26.10.2019
5289 Clouds 26 1009 83 0 1 0 21:41 26.10.2019
5290 Clouds 26 1009 83 0 1 0 21:21 26.10.2019
5291 Clouds 26 1010 83 10000 1 0 20:45 26.10.2019
5292 Clouds 26 1010 83 10000 1 0 20:20 26.10.2019
5293 Clouds 27 1010 78 10000 1.5 100 19:59 26.10.2019
5294 Clouds 27 1010 78 10000 1.5 100 19:40 26.10.2019
5295 Clouds 27 1010 78 10000 1.5 100 19:20 26.10.2019
5296 Clouds 27 1011 69 10000 2.1 100 18:56 26.10.2019
5297 Clouds 28 1011 69 10000 2.1 100 18:37 26.10.2019
5298 Clouds 28 1011 69 10000 2.1 100 18:37 26.10.2019
5299 Clouds 28 1011 69 10000 2.1 100 18:18 26.10.2019
5300 Clouds 27 1011 69 10000 1.5 100 17:39 26.10.2019
5301 Clouds 27 1011 69 10000 1.5 100 17:39 26.10.2019
5302 Clouds 27 1011 69 10000 1.5 100 17:39 26.10.2019
5303 Clouds 27 1011 69 10000 1.5 100 17:21 26.10.2019
5304 Clouds 28 1011 69 10000 0.5 0 16:59 26.10.2019
5305 Clouds 28 1011 69 10000 0.5 0 16:59 26.10.2019
5306 Clouds 28 1011 69 10000 0.5 0 16:41 26.10.2019
5307 Clouds 28 1011 69 10000 0.5 0 16:41 26.10.2019
5308 Clouds 28 1011 69 10000 0.5 0 16:22 26.10.2019
5309 Clouds 28 1011 66 10000 3.1 110 15:41 26.10.2019
5310 Clouds 28 1011 66 10000 3.1 110 15:20 26.10.2019
5311 Clouds 28 1011 70 10000 2.6 120 14:41 26.10.2019
5312 Clouds 28 1011 70 10000 2.6 120 14:22 26.10.2019
5313 Clear 28 1011 65 0 4.72 88 13:59 26.10.2019
5314 Clouds 29 1010 70 10000 2.1 120 13:41 26.10.2019
5315 Clear 28 1011 65 0 4.72 88 13:21 26.10.2019
5316 Clear 30 1009 67 0 2.68 18 12:46 26.10.2019
5317 Clouds 30 1009 58 10000 2.6 110 12:23 26.10.2019
5318 Clouds 30 1009 58 10000 2.6 110 11:50 26.10.2019
5319 Clouds 30 1009 58 10000 2.6 110 11:29 26.10.2019
5320 Clouds 30 1009 58 10000 2.6 110 11:29 26.10.2019
5321 Clouds 30 1009 58 10000 2.6 110 11:29 26.10.2019
5322 Clouds 31 1009 70 10000 2.6 140 10:54 26.10.2019
5323 Clouds 30 1009 70 10000 2.6 140 10:36 26.10.2019
5324 Clouds 30 1009 70 10000 2.6 140 10:18 26.10.2019
5325 Clouds 32 1009 59 10000 3.1 140 09:41 26.10.2019
5326 Clouds 32 1009 59 10000 3.1 140 09:23 26.10.2019
5327 Clouds 31 1010 58 10000 4.1 100 08:43 26.10.2019
5328 Clouds 31 1010 58 10000 4.1 100 08:25 26.10.2019
5329 Clouds 31 1010 58 10000 4.1 50 07:47 26.10.2019
5330 Clouds 31 1010 58 10000 4.1 50 07:28 26.10.2019
5331 Clouds 33 1011 52 10000 5.1 70 06:43 26.10.2019
5332 Clouds 33 1011 52 10000 5.1 70 06:24 26.10.2019
5333 Clouds 32 1012 59 10000 3.6 90 05:19 26.10.2019
5334 Clouds 32 1012 59 10000 4.6 80 04:24 26.10.2019
5335 Clouds 29 1012 70 10000 2.1 20 02:46 26.10.2019
5336 Clouds 28 1012 74 10000 2.6 20 01:54 26.10.2019
5337 Clouds 27 1012 74 10000 2.6 20 01:22 26.10.2019
5338 Clouds 26 1011 78 10000 1 0 00:23 26.10.2019
5339 Clouds 27 1011 78 10000 1 0 23:43 25.10.2019
5340 Clouds 26 1011 78 10000 1 0 23:20 25.10.2019
5341 Clouds 27 1010 78 10000 1 0 22:40 25.10.2019
5342 Clouds 27 1010 78 10000 1 0 22:22 25.10.2019
5343 Rain 27 1011 78 8000 2.1 60 21:57 25.10.2019
5344 Rain 27 1011 78 8000 2.1 60 21:39 25.10.2019
5345 Rain 27 1011 78 8000 2.1 60 21:19 25.10.2019
5346 Clouds 27 1010 74 10000 1 0 20:55 25.10.2019
5347 Clouds 27 1010 74 10000 1 0 20:37 25.10.2019
5348 Clouds 27 1010 74 10000 1 0 20:18 25.10.2019
5349 Clouds 27 1011 74 10000 2.1 80 19:41 25.10.2019
5350 Clouds 28 1011 74 10000 2.1 80 19:23 25.10.2019
5351 Clouds 28 1012 74 10000 1 0 18:44 25.10.2019
5352 Clouds 28 1012 74 10000 1 0 18:22 25.10.2019
5353 Clouds 27 1012 78 10000 2.1 70 17:41 25.10.2019
5354 Clouds 27 1012 78 10000 2.1 70 17:21 25.10.2019
5355 Clouds 28 1012 74 10000 1.5 110 16:54 25.10.2019
5356 Clouds 28 1012 74 10000 1.5 110 16:36 25.10.2019
5357 Clouds 28 1012 74 10000 1.5 110 16:18 25.10.2019
5358 Clouds 28 1012 70 10000 2.1 130 15:40 25.10.2019
5359 Clouds 28 1012 70 10000 2.1 130 15:21 25.10.2019
5360 Clouds 29 1012 70 10000 3.1 130 14:57 25.10.2019
5361 Clouds 29 1012 70 10000 3.1 130 14:38 25.10.2019
5362 Clouds 29 1012 70 10000 3.1 130 14:20 25.10.2019
5363 Clouds 29 1011 66 10000 3.6 90 13:41 25.10.2019
5364 Clouds 29 1011 66 10000 3.6 90 13:22 25.10.2019
5365 Clouds 29 1010 66 10000 4.1 90 12:55 25.10.2019
5366 Clouds 29 1010 66 10000 4.1 90 12:37 25.10.2019
5367 Clouds 30 1010 66 10000 4.1 90 12:18 25.10.2019
5368 Clouds 31 1010 59 10000 4.6 100 11:40 25.10.2019
5369 Clouds 31 1010 59 10000 4.6 100 11:22 25.10.2019
5370 Clouds 32 1009 59 10000 3.6 100 10:42 25.10.2019
5371 Clouds 32 1009 59 10000 3.6 100 10:23 25.10.2019
5372 Clouds 32 1009 59 10000 3.6 100 09:59 25.10.2019
5373 Clouds 32 1009 59 10000 3.6 100 09:39 25.10.2019
5374 Clouds 31 1009 59 10000 3.6 100 09:20 25.10.2019
5375 Clouds 32 1010 52 10000 4.1 120 08:51 25.10.2019
5376 Clouds 32 1010 52 10000 4.1 120 08:51 25.10.2019
5377 Clouds 32 1010 52 10000 4.1 120 08:33 25.10.2019
5378 Clouds 33 1011 62 10000 2.1 0 07:57 25.10.2019
5379 Clouds 33 1011 62 10000 2.1 0 07:35 25.10.2019
5380 Clouds 33 1011 62 10000 4.1 280 06:53 25.10.2019
5381 Clouds 33 1011 62 10000 4.1 280 06:31 25.10.2019
5382 Clouds 31 1012 62 10000 3.1 290 05:40 25.10.2019
5383 Clouds 33 1013 59 10000 2.1 0 04:54 25.10.2019
5384 Clouds 32 1013 55 10000 2.6 80 03:59 25.10.2019
5385 Clouds 31 1012 62 10000 1.5 110 02:22 25.10.2019
5386 Clouds 29 1012 70 10000 1 0 01:51 25.10.2019
5387 Clouds 27 1011 78 9000 1 0 00:26 25.10.2019
5388 Clouds 27 1011 74 10000 1.5 120 23:41 24.10.2019
5389 Clouds 27 1011 74 10000 1.5 120 23:23 24.10.2019
5390 Clouds 27 1010 74 10000 1.5 60 22:56 24.10.2019
5391 Clouds 27 1010 74 10000 1.5 60 22:37 24.10.2019
5392 Clouds 27 1010 74 10000 1.5 60 22:18 24.10.2019
5393 Clouds 27 1010 78 10000 1.5 80 21:56 24.10.2019
5394 Clouds 27 1010 78 10000 1.5 80 21:38 24.10.2019
5395 Clouds 27 1010 78 10000 1.5 80 21:19 24.10.2019
5396 Clouds 27 1010 78 10000 1.5 80 21:19 24.10.2019
5397 Clouds 28 1011 74 10000 2.1 110 20:56 24.10.2019
5398 Clouds 28 1011 74 10000 2.1 110 20:38 24.10.2019
5399 Clouds 28 1011 74 10000 2.1 110 20:20 24.10.2019
5400 Clouds 28 1011 70 10000 3.1 120 19:45 24.10.2019
5401 Clouds 28 1011 70 10000 3.1 120 19:27 24.10.2019
5402 Clouds 28 1012 70 10000 3.1 120 18:59 24.10.2019
5403 Clouds 29 1012 70 10000 3.1 120 18:40 24.10.2019
5404 Clouds 29 1012 70 10000 3.1 120 18:22 24.10.2019
5405 Clouds 29 1012 70 10000 2.6 110 17:59 24.10.2019
5406 Clouds 29 1012 70 10000 2.6 110 17:39 24.10.2019
5407 Clouds 29 1012 70 10000 2.6 110 17:19 24.10.2019
5408 Clouds 29 1012 70 10000 2.6 130 16:55 24.10.2019
5409 Clouds 29 1012 70 10000 2.6 130 16:37 24.10.2019
5410 Clouds 29 1012 70 10000 2.6 130 16:18 24.10.2019
5411 Clouds 29 1012 66 10000 2.1 110 15:54 24.10.2019
5412 Clouds 29 1012 66 10000 2.1 110 15:36 24.10.2019
5413 Clouds 29 1012 66 10000 2.1 110 15:18 24.10.2019
5414 Clouds 29 1011 66 10000 2.6 120 14:44 24.10.2019
5415 Clouds 29 1011 66 10000 2.6 120 14:26 24.10.2019
5416 Clouds 29 1010 70 10000 2.6 100 13:59 24.10.2019
5417 Clouds 30 1010 70 10000 2.6 100 13:37 24.10.2019
5418 Clouds 30 1010 70 10000 2.6 100 13:18 24.10.2019
5419 Clouds 30 1010 66 10000 2.1 110 12:56 24.10.2019
5420 Clouds 30 1010 66 10000 2.1 110 12:37 24.10.2019
5421 Clouds 30 1010 66 10000 2.1 110 12:18 24.10.2019
5422 Clouds 31 1009 59 10000 2.1 110 11:55 24.10.2019
5423 Clouds 31 1009 59 10000 2.1 110 11:36 24.10.2019
5424 Clouds 32 1009 59 10000 2.1 110 11:18 24.10.2019
5425 Clouds 32 1009 62 10000 2.1 150 10:42 24.10.2019
5426 Clouds 31 1009 62 10000 2.1 150 10:23 24.10.2019
5427 Clouds 31 1009 66 10000 2.6 0 09:40 24.10.2019
5428 Clouds 31 1009 66 10000 2.6 0 09:40 24.10.2019
5429 Clouds 31 1009 66 10000 2.6 0 09:19 24.10.2019
5430 Rain 31 1009 66 10000 3.6 0 08:58 24.10.2019
5431 Rain 32 1009 66 10000 3.6 0 08:39 24.10.2019
5432 Clouds 33 1009 55 10000 4.1 140 08:20 24.10.2019
5433 Clouds 33 1009 55 10000 4.1 140 08:20 24.10.2019
5434 Clouds 33 1010 56 10000 3.1 0 07:47 24.10.2019
5435 Clouds 33 1010 56 10000 3.1 0 07:23 24.10.2019
5436 Clouds 32 1010 62 10000 1.5 0 06:53 24.10.2019
5437 Clouds 33 1010 62 10000 1.5 0 06:34 24.10.2019
5438 Clouds 33 1011 55 10000 3.1 0 05:54 24.10.2019
5439 Clouds 33 1011 55 10000 3.1 0 05:30 24.10.2019
5440 Clouds 32 1012 59 10000 3.1 0 04:22 24.10.2019
5441 Clouds 32 1012 62 10000 2.1 0 03:29 24.10.2019
5442 Clouds 30 1011 74 10000 1 0 02:35 24.10.2019
5443 Clouds 29 1011 78 10000 1 0 01:59 24.10.2019
5444 Clouds 27 1011 78 10000 1 0 01:30 24.10.2019
5445 Clouds 26 1010 88 9000 2.55 107 00:51 24.10.2019
5446 Clouds 26 1010 88 9000 2.48 99 00:23 24.10.2019
5447 Clouds 26 1010 78 10000 2.48 99 23:44 23.10.2019
5448 Clouds 26 1010 78 10000 2.48 99 23:24 23.10.2019
5449 Clouds 26 1009 78 10000 2.48 99 22:58 23.10.2019
5450 Clouds 26 1009 78 10000 2.48 99 22:39 23.10.2019
5451 Clouds 27 1009 78 10000 2.48 99 22:19 23.10.2019
5452 Clouds 27 1009 78 10000 0.5 0 21:58 23.10.2019
5453 Clouds 27 1009 78 10000 0.5 0 21:39 23.10.2019
5454 Clouds 27 1009 78 10000 0.5 0 21:20 23.10.2019
5455 Clouds 27 1010 74 10000 0.5 0 20:58 23.10.2019
5456 Clouds 27 1010 74 10000 0.5 0 20:39 23.10.2019
5457 Clouds 27 1010 74 10000 0.5 0 20:21 23.10.2019
5458 Clouds 27 1010 74 10000 1 0 19:58 23.10.2019
5459 Clouds 27 1010 74 10000 1 0 19:40 23.10.2019
5460 Clouds 27 1010 74 10000 1 0 19:19 23.10.2019
5461 Clouds 28 1010 70 10000 2.6 120 18:55 23.10.2019
5462 Clouds 28 1010 70 10000 2.6 120 18:36 23.10.2019
5463 Clouds 28 1010 70 10000 2.6 120 18:18 23.10.2019
5464 Clouds 28 1011 70 10000 2.1 120 17:44 23.10.2019
5465 Clouds 28 1011 70 10000 2.1 120 17:20 23.10.2019
5466 Clouds 28 1010 70 10000 3.1 120 16:56 23.10.2019
5467 Clouds 29 1010 70 10000 3.1 120 16:38 23.10.2019
5468 Clouds 29 1010 70 10000 3.1 120 16:19 23.10.2019
5469 Clear 29 1010 66 10000 3.6 110 15:42 23.10.2019
5470 Clouds 29 1010 66 10000 3.6 110 15:22 23.10.2019
5471 Clouds 29 1010 70 10000 3.1 140 14:58 23.10.2019
5472 Clouds 29 1010 70 10000 3.1 140 14:38 23.10.2019
5473 Clouds 29 1010 70 10000 3.1 140 14:19 23.10.2019
5474 Clouds 29 1009 66 10000 3.6 130 13:57 23.10.2019
5475 Clouds 30 1009 66 10000 3.6 130 13:39 23.10.2019
5476 Clouds 30 1008 66 10000 2.6 130 13:21 23.10.2019
5477 Clouds 30 1008 66 10000 2.6 130 12:55 23.10.2019
5478 Clouds 31 1008 66 10000 2.6 130 12:37 23.10.2019
5479 Clouds 30 1008 66 10000 2.6 130 12:18 23.10.2019
5480 Clouds 31 1007 62 10000 2.6 0 11:55 23.10.2019
5481 Clouds 31 1007 62 10000 2.6 0 11:37 23.10.2019
5482 Rain 31 1007 62 10000 2.6 0 11:19 23.10.2019
5483 Rain 31 1007 55 10000 3.6 120 10:42 23.10.2019
5484 Rain 32 1007 55 10000 3.6 120 10:24 23.10.2019
5485 Clouds 34 1006 52 10000 3.6 130 09:42 23.10.2019
5486 Clouds 34 1006 52 10000 3.6 130 09:23 23.10.2019
5487 Clouds 34 1007 49 10000 3.1 130 08:59 23.10.2019
5488 Clouds 34 1007 49 10000 3.1 130 08:41 23.10.2019
5489 Clouds 34 1007 49 10000 3.1 130 08:22 23.10.2019
5490 Clouds 33 1008 52 10000 3.6 140 07:45 23.10.2019
5491 Clouds 33 1008 52 10000 3.6 140 07:45 23.10.2019
5492 Clouds 33 1008 52 10000 3.6 140 07:21 23.10.2019
5493 Clouds 33 1009 59 10000 3.6 130 06:46 23.10.2019
5494 Clouds 33 1009 59 10000 3.6 130 06:20 23.10.2019
5495 Clouds 32 1009 59 10000 3.6 110 05:24 23.10.2019
5496 Clouds 32 1010 59 10000 3.1 120 04:34 23.10.2019
5497 Clouds 31 1010 66 10000 1.5 150 02:46 23.10.2019
5498 Clouds 30 1010 66 10000 1.5 150 02:25 23.10.2019
5499 Clouds 28 1009 74 10000 1 0 01:26 23.10.2019
5500 Clouds 27 1008 69 9000 0.5 0 00:38 23.10.2019
5501 Clouds 27 1008 69 9000 0.5 0 00:38 23.10.2019
5502 Clouds 26 1008 69 9000 0.5 0 00:19 23.10.2019
5503 Clouds 26 1008 74 10000 0.5 0 23:39 22.10.2019
5504 Clouds 26 1008 74 10000 0.5 0 23:18 22.10.2019
5505 Clouds 26 1008 74 10000 0.5 0 23:18 22.10.2019
5506 Clouds 26 1008 78 10000 0.5 0 22:55 22.10.2019
5507 Clouds 26 1008 78 10000 0.5 0 22:37 22.10.2019
5508 Clouds 27 1008 78 10000 0.5 0 22:19 22.10.2019
5509 Clouds 27 1008 74 10000 0.5 0 21:56 22.10.2019
5510 Clouds 27 1008 74 10000 0.5 0 21:36 22.10.2019
5511 Clouds 27 1008 74 10000 0.5 0 21:36 22.10.2019
5512 Clouds 27 1008 74 10000 0.5 0 21:18 22.10.2019
5513 Clouds 27 1008 78 10000 0.5 0 20:42 22.10.2019
5514 Clouds 27 1008 78 10000 0.5 0 20:24 22.10.2019
5515 Clouds 27 1008 69 10000 2.1 120 19:59 22.10.2019
5516 Clouds 27 1008 69 10000 2.1 120 19:41 22.10.2019
5517 Clouds 27 1008 69 10000 2.1 120 19:23 22.10.2019
5518 Clouds 28 1009 66 10000 2.6 100 18:57 22.10.2019
5519 Clouds 28 1009 66 10000 2.6 100 18:39 22.10.2019
5520 Clouds 28 1009 66 10000 2.6 100 18:20 22.10.2019
5521 Clouds 28 1009 66 10000 2.6 120 17:56 22.10.2019
5522 Clouds 29 1009 66 10000 2.6 120 17:37 22.10.2019
5523 Clouds 29 1009 66 10000 2.6 120 17:19 22.10.2019
5524 Clouds 29 1009 66 10000 2.6 130 16:56 22.10.2019
5525 Clouds 29 1009 66 10000 2.6 130 16:37 22.10.2019
5526 Clouds 29 1009 66 10000 2.6 130 16:18 22.10.2019
5527 Clouds 29 1009 66 10000 3.1 120 15:42 22.10.2019
5528 Clouds 29 1009 66 10000 3.1 120 15:20 22.10.2019
5529 Clouds 29 1009 62 10000 2.6 120 14:50 22.10.2019
5530 Clouds 30 1009 62 10000 2.6 120 14:22 22.10.2019
5531 Clouds 30 1008 62 0 3.6 120 13:59 22.10.2019
5532 Clouds 30 1008 62 0 3.6 120 13:41 22.10.2019
5533 Clouds 30 1007 62 10000 2.6 120 13:19 22.10.2019
5534 Clouds 30 1007 62 10000 2.6 120 12:55 22.10.2019
5535 Clouds 30 1007 62 10000 2.6 120 12:37 22.10.2019
5536 Clouds 30 1007 62 10000 2.6 120 12:19 22.10.2019
5537 Clouds 31 1006 59 10000 2.1 110 11:40 22.10.2019
5538 Clouds 31 1006 59 10000 2.1 110 11:22 22.10.2019
5539 Clouds 32 1006 55 10000 3.6 60 10:59 22.10.2019
5540 Clouds 32 1006 55 10000 3.6 60 10:38 22.10.2019
5541 Clouds 32 1006 55 10000 3.6 60 10:19 22.10.2019
5542 Clouds 32 1006 59 10000 3.6 90 09:57 22.10.2019
5543 Clouds 32 1006 59 10000 3.6 90 09:39 22.10.2019
5544 Clouds 32 1006 59 10000 3.6 90 09:39 22.10.2019
5545 Clouds 32 1007 55 10000 6.2 140 09:21 22.10.2019
5546 Clouds 32 1007 55 10000 6.2 140 08:43 22.10.2019
5547 Clouds 32 1007 55 10000 6.2 140 08:22 22.10.2019
5548 Clouds 33 1007 52 10000 2.1 0 07:57 22.10.2019
5549 Clouds 33 1007 52 10000 2.1 0 07:57 22.10.2019
5550 Clouds 33 1007 52 10000 2.1 0 07:39 22.10.2019
5551 Clouds 33 1007 52 10000 2.1 0 07:20 22.10.2019
5552 Clouds 33 1008 66 9000 2.1 320 06:37 22.10.2019
5553 Clouds 33 1008 66 9000 2.1 320 06:19 22.10.2019
5554 Clouds 33 1009 55 10000 2.6 120 05:27 22.10.2019
5555 Clouds 32 1010 62 10000 2.1 0 03:53 22.10.2019
5556 Clouds 30 1009 66 10000 2.6 80 02:29 22.10.2019
5557 Clouds 28 1008 83 9000 2.05 104 01:36 22.10.2019
5558 Clouds 27 1008 83 9000 2.05 104 01:18 22.10.2019
5559 Clouds 27 1008 83 9000 2.05 104 00:41 22.10.2019
5560 Clouds 26 1008 83 9000 1.99 83 00:22 22.10.2019
5561 Clouds 27 1008 78 10000 1.5 0 23:58 21.10.2019
5562 Clouds 26 1008 78 10000 1.5 0 23:37 21.10.2019
5563 Clouds 26 1008 78 10000 1.5 0 23:19 21.10.2019
5564 Clouds 26 1008 78 10000 1.5 110 22:57 21.10.2019
5565 Clouds 26 1008 78 10000 1.5 110 22:38 21.10.2019
5566 Clouds 27 1008 78 10000 1.5 110 22:19 21.10.2019
5567 Clouds 26 1008 83 10000 1.5 70 21:56 21.10.2019
5568 Clouds 26 1008 83 10000 1.5 70 21:37 21.10.2019
5569 Clouds 26 1008 83 10000 1.5 70 21:19 21.10.2019
5570 Clouds 27 1008 74 10000 2.1 100 20:56 21.10.2019
5571 Clouds 27 1008 74 10000 2.1 100 20:37 21.10.2019
5572 Clouds 27 1008 74 10000 2.1 100 20:19 21.10.2019
5573 Clouds 28 1009 74 10000 2.6 110 19:41 21.10.2019
5574 Clouds 28 1009 74 10000 2.6 110 19:23 21.10.2019
5575 Clouds 28 1009 78 10000 2.6 120 18:57 21.10.2019
5576 Clouds 28 1009 78 10000 2.6 120 18:39 21.10.2019
5577 Clouds 28 1009 78 10000 2.6 120 18:39 21.10.2019
5578 Clouds 28 1009 78 10000 2.6 120 18:19 21.10.2019
5579 Clouds 28 1009 78 10000 2.6 120 18:19 21.10.2019
5580 Clouds 28 1009 74 10000 3.1 130 17:59 21.10.2019
5581 Clouds 28 1009 74 10000 3.1 130 17:38 21.10.2019
5582 Clouds 28 1009 74 10000 3.1 130 17:19 21.10.2019
5583 Clouds 28 1010 70 10000 2.6 120 16:57 21.10.2019
5584 Clouds 28 1010 70 10000 2.6 120 16:39 21.10.2019
5585 Clouds 28 1010 70 10000 2.6 120 16:20 21.10.2019
5586 Clouds 29 1010 74 10000 4.1 130 15:47 21.10.2019
5587 Clouds 29 1010 74 10000 4.1 130 15:27 21.10.2019
5588 Clouds 29 1009 70 10000 3.1 120 14:58 21.10.2019
5589 Clouds 29 1009 70 10000 3.1 120 14:39 21.10.2019
5590 Clouds 29 1009 70 10000 3.1 120 14:21 21.10.2019
5591 Clouds 29 1008 66 10000 3.6 120 13:57 21.10.2019
5592 Clouds 29 1008 66 10000 3.6 120 13:39 21.10.2019
5593 Clouds 29 1008 66 10000 3.6 120 13:19 21.10.2019
5594 Clouds 30 1008 62 10000 3.1 110 12:42 21.10.2019
5595 Clouds 30 1008 62 10000 3.1 110 12:22 21.10.2019
5596 Clouds 30 1008 62 10000 3.1 110 12:22 21.10.2019
5597 Clouds 31 1007 62 10000 2.6 130 11:57 21.10.2019
5598 Clouds 31 1007 62 10000 2.6 130 11:39 21.10.2019
5599 Clouds 31 1007 62 10000 2.6 130 11:20 21.10.2019
5600 Clouds 31 1007 62 10000 2.6 130 11:20 21.10.2019
5601 Clouds 31 1007 70 10000 1.5 0 10:57 21.10.2019
5602 Clouds 31 1007 70 10000 1.5 0 10:38 21.10.2019
5603 Clouds 31 1007 70 10000 1.5 0 10:19 21.10.2019
5604 Rain 32 1007 59 10000 2.6 0 09:46 21.10.2019
5605 Rain 31 1007 59 10000 2.6 0 09:26 21.10.2019
5606 Rain 30 1007 62 10000 2.6 150 08:57 21.10.2019
5607 Rain 31 1007 62 10000 2.6 150 08:37 21.10.2019
5608 -273 0 0 0 0 0 08:19 21.10.2019
5609 Clouds 33 1008 62 10000 2.1 30 07:39 21.10.2019
5610 Clouds 33 1008 62 10000 2.1 30 07:21 21.10.2019
5611 Clouds 33 1009 66 10000 3.6 330 06:56 21.10.2019
5612 Clouds 32 1009 66 10000 3.6 330 06:36 21.10.2019
5613 Clouds 32 1009 66 10000 3.6 330 06:36 21.10.2019
5614 Clouds 32 1010 70 10000 3.1 270 05:56 21.10.2019
5615 Clouds 32 1010 70 10000 3.1 270 05:56 21.10.2019
5616 Clouds 31 1011 70 10000 3.1 300 04:45 21.10.2019
5617 Clouds 31 1011 62 10000 2.6 40 03:37 21.10.2019
5618 Clouds 30 1011 70 10000 1 0 02:24 21.10.2019
5619 Clouds 29 1011 78 9000 1 0 01:59 21.10.2019
5620 Clouds 28 1011 78 9000 1 0 01:23 21.10.2019
5621 Clouds 27 1010 83 9000 1 120 00:47 21.10.2019
5622 Clouds 27 1010 83 9000 1 120 00:25 21.10.2019
5623 Clouds 26 1009 83 10000 0.5 0 23:42 20.10.2019
5624 Clouds 26 1009 83 10000 0.5 0 23:22 20.10.2019
5625 Clouds 27 1009 83 10000 0.5 10 22:56 20.10.2019
5626 Clouds 27 1009 83 10000 0.5 10 22:37 20.10.2019
5627 Clouds 27 1009 83 10000 0.5 10 22:18 20.10.2019
5628 Clouds 26 1009 83 10000 3.12 59.565 21:57 20.10.2019
5629 Clouds 26 1009 83 10000 3.12 59.565 21:38 20.10.2019
5630 Clouds 27 1009 83 10000 2.75 68.837 21:20 20.10.2019
5631 Clouds 27 1010 78 10000 3.02 62.348 20:41 20.10.2019
5632 Clouds 27 1010 78 10000 3.02 62.348 20:19 20.10.2019
5633 Clouds 27 1010 78 10000 3.02 62.348 20:19 20.10.2019
5634 Clouds 27 1010 83 10000 1 0 19:56 20.10.2019
5635 Clouds 27 1010 83 10000 1 0 19:38 20.10.2019
5636 Clouds 27 1010 83 10000 1 0 19:20 20.10.2019
5637 Clouds 28 1011 78 10000 1.5 130 18:55 20.10.2019
5638 Clouds 28 1011 78 10000 1.5 130 18:55 20.10.2019
5639 Clouds 28 1011 78 10000 1.5 130 18:55 20.10.2019
5640 Clouds 28 1011 78 10000 1.5 130 18:36 20.10.2019
5641 Clouds 28 1011 78 10000 1.5 130 18:18 20.10.2019
5642 Clouds 28 1011 74 10000 2.6 0 17:42 20.10.2019
5643 Clouds 28 1011 74 10000 2.6 0 17:23 20.10.2019
5644 Clouds 28 1011 70 10000 3.1 110 16:57 20.10.2019
5645 Clouds 28 1011 70 10000 3.1 110 16:39 20.10.2019
5646 Clouds 28 1011 70 10000 3.1 110 16:39 20.10.2019
5647 Clouds 28 1011 70 10000 3.1 110 16:21 20.10.2019
5648 Clouds 28 1011 70 10000 3.1 110 16:21 20.10.2019
5649 Clouds 28 1011 70 10000 3.1 120 15:55 20.10.2019
5650 Clouds 29 1011 70 10000 3.1 120 15:37 20.10.2019
5651 Clouds 29 1011 70 10000 3.1 120 15:18 20.10.2019
5652 Clouds 29 1011 70 10000 3.1 120 14:55 20.10.2019
5653 Clouds 29 1011 70 10000 3.1 120 14:37 20.10.2019
5654 Clouds 29 1011 70 10000 3.1 120 14:18 20.10.2019
5655 Clouds 29 1010 70 10000 3.1 130 13:54 20.10.2019
5656 Clouds 29 1010 70 10000 3.1 130 13:54 20.10.2019
5657 Clouds 29 1010 70 10000 3.1 130 13:54 20.10.2019
5658 Clouds 29 1010 70 10000 3.1 130 13:54 20.10.2019
5659 Clouds 29 1010 70 10000 3.1 130 13:36 20.10.2019
5660 Clouds 29 1010 70 10000 3.1 130 13:18 20.10.2019
5661 Clouds 29 1010 70 10000 3.1 130 13:18 20.10.2019
5662 Clouds 29 1010 66 10000 2.6 110 12:54 20.10.2019
5663 Clouds 29 1010 66 10000 2.6 110 12:54 20.10.2019
5664 Clouds 29 1010 66 10000 2.6 110 12:36 20.10.2019
5665 Clouds 29 1010 66 10000 2.6 110 12:18 20.10.2019
5666 Clouds 30 1009 62 10000 5.1 80 11:40 20.10.2019
5667 Rain 30 1009 70 10000 2.6 0 11:22 20.10.2019
5668 Rain 31 1009 70 10000 2.6 0 10:58 20.10.2019
5669 Rain 31 1009 70 10000 2.6 0 10:39 20.10.2019
5670 Rain 31 1009 70 10000 2.6 0 10:39 20.10.2019
5671 Rain 31 1009 70 10000 2.6 0 10:39 20.10.2019
5672 Rain 31 1009 70 10000 2.6 0 10:20 20.10.2019
5673 Clouds 30 1009 74 10000 3.1 140 09:55 20.10.2019
5674 Clouds 30 1009 74 10000 3.1 140 09:37 20.10.2019
5675 Clouds 30 1009 74 10000 3.1 140 09:18 20.10.2019
5676 Clouds 30 1009 74 10000 3.1 140 09:18 20.10.2019
5677 Clouds 31 1008 52 10000 3.6 60 08:39 20.10.2019
5678 Clouds 31 1008 52 10000 3.6 60 08:20 20.10.2019
5679 Clouds 31 1010 62 10000 3.6 160 07:47 20.10.2019
5680 Clouds 31 1010 62 10000 3.6 160 07:26 20.10.2019
5681 Clouds 32 1011 66 10000 4.1 150 06:30 20.10.2019
5682 Clouds 31 1013 74 10000 3.1 140 04:29 20.10.2019
5683 Clouds 30 1013 79 10000 2.1 0 03:50 20.10.2019
5684 Clouds 29 1013 79 10000 2.1 0 03:22 20.10.2019
5685 Clouds 28 1013 83 10000 2.1 0 02:48 20.10.2019
5686 Clouds 28 1013 83 10000 2.1 0 02:22 20.10.2019
5687 Clouds 27 1012 83 10000 2.1 0 01:47 20.10.2019
5688 Clouds 27 1012 83 10000 2.1 0 01:20 20.10.2019
5689 Clouds 27 1012 88 10000 1 0 00:47 20.10.2019
5690 Clouds 27 1012 88 10000 1 0 00:47 20.10.2019
5691 Clouds 27 1012 88 10000 1 0 00:20 20.10.2019
5692 Clouds 27 1011 78 10000 1 0 23:44 19.10.2019
5693 Clouds 27 1011 78 10000 1 0 23:24 19.10.2019
5694 Clouds 27 1010 78 10000 0.5 0 22:58 19.10.2019
5695 Clouds 27 1010 78 10000 0.5 0 22:40 19.10.2019
5696 Clouds 27 1010 78 10000 0.5 0 22:20 19.10.2019
5697 Clouds 27 1011 78 10000 1 0 21:46 19.10.2019
5698 Clouds 27 1011 78 10000 1 0 21:25 19.10.2019
5699 Clouds 27 1011 78 10000 0.5 0 20:57 19.10.2019
5700 Clouds 27 1011 78 10000 0.5 0 20:57 19.10.2019
5701 Clouds 27 1011 78 10000 0.5 0 20:39 19.10.2019
5702 Clouds 27 1011 78 10000 0.5 0 20:20 19.10.2019
5703 Clouds 27 1011 78 10000 1 0 19:41 19.10.2019
5704 Clouds 28 1011 78 10000 1 0 19:23 19.10.2019
5705 Clouds 28 1012 78 10000 2.6 70 18:54 19.10.2019
5706 Clouds 28 1012 78 10000 2.6 70 18:36 19.10.2019
5707 Clouds 28 1012 78 10000 2.6 70 18:18 19.10.2019
5708 Clouds 28 1012 78 10000 2.6 70 18:18 19.10.2019
5709 Clouds 28 1012 78 10000 2.6 70 18:18 19.10.2019
5710 Clouds 28 1012 74 10000 3.1 110 17:40 19.10.2019
5711 Clouds 29 1012 74 10000 3.1 110 17:21 19.10.2019
5712 Clouds 29 1012 74 10000 2.6 130 16:54 19.10.2019
5713 Clouds 29 1012 74 10000 2.6 130 16:36 19.10.2019
5714 Clouds 29 1012 74 10000 2.6 130 16:18 19.10.2019
5715 Clouds 29 1012 74 10000 2.6 120 15:40 19.10.2019
5716 Clouds 29 1012 74 10000 2.6 120 15:40 19.10.2019
5717 Clouds 29 1012 74 10000 2.6 120 15:22 19.10.2019
5718 Clouds 29 1011 74 10000 2.6 110 14:38 19.10.2019
5719 Clouds 29 1011 74 10000 2.6 110 14:20 19.10.2019
5720 Clouds 29 1011 79 10000 1.5 180 13:56 19.10.2019
5721 Clouds 29 1011 79 10000 1.5 180 13:38 19.10.2019
5722 Clouds 29 1011 79 10000 1.5 180 13:18 19.10.2019
5723 Clouds 29 1010 74 10000 1 0 12:41 19.10.2019
5724 Clouds 29 1010 74 10000 1 0 12:22 19.10.2019
5725 Clouds 30 1010 74 10000 3.1 0 11:59 19.10.2019
5726 Clouds 30 1010 74 10000 3.1 0 11:40 19.10.2019
5727 Clouds 30 1010 74 10000 3.1 0 11:22 19.10.2019
5728 Clouds 31 1009 66 10000 3.1 0 10:42 19.10.2019
5729 Clouds 31 1009 66 10000 3.1 0 10:23 19.10.2019
5730 Clouds 32 1009 66 10000 2.1 170 10:00 19.10.2019
5731 Clouds 32 1009 66 10000 2.1 170 09:41 19.10.2019
5732 Clouds 32 1009 66 10000 2.1 170 09:23 19.10.2019
5733 Clouds 31 1010 79 10000 0.5 0 08:57 19.10.2019
5734 Clouds 30 1010 79 10000 0.5 0 08:39 19.10.2019
5735 -273 0 0 0 0 0 08:39 19.10.2019
5736 Clouds 30 1010 79 10000 0.5 0 08:19 19.10.2019
5737 Rain 31 1010 74 8000 1 0 07:42 19.10.2019
5738 Rain 30 1010 74 8000 1 0 07:23 19.10.2019
5739 Clouds 31 1011 70 10000 2.1 310 06:39 19.10.2019
5740 Clouds 31 1012 74 10000 2.1 280 05:51 19.10.2019
5741 Clouds 31 1013 62 10000 2.6 0 04:54 19.10.2019
5742 Clouds 31 1012 66 10000 1 0 03:22 19.10.2019
5743 Clouds 29 1012 74 10000 1 0 02:34 19.10.2019
5744 Clouds 29 1012 74 10000 1 0 01:50 19.10.2019
5745 Clouds 27 1011 78 9000 1 0 00:57 19.10.2019
5746 Clouds 27 1011 78 9000 1 0 00:37 19.10.2019
5747 Clouds 26 1011 78 9000 1 0 00:19 19.10.2019
5748 Clouds 26 1010 78 10000 0.5 0 23:38 18.10.2019
5749 Clouds 27 1010 78 10000 0.5 0 23:20 18.10.2019
5750 Clouds 27 1010 83 10000 1.5 110 22:55 18.10.2019
5751 Clouds 27 1010 83 10000 1.5 110 22:36 18.10.2019
5752 Clouds 27 1010 83 10000 1.5 110 22:18 18.10.2019
5753 Clouds 27 1010 78 10000 0.5 0 21:55 18.10.2019
5754 Clouds 27 1010 78 10000 0.5 0 21:36 18.10.2019
5755 Clouds 27 1010 78 10000 0.5 0 21:18 18.10.2019
5756 Clouds 27 1010 78 10000 0.5 0 21:18 18.10.2019
5757 Clouds 27 1011 83 10000 1 0 20:43 18.10.2019
5758 Clouds 27 1011 83 10000 1 0 20:22 18.10.2019
5759 Clouds 28 1011 78 10000 2.1 110 19:58 18.10.2019
5760 Clouds 28 1011 78 10000 2.1 110 19:40 18.10.2019
5761 Clouds 28 1011 78 10000 2.1 110 19:22 18.10.2019
5762 Clouds 28 1011 74 10000 2.6 110 18:58 18.10.2019
5763 Clouds 28 1011 74 10000 2.6 110 18:40 18.10.2019
5764 Clouds 28 1011 74 10000 2.6 110 18:22 18.10.2019
5765 Clouds 28 1012 74 10000 2.1 130 17:55 18.10.2019
5766 Clouds 29 1012 74 10000 2.1 130 17:36 18.10.2019
5767 Clouds 29 1012 74 10000 2.1 130 17:18 18.10.2019
5768 Clouds 29 1012 74 10000 2.6 140 16:39 18.10.2019
5769 Clouds 29 1012 74 10000 2.6 140 16:20 18.10.2019
5770 Clouds 29 1011 74 10000 3.6 120 15:57 18.10.2019
5771 Clouds 29 1011 74 10000 3.6 120 15:37 18.10.2019
5772 Clouds 29 1011 74 10000 3.6 120 15:19 18.10.2019
5773 Clouds 29 1011 70 10000 3.1 110 14:56 18.10.2019
5774 Clouds 29 1011 70 10000 3.1 110 14:38 18.10.2019
5775 Clouds 29 1011 70 10000 3.1 110 14:18 18.10.2019
5776 Clouds 30 1010 66 10000 4.1 120 13:45 18.10.2019
5777 Clouds 30 1010 66 10000 4.1 120 13:45 18.10.2019
5778 Clouds 30 1010 66 10000 4.1 120 13:26 18.10.2019
5779 Clouds 30 1009 62 10000 2.6 130 12:59 18.10.2019
5780 Clouds 31 1009 62 10000 2.6 130 12:40 18.10.2019
5781 Clouds 31 1009 62 10000 2.6 130 12:22 18.10.2019
5782 Clouds 31 1009 59 10000 2.6 140 11:57 18.10.2019
5783 Clouds 31 1009 59 10000 2.6 140 11:39 18.10.2019
5784 Clouds 31 1009 59 10000 2.6 140 11:20 18.10.2019
5785 Clouds 32 1009 55 10000 1.5 0 10:56 18.10.2019
5786 Clouds 32 1009 55 10000 1.5 0 10:38 18.10.2019
5787 Clouds 33 1009 55 10000 1.5 0 10:19 18.10.2019
5788 Clouds 33 1009 62 10000 2.1 0 09:55 18.10.2019
5789 Clouds 33 1009 62 10000 2.1 0 09:37 18.10.2019
5790 Clouds 32 1009 62 10000 2.1 0 09:18 18.10.2019
5791 Clouds 33 1009 62 10000 3.6 300 08:42 18.10.2019
5792 Clouds 33 1009 62 10000 3.6 300 08:23 18.10.2019
5793 Clouds 32 1010 62 9000 4.1 300 07:48 18.10.2019
5794 Clouds 32 1010 62 9000 4.1 300 07:29 18.10.2019
5795 Clouds 33 1011 70 9000 4.1 290 06:41 18.10.2019
5796 Clouds 32 1011 70 9000 4.1 290 06:23 18.10.2019
5797 Clouds 32 1011 70 10000 2.6 270 05:59 18.10.2019
5798 Clouds 32 1011 70 10000 2.6 270 05:24 18.10.2019
5799 Clouds 31 1012 66 10000 1.5 0 04:49 18.10.2019
5800 Clouds 31 1012 74 10000 2.1 260 03:34 18.10.2019
5801 Clouds 30 1012 79 10000 1 0 02:37 18.10.2019
5802 Clouds 29 1012 79 10000 1 0 02:18 18.10.2019
5803 Clouds 28 1012 74 10000 0.5 0 01:31 18.10.2019
5804 Clouds 27 1011 78 10000 1.5 360 00:46 18.10.2019
5805 Clouds 27 1011 78 10000 1.5 360 00:46 18.10.2019
5806 Clouds 26 1011 78 10000 1.5 360 00:21 18.10.2019
5807 Clouds 26 1010 78 10000 2.6 30 23:59 17.10.2019
5808 Clouds 26 1010 78 10000 2.6 30 23:38 17.10.2019
5809 Clouds 26 1010 78 10000 2.6 30 23:19 17.10.2019
5810 Clouds 26 1010 78 10000 2.1 30 22:55 17.10.2019
5811 Clouds 26 1010 78 10000 2.1 30 22:37 17.10.2019
5812 Clouds 27 1010 78 10000 2.1 30 22:18 17.10.2019
5813 Clouds 27 1010 78 10000 0.5 0 21:56 17.10.2019
5814 Clouds 27 1010 78 10000 0.5 0 21:37 17.10.2019
5815 Clouds 27 1010 78 10000 0.5 0 21:19 17.10.2019
5816 Clouds 27 1010 83 10000 3.24 31.752 20:56 17.10.2019
5817 Clouds 27 1010 83 10000 3.24 31.752 20:38 17.10.2019
5818 Clouds 27 1010 83 10000 3.24 31.752 20:18 17.10.2019
5819 Clouds 27 1011 83 10000 1 0 19:42 17.10.2019
5820 Clouds 27 1011 83 10000 1 0 19:21 17.10.2019
5821 Clouds 28 1011 74 10000 2.1 120 18:59 17.10.2019
5822 Clouds 28 1011 74 10000 2.1 120 18:39 17.10.2019
5823 Clouds 28 1011 74 10000 2.1 120 18:21 17.10.2019
5824 Clouds 28 1011 74 10000 2.6 140 17:55 17.10.2019
5825 Clouds 28 1011 74 10000 2.6 140 17:55 17.10.2019
5826 Clouds 28 1011 74 10000 2.6 140 17:36 17.10.2019
5827 Clouds 28 1011 74 10000 2.6 140 17:18 17.10.2019
5828 Clouds 28 1011 83 10000 2.1 140 16:41 17.10.2019
5829 Clouds 28 1011 83 10000 2.1 140 16:19 17.10.2019
5830 Clouds 28 1011 83 10000 2.1 140 16:19 17.10.2019
5831 Clouds 29 1011 70 10000 2.6 130 15:59 17.10.2019
5832 Clouds 29 1011 70 10000 2.6 130 15:40 17.10.2019
5833 Clouds 29 1011 70 10000 2.6 130 15:20 17.10.2019
5834 Clouds 29 1011 70 10000 3.1 120 14:57 17.10.2019
5835 Clouds 29 1011 70 10000 3.1 120 14:38 17.10.2019
5836 Clouds 29 1011 70 10000 3.1 120 14:20 17.10.2019
5837 Clouds 29 1010 62 10000 3.1 120 13:41 17.10.2019
5838 Clouds 30 1010 62 10000 3.1 120 13:21 17.10.2019
5839 Clouds 30 1009 55 10000 2.6 80 12:58 17.10.2019
5840 Clouds 30 1009 55 10000 2.6 80 12:39 17.10.2019
5841 Clouds 31 1009 55 10000 2.6 80 12:19 17.10.2019
5842 Clouds 31 1009 59 10000 2.1 320 11:56 17.10.2019
5843 Clouds 31 1009 59 10000 2.1 320 11:37 17.10.2019
5844 Clouds 32 1009 59 10000 2.1 320 11:18 17.10.2019
5845 Clouds 32 1009 59 10000 2.1 260 10:42 17.10.2019
5846 Clouds 32 1009 59 10000 2.1 260 10:20 17.10.2019
5847 Clouds 32 1008 55 10000 1.5 0 09:57 17.10.2019
5848 Clouds 32 1008 55 10000 1.5 0 09:57 17.10.2019
5849 Clouds 32 1008 55 10000 1.5 0 09:38 17.10.2019
5850 Clouds 32 1008 55 10000 1.5 0 09:20 17.10.2019
5851 Clouds 32 1009 55 10000 2.6 0 08:56 17.10.2019
5852 Clouds 33 1009 55 10000 2.6 0 08:37 17.10.2019
5853 Clouds 33 1009 55 10000 2.6 0 08:18 17.10.2019
5854 Clouds 32 1009 62 10000 2.1 310 07:41 17.10.2019
5855 Clouds 32 1009 62 10000 2.1 310 07:21 17.10.2019
5856 Clouds 33 1010 62 10000 3.1 290 06:55 17.10.2019
5857 Clouds 32 1010 62 10000 3.1 290 06:37 17.10.2019
5858 Clouds 32 1010 62 10000 3.1 290 06:18 17.10.2019
5859 Clouds 32 1011 66 10000 3.6 300 05:40 17.10.2019
5860 Clouds 31 1011 66 10000 3.6 300 05:19 17.10.2019
5861 Clouds 32 1012 55 10000 2.1 0 04:48 17.10.2019
5862 Clouds 31 1012 66 10000 2.6 0 03:46 17.10.2019
5863 Clouds 29 1011 74 10000 0.5 0 01:57 17.10.2019
5864 Clouds 26 1011 78 10000 0.5 0 00:42 17.10.2019
5865 Clouds 26 1011 78 10000 0.5 0 00:21 17.10.2019
5866 Clouds 26 1010 78 10000 1.994 27 23:59 16.10.2019
5867 Clouds 26 1010 78 10000 1.994 27 23:40 16.10.2019
5868 Clouds 26 1010 78 10000 1.994 27 23:18 16.10.2019
5869 Clouds 26 1010 78 10000 1.994 27 22:54 16.10.2019
5870 Clouds 26 1010 78 10000 1.994 27 22:36 16.10.2019
5871 Clouds 26 1010 78 10000 1.994 27 22:18 16.10.2019
5872 Clouds 27 1010 74 10000 1 0 21:54 16.10.2019
5873 Clouds 27 1010 74 10000 1 0 21:36 16.10.2019
5874 Clouds 27 1010 74 10000 1 0 21:18 16.10.2019
5875 Clouds 27 1010 78 10000 1 0 20:56 16.10.2019
5876 Clouds 27 1010 78 10000 1 0 20:37 16.10.2019
5877 Clouds 27 1010 78 10000 1 0 20:37 16.10.2019
5878 Clouds 27 1010 78 10000 1 0 20:37 16.10.2019
5879 Clouds 27 1010 78 10000 1 0 20:19 16.10.2019
5880 Clouds 27 1011 78 10000 1.5 100 19:40 16.10.2019
5881 Clouds 27 1011 78 10000 1.5 100 19:40 16.10.2019
5882 Clouds 27 1011 78 10000 1.5 100 19:40 16.10.2019
5883 Clouds 27 1011 78 10000 1.5 100 19:21 16.10.2019
5884 Clouds 27 1011 83 10000 1.5 90 18:58 16.10.2019
5885 Clouds 27 1011 83 10000 1.5 90 18:58 16.10.2019
5886 Clouds 28 1011 83 10000 1.5 90 18:38 16.10.2019
5887 Clouds 28 1011 83 10000 1.5 90 18:18 16.10.2019
5888 Clouds 28 1011 74 10000 2.6 100 17:56 16.10.2019
5889 Clouds 28 1011 74 10000 2.6 100 17:37 16.10.2019
5890 Clouds 28 1011 74 10000 2.6 100 17:19 16.10.2019
5891 Clouds 28 1011 70 10000 3.6 110 16:56 16.10.2019
5892 Clouds 28 1011 70 10000 3.6 110 16:38 16.10.2019
5893 Clouds 29 1011 70 10000 3.6 110 16:19 16.10.2019
5894 Clouds 29 1011 66 10000 3.1 120 15:41 16.10.2019
5895 Clouds 29 1011 66 10000 3.1 120 15:41 16.10.2019
5896 Clouds 29 1011 70 10000 2.6 120 15:19 16.10.2019
5897 Clouds 29 1011 70 10000 2.6 120 14:59 16.10.2019
5898 Clouds 29 1011 70 10000 2.6 120 14:40 16.10.2019
5899 -273 0 0 0 0 0 14:21 16.10.2019
5900 Clouds 29 1010 70 10000 3.1 120 13:58 16.10.2019
5901 Clouds 29 1010 70 10000 3.1 120 13:58 16.10.2019
5902 Clouds 29 1010 70 10000 3.1 120 13:40 16.10.2019
5903 Clouds 29 1010 70 10000 3.1 120 13:22 16.10.2019
5904 Clouds 29 1009 74 10000 1.5 0 12:44 16.10.2019
5905 Clouds 29 1009 74 10000 1.5 0 12:20 16.10.2019
5906 Clouds 30 1009 70 10000 2.6 0 11:55 16.10.2019
5907 Clouds 30 1009 70 10000 2.6 0 11:37 16.10.2019
5908 Clouds 30 1009 70 10000 2.6 0 11:18 16.10.2019
5909 Clouds 31 1008 59 10000 3.6 120 10:37 16.10.2019
5910 Clouds 32 1008 59 10000 3.6 120 10:18 16.10.2019
5911 Clouds 32 1009 66 10000 2.1 140 09:41 16.10.2019
5912 Clouds 32 1009 66 10000 2.1 140 09:40 16.10.2019
5913 Clouds 32 1009 66 10000 2.1 140 09:40 16.10.2019
5914 Clouds 32 1009 66 10000 2.1 140 09:22 16.10.2019
5915 Clouds 32 1009 55 10000 3.1 110 08:57 16.10.2019
5916 Clouds 32 1009 55 10000 3.1 110 08:38 16.10.2019
5917 Clouds 33 1009 55 10000 3.1 110 08:20 16.10.2019
5918 Clouds 32 1010 55 10000 4.1 70 07:42 16.10.2019
5919 Clouds 32 1010 55 10000 4.1 70 07:23 16.10.2019
5920 Clouds 32 1011 62 10000 3.6 70 06:48 16.10.2019
5921 Clouds 32 1011 62 10000 3.6 70 06:29 16.10.2019
5922 Clouds 30 1012 66 10000 1.5 0 04:31 16.10.2019
5923 Clouds 29 1012 74 10000 2.1 260 02:51 16.10.2019
5924 Clouds 28 1012 74 10000 2.1 190 01:21 16.10.2019
5925 Clouds 27 1011 74 10000 1 0 00:59 16.10.2019
5926 Clouds 27 1011 74 10000 1 0 00:40 16.10.2019
5927 Clouds 26 1010 78 10000 0.5 0 23:58 15.10.2019
5928 Clouds 26 1010 78 10000 0.5 0 23:38 15.10.2019
5929 Clouds 26 1010 78 10000 0.5 0 23:19 15.10.2019
5930 Clouds 26 1010 74 9000 1 0 22:55 15.10.2019
5931 Clouds 26 1010 74 9000 1 0 22:55 15.10.2019
5932 Clouds 26 1010 74 9000 1 0 22:37 15.10.2019
5933 Clouds 27 1010 74 9000 1 0 22:18 15.10.2019
5934 Clouds 27 1010 74 10000 1 0 21:54 15.10.2019
5935 Clouds 27 1010 74 10000 1 0 21:36 15.10.2019
5936 Clouds 27 1010 74 10000 1 0 21:18 15.10.2019
5937 Clouds 27 1011 74 10000 2.1 60 20:54 15.10.2019
5938 Clouds 27 1011 74 10000 2.1 60 20:36 15.10.2019
5939 Clouds 27 1011 74 10000 2.1 60 20:18 15.10.2019
5940 Clouds 27 1011 74 10000 1.5 90 19:41 15.10.2019
5941 Clouds 27 1011 74 10000 1.5 90 19:41 15.10.2019
5942 Clouds 27 1011 74 10000 1.5 90 19:20 15.10.2019
5943 Clouds 27 1011 74 10000 1.5 90 18:57 15.10.2019
5944 Clouds 28 1012 74 10000 2.1 110 18:39 15.10.2019
5945 Clouds 28 1012 74 10000 2.1 110 18:20 15.10.2019
5946 Clouds 28 1012 74 10000 1.5 110 17:43 15.10.2019
5947 Clouds 28 1012 74 10000 1.5 110 17:43 15.10.2019
5948 Clouds 28 1012 74 10000 1.5 110 17:21 15.10.2019
5949 Clouds 28 1012 74 10000 1.5 70 16:59 15.10.2019
5950 Clouds 28 1012 74 10000 1.5 70 16:41 15.10.2019
5951 Clouds 28 1012 74 10000 1.5 70 16:21 15.10.2019
5952 Clouds 29 1012 66 0 2.1 110 15:55 15.10.2019
5953 Clouds 29 1012 66 0 2.1 110 15:37 15.10.2019
5954 Clouds 29 1012 66 0 2.1 110 15:19 15.10.2019
5955 Clouds 29 1011 66 10000 2.6 100 14:54 15.10.2019
5956 Clouds 29 1011 66 10000 2.6 100 14:36 15.10.2019
5957 Clouds 29 1011 66 10000 2.6 100 14:18 15.10.2019
5958 Clouds 29 1011 58 10000 2.6 80 13:43 15.10.2019
5959 Clouds 29 1011 58 10000 2.6 80 13:20 15.10.2019
5960 Clouds 30 1010 55 10000 3.1 90 12:46 15.10.2019
5961 Clouds 30 1010 55 10000 3.1 90 12:23 15.10.2019
5962 Clouds 27 1010 100 10000 4.1 100 11:59 15.10.2019
5963 Clouds 27 1010 100 10000 4.1 100 11:40 15.10.2019
5964 Clouds 28 1010 100 10000 4.1 100 11:20 15.10.2019
5965 Clouds 32 1009 49 10000 4.1 100 10:46 15.10.2019
5966 Clouds 33 1009 49 10000 4.1 100 10:24 15.10.2019
5967 Clouds 33 1009 55 10000 3.6 120 09:59 15.10.2019
5968 Clouds 33 1009 55 10000 3.6 120 09:40 15.10.2019
5969 Clouds 33 1009 55 10000 3.6 120 09:21 15.10.2019
5970 Clouds 33 1009 55 10000 3.6 120 09:21 15.10.2019
5971 Clouds 33 1010 55 10000 4.1 0 08:57 15.10.2019
5972 Clouds 33 1010 55 10000 4.1 0 08:39 15.10.2019
5973 Clouds 33 1010 55 10000 4.1 0 08:18 15.10.2019
5974 Clouds 33 1011 55 10000 4.6 110 07:43 15.10.2019
5975 Clouds 33 1011 55 10000 4.6 110 07:22 15.10.2019
5976 Clouds 33 1012 55 10000 5.1 50 06:55 15.10.2019
5977 Clouds 32 1012 55 10000 5.1 50 06:37 15.10.2019
5978 Rain 31 1013 66 10000 2.1 360 05:56 15.10.2019
5979 Rain 31 1013 66 10000 2.1 360 05:36 15.10.2019
5980 Clouds 30 1013 58 10000 2.6 70 04:40 15.10.2019
5981 Clouds 31 1013 55 10000 2.1 90 03:59 15.10.2019
5982 Clouds 31 1013 55 10000 2.1 90 03:30 15.10.2019
5983 Clouds 28 1012 69 9000 1.5 120 01:51 15.10.2019
5984 Clouds 28 1012 69 9000 1.5 120 01:24 15.10.2019
5985 Clouds 26 1012 78 9000 0.5 0 00:58 15.10.2019
5986 Clouds 26 1012 78 9000 0.5 0 00:24 15.10.2019
5987 Clouds 26 1011 78 10000 1.5 80 23:55 14.10.2019
5988 Clouds 26 1011 78 10000 1.5 80 23:36 14.10.2019
5989 Clouds 26 1011 78 10000 1.5 80 23:18 14.10.2019
5990 Clouds 26 1011 74 10000 1 80 22:39 14.10.2019
5991 Clouds 26 1011 74 10000 1 80 22:19 14.10.2019
5992 Clouds 27 1012 69 10000 0.5 0 21:56 14.10.2019
5993 Clouds 26 1012 69 10000 0.5 0 21:38 14.10.2019
5994 Clouds 26 1012 69 10000 0.5 0 21:20 14.10.2019
5995 Clouds 26 1012 69 10000 0.5 0 21:20 14.10.2019
5996 -273 0 0 0 0 0 20:56 14.10.2019
5997 Clouds 26 1012 74 10000 1 0 20:37 14.10.2019
5998 Clouds 26 1012 74 10000 1 0 20:18 14.10.2019
5999 Clouds 27 1013 69 10000 1 0 19:42 14.10.2019
6000 Clouds 27 1013 69 10000 1 0 19:24 14.10.2019
6001 Clouds 27 1013 74 10000 1.5 90 18:59 14.10.2019
6002 Clouds 27 1013 74 10000 1.5 90 18:39 14.10.2019
6003 Clouds 27 1013 74 10000 1.5 90 18:19 14.10.2019
6004 Clouds 27 1013 74 10000 1.5 90 18:19 14.10.2019
6005 Clouds 27 1013 74 10000 1.5 90 18:19 14.10.2019
6006 Clouds 27 1013 69 10000 1.5 110 17:57 14.10.2019
6007 Clouds 27 1013 69 10000 1.5 110 17:39 14.10.2019
6008 Clouds 28 1013 69 10000 1.5 110 17:20 14.10.2019
6009 Clouds 28 1013 74 10000 3.1 110 16:44 14.10.2019
6010 Clouds 28 1013 74 10000 3.1 110 16:21 14.10.2019
6011 Clouds 28 1013 70 10000 3.6 100 15:54 14.10.2019
6012 Clouds 28 1013 70 10000 3.6 100 15:36 14.10.2019
6013 Clouds 29 1013 70 10000 3.6 100 15:18 14.10.2019
6014 Clouds 29 1012 70 10000 3.6 110 14:43 14.10.2019
6015 Clouds 29 1012 70 10000 3.6 110 14:23 14.10.2019
6016 Clouds 29 1011 66 10000 3.1 110 13:45 14.10.2019
6017 Clouds 29 1011 66 10000 3.1 110 13:22 14.10.2019
6018 Clouds 30 1011 55 10000 3.1 90 12:59 14.10.2019
6019 Clouds 30 1011 55 10000 3.1 90 12:40 14.10.2019
6020 Clouds 30 1011 55 10000 3.1 90 12:19 14.10.2019
6021 Clouds 31 1010 49 10000 5.1 90 11:46 14.10.2019
6022 Clouds 31 1010 49 10000 5.1 90 11:26 14.10.2019
6023 Clouds 31 1010 49 10000 5.1 90 11:26 14.10.2019
6024 Clouds 32 1010 46 10000 5.1 70 10:58 14.10.2019
6025 Clouds 32 1010 46 10000 5.1 70 10:38 14.10.2019
6026 Clouds 33 1010 46 10000 5.1 70 10:20 14.10.2019
6027 Clouds 33 1010 49 10000 5.7 70 09:55 14.10.2019
6028 Clouds 32 1010 49 10000 5.7 70 09:36 14.10.2019
6029 Clouds 33 1010 49 10000 5.7 70 09:18 14.10.2019
6030 Clouds 33 1010 52 10000 3.6 140 08:43 14.10.2019
6031 Clouds 33 1010 52 10000 3.6 140 08:22 14.10.2019
6032 -273 0 0 0 0 0 07:42 14.10.2019
6033 Clouds 33 1011 55 10000 3.1 120 07:19 14.10.2019
6034 Clouds 33 1012 52 10000 2.6 0 06:39 14.10.2019
6035 Clouds 33 1012 52 10000 2.6 0 06:20 14.10.2019
6036 Clouds 32 1012 62 10000 3.1 90 05:46 14.10.2019
6037 Clouds 31 1013 66 10000 2.6 70 04:42 14.10.2019
6038 Clouds 30 1012 66 10000 2.1 0 03:27 14.10.2019
6039 Clouds 30 1012 66 10000 3.1 90 02:42 14.10.2019
6040 Clouds 28 1012 69 9000 1.5 90 01:23 14.10.2019
6041 Clouds 26 1011 78 9000 0.5 0 00:56 14.10.2019
6042 Clouds 26 1011 78 9000 0.5 0 00:19 14.10.2019
6043 Clouds 26 1011 74 10000 1 0 23:45 13.10.2019
6044 Clouds 26 1011 74 10000 1 0 23:20 13.10.2019
6045 Clouds 26 1011 74 10000 1 0 22:58 13.10.2019
6046 Clouds 26 1011 74 10000 1 0 22:40 13.10.2019
6047 Clouds 26 1011 74 10000 1 0 22:21 13.10.2019
6048 Clouds 26 1011 88 10000 2.1 70 21:58 13.10.2019
6049 Clouds 26 1011 88 10000 2.1 70 21:37 13.10.2019
6050 Clouds 26 1011 88 10000 2.1 70 21:18 13.10.2019
6051 Clouds 27 1011 78 10000 2.6 90 20:57 13.10.2019
6052 Clouds 27 1011 78 10000 2.6 90 20:38 13.10.2019
6053 Clouds 27 1011 78 10000 2.6 90 20:20 13.10.2019
6054 -273 0 0 0 0 0 19:58 13.10.2019
6055 Clouds 27 1011 74 10000 2.1 130 19:39 13.10.2019
6056 Clouds 27 1011 74 10000 2.1 130 19:39 13.10.2019
6057 Clouds 27 1011 74 10000 2.1 130 19:39 13.10.2019
6058 Clouds 27 1011 74 10000 2.1 130 19:21 13.10.2019
6059 Clouds 27 1011 74 10000 3.1 120 18:56 13.10.2019
6060 -273 0 0 0 0 0 18:56 13.10.2019
6061 Clouds 27 1011 74 10000 3.1 120 18:36 13.10.2019
6062 Clouds 27 1011 74 10000 3.1 120 18:18 13.10.2019
6063 Clouds 27 1011 74 10000 3.6 120 17:55 13.10.2019
6064 Clouds 27 1011 74 10000 3.6 120 17:36 13.10.2019
6065 Clouds 27 1011 74 10000 3.6 120 17:18 13.10.2019
6066 Clouds 28 1011 74 10000 3.6 120 16:41 13.10.2019
6067 Clouds 28 1011 74 10000 3.6 120 16:18 13.10.2019
6068 Clouds 28 1011 66 10000 3.6 100 15:56 13.10.2019
6069 Clouds 28 1011 66 10000 3.6 100 15:37 13.10.2019
6070 Clouds 28 1011 66 10000 3.6 100 15:37 13.10.2019
6071 Clouds 28 1011 66 10000 3.6 100 15:18 13.10.2019
6072 Clouds 28 1011 66 10000 2.1 80 14:56 13.10.2019
6073 Clouds 29 1011 66 10000 2.1 80 14:38 13.10.2019
6074 Clouds 29 1011 66 10000 2.1 80 14:19 13.10.2019
6075 Clouds 29 1010 62 10000 3.1 90 13:41 13.10.2019
6076 Clouds 29 1010 62 10000 3.1 90 13:22 13.10.2019
6077 Clouds 29 1009 62 10000 3.1 110 12:59 13.10.2019
6078 Clouds 29 1009 62 10000 3.1 110 12:39 13.10.2019
6079 Clouds 30 1009 62 10000 3.1 110 12:20 13.10.2019
6080 Clouds 30 1009 58 10000 4.1 110 11:58 13.10.2019
6081 Clouds 31 1009 58 10000 4.1 110 11:39 13.10.2019
6082 Clouds 31 1009 58 10000 4.1 110 11:20 13.10.2019
6083 Clouds 31 1008 52 10000 3.6 120 10:43 13.10.2019
6084 Clouds 32 1008 52 10000 3.6 120 10:24 13.10.2019
6085 Clouds 32 1008 52 10000 3.1 130 09:59 13.10.2019
6086 Clouds 32 1008 52 10000 3.1 130 09:59 13.10.2019
6087 Clouds 33 1008 52 10000 3.1 130 09:39 13.10.2019
6088 Clouds 33 1008 52 10000 3.1 130 09:20 13.10.2019
6089 Clouds 32 1009 55 10000 2.6 140 08:43 13.10.2019
6090 -273 0 0 0 0 0 08:25 13.10.2019
6091 Clouds 33 1009 55 10000 2.6 140 08:25 13.10.2019
6092 Clouds 32 1009 59 10000 1.5 200 07:51 13.10.2019
6093 Clouds 32 1009 59 10000 1.5 200 07:32 13.10.2019
6094 Clouds 33 1010 49 10000 3.1 90 06:51 13.10.2019
6095 Clouds 33 1010 49 10000 3.1 90 06:23 13.10.2019
6096 Clouds 32 1012 55 10000 2.6 100 04:59 13.10.2019
6097 Clouds 31 1012 55 10000 2.6 100 04:33 13.10.2019
6098 Clouds 30 1012 70 10000 2.1 100 02:50 13.10.2019
6099 Clouds 29 1012 70 10000 2.1 100 02:27 13.10.2019
6100 Clouds 27 1011 78 10000 1.5 70 01:34 13.10.2019
6101 Clouds 26 1010 88 10000 2.1 70 00:53 13.10.2019
6102 Clouds 26 1010 88 10000 2.1 70 00:23 13.10.2019
6103 Clouds 26 1010 83 10000 1 90 23:59 12.10.2019
6104 Clouds 26 1010 83 10000 1 90 23:40 12.10.2019
6105 Clouds 26 1010 83 10000 1 90 23:22 12.10.2019
6106 Clouds 26 1009 78 10000 2.1 70 22:58 12.10.2019
6107 Clouds 26 1009 78 10000 2.1 70 22:40 12.10.2019
6108 Clouds 27 1009 78 10000 2.1 70 22:21 12.10.2019
6109 Clouds 26 1009 83 10000 0.5 0 21:56 12.10.2019
6110 Clouds 26 1009 83 10000 0.5 0 21:38 12.10.2019
6111 Clouds 26 1009 83 10000 0.5 0 21:20 12.10.2019
6112 Clouds 26 1009 88 10000 3.1 70 20:44 12.10.2019
6113 Clouds 26 1009 88 10000 3.1 70 20:26 12.10.2019
6114 Clouds 27 1009 78 10000 1 0 19:42 12.10.2019
6115 Clouds 27 1009 78 10000 1 0 19:23 12.10.2019
6116 Clouds 27 1010 83 10000 2.1 80 18:59 12.10.2019
6117 Clouds 27 1010 83 10000 2.1 80 18:41 12.10.2019
6118 Clouds 27 1010 83 10000 2.1 80 18:23 12.10.2019
6119 Clouds 27 1010 78 10000 1 0 17:45 12.10.2019
6120 Clouds 27 1010 78 10000 1 0 17:21 12.10.2019
6121 Clouds 27 1010 78 10000 1.5 80 16:56 12.10.2019
6122 Clouds 27 1010 78 10000 1.5 80 16:38 12.10.2019
6123 Clouds 27 1010 78 10000 1.5 80 16:19 12.10.2019
6124 Clouds 27 1010 83 10000 0.5 0 15:44 12.10.2019
6125 Clouds 27 1010 83 10000 0.5 0 15:25 12.10.2019
6126 Clouds 27 1010 83 10000 0.5 0 15:25 12.10.2019
6127 -273 0 0 0 0 0 15:25 12.10.2019
6128 Clouds 27 1010 83 10000 0.5 0 15:25 12.10.2019
6129 Clouds 26 1010 83 10000 2.6 70 14:57 12.10.2019
6130 Clouds 26 1010 83 10000 2.6 70 14:38 12.10.2019
6131 Clouds 26 1010 83 10000 2.6 70 14:19 12.10.2019
6132 Clouds 26 1009 83 10000 2.1 100 13:44 12.10.2019
6133 Rain 26 1009 83 10000 2.1 100 13:26 12.10.2019
6134 Rain 25 1008 83 8000 4.1 200 12:40 12.10.2019
6135 Rain 25 1008 83 8000 4.1 200 12:40 12.10.2019
6136 Rain 25 1008 83 8000 4.1 200 12:22 12.10.2019
6137 Rain 27 1007 74 10000 3.6 230 11:59 12.10.2019
6138 Rain 27 1007 74 10000 3.6 230 11:40 12.10.2019
6139 Rain 29 1007 74 10000 4.1 230 11:22 12.10.2019
6140 Clouds 31 1007 70 10000 5.1 270 10:45 12.10.2019
6141 Clouds 31 1007 70 10000 5.1 270 10:25 12.10.2019
6142 Clouds 32 1006 52 10000 3.1 110 09:58 12.10.2019
6143 Clouds 33 1006 52 10000 3.1 110 09:40 12.10.2019
6144 Clouds 33 1006 52 10000 3.1 110 09:22 12.10.2019
6145 -273 0 0 0 0 0 08:58 12.10.2019
6146 Clouds 33 1007 55 10000 3.6 120 08:38 12.10.2019
6147 Clouds 33 1007 55 10000 3.6 120 08:20 12.10.2019
6148 Clouds 33 1007 55 10000 3.6 120 08:20 12.10.2019
6149 Clouds 34 1008 46 10000 2.6 120 07:35 12.10.2019
6150 Clouds 33 1009 52 10000 2.6 160 06:56 12.10.2019
6151 Rain 33 1010 53 0 3.13 120 05:47 12.10.2019
6152 Rain 32 1008 67 0 0.89 201 05:23 12.10.2019
6153 Clouds 31 1010 62 10000 2.6 0 04:24 12.10.2019
6154 Clouds 31 1011 66 10000 3.1 100 03:31 12.10.2019
6155 Clouds 28 1010 83 8000 1.5 80 01:45 12.10.2019
6156 Clouds 28 1010 83 8000 1.5 80 01:21 12.10.2019
6157 Clouds 28 1010 83 8000 1.5 80 01:21 12.10.2019
6158 Mist 26 1009 88 5000 1.5 90 00:42 12.10.2019
6159 Clouds 26 1009 88 6000 1 0 23:59 11.10.2019
6160 Clouds 26 1009 88 6000 1 0 23:40 11.10.2019
6161 Clouds 26 1009 88 6000 1 0 23:20 11.10.2019
6162 Clouds 26 1008 88 8000 1 0 22:41 11.10.2019
6163 Clouds 26 1008 88 8000 1 0 22:41 11.10.2019
6164 Clouds 26 1008 88 8000 1 0 22:21 11.10.2019
6165 Clouds 26 1008 88 8000 1.5 70 21:57 11.10.2019
6166 Clouds 26 1008 88 8000 1.5 70 21:38 11.10.2019
6167 Clouds 26 1008 88 8000 1.5 70 21:20 11.10.2019
6168 Clouds 26 1009 88 9000 1 50 20:44 11.10.2019
6169 Clouds 26 1009 88 9000 1 50 20:26 11.10.2019
6170 Clouds 27 1009 88 9000 1 0 19:58 11.10.2019
6171 Clouds 27 1009 88 9000 1 0 19:39 11.10.2019
6172 Clouds 27 1009 88 9000 1 0 19:18 11.10.2019
6173 Clouds 27 1010 83 10000 0.5 0 18:58 11.10.2019
6174 Clouds 26 1010 83 10000 0.5 0 18:38 11.10.2019
6175 Clouds 26 1010 83 10000 0.5 0 18:19 11.10.2019
6176 Clouds 26 1010 83 10000 1 0 17:58 11.10.2019
6177 Clouds 26 1010 83 10000 1 0 17:37 11.10.2019
6178 Clouds 26 1010 83 10000 1 0 17:19 11.10.2019
6179 Thunderstorm 26 1010 88 10000 3.1 20 16:56 11.10.2019
6180 Thunderstorm 26 1010 88 10000 3.1 20 16:37 11.10.2019
6181 Thunderstorm 26 1010 88 10000 3.1 20 16:18 11.10.2019
6182 Rain 27 1010 74 10000 2.1 210 15:39 11.10.2019
6183 Rain 27 1010 74 10000 2.1 210 15:19 11.10.2019
6184 Rain 27 1010 74 10000 2.1 210 14:49 11.10.2019
6185 Rain 27 1010 74 10000 2.1 210 14:30 11.10.2019
6186 Clouds 29 1009 79 10000 2.1 210 13:58 11.10.2019
6187 Clouds 29 1009 79 10000 2.1 210 13:40 11.10.2019
6188 Clouds 29 1009 79 10000 2.1 210 13:22 11.10.2019
6189 Clouds 29 1008 74 10000 6.7 230 12:56 11.10.2019
6190 Clouds 29 1008 74 10000 6.7 230 12:38 11.10.2019
6191 Clouds 29 1008 74 10000 6.7 230 12:19 11.10.2019
6192 Clouds 30 1007 74 10000 6.2 260 11:41 11.10.2019
6193 Clouds 30 1007 74 10000 6.2 260 11:22 11.10.2019
6194 Clouds 30 1007 74 10000 5.7 260 10:59 11.10.2019
6195 Clouds 30 1007 74 10000 5.7 260 10:59 11.10.2019
6196 Clouds 30 1007 74 10000 5.7 260 10:41 11.10.2019
6197 Clouds 31 1007 74 10000 5.7 260 10:23 11.10.2019
6198 Clouds 31 1007 70 10000 6.7 226 09:57 11.10.2019
6199 Clouds 31 1007 70 10000 6.7 226 09:38 11.10.2019
6200 Clouds 31 1007 70 10000 6.7 226 09:20 11.10.2019
6201 Clouds 31 1007 70 10000 5.7 270 08:55 11.10.2019
6202 Clouds 32 1007 70 10000 5.7 270 08:37 11.10.2019
6203 Clouds 31 1007 70 10000 5.7 270 08:19 11.10.2019
6204 Clouds 31 1008 70 10000 5.1 290 07:44 11.10.2019
6205 Clouds 31 1008 70 10000 5.1 290 07:44 11.10.2019
6206 Clouds 31 1008 70 10000 5.1 290 07:25 11.10.2019
6207 Clouds 32 1009 70 10000 4.1 280 06:49 11.10.2019
6208 Clouds 32 1009 70 10000 4.1 280 06:24 11.10.2019
6209 Clouds 31 1010 66 10000 3.6 290 05:41 11.10.2019
6210 Clouds 31 1011 74 9000 3.1 260 04:59 11.10.2019
6211 Clouds 30 1011 74 9000 3.1 260 04:25 11.10.2019
6212 Clouds 29 1011 74 9000 1 0 02:40 11.10.2019
6213 Clouds 27 1010 78 9000 1 0 00:51 11.10.2019
6214 Clouds 27 1010 78 9000 1 0 00:29 11.10.2019
6215 Clouds 26 1009 83 10000 2.89 34.963 23:46 10.10.2019
6216 Clouds 26 1009 83 10000 2.89 34.963 23:23 10.10.2019
6217 Clouds 27 1009 78 10000 0.5 0 22:58 10.10.2019
6218 Clouds 27 1009 78 10000 0.5 0 22:39 10.10.2019
6219 Clouds 27 1009 78 10000 0.5 0 22:21 10.10.2019
6220 Clouds 27 1009 78 10000 2.89 34.963 21:58 10.10.2019
6221 Clouds 27 1009 78 10000 2.89 34.963 21:58 10.10.2019
6222 Clouds 27 1009 78 10000 2.89 34.963 21:39 10.10.2019
6223 Clouds 27 1009 78 10000 2.26 48.116 21:21 10.10.2019
6224 Clouds 27 1009 78 10000 2.26 48.116 21:21 10.10.2019
6225 Clouds 26 1009 83 10000 2.07 31.087 20:43 10.10.2019
6226 Clouds 26 1009 83 10000 2.07 31.087 20:22 10.10.2019
6227 Clouds 27 1010 83 10000 1.5 230 19:59 10.10.2019
6228 Clouds 27 1010 83 10000 1.5 230 19:41 10.10.2019
6229 Clouds 27 1010 83 10000 1.5 230 19:21 10.10.2019
6230 Clouds 27 1010 83 10000 1.5 230 18:59 10.10.2019
6231 Clouds 27 1010 83 10000 1.5 230 18:39 10.10.2019
6232 Clouds 27 1010 83 10000 1.5 230 18:20 10.10.2019
6233 Clouds 27 1011 78 10000 1 0 17:55 10.10.2019
6234 Clouds 27 1011 78 10000 1 0 17:55 10.10.2019
6235 Clouds 27 1011 78 10000 1 0 17:37 10.10.2019
6236 Clouds 27 1011 78 10000 1 0 17:18 10.10.2019
6237 Clouds 28 1011 66 10000 1.5 140 16:44 10.10.2019
6238 Clouds 28 1011 66 10000 1.5 140 16:26 10.10.2019
6239 Clouds 28 1011 70 10000 2.1 150 15:57 10.10.2019
6240 Clouds 28 1011 70 10000 2.1 150 15:37 10.10.2019
6241 Clouds 28 1011 70 10000 2.1 150 15:19 10.10.2019
6242 Clouds 29 1010 70 10000 2.6 140 14:54 10.10.2019
6243 Clouds 29 1010 70 10000 2.6 140 14:54 10.10.2019
6244 Clouds 29 1010 70 10000 2.6 140 14:36 10.10.2019
6245 Clouds 29 1010 70 10000 2.6 140 14:18 10.10.2019
6246 Clouds 29 1009 66 10000 3.1 130 13:41 10.10.2019
6247 Clouds 30 1009 66 10000 3.1 130 13:23 10.10.2019
6248 Clouds 30 1009 66 9000 2.6 140 12:57 10.10.2019
6249 Clouds 30 1009 66 9000 2.6 140 12:39 10.10.2019
6250 Clouds 30 1009 66 9000 2.6 140 12:20 10.10.2019
6251 Clouds 31 1009 62 9000 2.1 160 11:55 10.10.2019
6252 Clouds 31 1009 62 9000 2.1 160 11:37 10.10.2019
6253 Clouds 31 1009 62 9000 2.1 160 11:18 10.10.2019
6254 Clouds 31 1008 62 10000 0.5 0 10:44 10.10.2019
6255 Clouds 32 1008 62 10000 0.5 0 10:26 10.10.2019
6256 Clouds 32 1008 62 10000 3.1 120 09:56 10.10.2019
6257 Clouds 32 1008 62 10000 3.1 120 09:38 10.10.2019
6258 Clouds 32 1008 62 10000 3.1 120 09:19 10.10.2019
6259 Clouds 33 1008 62 10000 4.1 280 08:41 10.10.2019
6260 Clouds 33 1008 62 10000 4.1 280 08:23 10.10.2019
6261 Clouds 33 1009 62 10000 3.1 280 07:58 10.10.2019
6262 Clouds 33 1009 62 10000 3.1 280 07:40 10.10.2019
6263 Clouds 33 1009 62 10000 3.1 280 07:20 10.10.2019
6264 Clouds 32 1010 66 10000 3.6 0 06:45 10.10.2019
6265 Clouds 32 1010 66 10000 3.6 0 06:22 10.10.2019
6266 Clouds 32 1011 66 10000 3.6 280 05:24 10.10.2019
6267 Clouds 31 1011 74 10000 3.1 270 04:37 10.10.2019
6268 Clouds 29 1011 78 10000 3.6 270 03:27 10.10.2019
6269 Clouds 28 1010 74 9000 0.5 0 01:42 10.10.2019
6270 Clouds 28 1010 74 9000 0.5 0 01:24 10.10.2019
6271 Clouds 26 1010 78 9000 1 0 00:45 10.10.2019
6272 Clouds 26 1010 78 9000 1 0 00:20 10.10.2019
6273 Clouds 26 1009 83 10000 3.17 53.365 23:39 09.10.2019
6274 Clouds 26 1009 83 10000 3.17 53.365 23:20 09.10.2019
6275 Clouds 26 1009 83 10000 1 80 22:43 09.10.2019
6276 Clouds 26 1009 83 10000 1 80 22:24 09.10.2019
6277 Clouds 26 1009 88 10000 1 90 21:59 09.10.2019
6278 Clouds 26 1009 88 10000 1 90 21:39 09.10.2019
6279 Clouds 26 1009 88 10000 1 90 21:20 09.10.2019
6280 Clouds 27 1009 78 10000 1 0 20:56 09.10.2019
6281 Clouds 27 1009 78 10000 1 0 20:56 09.10.2019
6282 Clouds 27 1009 78 10000 1 0 20:37 09.10.2019
6283 Clouds 27 1009 78 10000 1 0 20:18 09.10.2019
6284 Clouds 27 1009 78 10000 1 0 19:45 09.10.2019
6285 Clouds 27 1010 78 10000 1.5 70 19:24 09.10.2019
6286 Clouds 27 1010 78 10000 1.5 70 18:58 09.10.2019
6287 Clouds 27 1010 78 10000 1.5 70 18:37 09.10.2019
6288 Clouds 27 1010 78 10000 1.5 70 18:18 09.10.2019
6289 Clouds 27 1010 74 10000 2.1 120 17:55 09.10.2019
6290 Clouds 28 1010 74 10000 2.1 120 17:36 09.10.2019
6291 Clouds 28 1010 74 10000 2.1 120 17:18 09.10.2019
6292 Clouds 28 1010 66 10000 3.1 110 16:40 09.10.2019
6293 Clouds 28 1010 66 10000 3.1 110 16:22 09.10.2019
6294 Clouds 28 1011 74 10000 2.6 90 15:58 09.10.2019
6295 Clouds 28 1011 74 10000 2.6 90 15:39 09.10.2019
6296 Clouds 28 1011 74 10000 2.6 90 15:39 09.10.2019
6297 Clouds 28 1011 74 10000 2.6 90 15:20 09.10.2019
6298 Clouds 28 1010 70 10000 2.6 90 14:56 09.10.2019
6299 Clouds 29 1010 70 10000 2.6 90 14:37 09.10.2019
6300 Clouds 29 1010 70 10000 2.6 90 14:18 09.10.2019
6301 Clouds 29 1009 74 10000 3.6 100 13:39 09.10.2019
6302 Clouds 29 1009 74 10000 3.6 100 13:21 09.10.2019
6303 Clouds 29 1008 74 10000 3.6 120 12:58 09.10.2019
6304 Clouds 29 1008 74 10000 3.6 120 12:40 09.10.2019
6305 Clouds 29 1008 74 10000 3.6 120 12:21 09.10.2019
6306 Clouds 29 1008 74 10000 3.6 120 12:21 09.10.2019
6307 Clouds 30 1008 62 10000 3.6 12 11:55 09.10.2019
6308 Clouds 30 1008 62 10000 3.6 12 11:36 09.10.2019
6309 Clouds 31 1008 62 10000 3.6 12 11:18 09.10.2019
6310 Clouds 31 1008 62 10000 3.1 140 10:43 09.10.2019
6311 Clouds 31 1008 62 10000 3.1 140 10:20 09.10.2019
6312 Clouds 31 1008 62 10000 3.1 130 09:57 09.10.2019
6313 Clouds 32 1008 62 10000 3.1 130 09:38 09.10.2019
6314 Clouds 32 1008 62 10000 3.1 130 09:38 09.10.2019
6315 Clouds 32 1008 62 10000 3.1 130 09:38 09.10.2019
6316 Clouds 32 1008 62 10000 3.1 130 09:18 09.10.2019
6317 Clouds 32 1008 59 10000 3.6 110 08:39 09.10.2019
6318 Clouds 32 1008 59 10000 3.6 110 08:21 09.10.2019
6319 Clouds 32 1009 59 10000 4.6 120 07:47 09.10.2019
6320 Clouds 32 1009 59 10000 4.6 120 07:27 09.10.2019
6321 Clouds 32 1009 59 10000 4.6 120 07:27 09.10.2019
6322 Clouds 31 1010 66 10000 3.1 90 06:59 09.10.2019
6323 Clouds 32 1010 66 10000 3.1 90 06:41 09.10.2019
6324 Clouds 31 1010 62 10000 3.1 110 05:53 09.10.2019
6325 Clouds 32 1010 62 10000 3.1 110 05:18 09.10.2019
6326 Clouds 31 1010 64 0 3.13 22 03:49 09.10.2019
6327 Clouds 30 1011 70 10000 3.6 50 02:35 09.10.2019
6328 Clouds 28 1010 78 10000 1.5 0 01:39 09.10.2019
6329 Clouds 27 1010 78 10000 1.5 0 01:19 09.10.2019
6330 Clouds 27 1010 83 10000 1.5 220 00:55 09.10.2019
6331 Clouds 27 1010 83 10000 1.5 220 00:55 09.10.2019
6332 Clouds 27 1010 83 10000 1.5 220 00:36 09.10.2019
6333 Clouds 27 1010 83 10000 1.5 220 00:18 09.10.2019
6334 Clouds 27 1009 78 10000 2.89 27.522 23:38 08.10.2019
6335 Clouds 27 1009 78 10000 2.89 27.522 23:18 08.10.2019
6336 Clouds 27 1009 78 10000 2.89 27.522 22:55 08.10.2019
6337 Clouds 27 1009 78 10000 2.89 27.522 22:36 08.10.2019
6338 Clouds 27 1009 78 10000 2.89 27.522 22:18 08.10.2019
6339 Clouds 27 1009 78 10000 0.5 0 21:55 08.10.2019
6340 Clouds 27 1009 78 10000 0.5 0 21:36 08.10.2019
6341 Clouds 27 1009 78 10000 0.5 0 21:18 08.10.2019
6342 Clouds 27 1010 78 10000 1 0 20:55 08.10.2019
6343 Clouds 27 1010 78 10000 1 0 20:55 08.10.2019
6344 Clouds 28 1010 78 10000 1 0 20:36 08.10.2019
6345 Clouds 28 1010 78 10000 1 0 20:18 08.10.2019
6346 Clouds 28 1010 74 10000 3.4 42.637 19:42 08.10.2019
6347 Clouds 28 1010 74 10000 3.4 42.637 19:24 08.10.2019
6348 Clouds 28 1011 74 10000 1 0 18:59 08.10.2019
6349 Clouds 28 1011 74 10000 1 0 18:41 08.10.2019
6350 Clouds 28 1011 74 10000 1 0 18:22 08.10.2019
6351 Clouds 28 1011 78 10000 1 0 17:56 08.10.2019
6352 Clouds 28 1011 78 10000 1 0 17:56 08.10.2019
6353 Clouds 28 1011 78 10000 1 0 17:38 08.10.2019
6354 Clouds 28 1011 78 10000 1 0 17:18 08.10.2019
6355 Clouds 28 1011 74 10000 2.6 60 16:41 08.10.2019
6356 Clouds 28 1011 74 10000 2.6 60 16:22 08.10.2019
6357 Clouds 29 1011 70 10000 2.6 90 15:57 08.10.2019
6358 Clouds 29 1011 70 10000 2.6 90 15:38 08.10.2019
6359 Clouds 29 1011 70 10000 2.6 90 15:19 08.10.2019
6360 Clouds 29 1011 62 10000 3.6 40 14:42 08.10.2019
6361 Clouds 29 1011 62 10000 3.6 40 14:42 08.10.2019
6362 Clouds 30 1011 62 10000 3.6 40 14:21 08.10.2019
6363 Clouds 30 1010 58 10000 4.1 40 13:59 08.10.2019
6364 Clouds 30 1010 58 10000 4.1 40 13:39 08.10.2019
6365 Clouds 30 1010 58 10000 4.1 40 13:39 08.10.2019
6366 Clouds 30 1010 58 10000 4.1 40 13:20 08.10.2019
6367 Clouds 30 1009 58 10000 3.1 60 12:59 08.10.2019
6368 Clouds 30 1009 58 10000 3.1 60 12:39 08.10.2019
6369 Clouds 31 1009 58 10000 3.1 60 12:19 08.10.2019
6370 Clouds 31 1009 62 10000 3.1 280 11:43 08.10.2019
6371 Clouds 31 1009 62 10000 3.1 280 11:24 08.10.2019
6372 Clouds 31 1009 62 10000 3.1 280 11:24 08.10.2019
6373 Clouds 32 1008 55 10000 3.1 0 10:59 08.10.2019
6374 Clouds 32 1008 55 10000 3.1 0 10:39 08.10.2019
6375 Clouds 32 1008 55 10000 3.1 0 10:20 08.10.2019
6376 Clouds 32 1008 55 10000 3.1 0 10:20 08.10.2019
6377 Clouds 32 1008 59 10000 3.1 110 09:57 08.10.2019
6378 Clouds 32 1008 59 10000 3.1 110 09:39 08.10.2019
6379 Clouds 32 1008 59 10000 3.1 110 09:19 08.10.2019
6380 Clouds 32 1009 62 10000 3.6 90 08:42 08.10.2019
6381 Clouds 32 1009 62 10000 3.6 90 08:24 08.10.2019
6382 Rain 30 1010 69 10000 5.7 90 07:45 08.10.2019
6383 Rain 30 1010 69 10000 5.7 90 07:21 08.10.2019
6384 Clouds 32 1010 62 10000 1.5 0 06:56 08.10.2019
6385 Clouds 32 1010 62 10000 1.5 0 06:29 08.10.2019
6386 Clouds 31 1011 62 10000 4.6 270 05:55 08.10.2019
6387 Clouds 31 1011 62 10000 4.6 270 05:55 08.10.2019
6388 Clouds 31 1011 62 10000 4.6 270 05:36 08.10.2019
6389 Clouds 31 1011 58 10000 3.1 0 04:31 08.10.2019
6390 Clouds 31 1011 62 10000 1 0 03:29 08.10.2019
6391 Clouds 30 1010 68 0 2.24 20 02:37 08.10.2019
6392 Clouds 28 1011 69 10000 1 0 01:47 08.10.2019
6393 Clouds 28 1011 69 10000 1 0 01:28 08.10.2019
6394 Clouds 26 1010 78 9000 1 0 00:46 08.10.2019
6395 Clouds 26 1010 78 9000 1 0 00:21 08.10.2019
6396 Clouds 26 1010 78 10000 1 0 23:40 07.10.2019
6397 Clouds 26 1010 78 10000 1 0 23:20 07.10.2019
6398 Clouds 26 1009 78 10000 0.5 0 22:56 07.10.2019
6399 Clouds 26 1009 78 10000 0.5 0 22:56 07.10.2019
6400 Clouds 26 1009 78 10000 0.5 0 22:38 07.10.2019
6401 Clouds 26 1009 78 10000 0.5 0 22:38 07.10.2019
6402 Clouds 26 1009 78 10000 0.5 0 22:20 07.10.2019
6403 Clouds 26 1010 74 10000 4.14 50.175 21:56 07.10.2019
6404 Clouds 27 1010 74 10000 4.14 50.175 21:38 07.10.2019
6405 Clouds 27 1010 74 10000 3.88 33.358 21:20 07.10.2019
6406 Clouds 27 1010 74 10000 3.48 42.113 20:57 07.10.2019
6407 Clouds 27 1010 74 10000 3.48 42.113 20:39 07.10.2019
6408 Clouds 27 1010 74 10000 3.48 42.113 20:20 07.10.2019
6409 Clouds 27 1010 69 10000 1.5 20 19:57 07.10.2019
6410 Clouds 27 1010 69 10000 1.5 20 19:39 07.10.2019
6411 Clouds 27 1010 69 10000 1.5 20 19:18 07.10.2019
6412 Clouds 27 1011 78 10000 2.6 70 18:56 07.10.2019
6413 Clouds 27 1011 78 10000 2.6 70 18:38 07.10.2019
6414 Clouds 27 1011 78 10000 2.6 70 18:18 07.10.2019
6415 Clouds 28 1011 74 10000 2.1 90 17:42 07.10.2019
6416 Clouds 28 1011 74 10000 2.1 90 17:19 07.10.2019
6417 Clouds 28 1011 66 10000 2.6 90 16:55 07.10.2019
6418 Clouds 28 1011 66 10000 2.6 90 16:37 07.10.2019
6419 Clouds 28 1011 66 10000 2.6 90 16:19 07.10.2019
6420 Clouds 29 1012 66 10000 1.5 90 15:42 07.10.2019
6421 Clouds 29 1012 66 10000 1.5 90 15:24 07.10.2019
6422 Clouds 29 1011 58 10000 2.1 100 14:42 07.10.2019
6423 Clouds 29 1011 58 10000 2.1 100 14:23 07.10.2019
6424 Clouds 29 1011 62 10000 1.5 100 13:59 07.10.2019
6425 Clouds 29 1011 62 10000 1.5 100 13:40 07.10.2019
6426 Clouds 30 1011 62 10000 1.5 100 13:18 07.10.2019
6427 Clouds 30 1010 55 10000 4.1 80 12:54 07.10.2019
6428 Clouds 30 1010 55 10000 4.1 80 12:36 07.10.2019
6429 Clouds 30 1010 55 10000 4.1 80 12:36 07.10.2019
6430 Clouds 31 1010 55 10000 4.1 80 12:18 07.10.2019
6431 Clouds 31 1009 46 10000 4.1 90 11:56 07.10.2019
6432 Clouds 32 1009 46 10000 4.1 90 11:36 07.10.2019
6433 Clouds 32 1009 46 10000 4.1 90 11:18 07.10.2019
6434 Clouds 33 1009 49 10000 4.6 100 10:40 07.10.2019
6435 Clouds 33 1009 49 10000 4.6 100 10:20 07.10.2019
6436 Clouds 33 1009 52 10000 4.6 100 09:42 07.10.2019
6437 Clouds 34 1009 52 10000 4.6 100 09:23 07.10.2019
6438 Clouds 33 1009 52 10000 5.1 90 08:55 07.10.2019
6439 Clouds 33 1009 52 10000 5.1 90 08:37 07.10.2019
6440 Clouds 33 1009 52 10000 5.1 90 08:18 07.10.2019
6441 Rain 32 1010 66 8000 4.6 90 07:40 07.10.2019
6442 Rain 33 1009 46 10000 3.6 110 07:20 07.10.2019
6443 Clouds 34 1010 47 10000 2.6 0 06:44 07.10.2019
6444 Clouds 33 1010 47 10000 2.6 0 06:22 07.10.2019
6445 Clouds 33 1011 52 10000 4.6 60 05:27 07.10.2019
6446 Clouds 33 1012 55 10000 4.6 90 04:56 07.10.2019
6447 Clouds 32 1012 55 10000 4.6 90 04:19 07.10.2019
6448 Clouds 32 1012 58 10000 2.1 0 03:39 07.10.2019
6449 Clouds 32 1012 58 10000 2.1 0 03:39 07.10.2019
6450 Clouds 30 1012 70 10000 1 0 02:55 07.10.2019
6451 Clouds 29 1012 70 10000 1 0 02:20 07.10.2019
6452 Clouds 27 1012 74 10000 0.5 0 01:24 07.10.2019
6453 Clouds 26 1011 83 10000 5.4 60.091 00:55 07.10.2019
6454 Clouds 26 1011 83 10000 5.4 60.091 00:36 07.10.2019
6455 Clouds 26 1011 83 10000 5.48 56.542 00:18 07.10.2019
6456 Clouds 26 1010 78 10000 2.1 340 23:40 06.10.2019
6457 Clouds 26 1010 78 10000 2.1 340 23:20 06.10.2019
6458 Clouds 26 1010 78 10000 1 0 22:57 06.10.2019
6459 Clouds 26 1010 78 10000 1 0 22:39 06.10.2019
6460 Clouds 26 1010 78 10000 1 0 22:39 06.10.2019
6461 Clouds 26 1010 78 10000 1 0 22:20 06.10.2019
6462 Clouds 26 1010 78 10000 5.48 56.542 21:55 06.10.2019
6463 Clouds 26 1010 78 10000 5.48 56.542 21:37 06.10.2019
6464 Clouds 26 1010 78 10000 4.21 51.415 21:18 06.10.2019
6465 Clouds 26 1010 78 10000 1 0 20:56 06.10.2019
6466 Clouds 26 1010 78 10000 1 0 20:38 06.10.2019
6467 Clouds 26 1010 78 10000 1 0 20:19 06.10.2019
6468 Clouds 26 1011 74 10000 1 0 19:55 06.10.2019
6469 Clouds 27 1011 74 10000 1 0 19:36 06.10.2019
6470 Clouds 27 1011 74 10000 1 0 19:36 06.10.2019
6471 Clouds 27 1011 74 10000 1 0 19:18 06.10.2019
6472 Clouds 27 1011 69 10000 1.5 110 18:55 06.10.2019
6473 Clouds 27 1011 69 10000 1.5 110 18:36 06.10.2019
6474 Clouds 27 1011 69 10000 1.5 110 18:18 06.10.2019
6475 Clouds 27 1011 69 10000 1.5 110 18:18 06.10.2019
6476 Clouds 27 1011 69 10000 1.5 110 18:18 06.10.2019
6477 Clouds 27 1011 69 10000 1.5 110 18:18 06.10.2019
6478 Clouds 27 1012 74 10000 2.1 90 17:42 06.10.2019
6479 Clouds 27 1012 74 10000 2.1 90 17:20 06.10.2019
6480 Clouds 27 1012 74 10000 2.1 90 17:20 06.10.2019
6481 Clouds 27 1012 74 10000 2.1 90 17:20 06.10.2019
6482 Clouds 27 1012 78 10000 1.5 90 16:55 06.10.2019
6483 Clouds 27 1012 78 10000 1.5 90 16:37 06.10.2019
6484 Clouds 27 1012 78 10000 1.5 90 16:18 06.10.2019
6485 Clouds 28 1012 74 10000 1.5 100 15:43 06.10.2019
6486 Clouds 28 1012 74 10000 1.5 100 15:21 06.10.2019
6487 Clouds 28 1011 74 10000 2.1 100 14:44 06.10.2019
6488 Clouds 28 1011 74 10000 2.1 100 14:26 06.10.2019
6489 Clouds 29 1010 70 10000 2.6 110 13:59 06.10.2019
6490 Clouds 29 1010 70 10000 2.6 110 13:40 06.10.2019
6491 Clouds 29 1010 70 10000 2.6 110 13:22 06.10.2019
6492 Clouds 29 1010 70 10000 3.1 100 12:58 06.10.2019
6493 Clouds 29 1010 70 10000 3.1 100 12:39 06.10.2019
6494 Clouds 29 1010 70 10000 3.1 100 12:21 06.10.2019
6495 Rain 30 1009 62 10000 3.6 100 11:58 06.10.2019
6496 Rain 30 1009 62 10000 3.6 100 11:39 06.10.2019
6497 Rain 30 1009 62 10000 3.6 100 11:21 06.10.2019
6498 Rain 30 1009 66 10000 4.6 60 10:54 06.10.2019
6499 Rain 30 1009 66 10000 4.6 60 10:36 06.10.2019
6500 Rain 30 1009 66 10000 4.6 60 10:18 06.10.2019
6501 Rain 31 1008 62 0 4.6 80 09:41 06.10.2019
6502 Rain 31 1008 62 0 4.6 80 09:19 06.10.2019
6503 Clouds 32 1008 56 10000 4.6 110 08:47 06.10.2019
6504 Clouds 33 1008 56 10000 4.6 110 08:21 06.10.2019
6505 Clouds 33 1009 63 10000 4.1 130 07:57 06.10.2019
6506 Clouds 33 1009 63 10000 4.1 130 07:38 06.10.2019
6507 Clouds 32 1010 63 10000 4.1 110 06:32 06.10.2019
6508 Clouds 32 1011 66 10000 3.1 110 05:35 06.10.2019
6509 Clouds 32 1012 66 10000 3.6 90 04:27 06.10.2019
6510 Clouds 30 1012 74 10000 2.1 80 02:47 06.10.2019
6511 Clouds 30 1012 74 10000 2.1 80 02:27 06.10.2019
6512 Clouds 28 1011 83 6000 2.1 70 01:46 06.10.2019
6513 Clouds 28 1011 83 6000 2.1 70 01:27 06.10.2019
6514 Clouds 26 1010 94 7000 2.1 70 00:57 06.10.2019
6515 Clouds 26 1010 94 7000 2.1 70 00:57 06.10.2019
6516 Clouds 26 1010 94 7000 2.1 70 00:28 06.10.2019
6517 Clouds 26 1009 88 8000 1 0 23:45 05.10.2019
6518 Clouds 26 1009 88 8000 1 0 23:23 05.10.2019
6519 Clouds 26 1009 88 9000 0.5 0 22:59 05.10.2019
6520 Clouds 26 1009 88 9000 0.5 0 22:40 05.10.2019
6521 Clouds 26 1009 88 9000 0.5 0 22:20 05.10.2019
6522 Clouds 26 1009 88 9000 0.5 0 21:57 05.10.2019
6523 Clouds 26 1009 88 9000 0.5 0 21:39 05.10.2019
6524 Clouds 26 1009 88 9000 0.5 0 21:39 05.10.2019
6525 Clouds 26 1009 88 9000 0.5 0 21:20 05.10.2019
6526 Clouds 27 1010 83 8000 1 0 20:56 05.10.2019
6527 Clouds 27 1010 83 8000 1 0 20:38 05.10.2019
6528 Clouds 27 1010 83 8000 1 0 20:19 05.10.2019
6529 Clouds 27 1010 83 8000 1 0 20:19 05.10.2019
6530 Clouds 27 1010 83 8000 1 0 20:19 05.10.2019
6531 Clouds 27 1010 83 9000 1 0 19:38 05.10.2019
6532 Clouds 27 1010 83 9000 1 0 19:20 05.10.2019
6533 Clouds 27 1010 83 9000 0.5 0 18:56 05.10.2019
6534 Clouds 27 1010 83 9000 0.5 0 18:38 05.10.2019
6535 Clouds 27 1010 83 9000 0.5 0 18:20 05.10.2019
6536 Clouds 27 1011 83 9000 1 0 17:46 05.10.2019
6537 Clouds 27 1011 83 9000 1 0 17:27 05.10.2019
6538 Clouds 27 1011 78 10000 1 0 16:59 05.10.2019
6539 Clouds 27 1011 78 10000 1 0 16:41 05.10.2019
6540 Clouds 27 1011 78 10000 1 0 16:21 05.10.2019
6541 Clouds 28 1011 78 10000 1 0 15:57 05.10.2019
6542 Clouds 28 1011 78 10000 1 0 15:38 05.10.2019
6543 Clouds 28 1011 78 10000 1 0 15:20 05.10.2019
6544 Clouds 28 1011 78 10000 1.5 200 14:44 05.10.2019
6545 Clouds 28 1011 78 10000 1.5 200 14:26 05.10.2019
6546 Clouds 28 1011 78 10000 1.5 200 14:26 05.10.2019
6547 Clouds 28 1010 74 10000 2.1 230 13:59 05.10.2019
6548 Clouds 29 1010 74 10000 2.1 230 13:40 05.10.2019
6549 Clouds 29 1010 74 10000 2.1 230 13:20 05.10.2019
6550 Clouds 29 1009 79 10000 3.1 260 12:44 05.10.2019
6551 Clouds 29 1009 79 10000 3.1 260 12:20 05.10.2019
6552 Clouds 30 1008 74 10000 3.1 270 11:44 05.10.2019
6553 Clouds 30 1008 74 10000 3.1 270 11:21 05.10.2019
6554 Clouds 29 1008 79 10000 3.6 240 10:58 05.10.2019
6555 Clouds 29 1008 79 10000 3.6 240 10:40 05.10.2019
6556 Clouds 29 1008 79 10000 3.6 240 10:21 05.10.2019
6557 Clouds 29 1008 74 10000 4.6 260 09:55 05.10.2019
6558 Clouds 29 1008 74 10000 4.6 260 09:37 05.10.2019
6559 Clouds 29 1008 74 10000 4.6 260 09:18 05.10.2019
6560 Clouds 30 1008 74 10000 5.1 260 08:39 05.10.2019
6561 Clouds 30 1008 74 10000 5.1 260 08:19 05.10.2019
6562 Clouds 30 1009 74 10000 4.6 270 07:52 05.10.2019
6563 Clouds 30 1009 74 10000 4.6 270 07:30 05.10.2019
6564 Clouds 31 1010 70 10000 2.6 0 06:56 05.10.2019
6565 Clouds 32 1010 70 10000 2.6 0 06:23 05.10.2019
6566 Clouds 32 1010 62 10000 2.6 210 05:39 05.10.2019
6567 Clouds 30 1011 74 10000 2.6 0 03:32 05.10.2019
6568 Clouds 30 1011 74 10000 1.5 0 02:38 05.10.2019
6569 Clouds 27 1010 78 7000 1 130 01:27 05.10.2019
6570 Clouds 26 1010 88 8000 1 0 00:49 05.10.2019
6571 Clouds 26 1010 88 8000 1 0 00:49 05.10.2019
6572 Clouds 25 1010 88 8000 1 0 00:28 05.10.2019
6573 Clouds 25 1010 88 9000 1 0 23:58 04.10.2019
6574 Clouds 25 1010 88 9000 1 0 23:40 04.10.2019
6575 Clouds 25 1010 88 9000 1 0 23:21 04.10.2019
6576 Clouds 25 1009 83 9000 0.5 0 22:56 04.10.2019
6577 Clouds 25 1009 83 9000 0.5 0 22:37 04.10.2019
6578 Clouds 25 1009 83 9000 0.5 0 22:19 04.10.2019
6579 Clouds 26 1009 88 10000 1 70 21:40 04.10.2019
6580 Clouds 26 1009 88 10000 1 70 21:22 04.10.2019
6581 Clouds 26 1009 88 10000 1 0 20:59 04.10.2019
6582 Clouds 26 1009 88 10000 1 0 20:40 04.10.2019
6583 Clouds 26 1009 88 10000 1 0 20:22 04.10.2019
6584 Clouds 26 1010 88 9000 1 0 19:56 04.10.2019
6585 Clouds 26 1010 88 9000 1 0 19:55 04.10.2019
6586 Clouds 26 1010 88 9000 1 0 19:55 04.10.2019
6587 Clouds 26 1010 88 9000 1 0 19:55 04.10.2019
6588 Clouds 26 1010 88 9000 1 0 19:36 04.10.2019
6589 Clouds 26 1010 88 9000 1 0 19:18 04.10.2019
6590 Thunderstorm 26 1010 88 9000 1.5 170 18:39 04.10.2019
6591 Thunderstorm 26 1010 88 9000 1.5 170 18:19 04.10.2019
6592 Thunderstorm 26 1010 88 9000 1 0 17:57 04.10.2019
6593 Thunderstorm 26 1010 88 9000 1 0 17:38 04.10.2019
6594 Rain 26 1010 78 9000 1 0 17:20 04.10.2019
6595 Thunderstorm 27 1011 74 9000 2.6 300 16:55 04.10.2019
6596 Thunderstorm 27 1011 74 9000 2.6 300 16:36 04.10.2019
6597 Thunderstorm 27 1011 74 9000 2.6 300 16:18 04.10.2019
6598 Clouds 27 1010 74 8000 1 120 15:55 04.10.2019
6599 Clouds 27 1010 74 8000 1 120 15:55 04.10.2019
6600 Clouds 27 1010 74 8000 1 120 15:36 04.10.2019
6601 Clouds 27 1010 74 8000 1 120 15:18 04.10.2019
6602 Clouds 27 1010 74 10000 1.5 90 14:42 04.10.2019
6603 Clouds 27 1010 74 10000 1.5 90 14:22 04.10.2019
6604 Clouds 27 1010 78 8000 2.1 100 13:59 04.10.2019
6605 Clouds 27 1010 78 8000 2.1 100 13:40 04.10.2019
6606 Clouds 27 1010 78 8000 2.1 100 13:19 04.10.2019
6607 Clouds 28 1009 78 9000 2.96 335.814 12:45 04.10.2019
6608 Clouds 28 1009 78 9000 2.96 335.814 12:27 04.10.2019
6609 Clouds 28 1009 78 8000 2.1 220 11:55 04.10.2019
6610 Clouds 28 1009 78 8000 2.1 220 11:37 04.10.2019
6611 Clouds 28 1009 78 8000 2.1 220 11:18 04.10.2019
6612 Clouds 28 1008 78 9000 1 0 10:39 04.10.2019
6613 Clouds 28 1008 78 9000 1 0 10:20 04.10.2019
6614 Clouds 28 1008 78 9000 1 0 10:20 04.10.2019
6615 Thunderstorm 28 1008 78 9000 1 0 09:44 04.10.2019
6616 Thunderstorm 27 1008 78 9000 1 0 09:26 04.10.2019
6617 Thunderstorm 27 1008 78 9000 1 0 09:26 04.10.2019
6618 Thunderstorm 27 1009 83 9000 2.6 200 08:55 04.10.2019
6619 Thunderstorm 26 1009 83 9000 2.6 200 08:37 04.10.2019
6620 Thunderstorm 26 1009 83 9000 2.6 200 08:37 04.10.2019
6621 Thunderstorm 27 1009 83 9000 2.6 200 08:18 04.10.2019
6622 Thunderstorm 25 1009 83 800 6.2 110 07:42 04.10.2019
6623 Clouds 29 1009 66 10000 4.1 280 07:20 04.10.2019
6624 Clouds 32 1010 70 10000 2.6 300 06:41 04.10.2019
6625 Clouds 31 1010 70 10000 2.6 300 06:22 04.10.2019
6626 Clouds 31 1010 70 10000 2.6 300 06:22 04.10.2019
6627 Clouds 30 1011 74 10000 3.6 280 05:23 04.10.2019
6628 Clouds 31 1011 74 10000 3.1 280 04:54 04.10.2019
6629 Clouds 31 1011 66 10000 1.5 100 03:42 04.10.2019
6630 Clouds 30 1011 74 9000 1 0 02:53 04.10.2019
6631 Clouds 30 1011 74 9000 1 0 02:53 04.10.2019
6632 Clouds 28 1011 78 9000 1 0 01:54 04.10.2019
6633 Clouds 28 1011 78 9000 1 0 01:27 04.10.2019
6634 Clouds 26 1011 83 10000 1 0 00:44 04.10.2019
6635 Clouds 25 1010 83 10000 1 0 23:42 03.10.2019
6636 Clouds 25 1010 83 10000 1 0 23:22 03.10.2019
6637 Clouds 26 1010 83 10000 1 70 22:58 03.10.2019
6638 Clouds 25 1010 83 10000 1 70 22:40 03.10.2019
6639 Clouds 25 1010 83 10000 1 70 22:40 03.10.2019
6640 Clouds 25 1010 83 10000 1 70 22:21 03.10.2019
6641 Clouds 25 1010 83 10000 1 70 21:59 03.10.2019
6642 Clouds 26 1010 83 10000 1 70 21:40 03.10.2019
6643 Clouds 26 1010 83 10000 1 70 21:21 03.10.2019
6644 Clouds 26 1010 83 10000 1 70 20:58 03.10.2019
6645 Clouds 26 1010 83 10000 1 70 20:40 03.10.2019
6646 Clouds 26 1010 83 10000 1 70 20:22 03.10.2019
6647 Clouds 26 1011 78 10000 0.5 0 19:59 03.10.2019
6648 Clouds 26 1011 78 10000 0.5 0 19:59 03.10.2019
6649 Clouds 26 1011 78 10000 0.5 0 19:40 03.10.2019
6650 Clouds 26 1011 78 10000 0.5 0 19:20 03.10.2019
6651 Clouds 27 1011 74 10000 1 0 18:57 03.10.2019
6652 Clouds 27 1011 74 10000 1 0 18:38 03.10.2019
6653 Clouds 26 1011 74 10000 1 0 18:19 03.10.2019
6654 Clouds 26 1012 74 10000 1.5 0 17:42 03.10.2019
6655 Clouds 26 1012 74 10000 1.5 0 17:23 03.10.2019
6656 Clouds 26 1012 74 10000 1.5 0 17:23 03.10.2019
6657 Clouds 26 1012 74 10000 0.5 0 16:58 03.10.2019
6658 Clouds 26 1012 74 10000 0.5 0 16:40 03.10.2019
6659 Clouds 26 1012 74 10000 0.5 0 16:21 03.10.2019
6660 Clouds 26 1012 69 10000 3.1 10 15:54 03.10.2019
6661 Clouds 27 1012 69 10000 3.1 10 15:36 03.10.2019
6662 Clouds 26 1012 69 10000 3.1 10 15:18 03.10.2019
6663 Clouds 26 1011 74 10000 4.1 10 14:39 03.10.2019
6664 Clouds 26 1011 74 10000 4.1 10 14:20 03.10.2019
6665 -273 0 0 0 0 0 13:55 03.10.2019
6666 Clouds 27 1011 70 10000 3.6 310 13:36 03.10.2019
6667 Clouds 27 1011 70 10000 3.6 310 13:18 03.10.2019
6668 Clouds 29 1010 66 10000 3.1 280 12:40 03.10.2019
6669 Clouds 29 1010 66 10000 3.1 280 12:20 03.10.2019
6670 Clouds 29 1010 66 10000 3.1 280 12:20 03.10.2019
6671 Clouds 29 1010 58 10000 4.1 260 11:59 03.10.2019
6672 Clouds 29 1010 58 10000 4.1 260 11:59 03.10.2019
6673 Clouds 30 1010 58 10000 4.1 260 11:40 03.10.2019
6674 Clouds 31 1010 58 10000 4.1 260 11:21 03.10.2019
6675 Clouds 31 1009 55 10000 3.1 270 10:58 03.10.2019
6676 Clouds 31 1009 55 10000 3.1 270 10:39 03.10.2019
6677 Clouds 32 1009 55 10000 3.1 270 10:18 03.10.2019
6678 Clouds 31 1009 58 10000 4.1 280 09:56 03.10.2019
6679 Clouds 32 1009 58 10000 4.1 280 09:38 03.10.2019
6680 Clouds 32 1009 58 10000 4.1 280 09:19 03.10.2019
6681 Clouds 32 1009 55 10000 4.1 270 08:43 03.10.2019
6682 Clouds 32 1009 55 10000 4.1 270 08:24 03.10.2019
6683 Clouds 32 1009 55 10000 4.1 270 08:24 03.10.2019
6684 Clouds 32 1009 55 10000 4.1 270 08:24 03.10.2019
6685 Clouds 32 1010 55 10000 4.6 280 07:45 03.10.2019
6686 Clouds 31 1010 55 10000 4.6 280 07:20 03.10.2019
6687 Clouds 31 1010 55 10000 4.6 280 07:20 03.10.2019
6688 Clouds 31 101